<?xml version='1.0' encoding='UTF-8'?><gpx version="1.1" creator="JPX - https://github.com/jenetics/jpx" xmlns="http://www.topografix.com/GPX/1/1"><trk><trkseg><trkpt lat="45.30586938630323" lon="8.747761391546208"><ele>115.16666666666667</ele><time>2026-05-03T13:37:03Z</time></trkpt><trkpt lat="45.30581527359648" lon="8.747657380578834"><ele>115.33333333333334</ele><time>2026-05-03T13:37:06Z</time></trkpt><trkpt lat="45.30581089113831" lon="8.74748224796857"><ele>115.5</ele><time>2026-05-03T13:37:08Z</time></trkpt><trkpt lat="45.30581369536316" lon="8.74738812226176"><ele>115.66666666666666</ele><time>2026-05-03T13:37:09Z</time></trkpt><trkpt lat="45.305814644751436" lon="8.747273962095743"><ele>115.83333333333333</ele><time>2026-05-03T13:37:10Z</time></trkpt><trkpt lat="45.30581176585589" lon="8.747151214644846"><ele>116.0</ele><time>2026-05-03T13:37:11Z</time></trkpt><trkpt lat="45.305808297657265" lon="8.747030909469746"><ele>116.0</ele><time>2026-05-03T13:37:12Z</time></trkpt><trkpt lat="45.30580647213861" lon="8.7469020906301"><ele>116.0</ele><time>2026-05-03T13:37:13Z</time></trkpt><trkpt lat="45.30580316538449" lon="8.746772412615474"><ele>116.0</ele><time>2026-05-03T13:37:14Z</time></trkpt><trkpt lat="45.30579596280372" lon="8.746639187084764"><ele>116.0</ele><time>2026-05-03T13:37:15Z</time></trkpt><trkpt lat="45.30578408541895" lon="8.746500255905055"><ele>116.0</ele><time>2026-05-03T13:37:16Z</time></trkpt><trkpt lat="45.305770213623425" lon="8.74635471501107"><ele>115.8</ele><time>2026-05-03T13:37:17Z</time></trkpt><trkpt lat="45.30575738712626" lon="8.74621076232805"><ele>115.6</ele><time>2026-05-03T13:37:18Z</time></trkpt><trkpt lat="45.30574346200647" lon="8.746069556843041"><ele>115.4</ele><time>2026-05-03T13:37:19Z</time></trkpt><trkpt lat="45.30573231888971" lon="8.745934737075697"><ele>115.2</ele><time>2026-05-03T13:37:20Z</time></trkpt><trkpt lat="45.3057235395313" lon="8.74579834043029"><ele>115.0</ele><time>2026-05-03T13:37:21Z</time></trkpt><trkpt lat="45.305714946664374" lon="8.74566997579216"><ele>115.0</ele><time>2026-05-03T13:37:22Z</time></trkpt><trkpt lat="45.305708771298" lon="8.745556361125718"><ele>115.0</ele><time>2026-05-03T13:37:23Z</time></trkpt><trkpt lat="45.305703554191965" lon="8.745459600035822"><ele>115.0</ele><time>2026-05-03T13:37:24Z</time></trkpt><trkpt lat="45.305692012849185" lon="8.7453048074512"><ele>115.0</ele><time>2026-05-03T13:37:26Z</time></trkpt><trkpt lat="45.30567463458625" lon="8.745119026532736"><ele>115.0</ele><time>2026-05-03T13:37:28Z</time></trkpt><trkpt lat="45.30566353724393" lon="8.744997308767097"><ele>115.0</ele><time>2026-05-03T13:37:29Z</time></trkpt><trkpt lat="45.305652305640265" lon="8.744861438357905"><ele>115.0</ele><time>2026-05-03T13:37:30Z</time></trkpt><trkpt lat="45.30564582351138" lon="8.74470831369427"><ele>115.0</ele><time>2026-05-03T13:37:31Z</time></trkpt><trkpt lat="45.30563798814895" lon="8.744515908748866"><ele>115.0</ele><time>2026-05-03T13:37:32Z</time></trkpt><trkpt lat="45.30560888679741" lon="8.744341714105085"><ele>115.0</ele><time>2026-05-03T13:37:33Z</time></trkpt><trkpt lat="45.30558416460341" lon="8.74414666204831"><ele>115.0</ele><time>2026-05-03T13:37:34Z</time></trkpt><trkpt lat="45.30557779662315" lon="8.743954496288815"><ele>115.0</ele><time>2026-05-03T13:37:35Z</time></trkpt><trkpt lat="45.30555617962658" lon="8.743746887009179"><ele>115.0</ele><time>2026-05-03T13:37:36Z</time></trkpt><trkpt lat="45.30552888666623" lon="8.743629713513103"><ele>114.75</ele><time>2026-05-03T13:37:37Z</time></trkpt><trkpt lat="45.30550387365784" lon="8.743438933307035"><ele>114.5</ele><time>2026-05-03T13:37:38Z</time></trkpt><trkpt lat="45.305475826476304" lon="8.743246289102748"><ele>114.25</ele><time>2026-05-03T13:37:39Z</time></trkpt><trkpt lat="45.305452422552" lon="8.74305755192975"><ele>114.0</ele><time>2026-05-03T13:37:40Z</time></trkpt><trkpt lat="45.30542835624463" lon="8.742888778811219"><ele>114.0</ele><time>2026-05-03T13:37:41Z</time></trkpt><trkpt lat="45.305402153640166" lon="8.742718737790375"><ele>114.0</ele><time>2026-05-03T13:37:42Z</time></trkpt><trkpt lat="45.30537709771923" lon="8.742548831317105"><ele>114.0</ele><time>2026-05-03T13:37:43Z</time></trkpt><trkpt lat="45.305352604954976" lon="8.74237979579008"><ele>114.0</ele><time>2026-05-03T13:37:44Z</time></trkpt><trkpt lat="45.30532770839759" lon="8.742212018105946"><ele>114.0</ele><time>2026-05-03T13:37:45Z</time></trkpt><trkpt lat="45.30530503872255" lon="8.742045869269022"><ele>114.0</ele><time>2026-05-03T13:37:46Z</time></trkpt><trkpt lat="45.3052851018531" lon="8.74187313105389"><ele>114.0</ele><time>2026-05-03T13:37:47Z</time></trkpt><trkpt lat="45.30526055918665" lon="8.741697768549061"><ele>114.0</ele><time>2026-05-03T13:37:48Z</time></trkpt><trkpt lat="45.305236802359104" lon="8.741530071594699"><ele>114.0</ele><time>2026-05-03T13:37:49Z</time></trkpt><trkpt lat="45.305214006646814" lon="8.741358247946671"><ele>114.0</ele><time>2026-05-03T13:37:50Z</time></trkpt><trkpt lat="45.30519145913732" lon="8.741182170585944"><ele>114.0</ele><time>2026-05-03T13:37:51Z</time></trkpt><trkpt lat="45.305170352610844" lon="8.741001427519532"><ele>114.0</ele><time>2026-05-03T13:37:52Z</time></trkpt><trkpt lat="45.305154037032736" lon="8.740818414831876"><ele>113.75</ele><time>2026-05-03T13:37:53Z</time></trkpt><trkpt lat="45.30513888320222" lon="8.740631661426965"><ele>113.5</ele><time>2026-05-03T13:37:54Z</time></trkpt><trkpt lat="45.30512373065245" lon="8.740444391450426"><ele>113.25</ele><time>2026-05-03T13:37:55Z</time></trkpt><trkpt lat="45.305111333789924" lon="8.740265517353482"><ele>113.0</ele><time>2026-05-03T13:37:56Z</time></trkpt><trkpt lat="45.30509970171178" lon="8.740083533415302"><ele>113.0</ele><time>2026-05-03T13:37:57Z</time></trkpt><trkpt lat="45.3050863045811" lon="8.739897428749774"><ele>113.0</ele><time>2026-05-03T13:37:58Z</time></trkpt><trkpt lat="45.30507330839837" lon="8.739713173133941"><ele>113.0</ele><time>2026-05-03T13:37:59Z</time></trkpt><trkpt lat="45.3050606108136" lon="8.739529903272851"><ele>113.0</ele><time>2026-05-03T13:38:00Z</time></trkpt><trkpt lat="45.305048271940436" lon="8.7393501377515"><ele>114.0</ele><time>2026-05-03T13:38:01Z</time></trkpt><trkpt lat="45.30503582431683" lon="8.739168065860586"><ele>115.0</ele><time>2026-05-03T13:38:02Z</time></trkpt><trkpt lat="45.305023913455926" lon="8.738980758340578"><ele>116.0</ele><time>2026-05-03T13:38:03Z</time></trkpt><trkpt lat="45.305018838903585" lon="8.738802408397483"><ele>117.0</ele><time>2026-05-03T13:38:04Z</time></trkpt><trkpt lat="45.3050127014191" lon="8.738612389471184"><ele>117.75</ele><time>2026-05-03T13:38:05Z</time></trkpt><trkpt lat="45.305014320017115" lon="8.738423076859302"><ele>118.5</ele><time>2026-05-03T13:38:06Z</time></trkpt><trkpt lat="45.3050195711205" lon="8.738229905608831"><ele>119.25</ele><time>2026-05-03T13:38:07Z</time></trkpt><trkpt lat="45.305027402936695" lon="8.738031907954932"><ele>120.0</ele><time>2026-05-03T13:38:08Z</time></trkpt><trkpt lat="45.305031603549494" lon="8.737831967555229"><ele>119.0</ele><time>2026-05-03T13:38:09Z</time></trkpt><trkpt lat="45.30503577952216" lon="8.737629575847741"><ele>118.0</ele><time>2026-05-03T13:38:10Z</time></trkpt><trkpt lat="45.30503966580095" lon="8.737424768225319"><ele>117.0</ele><time>2026-05-03T13:38:11Z</time></trkpt><trkpt lat="45.30504057468249" lon="8.737208073023876"><ele>116.0</ele><time>2026-05-03T13:38:12Z</time></trkpt><trkpt lat="45.30503354638758" lon="8.737006673852528"><ele>115.0</ele><time>2026-05-03T13:38:13Z</time></trkpt><trkpt lat="45.3050181660837" lon="8.736793744145558"><ele>114.0</ele><time>2026-05-03T13:38:14Z</time></trkpt><trkpt lat="45.30500330503929" lon="8.736584178890515"><ele>113.0</ele><time>2026-05-03T13:38:15Z</time></trkpt><trkpt lat="45.304995887824965" lon="8.736399248394001"><ele>112.0</ele><time>2026-05-03T13:38:16Z</time></trkpt><trkpt lat="45.30498504339072" lon="8.73619257329654"><ele>112.0</ele><time>2026-05-03T13:38:17Z</time></trkpt><trkpt lat="45.30497031660938" lon="8.7359855484694"><ele>112.0</ele><time>2026-05-03T13:38:18Z</time></trkpt><trkpt lat="45.304959692085134" lon="8.735778268676713"><ele>112.0</ele><time>2026-05-03T13:38:19Z</time></trkpt><trkpt lat="45.304949405362485" lon="8.73557512136519"><ele>112.0</ele><time>2026-05-03T13:38:20Z</time></trkpt><trkpt lat="45.30493862666349" lon="8.735371528341663"><ele>112.0</ele><time>2026-05-03T13:38:21Z</time></trkpt><trkpt lat="45.30492030499569" lon="8.735166349543782"><ele>112.0</ele><time>2026-05-03T13:38:22Z</time></trkpt><trkpt lat="45.30490566759233" lon="8.73495895661022"><ele>112.0</ele><time>2026-05-03T13:38:23Z</time></trkpt><trkpt lat="45.304887413026044" lon="8.734754543046604"><ele>112.0</ele><time>2026-05-03T13:38:24Z</time></trkpt><trkpt lat="45.30487726045742" lon="8.734552630713097"><ele>111.75</ele><time>2026-05-03T13:38:25Z</time></trkpt><trkpt lat="45.304864335395244" lon="8.734347461828676"><ele>111.5</ele><time>2026-05-03T13:38:26Z</time></trkpt><trkpt lat="45.30485518351201" lon="8.734150267369232"><ele>111.25</ele><time>2026-05-03T13:38:27Z</time></trkpt><trkpt lat="45.304843619029754" lon="8.733949104486882"><ele>111.0</ele><time>2026-05-03T13:38:28Z</time></trkpt><trkpt lat="45.30483152422422" lon="8.73375782536753"><ele>111.0</ele><time>2026-05-03T13:38:29Z</time></trkpt><trkpt lat="45.304818923727886" lon="8.733566383692802"><ele>111.0</ele><time>2026-05-03T13:38:30Z</time></trkpt><trkpt lat="45.30480790074081" lon="8.733382120967137"><ele>111.0</ele><time>2026-05-03T13:38:31Z</time></trkpt><trkpt lat="45.304795879173454" lon="8.733213891287152"><ele>111.0</ele><time>2026-05-03T13:38:32Z</time></trkpt><trkpt lat="45.30478505982391" lon="8.733054447671032"><ele>111.19999999999999</ele><time>2026-05-03T13:38:33Z</time></trkpt><trkpt lat="45.304775200074104" lon="8.732918995363926"><ele>111.39999999999999</ele><time>2026-05-03T13:38:34Z</time></trkpt><trkpt lat="45.30476717973064" lon="8.732809853175045"><ele>111.6</ele><time>2026-05-03T13:38:35Z</time></trkpt><trkpt lat="45.30476129089213" lon="8.73272049898101"><ele>111.8</ele><time>2026-05-03T13:38:36Z</time></trkpt><trkpt lat="45.30475558647964" lon="8.732619973131523"><ele>112.0</ele><time>2026-05-03T13:38:38Z</time></trkpt><trkpt lat="45.30458110979472" lon="8.732624414659815"><ele>111.66666666666667</ele><time>2026-05-03T13:38:50Z</time></trkpt><trkpt lat="45.304516426453105" lon="8.732615152236622"><ele>111.33333333333334</ele><time>2026-05-03T13:38:51Z</time></trkpt><trkpt lat="45.304452741553895" lon="8.73260206231069"><ele>111.0</ele><time>2026-05-03T13:38:52Z</time></trkpt><trkpt lat="45.30433189681602" lon="8.73260417564736"><ele>110.66666666666666</ele><time>2026-05-03T13:38:54Z</time></trkpt><trkpt lat="45.304267540941474" lon="8.732595740215793"><ele>110.33333333333333</ele><time>2026-05-03T13:38:55Z</time></trkpt><trkpt lat="45.30414151420253" lon="8.732605319228666"><ele>110.0</ele><time>2026-05-03T13:38:57Z</time></trkpt><trkpt lat="45.30407303887876" lon="8.732613235599189"><ele>110.0</ele><time>2026-05-03T13:38:58Z</time></trkpt><trkpt lat="45.30400570002968" lon="8.732619862408795"><ele>110.0</ele><time>2026-05-03T13:38:59Z</time></trkpt><trkpt lat="45.303937314790666" lon="8.732627247487441"><ele>110.0</ele><time>2026-05-03T13:39:00Z</time></trkpt><trkpt lat="45.30387134287113" lon="8.73263575315131"><ele>110.0</ele><time>2026-05-03T13:39:01Z</time></trkpt><trkpt lat="45.30374590842505" lon="8.732649218422951"><ele>110.0</ele><time>2026-05-03T13:39:03Z</time></trkpt><trkpt lat="45.303617322502866" lon="8.732657562016488"><ele>109.99999999999999</ele><time>2026-05-03T13:39:05Z</time></trkpt><trkpt lat="45.303542657956406" lon="8.732657368109814"><ele>110.0</ele><time>2026-05-03T13:39:06Z</time></trkpt><trkpt lat="45.30346293546094" lon="8.732649845510986"><ele>110.0</ele><time>2026-05-03T13:39:07Z</time></trkpt><trkpt lat="45.303383529837745" lon="8.732648817674875"><ele>110.0</ele><time>2026-05-03T13:39:08Z</time></trkpt><trkpt lat="45.303297636204015" lon="8.732638018249505"><ele>109.99999999999999</ele><time>2026-05-03T13:39:09Z</time></trkpt><trkpt lat="45.30321547161237" lon="8.732629647646927"><ele>110.0</ele><time>2026-05-03T13:39:10Z</time></trkpt><trkpt lat="45.30313499293621" lon="8.732618047618615"><ele>110.2</ele><time>2026-05-03T13:39:11Z</time></trkpt><trkpt lat="45.303049238078565" lon="8.732607359070471"><ele>110.4</ele><time>2026-05-03T13:39:12Z</time></trkpt><trkpt lat="45.30295859096433" lon="8.732588248268922"><ele>110.6</ele><time>2026-05-03T13:39:13Z</time></trkpt><trkpt lat="45.30286614203837" lon="8.732566530376419"><ele>110.8</ele><time>2026-05-03T13:39:14Z</time></trkpt><trkpt lat="45.30276941397326" lon="8.732537113023206"><ele>111.0</ele><time>2026-05-03T13:39:15Z</time></trkpt><trkpt lat="45.30267323929337" lon="8.73250874861122"><ele>111.0</ele><time>2026-05-03T13:39:16Z</time></trkpt><trkpt lat="45.302592849944276" lon="8.73248486328455"><ele>111.0</ele><time>2026-05-03T13:39:17Z</time></trkpt><trkpt lat="45.3025155483454" lon="8.732459093748846"><ele>111.0</ele><time>2026-05-03T13:39:18Z</time></trkpt><trkpt lat="45.302436828563295" lon="8.732431712169218"><ele>111.0</ele><time>2026-05-03T13:39:19Z</time></trkpt><trkpt lat="45.302368681172815" lon="8.732422080400315"><ele>111.0</ele><time>2026-05-03T13:39:20Z</time></trkpt><trkpt lat="45.30224081825365" lon="8.732428508801922"><ele>111.0</ele><time>2026-05-03T13:39:22Z</time></trkpt><trkpt lat="45.30216873080782" lon="8.732459164734365"><ele>111.16666666666667</ele><time>2026-05-03T13:39:23Z</time></trkpt><trkpt lat="45.30209485631194" lon="8.732504000381523"><ele>111.33333333333334</ele><time>2026-05-03T13:39:24Z</time></trkpt><trkpt lat="45.30203532796578" lon="8.732542066788099"><ele>111.5</ele><time>2026-05-03T13:39:25Z</time></trkpt><trkpt lat="45.30191936966574" lon="8.73260362024258"><ele>111.66666666666667</ele><time>2026-05-03T13:39:27Z</time></trkpt><trkpt lat="45.30185013575152" lon="8.732630201184232"><ele>111.83333333333334</ele><time>2026-05-03T13:39:28Z</time></trkpt><trkpt lat="45.30178123637979" lon="8.73266244713128"><ele>112.0</ele><time>2026-05-03T13:39:29Z</time></trkpt><trkpt lat="45.3017082639224" lon="8.732700065984712"><ele>112.00000000000001</ele><time>2026-05-03T13:39:30Z</time></trkpt><trkpt lat="45.301642483916964" lon="8.732737877567699"><ele>112.0</ele><time>2026-05-03T13:39:31Z</time></trkpt><trkpt lat="45.301581854483935" lon="8.732768413367639"><ele>112.0</ele><time>2026-05-03T13:39:32Z</time></trkpt><trkpt lat="45.30148291455624" lon="8.732821154748926"><ele>112.0</ele><time>2026-05-03T13:39:34Z</time></trkpt><trkpt lat="45.301414192549096" lon="8.732853345882985"><ele>112.00000000000001</ele><time>2026-05-03T13:39:36Z</time></trkpt><trkpt lat="45.301346836469556" lon="8.73288866309958"><ele>112.0</ele><time>2026-05-03T13:39:40Z</time></trkpt><trkpt lat="45.30128531666772" lon="8.732921958328028"><ele>112.0</ele><time>2026-05-03T13:40:17Z</time></trkpt><trkpt lat="45.30134940070139" lon="8.73291431841926"><ele>111.99999999999999</ele><time>2026-05-03T13:40:57Z</time></trkpt><trkpt lat="45.30147067609351" lon="8.73285308475839"><ele>111.99999999999999</ele><time>2026-05-03T13:41:31Z</time></trkpt><trkpt lat="45.30157510939738" lon="8.732793801489352"><ele>112.0</ele><time>2026-05-03T13:41:33Z</time></trkpt><trkpt lat="45.30167169199084" lon="8.73274414825284"><ele>112.0</ele><time>2026-05-03T13:41:35Z</time></trkpt><trkpt lat="45.30178267766043" lon="8.732686235004811"><ele>112.00000000000001</ele><time>2026-05-03T13:41:37Z</time></trkpt><trkpt lat="45.301888354588954" lon="8.7326280556513"><ele>112.0</ele><time>2026-05-03T13:41:39Z</time></trkpt><trkpt lat="45.30200916218294" lon="8.73257162227913"><ele>112.0</ele><time>2026-05-03T13:41:41Z</time></trkpt><trkpt lat="45.30207278580104" lon="8.732539122664862"><ele>112.0</ele><time>2026-05-03T13:41:42Z</time></trkpt><trkpt lat="45.30213427506901" lon="8.732504185314577"><ele>112.00000000000001</ele><time>2026-05-03T13:41:43Z</time></trkpt><trkpt lat="45.30219841617182" lon="8.732468731160395"><ele>112.0</ele><time>2026-05-03T13:41:44Z</time></trkpt><trkpt lat="45.30230482545694" lon="8.732433724965452"><ele>111.8</ele><time>2026-05-03T13:41:46Z</time></trkpt><trkpt lat="45.30242722450272" lon="8.732447801071936"><ele>111.6</ele><time>2026-05-03T13:41:48Z</time></trkpt><trkpt lat="45.302506062600095" lon="8.732462921287302"><ele>111.39999999999999</ele><time>2026-05-03T13:41:49Z</time></trkpt><trkpt lat="45.30260454673127" lon="8.732500829836695"><ele>111.19999999999999</ele><time>2026-05-03T13:41:50Z</time></trkpt><trkpt lat="45.30269068376121" lon="8.732519956470941"><ele>111.0</ele><time>2026-05-03T13:41:51Z</time></trkpt><trkpt lat="45.30277352888573" lon="8.732549673942662"><ele>111.0</ele><time>2026-05-03T13:41:52Z</time></trkpt><trkpt lat="45.30285505379263" lon="8.732578807539284"><ele>111.0</ele><time>2026-05-03T13:41:53Z</time></trkpt><trkpt lat="45.30293380076988" lon="8.732596229560723"><ele>111.0</ele><time>2026-05-03T13:41:54Z</time></trkpt><trkpt lat="45.30302301108553" lon="8.732613551957947"><ele>111.0</ele><time>2026-05-03T13:41:55Z</time></trkpt><trkpt lat="45.30311752731788" lon="8.732630206065748"><ele>111.0</ele><time>2026-05-03T13:41:56Z</time></trkpt><trkpt lat="45.303208860674225" lon="8.732645223366022"><ele>111.0</ele><time>2026-05-03T13:41:57Z</time></trkpt><trkpt lat="45.30329428066278" lon="8.73264927194368"><ele>110.83333333333333</ele><time>2026-05-03T13:41:58Z</time></trkpt><trkpt lat="45.30337267076208" lon="8.732658625617379"><ele>110.66666666666666</ele><time>2026-05-03T13:41:59Z</time></trkpt><trkpt lat="45.30346286931281" lon="8.73266822243873"><ele>110.5</ele><time>2026-05-03T13:42:00Z</time></trkpt><trkpt lat="45.303547638692066" lon="8.732672834342697"><ele>110.33333333333333</ele><time>2026-05-03T13:42:01Z</time></trkpt><trkpt lat="45.30363934138939" lon="8.732678325012008"><ele>110.16666666666666</ele><time>2026-05-03T13:42:02Z</time></trkpt><trkpt lat="45.303715581680684" lon="8.732672605681971"><ele>110.0</ele><time>2026-05-03T13:42:03Z</time></trkpt><trkpt lat="45.30378050952308" lon="8.732662099306804"><ele>109.99999999999999</ele><time>2026-05-03T13:42:04Z</time></trkpt><trkpt lat="45.303846834661066" lon="8.73264708241549"><ele>110.0</ele><time>2026-05-03T13:42:05Z</time></trkpt><trkpt lat="45.303924292391336" lon="8.732645011877064"><ele>110.0</ele><time>2026-05-03T13:42:06Z</time></trkpt><trkpt lat="45.30400381910955" lon="8.732633626302373"><ele>110.0</ele><time>2026-05-03T13:42:07Z</time></trkpt><trkpt lat="45.30408198396026" lon="8.732623831934223"><ele>109.99999999999999</ele><time>2026-05-03T13:42:08Z</time></trkpt><trkpt lat="45.304161088086566" lon="8.732617856690977"><ele>110.0</ele><time>2026-05-03T13:42:09Z</time></trkpt><trkpt lat="45.3042423822142" lon="8.73260838431322"><ele>109.99999999999999</ele><time>2026-05-03T13:42:10Z</time></trkpt><trkpt lat="45.30433360957252" lon="8.732605052810708"><ele>110.0</ele><time>2026-05-03T13:42:11Z</time></trkpt><trkpt lat="45.30440840732954" lon="8.732606782644156"><ele>110.0</ele><time>2026-05-03T13:42:12Z</time></trkpt><trkpt lat="45.30448116657784" lon="8.73261171260609"><ele>110.0</ele><time>2026-05-03T13:42:13Z</time></trkpt><trkpt lat="45.30459601692096" lon="8.732626272986634"><ele>109.99999999999999</ele><time>2026-05-03T13:42:15Z</time></trkpt><trkpt lat="45.30468859904918" lon="8.732619642324646"><ele>110.0</ele><time>2026-05-03T13:42:17Z</time></trkpt><trkpt lat="45.304742037034636" lon="8.732548560714942"><ele>110.0</ele><time>2026-05-03T13:42:23Z</time></trkpt><trkpt lat="45.304742248387385" lon="8.732353754563936"><ele>110.0</ele><time>2026-05-03T13:42:25Z</time></trkpt><trkpt lat="45.30473266352994" lon="8.732229518224404"><ele>110.0</ele><time>2026-05-03T13:42:26Z</time></trkpt><trkpt lat="45.30472536265914" lon="8.732117228176222"><ele>110.0</ele><time>2026-05-03T13:42:27Z</time></trkpt><trkpt lat="45.304721663009076" lon="8.732026823732243"><ele>110.0</ele><time>2026-05-03T13:42:28Z</time></trkpt><trkpt lat="45.30470297509087" lon="8.731886882446938"><ele>110.16666666666666</ele><time>2026-05-03T13:42:30Z</time></trkpt><trkpt lat="45.30462542903644" lon="8.731834150401271"><ele>110.33333333333333</ele><time>2026-05-03T13:42:32Z</time></trkpt><trkpt lat="45.30453074858081" lon="8.731790890844701"><ele>110.5</ele><time>2026-05-03T13:42:34Z</time></trkpt><trkpt lat="45.30446876121422" lon="8.731766093801607"><ele>110.66666666666666</ele><time>2026-05-03T13:42:35Z</time></trkpt><trkpt lat="45.30439805596285" lon="8.731749065003696"><ele>110.83333333333333</ele><time>2026-05-03T13:42:36Z</time></trkpt><trkpt lat="45.30432640983101" lon="8.73173453811705"><ele>111.0</ele><time>2026-05-03T13:42:37Z</time></trkpt><trkpt lat="45.304253818404455" lon="8.731725523298055"><ele>111.0</ele><time>2026-05-03T13:42:38Z</time></trkpt><trkpt lat="45.304169822798784" lon="8.731723135457518"><ele>111.0</ele><time>2026-05-03T13:42:39Z</time></trkpt><trkpt lat="45.30407386934393" lon="8.731723000616052"><ele>111.0</ele><time>2026-05-03T13:42:40Z</time></trkpt><trkpt lat="45.303972367111875" lon="8.731721825245314"><ele>111.0</ele><time>2026-05-03T13:42:41Z</time></trkpt><trkpt lat="45.30387051041014" lon="8.731721167737295"><ele>111.0</ele><time>2026-05-03T13:42:42Z</time></trkpt><trkpt lat="45.30376958578408" lon="8.73172445460109"><ele>111.0</ele><time>2026-05-03T13:42:43Z</time></trkpt><trkpt lat="45.30367639585922" lon="8.731724317992217"><ele>111.0</ele><time>2026-05-03T13:42:44Z</time></trkpt><trkpt lat="45.30357727014449" lon="8.731726405961174"><ele>111.0</ele><time>2026-05-03T13:42:45Z</time></trkpt><trkpt lat="45.30347891430365" lon="8.731723512469667"><ele>111.0</ele><time>2026-05-03T13:42:46Z</time></trkpt><trkpt lat="45.303374806147126" lon="8.73172489127447"><ele>111.0</ele><time>2026-05-03T13:42:47Z</time></trkpt><trkpt lat="45.303268195168236" lon="8.731730612562261"><ele>111.0</ele><time>2026-05-03T13:42:48Z</time></trkpt><trkpt lat="45.30316399142731" lon="8.731729482076643"><ele>111.0</ele><time>2026-05-03T13:42:49Z</time></trkpt><trkpt lat="45.30306429206576" lon="8.73173105805754"><ele>111.0</ele><time>2026-05-03T13:42:50Z</time></trkpt><trkpt lat="45.302968113353316" lon="8.731733516627694"><ele>111.0</ele><time>2026-05-03T13:42:51Z</time></trkpt><trkpt lat="45.30288327756715" lon="8.731735399032429"><ele>111.0</ele><time>2026-05-03T13:42:52Z</time></trkpt><trkpt lat="45.30280061846384" lon="8.731734297336054"><ele>110.83333333333333</ele><time>2026-05-03T13:42:53Z</time></trkpt><trkpt lat="45.30271529507415" lon="8.73173665295016"><ele>110.66666666666666</ele><time>2026-05-03T13:42:54Z</time></trkpt><trkpt lat="45.30262146913217" lon="8.731733816558332"><ele>110.5</ele><time>2026-05-03T13:42:55Z</time></trkpt><trkpt lat="45.302540167404544" lon="8.731733729576419"><ele>110.33333333333333</ele><time>2026-05-03T13:42:56Z</time></trkpt><trkpt lat="45.30246857452998" lon="8.731728697948135"><ele>110.16666666666666</ele><time>2026-05-03T13:42:57Z</time></trkpt><trkpt lat="45.302398686671324" lon="8.731713984315201"><ele>110.0</ele><time>2026-05-03T13:42:58Z</time></trkpt><trkpt lat="45.30233093862518" lon="8.731683535276655"><ele>110.0</ele><time>2026-05-03T13:42:59Z</time></trkpt><trkpt lat="45.302262514046994" lon="8.73162955989415"><ele>110.0</ele><time>2026-05-03T13:43:00Z</time></trkpt><trkpt lat="45.30219232382207" lon="8.731561303697438"><ele>110.0</ele><time>2026-05-03T13:43:01Z</time></trkpt><trkpt lat="45.30212264870013" lon="8.731465405948265"><ele>110.0</ele><time>2026-05-03T13:43:02Z</time></trkpt><trkpt lat="45.30205200971743" lon="8.731360504918392"><ele>110.0</ele><time>2026-05-03T13:43:03Z</time></trkpt><trkpt lat="45.301984261136234" lon="8.73125437544855"><ele>110.0</ele><time>2026-05-03T13:43:04Z</time></trkpt><trkpt lat="45.301915077917" lon="8.731134588525642"><ele>110.0</ele><time>2026-05-03T13:43:05Z</time></trkpt><trkpt lat="45.301843368310294" lon="8.731010355959441"><ele>110.0</ele><time>2026-05-03T13:43:06Z</time></trkpt><trkpt lat="45.3017665679472" lon="8.730877008885695"><ele>110.0</ele><time>2026-05-03T13:43:07Z</time></trkpt><trkpt lat="45.3016906768038" lon="8.73074740817467"><ele>110.0</ele><time>2026-05-03T13:43:08Z</time></trkpt><trkpt lat="45.30161492218562" lon="8.730620712278238"><ele>110.0</ele><time>2026-05-03T13:43:09Z</time></trkpt><trkpt lat="45.301535823473664" lon="8.730491165861986"><ele>110.0</ele><time>2026-05-03T13:43:10Z</time></trkpt><trkpt lat="45.30145912056605" lon="8.730362426071375"><ele>110.0</ele><time>2026-05-03T13:43:11Z</time></trkpt><trkpt lat="45.30138416913173" lon="8.730228722373184"><ele>110.0</ele><time>2026-05-03T13:43:12Z</time></trkpt><trkpt lat="45.301304724121266" lon="8.730099438570285"><ele>110.0</ele><time>2026-05-03T13:43:13Z</time></trkpt><trkpt lat="45.30122522129198" lon="8.729976153444932"><ele>110.0</ele><time>2026-05-03T13:43:14Z</time></trkpt><trkpt lat="45.301141896269854" lon="8.729853786631443"><ele>110.0</ele><time>2026-05-03T13:43:15Z</time></trkpt><trkpt lat="45.30105794864662" lon="8.729732194730207"><ele>110.0</ele><time>2026-05-03T13:43:16Z</time></trkpt><trkpt lat="45.30097539848249" lon="8.729610502733053"><ele>110.0</ele><time>2026-05-03T13:43:17Z</time></trkpt><trkpt lat="45.30089179427042" lon="8.729497698583883"><ele>110.0</ele><time>2026-05-03T13:43:18Z</time></trkpt><trkpt lat="45.30080879941274" lon="8.72938366005358"><ele>110.0</ele><time>2026-05-03T13:43:19Z</time></trkpt><trkpt lat="45.30072227099441" lon="8.729266282561275"><ele>110.4</ele><time>2026-05-03T13:43:20Z</time></trkpt><trkpt lat="45.30063197390123" lon="8.729146395986115"><ele>110.8</ele><time>2026-05-03T13:43:21Z</time></trkpt><trkpt lat="45.30054188919936" lon="8.729035687795117"><ele>111.19999999999999</ele><time>2026-05-03T13:43:22Z</time></trkpt><trkpt lat="45.30046692483214" lon="8.728945558035711"><ele>111.6</ele><time>2026-05-03T13:43:23Z</time></trkpt><trkpt lat="45.3004023022637" lon="8.72886275666448"><ele>112.0</ele><time>2026-05-03T13:43:24Z</time></trkpt><trkpt lat="45.30035175886073" lon="8.728790886044303"><ele>112.19999999999999</ele><time>2026-05-03T13:43:25Z</time></trkpt><trkpt lat="45.30027886187371" lon="8.728652528601469"><ele>112.39999999999999</ele><time>2026-05-03T13:43:27Z</time></trkpt><trkpt lat="45.30023651927758" lon="8.728559511491516"><ele>112.60000000000001</ele><time>2026-05-03T13:43:28Z</time></trkpt><trkpt lat="45.30018400247225" lon="8.72845607679113"><ele>112.80000000000001</ele><time>2026-05-03T13:43:29Z</time></trkpt><trkpt lat="45.300138494790545" lon="8.728347141927028"><ele>113.0</ele><time>2026-05-03T13:43:30Z</time></trkpt><trkpt lat="45.300108109207535" lon="8.728233450520145"><ele>113.0</ele><time>2026-05-03T13:43:31Z</time></trkpt><trkpt lat="45.30007985314555" lon="8.728101906704026"><ele>113.00000000000001</ele><time>2026-05-03T13:43:32Z</time></trkpt><trkpt lat="45.30006172286037" lon="8.727954566928435"><ele>113.00000000000001</ele><time>2026-05-03T13:43:33Z</time></trkpt><trkpt lat="45.30004423010817" lon="8.727788249670034"><ele>113.0</ele><time>2026-05-03T13:43:34Z</time></trkpt><trkpt lat="45.30003452368639" lon="8.72764832447057"><ele>113.0</ele><time>2026-05-03T13:43:35Z</time></trkpt><trkpt lat="45.300023617132766" lon="8.727537007839954"><ele>112.66666666666666</ele><time>2026-05-03T13:43:36Z</time></trkpt><trkpt lat="45.30001345649256" lon="8.727425883491247"><ele>112.33333333333333</ele><time>2026-05-03T13:43:37Z</time></trkpt><trkpt lat="45.30000833741549" lon="8.72732346154835"><ele>112.0</ele><time>2026-05-03T13:43:38Z</time></trkpt><trkpt lat="45.30000437883277" lon="8.727225844114106"><ele>111.66666666666666</ele><time>2026-05-03T13:43:39Z</time></trkpt><trkpt lat="45.2999994573886" lon="8.72711946416273"><ele>111.33333333333333</ele><time>2026-05-03T13:43:41Z</time></trkpt><trkpt lat="45.29995806702384" lon="8.727026044528783"><ele>111.0</ele><time>2026-05-03T13:43:44Z</time></trkpt><trkpt lat="45.29983627346149" lon="8.727039002243098"><ele>111.0</ele><time>2026-05-03T13:43:46Z</time></trkpt><trkpt lat="45.29975834548669" lon="8.727063487161024"><ele>111.0</ele><time>2026-05-03T13:43:47Z</time></trkpt><trkpt lat="45.299666230052395" lon="8.727070130720499"><ele>111.0</ele><time>2026-05-03T13:43:48Z</time></trkpt><trkpt lat="45.29958117778507" lon="8.72707555248813"><ele>111.0</ele><time>2026-05-03T13:43:49Z</time></trkpt><trkpt lat="45.29948311644825" lon="8.72707961051633"><ele>111.0</ele><time>2026-05-03T13:43:50Z</time></trkpt><trkpt lat="45.299374043051124" lon="8.727082912688802"><ele>110.75</ele><time>2026-05-03T13:43:51Z</time></trkpt><trkpt lat="45.299263997980766" lon="8.727083866148377"><ele>110.5</ele><time>2026-05-03T13:43:52Z</time></trkpt><trkpt lat="45.2991506773814" lon="8.727086879788029"><ele>110.25</ele><time>2026-05-03T13:43:53Z</time></trkpt><trkpt lat="45.29903290382855" lon="8.727087932430763"><ele>110.0</ele><time>2026-05-03T13:43:54Z</time></trkpt><trkpt lat="45.29891091192282" lon="8.727083406295893"><ele>109.75</ele><time>2026-05-03T13:43:55Z</time></trkpt><trkpt lat="45.29878548071899" lon="8.727080869703205"><ele>109.5</ele><time>2026-05-03T13:43:56Z</time></trkpt><trkpt lat="45.298666592205436" lon="8.727079247249165"><ele>109.25</ele><time>2026-05-03T13:43:57Z</time></trkpt><trkpt lat="45.29855163494056" lon="8.7270829701395"><ele>109.0</ele><time>2026-05-03T13:43:58Z</time></trkpt><trkpt lat="45.298434253288065" lon="8.727084154479137"><ele>109.0</ele><time>2026-05-03T13:43:59Z</time></trkpt><trkpt lat="45.298315207365604" lon="8.727085837972888"><ele>109.0</ele><time>2026-05-03T13:44:00Z</time></trkpt><trkpt lat="45.29819329601623" lon="8.727091214038275"><ele>109.0</ele><time>2026-05-03T13:44:01Z</time></trkpt><trkpt lat="45.2980656244683" lon="8.727097406314961"><ele>109.0</ele><time>2026-05-03T13:44:02Z</time></trkpt><trkpt lat="45.29793495202052" lon="8.727102227235644"><ele>109.5</ele><time>2026-05-03T13:44:03Z</time></trkpt><trkpt lat="45.297808541670534" lon="8.72710812488319"><ele>110.0</ele><time>2026-05-03T13:44:04Z</time></trkpt><trkpt lat="45.29768787370521" lon="8.727116180075688"><ele>110.5</ele><time>2026-05-03T13:44:05Z</time></trkpt><trkpt lat="45.29756245048112" lon="8.72712346327746"><ele>111.0</ele><time>2026-05-03T13:44:06Z</time></trkpt><trkpt lat="45.29743308310627" lon="8.727128438101463"><ele>111.0</ele><time>2026-05-03T13:44:07Z</time></trkpt><trkpt lat="45.29730620067281" lon="8.727129681543534"><ele>111.0</ele><time>2026-05-03T13:44:08Z</time></trkpt><trkpt lat="45.29718642104242" lon="8.727129145988686"><ele>111.0</ele><time>2026-05-03T13:44:09Z</time></trkpt><trkpt lat="45.297060932372844" lon="8.727134133947716"><ele>111.0</ele><time>2026-05-03T13:44:10Z</time></trkpt><trkpt lat="45.296929366146564" lon="8.727136112920343"><ele>110.75</ele><time>2026-05-03T13:44:11Z</time></trkpt><trkpt lat="45.29679526054083" lon="8.727136058692421"><ele>110.5</ele><time>2026-05-03T13:44:12Z</time></trkpt><trkpt lat="45.29667060818451" lon="8.72714000877158"><ele>110.25</ele><time>2026-05-03T13:44:13Z</time></trkpt><trkpt lat="45.29654741833154" lon="8.727144275635728"><ele>110.0</ele><time>2026-05-03T13:44:14Z</time></trkpt><trkpt lat="45.296425194116516" lon="8.72715084308648"><ele>110.25</ele><time>2026-05-03T13:44:15Z</time></trkpt><trkpt lat="45.29631178827131" lon="8.727157076423069"><ele>110.5</ele><time>2026-05-03T13:44:16Z</time></trkpt><trkpt lat="45.296197525878" lon="8.727165593389"><ele>110.75</ele><time>2026-05-03T13:44:17Z</time></trkpt><trkpt lat="45.29608169755549" lon="8.72717499579529"><ele>111.0</ele><time>2026-05-03T13:44:18Z</time></trkpt><trkpt lat="45.2959604922038" lon="8.727183545575382"><ele>111.0</ele><time>2026-05-03T13:44:19Z</time></trkpt><trkpt lat="45.29584059086199" lon="8.727199708648358"><ele>111.0</ele><time>2026-05-03T13:44:20Z</time></trkpt><trkpt lat="45.29571826871457" lon="8.727211024849431"><ele>111.0</ele><time>2026-05-03T13:44:21Z</time></trkpt><trkpt lat="45.2955947768863" lon="8.727220096172779"><ele>111.0</ele><time>2026-05-03T13:44:22Z</time></trkpt><trkpt lat="45.29547086204112" lon="8.72723073691527"><ele>110.75</ele><time>2026-05-03T13:44:23Z</time></trkpt><trkpt lat="45.29534691633602" lon="8.727243004218437"><ele>110.5</ele><time>2026-05-03T13:44:24Z</time></trkpt><trkpt lat="45.29521963514587" lon="8.72725578916692"><ele>110.25</ele><time>2026-05-03T13:44:25Z</time></trkpt><trkpt lat="45.29509656513444" lon="8.727265812120747"><ele>110.0</ele><time>2026-05-03T13:44:26Z</time></trkpt><trkpt lat="45.29497555804501" lon="8.72727752851822"><ele>110.0</ele><time>2026-05-03T13:44:27Z</time></trkpt><trkpt lat="45.29485124038116" lon="8.72728930597055"><ele>110.0</ele><time>2026-05-03T13:44:28Z</time></trkpt><trkpt lat="45.29474721803279" lon="8.727302952601953"><ele>110.0</ele><time>2026-05-03T13:44:29Z</time></trkpt><trkpt lat="45.294660180165856" lon="8.72730919724928"><ele>110.0</ele><time>2026-05-03T13:44:30Z</time></trkpt><trkpt lat="45.294585620577614" lon="8.727314564955627"><ele>110.0</ele><time>2026-05-03T13:44:31Z</time></trkpt><trkpt lat="45.29447992104623" lon="8.727327893610461"><ele>110.0</ele><time>2026-05-03T13:44:33Z</time></trkpt><trkpt lat="45.29441749276116" lon="8.727375758410279"><ele>110.0</ele><time>2026-05-03T13:44:35Z</time></trkpt><trkpt lat="45.29435632315311" lon="8.72753875422447"><ele>110.0</ele><time>2026-05-03T13:44:37Z</time></trkpt><trkpt lat="45.29434087465519" lon="8.727673370832115"><ele>110.0</ele><time>2026-05-03T13:44:38Z</time></trkpt><trkpt lat="45.294336275742424" lon="8.727786581405637"><ele>110.0</ele><time>2026-05-03T13:44:39Z</time></trkpt><trkpt lat="45.2943348546918" lon="8.727896095667997"><ele>109.99999999999999</ele><time>2026-05-03T13:44:40Z</time></trkpt><trkpt lat="45.294334649865675" lon="8.727988879718149"><ele>110.0</ele><time>2026-05-03T13:44:41Z</time></trkpt><trkpt lat="45.29432393957549" lon="8.728112812028119"><ele>110.0</ele><time>2026-05-03T13:44:43Z</time></trkpt><trkpt lat="45.29425766040893" lon="8.728162598891146"><ele>110.0</ele><time>2026-05-03T13:44:45Z</time></trkpt><trkpt lat="45.294163350061005" lon="8.728150269240137"><ele>109.99999999999999</ele><time>2026-05-03T13:44:47Z</time></trkpt><trkpt lat="45.29408426171828" lon="8.728153570757284"><ele>110.0</ele><time>2026-05-03T13:44:48Z</time></trkpt><trkpt lat="45.293986260435425" lon="8.728169311563882"><ele>110.16666666666666</ele><time>2026-05-03T13:44:49Z</time></trkpt><trkpt lat="45.29388358129469" lon="8.728185276727551"><ele>110.33333333333333</ele><time>2026-05-03T13:44:50Z</time></trkpt><trkpt lat="45.293800272561185" lon="8.728187816121553"><ele>110.5</ele><time>2026-05-03T13:44:51Z</time></trkpt><trkpt lat="45.293711156716036" lon="8.728199458750417"><ele>110.66666666666666</ele><time>2026-05-03T13:44:52Z</time></trkpt><trkpt lat="45.29362105110284" lon="8.728212041295448"><ele>110.83333333333333</ele><time>2026-05-03T13:44:53Z</time></trkpt><trkpt lat="45.293542111409344" lon="8.728223106721154"><ele>111.0</ele><time>2026-05-03T13:44:54Z</time></trkpt><trkpt lat="45.29347498465686" lon="8.728230256157007"><ele>111.0</ele><time>2026-05-03T13:44:55Z</time></trkpt><trkpt lat="45.293411623131654" lon="8.728240245479649"><ele>111.0</ele><time>2026-05-03T13:44:56Z</time></trkpt><trkpt lat="45.29334750630504" lon="8.728248531990728"><ele>111.0</ele><time>2026-05-03T13:44:57Z</time></trkpt><trkpt lat="45.293280349081954" lon="8.728260176458134"><ele>111.0</ele><time>2026-05-03T13:44:58Z</time></trkpt><trkpt lat="45.293206351749866" lon="8.728268330850785"><ele>111.0</ele><time>2026-05-03T13:44:59Z</time></trkpt><trkpt lat="45.29314107777928" lon="8.728267121397955"><ele>111.0</ele><time>2026-05-03T13:45:00Z</time></trkpt><trkpt lat="45.293064710935134" lon="8.728254500978988"><ele>111.0</ele><time>2026-05-03T13:45:01Z</time></trkpt><trkpt lat="45.29298883960531" lon="8.728231514554297"><ele>110.83333333333333</ele><time>2026-05-03T13:45:02Z</time></trkpt><trkpt lat="45.292915598619004" lon="8.728200457444112"><ele>110.66666666666666</ele><time>2026-05-03T13:45:03Z</time></trkpt><trkpt lat="45.29284769792437" lon="8.728167576331904"><ele>110.5</ele><time>2026-05-03T13:45:04Z</time></trkpt><trkpt lat="45.29277730569344" lon="8.728136755161913"><ele>110.33333333333333</ele><time>2026-05-03T13:45:05Z</time></trkpt><trkpt lat="45.292701967621795" lon="8.72810922268791"><ele>110.16666666666666</ele><time>2026-05-03T13:45:06Z</time></trkpt><trkpt lat="45.29262213114209" lon="8.728090858514605"><ele>110.0</ele><time>2026-05-03T13:45:07Z</time></trkpt><trkpt lat="45.292544259685535" lon="8.728071334124154"><ele>109.99999999999999</ele><time>2026-05-03T13:45:08Z</time></trkpt><trkpt lat="45.2924579218737" lon="8.72805069518283"><ele>110.0</ele><time>2026-05-03T13:45:09Z</time></trkpt><trkpt lat="45.29237522707775" lon="8.728034695099122"><ele>110.0</ele><time>2026-05-03T13:45:10Z</time></trkpt><trkpt lat="45.292295985270705" lon="8.728014155629397"><ele>110.0</ele><time>2026-05-03T13:45:11Z</time></trkpt><trkpt lat="45.292215762218184" lon="8.727998410162876"><ele>109.99999999999999</ele><time>2026-05-03T13:45:12Z</time></trkpt><trkpt lat="45.29214106809957" lon="8.72798084299986"><ele>110.0</ele><time>2026-05-03T13:45:13Z</time></trkpt><trkpt lat="45.29206799280991" lon="8.727959982133292"><ele>109.99999999999999</ele><time>2026-05-03T13:45:14Z</time></trkpt><trkpt lat="45.29199153683535" lon="8.727926585448142"><ele>110.0</ele><time>2026-05-03T13:45:15Z</time></trkpt><trkpt lat="45.29191736190713" lon="8.727884445846914"><ele>110.0</ele><time>2026-05-03T13:45:16Z</time></trkpt><trkpt lat="45.2918378724593" lon="8.72784071144374"><ele>110.0</ele><time>2026-05-03T13:45:17Z</time></trkpt><trkpt lat="45.291753703579126" lon="8.727797431219523"><ele>109.99999999999999</ele><time>2026-05-03T13:45:18Z</time></trkpt><trkpt lat="45.291669488087415" lon="8.727758241694831"><ele>110.0</ele><time>2026-05-03T13:45:19Z</time></trkpt><trkpt lat="45.29158057682764" lon="8.72772036167782"><ele>110.0</ele><time>2026-05-03T13:45:20Z</time></trkpt><trkpt lat="45.29149393541909" lon="8.727687625633287"><ele>110.0</ele><time>2026-05-03T13:45:21Z</time></trkpt><trkpt lat="45.29140239407341" lon="8.727654821999332"><ele>110.0</ele><time>2026-05-03T13:45:22Z</time></trkpt><trkpt lat="45.2913043528694" lon="8.727618317438518"><ele>110.0</ele><time>2026-05-03T13:45:23Z</time></trkpt><trkpt lat="45.291204360939204" lon="8.727586280622155"><ele>110.0</ele><time>2026-05-03T13:45:24Z</time></trkpt><trkpt lat="45.291107007418724" lon="8.727555743598083"><ele>110.2</ele><time>2026-05-03T13:45:25Z</time></trkpt><trkpt lat="45.29100529123965" lon="8.727519709941888"><ele>110.4</ele><time>2026-05-03T13:45:26Z</time></trkpt><trkpt lat="45.290905778713665" lon="8.727486352303641"><ele>110.6</ele><time>2026-05-03T13:45:27Z</time></trkpt><trkpt lat="45.29081213919447" lon="8.727447798748106"><ele>110.8</ele><time>2026-05-03T13:45:28Z</time></trkpt><trkpt lat="45.290717911496905" lon="8.727405362013466"><ele>111.0</ele><time>2026-05-03T13:45:29Z</time></trkpt><trkpt lat="45.29063106959923" lon="8.7273673636259"><ele>111.0</ele><time>2026-05-03T13:45:30Z</time></trkpt><trkpt lat="45.290561817664624" lon="8.727332327657075"><ele>111.0</ele><time>2026-05-03T13:45:31Z</time></trkpt><trkpt lat="45.290497791694136" lon="8.727302879539844"><ele>111.0</ele><time>2026-05-03T13:45:32Z</time></trkpt><trkpt lat="45.29038808498247" lon="8.727274127034056"><ele>111.0</ele><time>2026-05-03T13:45:34Z</time></trkpt><trkpt lat="45.29032047878605" lon="8.727243686852344"><ele>111.0</ele><time>2026-05-03T13:45:35Z</time></trkpt><trkpt lat="45.29025504902502" lon="8.727214294843055"><ele>111.0</ele><time>2026-05-03T13:45:36Z</time></trkpt><trkpt lat="45.290183126877494" lon="8.727184631846633"><ele>111.0</ele><time>2026-05-03T13:45:37Z</time></trkpt><trkpt lat="45.290109820394264" lon="8.727155553219049"><ele>111.0</ele><time>2026-05-03T13:45:38Z</time></trkpt><trkpt lat="45.290039480633396" lon="8.727121280531414"><ele>111.0</ele><time>2026-05-03T13:45:39Z</time></trkpt><trkpt lat="45.28996533765477" lon="8.727085070975674"><ele>111.0</ele><time>2026-05-03T13:45:40Z</time></trkpt><trkpt lat="45.289895754597715" lon="8.727049787478014"><ele>111.0</ele><time>2026-05-03T13:45:41Z</time></trkpt><trkpt lat="45.289833994729314" lon="8.727012516480448"><ele>111.0</ele><time>2026-05-03T13:45:42Z</time></trkpt><trkpt lat="45.28976930318845" lon="8.726976804862193"><ele>111.0</ele><time>2026-05-03T13:45:43Z</time></trkpt><trkpt lat="45.289695444180744" lon="8.726948093717443"><ele>110.83333333333333</ele><time>2026-05-03T13:45:44Z</time></trkpt><trkpt lat="45.28960827556661" lon="8.72691882280368"><ele>110.66666666666666</ele><time>2026-05-03T13:45:45Z</time></trkpt><trkpt lat="45.2895228863472" lon="8.72690217902682"><ele>110.5</ele><time>2026-05-03T13:45:46Z</time></trkpt><trkpt lat="45.289437587708534" lon="8.726867257242896"><ele>110.33333333333333</ele><time>2026-05-03T13:45:47Z</time></trkpt><trkpt lat="45.28935356906787" lon="8.726824185625766"><ele>110.16666666666666</ele><time>2026-05-03T13:45:48Z</time></trkpt><trkpt lat="45.289286263836566" lon="8.726787360769707"><ele>110.0</ele><time>2026-05-03T13:45:49Z</time></trkpt><trkpt lat="45.289225899256316" lon="8.72675823830144"><ele>109.99999999999999</ele><time>2026-05-03T13:45:50Z</time></trkpt><trkpt lat="45.2891620105063" lon="8.726729404792879"><ele>110.0</ele><time>2026-05-03T13:45:51Z</time></trkpt><trkpt lat="45.28908435223581" lon="8.726700490887803"><ele>110.0</ele><time>2026-05-03T13:45:52Z</time></trkpt><trkpt lat="45.28899844191501" lon="8.726679992015224"><ele>110.0</ele><time>2026-05-03T13:45:53Z</time></trkpt><trkpt lat="45.28890126331427" lon="8.726673289228462"><ele>109.99999999999999</ele><time>2026-05-03T13:45:54Z</time></trkpt><trkpt lat="45.288802229860146" lon="8.726664544016867"><ele>110.0</ele><time>2026-05-03T13:45:55Z</time></trkpt><trkpt lat="45.288714496207504" lon="8.726650176668388"><ele>109.75</ele><time>2026-05-03T13:45:56Z</time></trkpt><trkpt lat="45.28861249855539" lon="8.726643530634473"><ele>109.5</ele><time>2026-05-03T13:45:57Z</time></trkpt><trkpt lat="45.288499584318046" lon="8.726636768626284"><ele>109.25</ele><time>2026-05-03T13:45:58Z</time></trkpt><trkpt lat="45.28837553583774" lon="8.726630196465473"><ele>109.0</ele><time>2026-05-03T13:45:59Z</time></trkpt><trkpt lat="45.28825569081173" lon="8.726624457052527"><ele>109.00000000000001</ele><time>2026-05-03T13:46:00Z</time></trkpt><trkpt lat="45.28815479200243" lon="8.72661873748775"><ele>109.0</ele><time>2026-05-03T13:46:01Z</time></trkpt><trkpt lat="45.2880624790477" lon="8.72661597627579"><ele>109.0</ele><time>2026-05-03T13:46:02Z</time></trkpt><trkpt lat="45.28797204738345" lon="8.726611738161672"><ele>109.0</ele><time>2026-05-03T13:46:03Z</time></trkpt><trkpt lat="45.28788307569214" lon="8.726609729135227"><ele>109.00000000000001</ele><time>2026-05-03T13:46:04Z</time></trkpt><trkpt lat="45.287809506706836" lon="8.726608671768709"><ele>109.0</ele><time>2026-05-03T13:46:05Z</time></trkpt><trkpt lat="45.28773706654555" lon="8.726589827020195"><ele>108.83333333333334</ele><time>2026-05-03T13:46:06Z</time></trkpt><trkpt lat="45.287654643710106" lon="8.726562629718268"><ele>108.66666666666667</ele><time>2026-05-03T13:46:07Z</time></trkpt><trkpt lat="45.287574085860946" lon="8.726542477890245"><ele>108.5</ele><time>2026-05-03T13:46:08Z</time></trkpt><trkpt lat="45.28749045206973" lon="8.726521536031093"><ele>108.33333333333334</ele><time>2026-05-03T13:46:09Z</time></trkpt><trkpt lat="45.28740663968731" lon="8.726506303670732"><ele>108.16666666666667</ele><time>2026-05-03T13:46:10Z</time></trkpt><trkpt lat="45.28732795682963" lon="8.726491669948782"><ele>108.0</ele><time>2026-05-03T13:46:11Z</time></trkpt><trkpt lat="45.287253708239824" lon="8.72647546326045"><ele>108.0</ele><time>2026-05-03T13:46:12Z</time></trkpt><trkpt lat="45.287180240694006" lon="8.72646145072247"><ele>108.0</ele><time>2026-05-03T13:46:13Z</time></trkpt><trkpt lat="45.28710329266275" lon="8.726448538291727"><ele>108.0</ele><time>2026-05-03T13:46:14Z</time></trkpt><trkpt lat="45.28702867637417" lon="8.726434376826129"><ele>108.0</ele><time>2026-05-03T13:46:15Z</time></trkpt><trkpt lat="45.28694878450121" lon="8.72642718215084"><ele>108.0</ele><time>2026-05-03T13:46:16Z</time></trkpt><trkpt lat="45.28685846520813" lon="8.726424871744218"><ele>108.0</ele><time>2026-05-03T13:46:17Z</time></trkpt><trkpt lat="45.286767801872976" lon="8.726417831857646"><ele>108.0</ele><time>2026-05-03T13:46:18Z</time></trkpt><trkpt lat="45.286684119724534" lon="8.726411490371587"><ele>108.0</ele><time>2026-05-03T13:46:19Z</time></trkpt><trkpt lat="45.286597722720174" lon="8.726398297203676"><ele>108.0</ele><time>2026-05-03T13:46:20Z</time></trkpt><trkpt lat="45.28651450131328" lon="8.726387379859311"><ele>108.0</ele><time>2026-05-03T13:46:21Z</time></trkpt><trkpt lat="45.286427821690275" lon="8.72637586821181"><ele>108.0</ele><time>2026-05-03T13:46:22Z</time></trkpt><trkpt lat="45.28633082977917" lon="8.726357143479293"><ele>108.0</ele><time>2026-05-03T13:46:23Z</time></trkpt><trkpt lat="45.28624901970463" lon="8.72634644130847"><ele>108.0</ele><time>2026-05-03T13:46:24Z</time></trkpt><trkpt lat="45.286171209503316" lon="8.726338532534289"><ele>108.00000000000001</ele><time>2026-05-03T13:46:25Z</time></trkpt><trkpt lat="45.28608711704598" lon="8.726322950041357"><ele>108.00000000000001</ele><time>2026-05-03T13:46:26Z</time></trkpt><trkpt lat="45.28599985248183" lon="8.72611397363739"><ele>108.0</ele><time>2026-05-03T13:46:27Z</time></trkpt><trkpt lat="45.28591159974977" lon="8.726115888314197"><ele>108.0</ele><time>2026-05-03T13:46:28Z</time></trkpt><trkpt lat="45.28584371426613" lon="8.7261153638137"><ele>108.0</ele><time>2026-05-03T13:46:29Z</time></trkpt><trkpt lat="45.285722151698735" lon="8.726112713146602"><ele>108.0</ele><time>2026-05-03T13:46:31Z</time></trkpt><trkpt lat="45.28562924251135" lon="8.726097819609878"><ele>108.0</ele><time>2026-05-03T13:46:33Z</time></trkpt><trkpt lat="45.28556036107729" lon="8.726086195777881"><ele>108.0</ele><time>2026-05-03T13:46:36Z</time></trkpt><trkpt lat="45.28541021316046" lon="8.726332636484193"><ele>108.2</ele><time>2026-05-03T13:46:38Z</time></trkpt><trkpt lat="45.28532280526157" lon="8.726339474938776"><ele>108.4</ele><time>2026-05-03T13:46:39Z</time></trkpt><trkpt lat="45.28522872735734" lon="8.7263504570486"><ele>108.60000000000001</ele><time>2026-05-03T13:46:40Z</time></trkpt><trkpt lat="45.28512052356573" lon="8.726363899499605"><ele>108.80000000000001</ele><time>2026-05-03T13:46:41Z</time></trkpt><trkpt lat="45.2850079870788" lon="8.72638169937446"><ele>109.0</ele><time>2026-05-03T13:46:42Z</time></trkpt><trkpt lat="45.28489650212575" lon="8.726398412085153"><ele>109.0</ele><time>2026-05-03T13:46:43Z</time></trkpt><trkpt lat="45.284794268536125" lon="8.72641366703576"><ele>109.0</ele><time>2026-05-03T13:46:44Z</time></trkpt><trkpt lat="45.284695216160486" lon="8.7264287544369"><ele>109.0</ele><time>2026-05-03T13:46:45Z</time></trkpt><trkpt lat="45.284588555725406" lon="8.72644493678925"><ele>109.0</ele><time>2026-05-03T13:46:46Z</time></trkpt><trkpt lat="45.284478747435195" lon="8.726459271049963"><ele>109.0</ele><time>2026-05-03T13:46:47Z</time></trkpt><trkpt lat="45.28437249642219" lon="8.726472409026355"><ele>109.0</ele><time>2026-05-03T13:46:48Z</time></trkpt><trkpt lat="45.28427157783461" lon="8.726486751827961"><ele>109.0</ele><time>2026-05-03T13:46:49Z</time></trkpt><trkpt lat="45.28416253559739" lon="8.726499229547102"><ele>109.0</ele><time>2026-05-03T13:46:50Z</time></trkpt><trkpt lat="45.284054747409854" lon="8.72651722661732"><ele>109.0</ele><time>2026-05-03T13:46:51Z</time></trkpt><trkpt lat="45.28394836356559" lon="8.726534336168832"><ele>109.0</ele><time>2026-05-03T13:46:52Z</time></trkpt><trkpt lat="45.283840648147894" lon="8.726552672437242"><ele>109.0</ele><time>2026-05-03T13:46:53Z</time></trkpt><trkpt lat="45.28373042808739" lon="8.726572101439867"><ele>109.0</ele><time>2026-05-03T13:46:54Z</time></trkpt><trkpt lat="45.283622993539566" lon="8.726590091096394"><ele>109.0</ele><time>2026-05-03T13:46:55Z</time></trkpt><trkpt lat="45.283519485288274" lon="8.726605470286435"><ele>109.0</ele><time>2026-05-03T13:46:56Z</time></trkpt><trkpt lat="45.28340730672271" lon="8.72662283645376"><ele>109.0</ele><time>2026-05-03T13:46:57Z</time></trkpt><trkpt lat="45.28329182562533" lon="8.726641398530779"><ele>109.0</ele><time>2026-05-03T13:46:58Z</time></trkpt><trkpt lat="45.28317982235622" lon="8.726662808035089"><ele>109.0</ele><time>2026-05-03T13:46:59Z</time></trkpt><trkpt lat="45.28306953442005" lon="8.72668143442215"><ele>109.0</ele><time>2026-05-03T13:47:00Z</time></trkpt><trkpt lat="45.28297989917528" lon="8.726694286982973"><ele>109.0</ele><time>2026-05-03T13:47:01Z</time></trkpt><trkpt lat="45.28289703210577" lon="8.726707920340658"><ele>109.0</ele><time>2026-05-03T13:47:02Z</time></trkpt><trkpt lat="45.28281871353761" lon="8.726718567266117"><ele>109.00000000000001</ele><time>2026-05-03T13:47:03Z</time></trkpt><trkpt lat="45.28274974184945" lon="8.726731327107615"><ele>109.0</ele><time>2026-05-03T13:47:04Z</time></trkpt><trkpt lat="45.28262092102702" lon="8.726766330340375"><ele>109.0</ele><time>2026-05-03T13:47:06Z</time></trkpt><trkpt lat="45.28254346370242" lon="8.726770037033194"><ele>109.0</ele><time>2026-05-03T13:47:07Z</time></trkpt><trkpt lat="45.28245845835357" lon="8.726791456316802"><ele>109.00000000000001</ele><time>2026-05-03T13:47:08Z</time></trkpt><trkpt lat="45.28239502852485" lon="8.726848682586661"><ele>109.0</ele><time>2026-05-03T13:47:09Z</time></trkpt><trkpt lat="45.28231344107415" lon="8.726875633848874"><ele>109.16666666666667</ele><time>2026-05-03T13:47:10Z</time></trkpt><trkpt lat="45.28225521845521" lon="8.726919160923629"><ele>109.33333333333334</ele><time>2026-05-03T13:47:11Z</time></trkpt><trkpt lat="45.28219097701887" lon="8.726981963092468"><ele>109.5</ele><time>2026-05-03T13:47:12Z</time></trkpt><trkpt lat="45.28212694729725" lon="8.727062249215123"><ele>109.66666666666666</ele><time>2026-05-03T13:47:13Z</time></trkpt><trkpt lat="45.28206137999627" lon="8.727164826999553"><ele>109.83333333333333</ele><time>2026-05-03T13:47:14Z</time></trkpt><trkpt lat="45.28199727014784" lon="8.727277806620227"><ele>110.0</ele><time>2026-05-03T13:47:15Z</time></trkpt><trkpt lat="45.281924667310236" lon="8.727393653842043"><ele>110.0</ele><time>2026-05-03T13:47:16Z</time></trkpt><trkpt lat="45.28184035116593" lon="8.727510455656125"><ele>110.0</ele><time>2026-05-03T13:47:17Z</time></trkpt><trkpt lat="45.2817574747204" lon="8.727625393825699"><ele>110.0</ele><time>2026-05-03T13:47:18Z</time></trkpt><trkpt lat="45.281688238313" lon="8.727728010733916"><ele>110.0</ele><time>2026-05-03T13:47:19Z</time></trkpt><trkpt lat="45.28163460991292" lon="8.727815843353056"><ele>110.0</ele><time>2026-05-03T13:47:20Z</time></trkpt><trkpt lat="45.281583439315796" lon="8.727902578937362"><ele>109.99999999999999</ele><time>2026-05-03T13:47:21Z</time></trkpt><trkpt lat="45.2815300589954" lon="8.727988373878526"><ele>110.0</ele><time>2026-05-03T13:47:22Z</time></trkpt><trkpt lat="45.281482504062446" lon="8.728055745859468"><ele>110.0</ele><time>2026-05-03T13:47:23Z</time></trkpt><trkpt lat="45.281377764523256" lon="8.728156657101579"><ele>110.0</ele><time>2026-05-03T13:47:25Z</time></trkpt><trkpt lat="45.281308490948874" lon="8.72818160903009"><ele>109.99999999999999</ele><time>2026-05-03T13:47:26Z</time></trkpt><trkpt lat="45.28123834464124" lon="8.728197775938977"><ele>110.0</ele><time>2026-05-03T13:47:27Z</time></trkpt><trkpt lat="45.28117092055871" lon="8.728206934898786"><ele>109.83333333333333</ele><time>2026-05-03T13:47:28Z</time></trkpt><trkpt lat="45.281067304343345" lon="8.72821782296437"><ele>109.66666666666666</ele><time>2026-05-03T13:47:30Z</time></trkpt><trkpt lat="45.28099462087472" lon="8.728187982343606"><ele>109.5</ele><time>2026-05-03T13:47:39Z</time></trkpt><trkpt lat="45.28096964626249" lon="8.728095657668003"><ele>109.33333333333334</ele><time>2026-05-03T13:47:42Z</time></trkpt><trkpt lat="45.28093050453884" lon="8.727985251686787"><ele>109.16666666666667</ele><time>2026-05-03T13:47:45Z</time></trkpt><trkpt lat="45.28082820936674" lon="8.727996469938947"><ele>109.0</ele><time>2026-05-03T13:47:47Z</time></trkpt><trkpt lat="45.28074376891247" lon="8.728052781972382"><ele>109.00000000000001</ele><time>2026-05-03T13:47:48Z</time></trkpt><trkpt lat="45.28066927345635" lon="8.728084904173139"><ele>109.0</ele><time>2026-05-03T13:47:49Z</time></trkpt><trkpt lat="45.28060132177874" lon="8.728119277586291"><ele>109.0</ele><time>2026-05-03T13:47:50Z</time></trkpt><trkpt lat="45.28053425743432" lon="8.728157959698892"><ele>109.0</ele><time>2026-05-03T13:47:51Z</time></trkpt><trkpt lat="45.280461717714815" lon="8.728206699391487"><ele>109.00000000000001</ele><time>2026-05-03T13:47:52Z</time></trkpt><trkpt lat="45.280380354548114" lon="8.728259311877505"><ele>109.0</ele><time>2026-05-03T13:47:53Z</time></trkpt><trkpt lat="45.28030713005568" lon="8.7283017286874"><ele>109.0</ele><time>2026-05-03T13:47:54Z</time></trkpt><trkpt lat="45.28023995317988" lon="8.728343589670859"><ele>109.0</ele><time>2026-05-03T13:47:55Z</time></trkpt><trkpt lat="45.2801746517836" lon="8.72838472082543"><ele>109.0</ele><time>2026-05-03T13:47:56Z</time></trkpt><trkpt lat="45.280073470801426" lon="8.728461811483836"><ele>109.0</ele><time>2026-05-03T13:47:58Z</time></trkpt><trkpt lat="45.27999172764673" lon="8.72853935266863"><ele>109.0</ele><time>2026-05-03T13:48:00Z</time></trkpt><trkpt lat="45.27987484103124" lon="8.728597039549129"><ele>109.00000000000001</ele><time>2026-05-03T13:48:02Z</time></trkpt><trkpt lat="45.27981509625033" lon="8.728647381445898"><ele>109.0</ele><time>2026-05-03T13:48:03Z</time></trkpt><trkpt lat="45.27974886038801" lon="8.728697111699413"><ele>109.0</ele><time>2026-05-03T13:48:04Z</time></trkpt><trkpt lat="45.279687038600116" lon="8.72873912456492"><ele>109.0</ele><time>2026-05-03T13:48:05Z</time></trkpt><trkpt lat="45.27956509303913" lon="8.728796855391444"><ele>109.00000000000001</ele><time>2026-05-03T13:48:07Z</time></trkpt><trkpt lat="45.279490744233726" lon="8.728831342344433"><ele>109.0</ele><time>2026-05-03T13:48:08Z</time></trkpt><trkpt lat="45.27942789796185" lon="8.728853468868463"><ele>109.16666666666667</ele><time>2026-05-03T13:48:09Z</time></trkpt><trkpt lat="45.27936299053687" lon="8.728881713417966"><ele>109.33333333333334</ele><time>2026-05-03T13:48:10Z</time></trkpt><trkpt lat="45.27929609967135" lon="8.72891342481932"><ele>109.5</ele><time>2026-05-03T13:48:11Z</time></trkpt><trkpt lat="45.2792266753825" lon="8.728946721380668"><ele>109.66666666666666</ele><time>2026-05-03T13:48:12Z</time></trkpt><trkpt lat="45.27915140572862" lon="8.72899604959492"><ele>109.83333333333333</ele><time>2026-05-03T13:48:13Z</time></trkpt><trkpt lat="45.279064214216426" lon="8.729048914098309"><ele>110.0</ele><time>2026-05-03T13:48:14Z</time></trkpt><trkpt lat="45.278983863318665" lon="8.729101648813971"><ele>109.66666666666666</ele><time>2026-05-03T13:48:15Z</time></trkpt><trkpt lat="45.278915634649415" lon="8.72915150287076"><ele>109.33333333333333</ele><time>2026-05-03T13:48:16Z</time></trkpt><trkpt lat="45.2788506599493" lon="8.729186079953811"><ele>109.0</ele><time>2026-05-03T13:48:17Z</time></trkpt><trkpt lat="45.278792021439585" lon="8.72922848332608"><ele>108.66666666666666</ele><time>2026-05-03T13:48:18Z</time></trkpt><trkpt lat="45.278731119841375" lon="8.729271761452626"><ele>108.33333333333333</ele><time>2026-05-03T13:48:19Z</time></trkpt><trkpt lat="45.2786338644188" lon="8.729338741935166"><ele>108.0</ele><time>2026-05-03T13:48:21Z</time></trkpt><trkpt lat="45.27854970812874" lon="8.72939859319081"><ele>108.0</ele><time>2026-05-03T13:48:23Z</time></trkpt><trkpt lat="45.27845225420946" lon="8.729472725001182"><ele>108.00000000000001</ele><time>2026-05-03T13:48:25Z</time></trkpt><trkpt lat="45.27836648349618" lon="8.729576897033798"><ele>108.00000000000001</ele><time>2026-05-03T13:48:27Z</time></trkpt><trkpt lat="45.27829815699795" lon="8.729666084803025"><ele>108.0</ele><time>2026-05-03T13:48:29Z</time></trkpt><trkpt lat="45.278235303331826" lon="8.729727973126728"><ele>108.0</ele><time>2026-05-03T13:48:31Z</time></trkpt><trkpt lat="45.278139949880945" lon="8.729750716121222"><ele>108.0</ele><time>2026-05-03T13:48:33Z</time></trkpt><trkpt lat="45.27804315447907" lon="8.729782760997312"><ele>108.0</ele><time>2026-05-03T13:48:35Z</time></trkpt><trkpt lat="45.27798812124176" lon="8.729830109264435"><ele>108.0</ele><time>2026-05-03T13:48:36Z</time></trkpt><trkpt lat="45.27793062027803" lon="8.729896267281049"><ele>108.0</ele><time>2026-05-03T13:48:37Z</time></trkpt><trkpt lat="45.27787530435821" lon="8.729973638903031"><ele>108.0</ele><time>2026-05-03T13:48:38Z</time></trkpt><trkpt lat="45.27781740690548" lon="8.730055168816849"><ele>108.0</ele><time>2026-05-03T13:48:39Z</time></trkpt><trkpt lat="45.277763706141556" lon="8.730130551691227"><ele>108.0</ele><time>2026-05-03T13:48:40Z</time></trkpt><trkpt lat="45.27770295719661" lon="8.73020775904601"><ele>108.0</ele><time>2026-05-03T13:48:41Z</time></trkpt><trkpt lat="45.277652247025934" lon="8.730288632892476"><ele>108.0</ele><time>2026-05-03T13:48:42Z</time></trkpt><trkpt lat="45.277590260060364" lon="8.730363684508873"><ele>108.0</ele><time>2026-05-03T13:48:43Z</time></trkpt><trkpt lat="45.277532126948024" lon="8.730431884030196"><ele>108.0</ele><time>2026-05-03T13:48:44Z</time></trkpt><trkpt lat="45.27747063692935" lon="8.730498806827603"><ele>108.0</ele><time>2026-05-03T13:48:45Z</time></trkpt><trkpt lat="45.27740063683922" lon="8.730563836584844"><ele>108.0</ele><time>2026-05-03T13:48:46Z</time></trkpt><trkpt lat="45.27732427609916" lon="8.730626536465323"><ele>108.00000000000001</ele><time>2026-05-03T13:48:47Z</time></trkpt><trkpt lat="45.27725261573991" lon="8.730672853241014"><ele>108.00000000000001</ele><time>2026-05-03T13:48:48Z</time></trkpt><trkpt lat="45.277160246751166" lon="8.73072021849456"><ele>108.0</ele><time>2026-05-03T13:48:49Z</time></trkpt><trkpt lat="45.27705817194858" lon="8.730756423949583"><ele>108.0</ele><time>2026-05-03T13:48:50Z</time></trkpt><trkpt lat="45.27695212117588" lon="8.730788343804983"><ele>107.80000000000001</ele><time>2026-05-03T13:48:51Z</time></trkpt><trkpt lat="45.276854137742184" lon="8.730820645395726"><ele>107.60000000000001</ele><time>2026-05-03T13:48:52Z</time></trkpt><trkpt lat="45.276757212100996" lon="8.7308494665181"><ele>107.39999999999999</ele><time>2026-05-03T13:48:53Z</time></trkpt><trkpt lat="45.276668236367364" lon="8.730867959521136"><ele>107.19999999999999</ele><time>2026-05-03T13:48:54Z</time></trkpt><trkpt lat="45.27658692154817" lon="8.730878741726075"><ele>107.0</ele><time>2026-05-03T13:48:55Z</time></trkpt><trkpt lat="45.27650741943035" lon="8.73089571459911"><ele>106.99999999999999</ele><time>2026-05-03T13:48:56Z</time></trkpt><trkpt lat="45.27643281311262" lon="8.730925341213652"><ele>107.0</ele><time>2026-05-03T13:48:57Z</time></trkpt><trkpt lat="45.276371158352966" lon="8.730952822720464"><ele>107.0</ele><time>2026-05-03T13:48:58Z</time></trkpt><trkpt lat="45.27630152660213" lon="8.730969055187026"><ele>107.0</ele><time>2026-05-03T13:48:59Z</time></trkpt><trkpt lat="45.27620275604944" lon="8.730997707156424"><ele>106.99999999999999</ele><time>2026-05-03T13:49:00Z</time></trkpt><trkpt lat="45.27610765632307" lon="8.731025461372413"><ele>107.0</ele><time>2026-05-03T13:49:01Z</time></trkpt><trkpt lat="45.27601213221413" lon="8.731053098610888"><ele>106.99999999999999</ele><time>2026-05-03T13:49:02Z</time></trkpt><trkpt lat="45.275919296981925" lon="8.731088041217664"><ele>107.0</ele><time>2026-05-03T13:49:03Z</time></trkpt><trkpt lat="45.27582687633703" lon="8.731115687477365"><ele>107.0</ele><time>2026-05-03T13:49:04Z</time></trkpt><trkpt lat="45.275749247626734" lon="8.731139298921297"><ele>107.0</ele><time>2026-05-03T13:49:05Z</time></trkpt><trkpt lat="45.27567422053682" lon="8.731166156555396"><ele>106.99999999999999</ele><time>2026-05-03T13:49:06Z</time></trkpt><trkpt lat="45.27558848643638" lon="8.731193969461946"><ele>107.0</ele><time>2026-05-03T13:49:07Z</time></trkpt><trkpt lat="45.275492049964384" lon="8.731226136114124"><ele>106.99999999999999</ele><time>2026-05-03T13:49:08Z</time></trkpt><trkpt lat="45.27540349578163" lon="8.73125110096754"><ele>107.0</ele><time>2026-05-03T13:49:09Z</time></trkpt><trkpt lat="45.27532104792263" lon="8.731276226221915"><ele>107.0</ele><time>2026-05-03T13:49:10Z</time></trkpt><trkpt lat="45.27524386425489" lon="8.731304678154325"><ele>107.0</ele><time>2026-05-03T13:49:11Z</time></trkpt><trkpt lat="45.27516247187055" lon="8.73133531255765"><ele>106.99999999999999</ele><time>2026-05-03T13:49:12Z</time></trkpt><trkpt lat="45.275080624231265" lon="8.731366032774462"><ele>107.0</ele><time>2026-05-03T13:49:13Z</time></trkpt><trkpt lat="45.27500522172743" lon="8.731391570608345"><ele>106.99999999999999</ele><time>2026-05-03T13:49:14Z</time></trkpt><trkpt lat="45.27492744838666" lon="8.731417271878662"><ele>107.0</ele><time>2026-05-03T13:49:15Z</time></trkpt><trkpt lat="45.27484861742428" lon="8.73143784170214"><ele>107.0</ele><time>2026-05-03T13:49:16Z</time></trkpt><trkpt lat="45.27477417457872" lon="8.731457163780417"><ele>107.0</ele><time>2026-05-03T13:49:17Z</time></trkpt><trkpt lat="45.274700074166866" lon="8.731477028687777"><ele>106.99999999999999</ele><time>2026-05-03T13:49:18Z</time></trkpt><trkpt lat="45.27461346571398" lon="8.731495400994968"><ele>107.0</ele><time>2026-05-03T13:49:19Z</time></trkpt><trkpt lat="45.27452550900992" lon="8.731520631388202"><ele>107.0</ele><time>2026-05-03T13:49:20Z</time></trkpt><trkpt lat="45.274447119529796" lon="8.731543007353475"><ele>106.99999999999999</ele><time>2026-05-03T13:49:21Z</time></trkpt><trkpt lat="45.27438479102551" lon="8.731563207611662"><ele>106.99999999999999</ele><time>2026-05-03T13:49:22Z</time></trkpt><trkpt lat="45.274267587167905" lon="8.73161473456904"><ele>107.0</ele><time>2026-05-03T13:49:24Z</time></trkpt><trkpt lat="45.274168752052574" lon="8.73169240068529"><ele>107.0</ele><time>2026-05-03T13:49:26Z</time></trkpt><trkpt lat="45.27406039247552" lon="8.731766437707186"><ele>106.99999999999999</ele><time>2026-05-03T13:49:28Z</time></trkpt><trkpt lat="45.27399909361082" lon="8.731818799473395"><ele>107.0</ele><time>2026-05-03T13:49:29Z</time></trkpt><trkpt lat="45.27394595694712" lon="8.731880342824859"><ele>107.0</ele><time>2026-05-03T13:49:30Z</time></trkpt><trkpt lat="45.27389589975553" lon="8.731951183004432"><ele>107.0</ele><time>2026-05-03T13:49:31Z</time></trkpt><trkpt lat="45.27384518605791" lon="8.73201510416048"><ele>106.99999999999999</ele><time>2026-05-03T13:49:32Z</time></trkpt><trkpt lat="45.27377725615885" lon="8.732054263873831"><ele>107.0</ele><time>2026-05-03T13:49:33Z</time></trkpt><trkpt lat="45.273677913781704" lon="8.732132299158229"><ele>107.25</ele><time>2026-05-03T13:49:35Z</time></trkpt><trkpt lat="45.27356989276299" lon="8.732204996950463"><ele>107.5</ele><time>2026-05-03T13:49:37Z</time></trkpt><trkpt lat="45.27347898111723" lon="8.732230940805852"><ele>107.75</ele><time>2026-05-03T13:49:38Z</time></trkpt><trkpt lat="45.273363755207235" lon="8.732252645519129"><ele>108.0</ele><time>2026-05-03T13:49:39Z</time></trkpt><trkpt lat="45.27322923482135" lon="8.732270575209492"><ele>108.0</ele><time>2026-05-03T13:49:40Z</time></trkpt><trkpt lat="45.27311841903863" lon="8.73230241340012"><ele>108.00000000000001</ele><time>2026-05-03T13:49:41Z</time></trkpt><trkpt lat="45.27302415800155" lon="8.732321252206258"><ele>108.00000000000001</ele><time>2026-05-03T13:49:42Z</time></trkpt><trkpt lat="45.27293854989224" lon="8.732351569429648"><ele>108.0</ele><time>2026-05-03T13:49:43Z</time></trkpt><trkpt lat="45.2728546362405" lon="8.732388519480944"><ele>108.0</ele><time>2026-05-03T13:49:44Z</time></trkpt><trkpt lat="45.272759992463506" lon="8.73242087779237"><ele>107.66666666666667</ele><time>2026-05-03T13:49:45Z</time></trkpt><trkpt lat="45.27266713280411" lon="8.732455685116266"><ele>107.33333333333334</ele><time>2026-05-03T13:49:46Z</time></trkpt><trkpt lat="45.272592056576116" lon="8.73247915272297"><ele>107.0</ele><time>2026-05-03T13:49:47Z</time></trkpt><trkpt lat="45.27251053087493" lon="8.732500749183236"><ele>106.66666666666667</ele><time>2026-05-03T13:49:48Z</time></trkpt><trkpt lat="45.27244594988815" lon="8.73252224813522"><ele>106.33333333333334</ele><time>2026-05-03T13:49:49Z</time></trkpt><trkpt lat="45.272376174289555" lon="8.73254101574254"><ele>106.0</ele><time>2026-05-03T13:49:50Z</time></trkpt><trkpt lat="45.27229602916613" lon="8.73256278297801"><ele>106.16666666666667</ele><time>2026-05-03T13:49:51Z</time></trkpt><trkpt lat="45.27221691893464" lon="8.732586780949596"><ele>106.33333333333334</ele><time>2026-05-03T13:49:52Z</time></trkpt><trkpt lat="45.27213802864988" lon="8.73260033214132"><ele>106.5</ele><time>2026-05-03T13:49:53Z</time></trkpt><trkpt lat="45.27205700547362" lon="8.73259967750771"><ele>106.66666666666666</ele><time>2026-05-03T13:49:54Z</time></trkpt><trkpt lat="45.27197749637555" lon="8.73258705348342"><ele>106.83333333333333</ele><time>2026-05-03T13:49:55Z</time></trkpt><trkpt lat="45.27190282422495" lon="8.732527139035447"><ele>107.0</ele><time>2026-05-03T13:49:56Z</time></trkpt><trkpt lat="45.271822554915225" lon="8.732482102606902"><ele>106.99999999999999</ele><time>2026-05-03T13:49:57Z</time></trkpt><trkpt lat="45.27173827355764" lon="8.732435982206626"><ele>107.0</ele><time>2026-05-03T13:49:58Z</time></trkpt><trkpt lat="45.27165452380429" lon="8.732410334767312"><ele>107.0</ele><time>2026-05-03T13:49:59Z</time></trkpt><trkpt lat="45.271572337808784" lon="8.73234730711164"><ele>107.0</ele><time>2026-05-03T13:50:00Z</time></trkpt><trkpt lat="45.27148860469896" lon="8.73231989951215"><ele>106.99999999999999</ele><time>2026-05-03T13:50:01Z</time></trkpt><trkpt lat="45.27141092832165" lon="8.732283155855047"><ele>107.0</ele><time>2026-05-03T13:50:02Z</time></trkpt><trkpt lat="45.271330646289705" lon="8.732252723296625"><ele>106.99999999999999</ele><time>2026-05-03T13:50:03Z</time></trkpt><trkpt lat="45.271252365948456" lon="8.732217002398041"><ele>107.0</ele><time>2026-05-03T13:50:04Z</time></trkpt><trkpt lat="45.27117341434427" lon="8.732180816619673"><ele>107.0</ele><time>2026-05-03T13:50:05Z</time></trkpt><trkpt lat="45.27109337581433" lon="8.732150106981534"><ele>107.0</ele><time>2026-05-03T13:50:06Z</time></trkpt><trkpt lat="45.27100786910386" lon="8.732123500265226"><ele>106.99999999999999</ele><time>2026-05-03T13:50:07Z</time></trkpt><trkpt lat="45.27091955518635" lon="8.732106265580132"><ele>107.0</ele><time>2026-05-03T13:50:08Z</time></trkpt><trkpt lat="45.27082874840434" lon="8.732096502669876"><ele>106.99999999999999</ele><time>2026-05-03T13:50:09Z</time></trkpt><trkpt lat="45.270746907596816" lon="8.732104876537631"><ele>107.0</ele><time>2026-05-03T13:50:10Z</time></trkpt><trkpt lat="45.270667924323014" lon="8.732125504914885"><ele>107.0</ele><time>2026-05-03T13:50:11Z</time></trkpt><trkpt lat="45.2706017618771" lon="8.73215579395335"><ele>107.0</ele><time>2026-05-03T13:50:12Z</time></trkpt><trkpt lat="45.270499607716" lon="8.732227582819105"><ele>106.99999999999999</ele><time>2026-05-03T13:50:14Z</time></trkpt><trkpt lat="45.270418299095844" lon="8.732272806136315"><ele>107.0</ele><time>2026-05-03T13:50:16Z</time></trkpt><trkpt lat="45.270352090992546" lon="8.73229543552862"><ele>107.0</ele><time>2026-05-03T13:50:19Z</time></trkpt><trkpt lat="45.2702962484663" lon="8.732149218636573"><ele>106.99999999999999</ele><time>2026-05-03T13:50:22Z</time></trkpt><trkpt lat="45.27029244410129" lon="8.732040554308163"><ele>106.99999999999999</ele><time>2026-05-03T13:50:23Z</time></trkpt><trkpt lat="45.27030146057839" lon="8.731924369971194"><ele>107.0</ele><time>2026-05-03T13:50:24Z</time></trkpt><trkpt lat="45.270330684940966" lon="8.731802950640034"><ele>107.0</ele><time>2026-05-03T13:50:25Z</time></trkpt><trkpt lat="45.27032710023296" lon="8.73166969000194"><ele>107.0</ele><time>2026-05-03T13:50:26Z</time></trkpt><trkpt lat="45.27034719834107" lon="8.731541946515051"><ele>106.99999999999999</ele><time>2026-05-03T13:50:27Z</time></trkpt><trkpt lat="45.270355309896196" lon="8.731400696397783"><ele>106.99999999999999</ele><time>2026-05-03T13:50:28Z</time></trkpt><trkpt lat="45.270361739067575" lon="8.73124406951352"><ele>107.0</ele><time>2026-05-03T13:50:29Z</time></trkpt><trkpt lat="45.270379188867004" lon="8.73109437708657"><ele>107.0</ele><time>2026-05-03T13:50:30Z</time></trkpt><trkpt lat="45.27038638547553" lon="8.730941218393408"><ele>107.0</ele><time>2026-05-03T13:50:31Z</time></trkpt><trkpt lat="45.27040042155099" lon="8.730776646767243"><ele>107.0</ele><time>2026-05-03T13:50:32Z</time></trkpt><trkpt lat="45.27041627190859" lon="8.730602665157196"><ele>107.0</ele><time>2026-05-03T13:50:33Z</time></trkpt><trkpt lat="45.270426225227695" lon="8.730430163121188"><ele>107.0</ele><time>2026-05-03T13:50:34Z</time></trkpt><trkpt lat="45.27043639816461" lon="8.730245974004683"><ele>107.25</ele><time>2026-05-03T13:50:35Z</time></trkpt><trkpt lat="45.270452813763534" lon="8.730050199679683"><ele>107.5</ele><time>2026-05-03T13:50:36Z</time></trkpt><trkpt lat="45.27046529731606" lon="8.72988322157891"><ele>107.75</ele><time>2026-05-03T13:50:37Z</time></trkpt><trkpt lat="45.2704774044723" lon="8.729734054515623"><ele>108.0</ele><time>2026-05-03T13:50:38Z</time></trkpt><trkpt lat="45.2704878249853" lon="8.729595711978275"><ele>108.0</ele><time>2026-05-03T13:50:39Z</time></trkpt><trkpt lat="45.270500233818794" lon="8.729467409559962"><ele>108.0</ele><time>2026-05-03T13:50:40Z</time></trkpt><trkpt lat="45.27051068758428" lon="8.729352925623848"><ele>108.0</ele><time>2026-05-03T13:50:41Z</time></trkpt><trkpt lat="45.27051891849496" lon="8.729251345483398"><ele>108.0</ele><time>2026-05-03T13:50:42Z</time></trkpt><trkpt lat="45.27053137055509" lon="8.729161451209334"><ele>108.0</ele><time>2026-05-03T13:50:43Z</time></trkpt><trkpt lat="45.270525537796544" lon="8.729045372601233"><ele>108.0</ele><time>2026-05-03T13:50:48Z</time></trkpt><trkpt lat="45.27050401997525" lon="8.728875956504826"><ele>108.0</ele><time>2026-05-03T13:50:51Z</time></trkpt><trkpt lat="45.27047565132777" lon="8.728768763333804"><ele>108.0</ele><time>2026-05-03T13:50:52Z</time></trkpt><trkpt lat="45.27045216755195" lon="8.728680605245641"><ele>108.0</ele><time>2026-05-03T13:50:53Z</time></trkpt><trkpt lat="45.27042755078384" lon="8.728590797993023"><ele>108.0</ele><time>2026-05-03T13:50:54Z</time></trkpt><trkpt lat="45.27038829827683" lon="8.728505259021397"><ele>108.0</ele><time>2026-05-03T13:50:55Z</time></trkpt><trkpt lat="45.270367729424414" lon="8.728420428584746"><ele>108.0</ele><time>2026-05-03T13:50:56Z</time></trkpt><trkpt lat="45.27032169973259" lon="8.72825062315473"><ele>108.0</ele><time>2026-05-03T13:50:58Z</time></trkpt><trkpt lat="45.27030001812845" lon="8.728157259631196"><ele>108.0</ele><time>2026-05-03T13:50:59Z</time></trkpt><trkpt lat="45.270273847893485" lon="8.728060942144378"><ele>108.0</ele><time>2026-05-03T13:51:00Z</time></trkpt><trkpt lat="45.27024748908708" lon="8.727958575761422"><ele>108.0</ele><time>2026-05-03T13:51:01Z</time></trkpt><trkpt lat="45.270220418664664" lon="8.727864316112944"><ele>108.0</ele><time>2026-05-03T13:51:02Z</time></trkpt><trkpt lat="45.270193716362556" lon="8.727761815042127"><ele>108.0</ele><time>2026-05-03T13:51:03Z</time></trkpt><trkpt lat="45.2701775213565" lon="8.727659918928886"><ele>108.0</ele><time>2026-05-03T13:51:04Z</time></trkpt><trkpt lat="45.270136229108566" lon="8.72756793344617"><ele>108.0</ele><time>2026-05-03T13:51:05Z</time></trkpt><trkpt lat="45.270104104464785" lon="8.727464042898712"><ele>108.00000000000001</ele><time>2026-05-03T13:51:06Z</time></trkpt><trkpt lat="45.27006281988602" lon="8.727367694698135"><ele>108.00000000000001</ele><time>2026-05-03T13:51:07Z</time></trkpt><trkpt lat="45.27001703053036" lon="8.72721493933245"><ele>108.0</ele><time>2026-05-03T13:51:09Z</time></trkpt><trkpt lat="45.269964031338574" lon="8.727053194827391"><ele>108.0</ele><time>2026-05-03T13:51:11Z</time></trkpt><trkpt lat="45.26993607037422" lon="8.726967369238729"><ele>107.85714285714286</ele><time>2026-05-03T13:51:12Z</time></trkpt><trkpt lat="45.26990536466703" lon="8.72688360817548"><ele>107.71428571428571</ele><time>2026-05-03T13:51:13Z</time></trkpt><trkpt lat="45.26987508709063" lon="8.726797716933406"><ele>107.57142857142858</ele><time>2026-05-03T13:51:14Z</time></trkpt><trkpt lat="45.26984707895239" lon="8.7267070526688"><ele>107.42857142857143</ele><time>2026-05-03T13:51:15Z</time></trkpt><trkpt lat="45.26982096102212" lon="8.726621881190509"><ele>107.28571428571429</ele><time>2026-05-03T13:51:16Z</time></trkpt><trkpt lat="45.26978889927291" lon="8.726537368172052"><ele>107.14285714285715</ele><time>2026-05-03T13:51:17Z</time></trkpt><trkpt lat="45.26977500780226" lon="8.726445906725855"><ele>107.0</ele><time>2026-05-03T13:51:18Z</time></trkpt><trkpt lat="45.26973160843378" lon="8.726369682181646"><ele>107.0</ele><time>2026-05-03T13:51:19Z</time></trkpt><trkpt lat="45.26969150325226" lon="8.726199150767068"><ele>106.99999999999999</ele><time>2026-05-03T13:51:21Z</time></trkpt><trkpt lat="45.26964871039859" lon="8.726124771349342"><ele>106.99999999999999</ele><time>2026-05-03T13:51:22Z</time></trkpt><trkpt lat="45.26960154290002" lon="8.725968272036956"><ele>107.0</ele><time>2026-05-03T13:51:24Z</time></trkpt><trkpt lat="45.269555793911486" lon="8.725834030750239"><ele>107.0</ele><time>2026-05-03T13:51:26Z</time></trkpt><trkpt lat="45.26951568944676" lon="8.725710791824465"><ele>106.99999999999999</ele><time>2026-05-03T13:51:28Z</time></trkpt><trkpt lat="45.26946414018029" lon="8.725562848841276"><ele>107.0</ele><time>2026-05-03T13:51:30Z</time></trkpt><trkpt lat="45.26943561221594" lon="8.72547076184707"><ele>107.0</ele><time>2026-05-03T13:51:31Z</time></trkpt><trkpt lat="45.26940718151478" lon="8.725377466813683"><ele>107.0</ele><time>2026-05-03T13:51:32Z</time></trkpt><trkpt lat="45.26937906036296" lon="8.725285840912811"><ele>106.99999999999999</ele><time>2026-05-03T13:51:33Z</time></trkpt><trkpt lat="45.269353450546255" lon="8.725196327455981"><ele>107.0</ele><time>2026-05-03T13:51:34Z</time></trkpt><trkpt lat="45.269329062405966" lon="8.725107081144225"><ele>107.16666666666666</ele><time>2026-05-03T13:51:35Z</time></trkpt><trkpt lat="45.269298371225425" lon="8.725024452142685"><ele>107.33333333333333</ele><time>2026-05-03T13:51:36Z</time></trkpt><trkpt lat="45.26925256474778" lon="8.724894292363459"><ele>107.5</ele><time>2026-05-03T13:51:38Z</time></trkpt><trkpt lat="45.269214884891255" lon="8.724794636596506"><ele>107.66666666666666</ele><time>2026-05-03T13:51:40Z</time></trkpt><trkpt lat="45.26920712680169" lon="8.724704781493013"><ele>107.83333333333333</ele><time>2026-05-03T13:51:44Z</time></trkpt><trkpt lat="45.269287863393906" lon="8.724665314169854"><ele>108.0</ele><time>2026-05-03T13:51:45Z</time></trkpt><trkpt lat="45.26936738670732" lon="8.724596032390604"><ele>108.0</ele><time>2026-05-03T13:51:46Z</time></trkpt><trkpt lat="45.2694689052046" lon="8.72454144738179"><ele>108.0</ele><time>2026-05-03T13:51:47Z</time></trkpt><trkpt lat="45.269574358621064" lon="8.724469693830068"><ele>108.0</ele><time>2026-05-03T13:51:48Z</time></trkpt><trkpt lat="45.26969165630164" lon="8.724380313991464"><ele>108.0</ele><time>2026-05-03T13:51:49Z</time></trkpt><trkpt lat="45.269812861309276" lon="8.724293540345524"><ele>108.0</ele><time>2026-05-03T13:51:50Z</time></trkpt><trkpt lat="45.26994792038206" lon="8.724199136761996"><ele>108.0</ele><time>2026-05-03T13:51:51Z</time></trkpt><trkpt lat="45.27007426479899" lon="8.724108906945249"><ele>108.0</ele><time>2026-05-03T13:51:52Z</time></trkpt><trkpt lat="45.27021323383034" lon="8.724008394350905"><ele>108.0</ele><time>2026-05-03T13:51:53Z</time></trkpt><trkpt lat="45.27034657823324" lon="8.723913674544022"><ele>108.0</ele><time>2026-05-03T13:51:54Z</time></trkpt><trkpt lat="45.27047949023516" lon="8.723820746743181"><ele>108.0</ele><time>2026-05-03T13:51:55Z</time></trkpt><trkpt lat="45.27061759294912" lon="8.723720675022507"><ele>108.0</ele><time>2026-05-03T13:51:56Z</time></trkpt><trkpt lat="45.27075467844615" lon="8.72362020832225"><ele>108.66666666666666</ele><time>2026-05-03T13:51:57Z</time></trkpt><trkpt lat="45.270899254901146" lon="8.723517694563775"><ele>109.33333333333333</ele><time>2026-05-03T13:51:58Z</time></trkpt><trkpt lat="45.27104520462597" lon="8.723413586213285"><ele>110.0</ele><time>2026-05-03T13:51:59Z</time></trkpt><trkpt lat="45.27118949269852" lon="8.723310731081758"><ele>110.0</ele><time>2026-05-03T13:52:00Z</time></trkpt><trkpt lat="45.27133080005888" lon="8.723210872161888"><ele>110.0</ele><time>2026-05-03T13:52:01Z</time></trkpt><trkpt lat="45.271466698630334" lon="8.723113258944743"><ele>110.0</ele><time>2026-05-03T13:52:02Z</time></trkpt><trkpt lat="45.271603159503464" lon="8.723012740724354"><ele>109.0</ele><time>2026-05-03T13:52:03Z</time></trkpt><trkpt lat="45.27173721782102" lon="8.722912640550037"><ele>108.0</ele><time>2026-05-03T13:52:04Z</time></trkpt><trkpt lat="45.2718691854874" lon="8.722817040646186"><ele>107.0</ele><time>2026-05-03T13:52:05Z</time></trkpt><trkpt lat="45.27200453051501" lon="8.72272454615101"><ele>107.0</ele><time>2026-05-03T13:52:06Z</time></trkpt><trkpt lat="45.27212745966097" lon="8.72263566150337"><ele>107.0</ele><time>2026-05-03T13:52:07Z</time></trkpt><trkpt lat="45.27224383860238" lon="8.722550123679817"><ele>107.0</ele><time>2026-05-03T13:52:08Z</time></trkpt><trkpt lat="45.27235492484481" lon="8.722470057196121"><ele>107.0</ele><time>2026-05-03T13:52:09Z</time></trkpt><trkpt lat="45.272458241732494" lon="8.722388569165158"><ele>107.19999999999999</ele><time>2026-05-03T13:52:10Z</time></trkpt><trkpt lat="45.272552200414005" lon="8.722308508947044"><ele>107.39999999999999</ele><time>2026-05-03T13:52:11Z</time></trkpt><trkpt lat="45.27264123251365" lon="8.722236436229894"><ele>107.60000000000001</ele><time>2026-05-03T13:52:12Z</time></trkpt><trkpt lat="45.272722922898886" lon="8.722177152866456"><ele>107.80000000000001</ele><time>2026-05-03T13:52:13Z</time></trkpt><trkpt lat="45.272797497871586" lon="8.72212527027459"><ele>108.0</ele><time>2026-05-03T13:52:14Z</time></trkpt><trkpt lat="45.272866649490915" lon="8.72207941021127"><ele>108.0</ele><time>2026-05-03T13:52:15Z</time></trkpt><trkpt lat="45.27292912982223" lon="8.722033150554417"><ele>108.00000000000001</ele><time>2026-05-03T13:52:16Z</time></trkpt><trkpt lat="45.273029935757954" lon="8.721973771813321"><ele>108.00000000000001</ele><time>2026-05-03T13:52:18Z</time></trkpt><trkpt lat="45.27308466214565" lon="8.721915801527592"><ele>108.0</ele><time>2026-05-03T13:52:21Z</time></trkpt><trkpt lat="45.27303322901573" lon="8.72173273014891"><ele>108.0</ele><time>2026-05-03T13:52:22Z</time></trkpt><trkpt lat="45.27292014864578" lon="8.72185705083828"><ele>108.0</ele><time>2026-05-03T13:52:25Z</time></trkpt><trkpt lat="45.27285381425359" lon="8.721978111998274"><ele>108.0</ele><time>2026-05-03T13:52:27Z</time></trkpt><trkpt lat="45.272803059985996" lon="8.722055689073956"><ele>108.0</ele><time>2026-05-03T13:52:28Z</time></trkpt><trkpt lat="45.27275057995793" lon="8.72213924594526"><ele>108.0</ele><time>2026-05-03T13:52:29Z</time></trkpt><trkpt lat="45.27264052110243" lon="8.722132243073249"><ele>108.0</ele><time>2026-05-03T13:52:30Z</time></trkpt><trkpt lat="45.27258639076552" lon="8.72217972421367"><ele>108.0</ele><time>2026-05-03T13:52:31Z</time></trkpt><trkpt lat="45.27250570826566" lon="8.722249466892908"><ele>108.0</ele><time>2026-05-03T13:52:33Z</time></trkpt><trkpt lat="45.272429079792204" lon="8.722319917889267"><ele>108.0</ele><time>2026-05-03T13:52:35Z</time></trkpt><trkpt lat="45.27236545430915" lon="8.722370381299205"><ele>108.0</ele><time>2026-05-03T13:52:38Z</time></trkpt><trkpt lat="45.272304254391976" lon="8.722105852417394"><ele>108.0</ele><time>2026-05-03T13:52:44Z</time></trkpt><trkpt lat="45.272282259527266" lon="8.72197588994783"><ele>108.2</ele><time>2026-05-03T13:52:46Z</time></trkpt><trkpt lat="45.2722612528565" lon="8.721828958226128"><ele>108.4</ele><time>2026-05-03T13:52:48Z</time></trkpt><trkpt lat="45.27223728970632" lon="8.721698081893678"><ele>108.60000000000001</ele><time>2026-05-03T13:52:50Z</time></trkpt><trkpt lat="45.272209439261374" lon="8.721566574626014"><ele>108.80000000000001</ele><time>2026-05-03T13:52:52Z</time></trkpt><trkpt lat="45.27218137204492" lon="8.721439749973552"><ele>109.0</ele><time>2026-05-03T13:52:54Z</time></trkpt><trkpt lat="45.27216164361084" lon="8.721299958706002"><ele>109.0</ele><time>2026-05-03T13:52:56Z</time></trkpt><trkpt lat="45.27214615500692" lon="8.721173318582021"><ele>109.0</ele><time>2026-05-03T13:52:58Z</time></trkpt><trkpt lat="45.272125740223196" lon="8.721020326137287"><ele>109.0</ele><time>2026-05-03T13:53:00Z</time></trkpt><trkpt lat="45.272106070837246" lon="8.720864375479831"><ele>109.0</ele><time>2026-05-03T13:53:02Z</time></trkpt><trkpt lat="45.27208246509883" lon="8.720715339550434"><ele>109.0</ele><time>2026-05-03T13:53:04Z</time></trkpt><trkpt lat="45.272067000756394" lon="8.72057391770001"><ele>109.2</ele><time>2026-05-03T13:53:06Z</time></trkpt><trkpt lat="45.2720566845459" lon="8.720406672300236"><ele>109.4</ele><time>2026-05-03T13:53:08Z</time></trkpt><trkpt lat="45.27206008009553" lon="8.72025771227375"><ele>109.6</ele><time>2026-05-03T13:53:10Z</time></trkpt><trkpt lat="45.272073053556696" lon="8.720107345775489"><ele>109.8</ele><time>2026-05-03T13:53:12Z</time></trkpt><trkpt lat="45.2720834995394" lon="8.720016348846572"><ele>110.0</ele><time>2026-05-03T13:53:13Z</time></trkpt><trkpt lat="45.27210002013165" lon="8.719849889634038"><ele>109.8</ele><time>2026-05-03T13:53:15Z</time></trkpt><trkpt lat="45.27211463764568" lon="8.719694638705425"><ele>109.6</ele><time>2026-05-03T13:53:17Z</time></trkpt><trkpt lat="45.27212198918176" lon="8.719601628039939"><ele>109.4</ele><time>2026-05-03T13:53:18Z</time></trkpt><trkpt lat="45.27212957559765" lon="8.719507966773474"><ele>109.2</ele><time>2026-05-03T13:53:19Z</time></trkpt><trkpt lat="45.27214443171935" lon="8.719332341411315"><ele>109.0</ele><time>2026-05-03T13:53:21Z</time></trkpt><trkpt lat="45.27213801197344" lon="8.719168043140876"><ele>109.0</ele><time>2026-05-03T13:53:23Z</time></trkpt><trkpt lat="45.27212881848385" lon="8.719078517074358"><ele>109.0</ele><time>2026-05-03T13:53:24Z</time></trkpt><trkpt lat="45.27211132420714" lon="8.718971235942954"><ele>109.0</ele><time>2026-05-03T13:53:25Z</time></trkpt><trkpt lat="45.27209360954652" lon="8.71886866141436"><ele>109.0</ele><time>2026-05-03T13:53:26Z</time></trkpt><trkpt lat="45.27207099993936" lon="8.718758447951632"><ele>109.0</ele><time>2026-05-03T13:53:27Z</time></trkpt><trkpt lat="45.272047230144054" lon="8.718657433309438"><ele>109.0</ele><time>2026-05-03T13:53:28Z</time></trkpt><trkpt lat="45.27202268992865" lon="8.718557466557218"><ele>109.0</ele><time>2026-05-03T13:53:29Z</time></trkpt><trkpt lat="45.27199421414382" lon="8.718457742609798"><ele>109.16666666666667</ele><time>2026-05-03T13:53:30Z</time></trkpt><trkpt lat="45.27196433307532" lon="8.71835598073605"><ele>109.33333333333334</ele><time>2026-05-03T13:53:31Z</time></trkpt><trkpt lat="45.271932289099176" lon="8.71825372923756"><ele>109.5</ele><time>2026-05-03T13:53:32Z</time></trkpt><trkpt lat="45.27189783832055" lon="8.718149765736166"><ele>109.66666666666666</ele><time>2026-05-03T13:53:33Z</time></trkpt><trkpt lat="45.27186323228363" lon="8.718041467729112"><ele>109.83333333333333</ele><time>2026-05-03T13:53:34Z</time></trkpt><trkpt lat="45.27183004662978" lon="8.7179310531742"><ele>110.0</ele><time>2026-05-03T13:53:35Z</time></trkpt><trkpt lat="45.2717965175705" lon="8.717822289827449"><ele>109.66666666666666</ele><time>2026-05-03T13:53:36Z</time></trkpt><trkpt lat="45.27176867753113" lon="8.717732108035342"><ele>109.33333333333333</ele><time>2026-05-03T13:53:37Z</time></trkpt><trkpt lat="45.27173806159009" lon="8.717631377247088"><ele>109.0</ele><time>2026-05-03T13:53:38Z</time></trkpt><trkpt lat="45.27171000166371" lon="8.717522175398237"><ele>108.66666666666666</ele><time>2026-05-03T13:53:39Z</time></trkpt><trkpt lat="45.27167849831953" lon="8.717410952444803"><ele>108.33333333333333</ele><time>2026-05-03T13:53:40Z</time></trkpt><trkpt lat="45.271649266615" lon="8.717292339068113"><ele>108.0</ele><time>2026-05-03T13:53:41Z</time></trkpt><trkpt lat="45.27162262304094" lon="8.717169339707624"><ele>108.0</ele><time>2026-05-03T13:53:42Z</time></trkpt><trkpt lat="45.271605563218785" lon="8.717071575872982"><ele>108.0</ele><time>2026-05-03T13:53:43Z</time></trkpt><trkpt lat="45.27158781283087" lon="8.716967829309908"><ele>108.0</ele><time>2026-05-03T13:53:44Z</time></trkpt><trkpt lat="45.27157100322715" lon="8.716868299950784"><ele>108.0</ele><time>2026-05-03T13:53:45Z</time></trkpt><trkpt lat="45.271552034807655" lon="8.716765399354074"><ele>108.0</ele><time>2026-05-03T13:53:46Z</time></trkpt><trkpt lat="45.271535690127834" lon="8.716673405348098"><ele>108.0</ele><time>2026-05-03T13:53:47Z</time></trkpt><trkpt lat="45.271520224418225" lon="8.716576833483845"><ele>108.0</ele><time>2026-05-03T13:53:48Z</time></trkpt><trkpt lat="45.27149171666833" lon="8.716404212057402"><ele>108.16666666666667</ele><time>2026-05-03T13:53:50Z</time></trkpt><trkpt lat="45.27146678114715" lon="8.716230835797196"><ele>108.33333333333334</ele><time>2026-05-03T13:53:52Z</time></trkpt><trkpt lat="45.271455597955466" lon="8.716132124856488"><ele>108.5</ele><time>2026-05-03T13:53:53Z</time></trkpt><trkpt lat="45.271448638558944" lon="8.71603307750488"><ele>108.66666666666667</ele><time>2026-05-03T13:53:54Z</time></trkpt><trkpt lat="45.27143943649633" lon="8.715921866632288"><ele>108.83333333333334</ele><time>2026-05-03T13:53:55Z</time></trkpt><trkpt lat="45.271434165807825" lon="8.715822494329428"><ele>109.0</ele><time>2026-05-03T13:53:56Z</time></trkpt><trkpt lat="45.271433409188944" lon="8.715725895960084"><ele>109.28571428571429</ele><time>2026-05-03T13:53:57Z</time></trkpt><trkpt lat="45.271425083858496" lon="8.715619967238109"><ele>109.57142857142858</ele><time>2026-05-03T13:53:58Z</time></trkpt><trkpt lat="45.271418505868695" lon="8.715508243078316"><ele>109.85714285714286</ele><time>2026-05-03T13:53:59Z</time></trkpt><trkpt lat="45.271411492472566" lon="8.715394109093022"><ele>110.14285714285714</ele><time>2026-05-03T13:54:00Z</time></trkpt><trkpt lat="45.27140325786841" lon="8.715299808904485"><ele>110.42857142857143</ele><time>2026-05-03T13:54:01Z</time></trkpt><trkpt lat="45.271400572028234" lon="8.71520413023909"><ele>110.71428571428571</ele><time>2026-05-03T13:54:02Z</time></trkpt><trkpt lat="45.271401639396586" lon="8.7151142588009"><ele>111.0</ele><time>2026-05-03T13:54:03Z</time></trkpt><trkpt lat="45.27140084957823" lon="8.71502039221542"><ele>111.0</ele><time>2026-05-03T13:54:04Z</time></trkpt><trkpt lat="45.271395349000386" lon="8.714921375312906"><ele>111.0</ele><time>2026-05-03T13:54:05Z</time></trkpt><trkpt lat="45.27139334706295" lon="8.714815681087439"><ele>111.0</ele><time>2026-05-03T13:54:06Z</time></trkpt><trkpt lat="45.27138861783707" lon="8.714712658025881"><ele>111.0</ele><time>2026-05-03T13:54:07Z</time></trkpt><trkpt lat="45.27138123430775" lon="8.714611499936753"><ele>111.0</ele><time>2026-05-03T13:54:08Z</time></trkpt><trkpt lat="45.271373018524784" lon="8.71452139092568"><ele>111.0</ele><time>2026-05-03T13:54:09Z</time></trkpt><trkpt lat="45.271357985901574" lon="8.714372200758232"><ele>111.0</ele><time>2026-05-03T13:54:11Z</time></trkpt><trkpt lat="45.27133984324032" lon="8.714232670325142"><ele>111.0</ele><time>2026-05-03T13:54:13Z</time></trkpt><trkpt lat="45.2713265313251" lon="8.714123194395789"><ele>111.0</ele><time>2026-05-03T13:54:15Z</time></trkpt><trkpt lat="45.27130931325915" lon="8.714021663608246"><ele>111.0</ele><time>2026-05-03T13:54:17Z</time></trkpt><trkpt lat="45.27129403362551" lon="8.71392624643674"><ele>111.0</ele><time>2026-05-03T13:54:20Z</time></trkpt><trkpt lat="45.27138377948194" lon="8.713847253272784"><ele>111.0</ele><time>2026-05-03T13:54:24Z</time></trkpt><trkpt lat="45.271457529496196" lon="8.713856315245605"><ele>111.19999999999999</ele><time>2026-05-03T13:54:25Z</time></trkpt><trkpt lat="45.271579152397145" lon="8.713864740232134"><ele>111.39999999999999</ele><time>2026-05-03T13:54:27Z</time></trkpt><trkpt lat="45.27164298338182" lon="8.713867383187113"><ele>111.6</ele><time>2026-05-03T13:54:28Z</time></trkpt><trkpt lat="45.27170783637894" lon="8.713865243349582"><ele>111.8</ele><time>2026-05-03T13:54:29Z</time></trkpt><trkpt lat="45.27182596670147" lon="8.713867896720664"><ele>112.0</ele><time>2026-05-03T13:54:31Z</time></trkpt><trkpt lat="45.27194500801182" lon="8.713875540772753"><ele>112.00000000000001</ele><time>2026-05-03T13:54:33Z</time></trkpt><trkpt lat="45.272071478030135" lon="8.713884180334606"><ele>112.0</ele><time>2026-05-03T13:54:35Z</time></trkpt><trkpt lat="45.27213510716924" lon="8.71389203826653"><ele>112.0</ele><time>2026-05-03T13:54:36Z</time></trkpt><trkpt lat="45.27220167969465" lon="8.713898323276249"><ele>112.0</ele><time>2026-05-03T13:54:37Z</time></trkpt><trkpt lat="45.272269432223936" lon="8.713906946880702"><ele>112.00000000000001</ele><time>2026-05-03T13:54:38Z</time></trkpt><trkpt lat="45.27239295369532" lon="8.713921338777014"><ele>112.0</ele><time>2026-05-03T13:54:40Z</time></trkpt><trkpt lat="45.27246217647243" lon="8.713925651139496"><ele>111.85714285714286</ele><time>2026-05-03T13:54:41Z</time></trkpt><trkpt lat="45.272534420369624" lon="8.713932763403367"><ele>111.71428571428572</ele><time>2026-05-03T13:54:42Z</time></trkpt><trkpt lat="45.27260598356055" lon="8.71394249354517"><ele>111.57142857142857</ele><time>2026-05-03T13:54:43Z</time></trkpt><trkpt lat="45.27267184750425" lon="8.71394511053397"><ele>111.42857142857143</ele><time>2026-05-03T13:54:44Z</time></trkpt><trkpt lat="45.27274633373806" lon="8.713951774091244"><ele>111.28571428571429</ele><time>2026-05-03T13:54:45Z</time></trkpt><trkpt lat="45.272823240324605" lon="8.713959946986886"><ele>111.14285714285714</ele><time>2026-05-03T13:54:46Z</time></trkpt><trkpt lat="45.27289651814514" lon="8.713966798535694"><ele>111.0</ele><time>2026-05-03T13:54:47Z</time></trkpt><trkpt lat="45.27296913321847" lon="8.713979337858346"><ele>111.0</ele><time>2026-05-03T13:54:48Z</time></trkpt><trkpt lat="45.27304029006811" lon="8.713988205144267"><ele>111.0</ele><time>2026-05-03T13:54:49Z</time></trkpt><trkpt lat="45.27310858848982" lon="8.713993616274392"><ele>111.0</ele><time>2026-05-03T13:54:50Z</time></trkpt><trkpt lat="45.27318281437986" lon="8.714003979621134"><ele>111.0</ele><time>2026-05-03T13:54:51Z</time></trkpt><trkpt lat="45.27325418857671" lon="8.714016789396993"><ele>111.0</ele><time>2026-05-03T13:54:52Z</time></trkpt><trkpt lat="45.27332444725714" lon="8.714025742665202"><ele>111.0</ele><time>2026-05-03T13:54:53Z</time></trkpt><trkpt lat="45.273393663548035" lon="8.714034199756687"><ele>111.0</ele><time>2026-05-03T13:54:54Z</time></trkpt><trkpt lat="45.27346132559618" lon="8.714042258245152"><ele>111.0</ele><time>2026-05-03T13:54:55Z</time></trkpt><trkpt lat="45.27353150870638" lon="8.714047462808303"><ele>111.0</ele><time>2026-05-03T13:54:56Z</time></trkpt><trkpt lat="45.27360294593533" lon="8.714051043661602"><ele>111.0</ele><time>2026-05-03T13:54:57Z</time></trkpt><trkpt lat="45.27367336377634" lon="8.714052585409878"><ele>111.0</ele><time>2026-05-03T13:54:58Z</time></trkpt><trkpt lat="45.27374397243877" lon="8.714053598197259"><ele>111.0</ele><time>2026-05-03T13:54:59Z</time></trkpt><trkpt lat="45.27381330367735" lon="8.714055072014437"><ele>111.0</ele><time>2026-05-03T13:55:00Z</time></trkpt><trkpt lat="45.27388630376588" lon="8.714059836416633"><ele>111.0</ele><time>2026-05-03T13:55:01Z</time></trkpt><trkpt lat="45.273951965893644" lon="8.714063371236415"><ele>111.0</ele><time>2026-05-03T13:55:02Z</time></trkpt><trkpt lat="45.27401581825017" lon="8.714067293666277"><ele>111.0</ele><time>2026-05-03T13:55:03Z</time></trkpt><trkpt lat="45.27412858438264" lon="8.714085220284638"><ele>111.0</ele><time>2026-05-03T13:55:05Z</time></trkpt><trkpt lat="45.274230972949" lon="8.71410853214912"><ele>111.0</ele><time>2026-05-03T13:55:07Z</time></trkpt><trkpt lat="45.2742940706137" lon="8.714114117006556"><ele>111.0</ele><time>2026-05-03T13:55:08Z</time></trkpt><trkpt lat="45.274388586588856" lon="8.714125973308901"><ele>111.0</ele><time>2026-05-03T13:55:10Z</time></trkpt><trkpt lat="45.27448244057604" lon="8.714110343079675"><ele>111.0</ele><time>2026-05-03T13:55:12Z</time></trkpt><trkpt lat="45.27459154585641" lon="8.714070791748487"><ele>111.0</ele><time>2026-05-03T13:55:14Z</time></trkpt><trkpt lat="45.2747093520286" lon="8.714027391849843"><ele>111.0</ele><time>2026-05-03T13:55:16Z</time></trkpt><trkpt lat="45.27481777645554" lon="8.71398392110416"><ele>111.0</ele><time>2026-05-03T13:55:18Z</time></trkpt><trkpt lat="45.27492394177996" lon="8.713926995491379"><ele>110.83333333333333</ele><time>2026-05-03T13:55:20Z</time></trkpt><trkpt lat="45.275033293843414" lon="8.713854311095345"><ele>110.66666666666666</ele><time>2026-05-03T13:55:22Z</time></trkpt><trkpt lat="45.27509245294851" lon="8.713813707713856"><ele>110.5</ele><time>2026-05-03T13:55:23Z</time></trkpt><trkpt lat="45.27515353775159" lon="8.713763464692347"><ele>110.33333333333333</ele><time>2026-05-03T13:55:24Z</time></trkpt><trkpt lat="45.275209993354316" lon="8.713719897330115"><ele>110.16666666666666</ele><time>2026-05-03T13:55:25Z</time></trkpt><trkpt lat="45.27530574524111" lon="8.713649041956081"><ele>110.0</ele><time>2026-05-03T13:55:27Z</time></trkpt><trkpt lat="45.27536342062552" lon="8.713606991982848"><ele>110.14285714285714</ele><time>2026-05-03T13:55:28Z</time></trkpt><trkpt lat="45.27542322698364" lon="8.713565706937473"><ele>110.28571428571428</ele><time>2026-05-03T13:55:29Z</time></trkpt><trkpt lat="45.27548558048708" lon="8.713533543015865"><ele>110.42857142857142</ele><time>2026-05-03T13:55:30Z</time></trkpt><trkpt lat="45.27554767744546" lon="8.713506241691771"><ele>110.57142857142857</ele><time>2026-05-03T13:55:31Z</time></trkpt><trkpt lat="45.275609542605174" lon="8.713486261086453"><ele>110.71428571428572</ele><time>2026-05-03T13:55:32Z</time></trkpt><trkpt lat="45.27567913467775" lon="8.713468498739688"><ele>110.85714285714285</ele><time>2026-05-03T13:55:33Z</time></trkpt><trkpt lat="45.27575012680609" lon="8.713447088268644"><ele>111.0</ele><time>2026-05-03T13:55:34Z</time></trkpt><trkpt lat="45.27582279854803" lon="8.713427558816312"><ele>111.14285714285714</ele><time>2026-05-03T13:55:35Z</time></trkpt><trkpt lat="45.27589055257392" lon="8.713406626593764"><ele>111.28571428571429</ele><time>2026-05-03T13:55:36Z</time></trkpt><trkpt lat="45.275957029167586" lon="8.7133852225908"><ele>111.42857142857143</ele><time>2026-05-03T13:55:37Z</time></trkpt><trkpt lat="45.27602587169088" lon="8.713365694498629"><ele>111.57142857142857</ele><time>2026-05-03T13:55:38Z</time></trkpt><trkpt lat="45.27609169631604" lon="8.713346213765439"><ele>111.71428571428572</ele><time>2026-05-03T13:55:39Z</time></trkpt><trkpt lat="45.276158361223274" lon="8.713325519890864"><ele>111.85714285714286</ele><time>2026-05-03T13:55:40Z</time></trkpt><trkpt lat="45.27622437560539" lon="8.713303969851223"><ele>112.0</ele><time>2026-05-03T13:55:41Z</time></trkpt><trkpt lat="45.27628980866446" lon="8.713284087086858"><ele>112.00000000000001</ele><time>2026-05-03T13:55:42Z</time></trkpt><trkpt lat="45.27635515054672" lon="8.713268489770769"><ele>112.0</ele><time>2026-05-03T13:55:43Z</time></trkpt><trkpt lat="45.276475163469115" lon="8.713230519962472"><ele>112.0</ele><time>2026-05-03T13:55:45Z</time></trkpt><trkpt lat="45.27654091687597" lon="8.713207371411432"><ele>112.0</ele><time>2026-05-03T13:55:46Z</time></trkpt><trkpt lat="45.27660486026175" lon="8.713177280642448"><ele>112.00000000000001</ele><time>2026-05-03T13:55:47Z</time></trkpt><trkpt lat="45.27666757917765" lon="8.71314807556793"><ele>112.0</ele><time>2026-05-03T13:55:48Z</time></trkpt><trkpt lat="45.27672983385767" lon="8.713111984007778"><ele>111.71428571428571</ele><time>2026-05-03T13:55:49Z</time></trkpt><trkpt lat="45.276793861533996" lon="8.713074961039776"><ele>111.42857142857143</ele><time>2026-05-03T13:55:50Z</time></trkpt><trkpt lat="45.27685926017169" lon="8.71303470250991"><ele>111.14285714285714</ele><time>2026-05-03T13:55:51Z</time></trkpt><trkpt lat="45.27692504944618" lon="8.712990357634217"><ele>110.85714285714286</ele><time>2026-05-03T13:55:52Z</time></trkpt><trkpt lat="45.27698743217952" lon="8.71294802554649"><ele>110.57142857142857</ele><time>2026-05-03T13:55:53Z</time></trkpt><trkpt lat="45.277045774012535" lon="8.71290146707069"><ele>110.28571428571428</ele><time>2026-05-03T13:55:54Z</time></trkpt><trkpt lat="45.277101634946405" lon="8.712855528432575"><ele>110.0</ele><time>2026-05-03T13:55:55Z</time></trkpt><trkpt lat="45.277207554219785" lon="8.71276707863373"><ele>109.99999999999999</ele><time>2026-05-03T13:55:57Z</time></trkpt><trkpt lat="45.27731577170752" lon="8.712681369724189"><ele>110.0</ele><time>2026-05-03T13:55:59Z</time></trkpt><trkpt lat="45.277372506374086" lon="8.712635147804278"><ele>110.0</ele><time>2026-05-03T13:56:00Z</time></trkpt><trkpt lat="45.2774300935075" lon="8.712592436405044"><ele>110.0</ele><time>2026-05-03T13:56:01Z</time></trkpt><trkpt lat="45.277490237642404" lon="8.712548867569861"><ele>109.99999999999999</ele><time>2026-05-03T13:56:02Z</time></trkpt><trkpt lat="45.27755455574858" lon="8.712501338986222"><ele>110.0</ele><time>2026-05-03T13:56:03Z</time></trkpt><trkpt lat="45.27762048671578" lon="8.712457597953938"><ele>109.99999999999999</ele><time>2026-05-03T13:56:04Z</time></trkpt><trkpt lat="45.27768352988039" lon="8.712411326706883"><ele>110.0</ele><time>2026-05-03T13:56:05Z</time></trkpt><trkpt lat="45.277748552593735" lon="8.712367111983331"><ele>110.0</ele><time>2026-05-03T13:56:06Z</time></trkpt><trkpt lat="45.27781259793849" lon="8.712323524580933"><ele>110.0</ele><time>2026-05-03T13:56:07Z</time></trkpt><trkpt lat="45.27787629931681" lon="8.712278561508231"><ele>110.0</ele><time>2026-05-03T13:56:08Z</time></trkpt><trkpt lat="45.27793911743264" lon="8.71223457932774"><ele>109.99999999999999</ele><time>2026-05-03T13:56:09Z</time></trkpt><trkpt lat="45.27800373275918" lon="8.712189498776427"><ele>110.0</ele><time>2026-05-03T13:56:10Z</time></trkpt><trkpt lat="45.278066654838966" lon="8.712146054426777"><ele>109.99999999999999</ele><time>2026-05-03T13:56:11Z</time></trkpt><trkpt lat="45.2781310759557" lon="8.712104214811017"><ele>110.0</ele><time>2026-05-03T13:56:12Z</time></trkpt><trkpt lat="45.27820073205747" lon="8.712056168134458"><ele>110.0</ele><time>2026-05-03T13:56:13Z</time></trkpt><trkpt lat="45.27826354831067" lon="8.712009631772526"><ele>110.0</ele><time>2026-05-03T13:56:14Z</time></trkpt><trkpt lat="45.27832655224314" lon="8.71195889802352"><ele>110.0</ele><time>2026-05-03T13:56:15Z</time></trkpt><trkpt lat="45.27839729696982" lon="8.71190526794895"><ele>109.99999999999999</ele><time>2026-05-03T13:56:16Z</time></trkpt><trkpt lat="45.27846500987328" lon="8.71185431078822"><ele>110.0</ele><time>2026-05-03T13:56:17Z</time></trkpt><trkpt lat="45.278533244657545" lon="8.711800434590662"><ele>109.99999999999999</ele><time>2026-05-03T13:56:18Z</time></trkpt><trkpt lat="45.27860315898964" lon="8.711749160749742"><ele>110.0</ele><time>2026-05-03T13:56:19Z</time></trkpt><trkpt lat="45.27867312845155" lon="8.711699868405626"><ele>110.0</ele><time>2026-05-03T13:56:20Z</time></trkpt><trkpt lat="45.27874223853014" lon="8.711656339380253"><ele>110.0</ele><time>2026-05-03T13:56:21Z</time></trkpt><trkpt lat="45.278814175943246" lon="8.71161974417692"><ele>109.99999999999999</ele><time>2026-05-03T13:56:22Z</time></trkpt><trkpt lat="45.278890780185336" lon="8.71157999111689"><ele>110.0</ele><time>2026-05-03T13:56:23Z</time></trkpt><trkpt lat="45.27897041170547" lon="8.71154182728742"><ele>110.16666666666666</ele><time>2026-05-03T13:56:24Z</time></trkpt><trkpt lat="45.27904654982597" lon="8.71150632312226"><ele>110.33333333333333</ele><time>2026-05-03T13:56:25Z</time></trkpt><trkpt lat="45.27911871960403" lon="8.711472504100568"><ele>110.5</ele><time>2026-05-03T13:56:26Z</time></trkpt><trkpt lat="45.2791935413808" lon="8.711442266551146"><ele>110.66666666666666</ele><time>2026-05-03T13:56:27Z</time></trkpt><trkpt lat="45.27926649220351" lon="8.711409647772596"><ele>110.83333333333333</ele><time>2026-05-03T13:56:28Z</time></trkpt><trkpt lat="45.27934997246832" lon="8.711367783635405"><ele>111.0</ele><time>2026-05-03T13:56:29Z</time></trkpt><trkpt lat="45.27943254226328" lon="8.711334751718598"><ele>111.0</ele><time>2026-05-03T13:56:30Z</time></trkpt><trkpt lat="45.279522075612526" lon="8.711305180169383"><ele>111.0</ele><time>2026-05-03T13:56:31Z</time></trkpt><trkpt lat="45.27961499385475" lon="8.711270215363546"><ele>111.0</ele><time>2026-05-03T13:56:32Z</time></trkpt><trkpt lat="45.279704061735046" lon="8.711242921096787"><ele>111.0</ele><time>2026-05-03T13:56:33Z</time></trkpt><trkpt lat="45.27978701601709" lon="8.711218625849128"><ele>111.0</ele><time>2026-05-03T13:56:34Z</time></trkpt><trkpt lat="45.27986792403945" lon="8.711193127714765"><ele>111.0</ele><time>2026-05-03T13:56:35Z</time></trkpt><trkpt lat="45.27994742358157" lon="8.711167943619026"><ele>111.0</ele><time>2026-05-03T13:56:36Z</time></trkpt><trkpt lat="45.28003527820195" lon="8.711138845018256"><ele>111.0</ele><time>2026-05-03T13:56:37Z</time></trkpt><trkpt lat="45.28012042844193" lon="8.711110591213718"><ele>111.0</ele><time>2026-05-03T13:56:38Z</time></trkpt><trkpt lat="45.28020516149134" lon="8.711089330689559"><ele>111.0</ele><time>2026-05-03T13:56:39Z</time></trkpt><trkpt lat="45.28029215656332" lon="8.711061818220747"><ele>111.0</ele><time>2026-05-03T13:56:40Z</time></trkpt><trkpt lat="45.28037919515167" lon="8.711037324556784"><ele>111.0</ele><time>2026-05-03T13:56:41Z</time></trkpt><trkpt lat="45.28046344475175" lon="8.711011794405412"><ele>111.0</ele><time>2026-05-03T13:56:42Z</time></trkpt><trkpt lat="45.280546510876526" lon="8.710988030197624"><ele>111.0</ele><time>2026-05-03T13:56:43Z</time></trkpt><trkpt lat="45.2806373996352" lon="8.710964754171847"><ele>111.0</ele><time>2026-05-03T13:56:44Z</time></trkpt><trkpt lat="45.280727456594086" lon="8.710941741089846"><ele>111.0</ele><time>2026-05-03T13:56:45Z</time></trkpt><trkpt lat="45.280817746608825" lon="8.710920332806605"><ele>111.0</ele><time>2026-05-03T13:56:46Z</time></trkpt><trkpt lat="45.28090496558126" lon="8.7109033189741"><ele>111.0</ele><time>2026-05-03T13:56:47Z</time></trkpt><trkpt lat="45.28098674777914" lon="8.710885441003631"><ele>111.0</ele><time>2026-05-03T13:56:48Z</time></trkpt><trkpt lat="45.281066998066585" lon="8.710862667123706"><ele>111.0</ele><time>2026-05-03T13:56:49Z</time></trkpt><trkpt lat="45.281144026950656" lon="8.710841174695119"><ele>111.0</ele><time>2026-05-03T13:56:50Z</time></trkpt><trkpt lat="45.28122689921961" lon="8.710822373182705"><ele>111.0</ele><time>2026-05-03T13:56:51Z</time></trkpt><trkpt lat="45.28131120408629" lon="8.710803285402722"><ele>111.0</ele><time>2026-05-03T13:56:52Z</time></trkpt><trkpt lat="45.28139122434044" lon="8.710785585059579"><ele>111.0</ele><time>2026-05-03T13:56:53Z</time></trkpt><trkpt lat="45.2814719366442" lon="8.710767534353536"><ele>111.0</ele><time>2026-05-03T13:56:54Z</time></trkpt><trkpt lat="45.28155341627551" lon="8.710744892321609"><ele>111.0</ele><time>2026-05-03T13:56:55Z</time></trkpt><trkpt lat="45.28162385789365" lon="8.710725370032328"><ele>111.0</ele><time>2026-05-03T13:56:56Z</time></trkpt><trkpt lat="45.28171163304747" lon="8.710707846379139"><ele>111.0</ele><time>2026-05-03T13:56:57Z</time></trkpt><trkpt lat="45.28177742057109" lon="8.710691984236444"><ele>111.0</ele><time>2026-05-03T13:56:58Z</time></trkpt><trkpt lat="45.28184007839005" lon="8.710679857173838"><ele>111.0</ele><time>2026-05-03T13:56:59Z</time></trkpt><trkpt lat="45.28192901313897" lon="8.71066152553618"><ele>111.0</ele><time>2026-05-03T13:57:01Z</time></trkpt><trkpt lat="45.28198129650208" lon="8.710563213790584"><ele>111.0</ele><time>2026-05-03T13:57:05Z</time></trkpt><trkpt lat="45.28194999542703" lon="8.710418952643527"><ele>111.0</ele><time>2026-05-03T13:57:07Z</time></trkpt><trkpt lat="45.28192028030742" lon="8.71030466971769"><ele>111.0</ele><time>2026-05-03T13:57:08Z</time></trkpt><trkpt lat="45.28189580565937" lon="8.71019937232683"><ele>111.0</ele><time>2026-05-03T13:57:09Z</time></trkpt><trkpt lat="45.28187304076585" lon="8.710098722208404"><ele>111.0</ele><time>2026-05-03T13:57:10Z</time></trkpt><trkpt lat="45.28185557010125" lon="8.709984917560421"><ele>111.0</ele><time>2026-05-03T13:57:11Z</time></trkpt><trkpt lat="45.28183833495321" lon="8.709855403921022"><ele>111.0</ele><time>2026-05-03T13:57:12Z</time></trkpt><trkpt lat="45.28182390633461" lon="8.70973037082644"><ele>111.0</ele><time>2026-05-03T13:57:13Z</time></trkpt><trkpt lat="45.28180971316249" lon="8.709610401081864"><ele>111.0</ele><time>2026-05-03T13:57:14Z</time></trkpt><trkpt lat="45.281796307246275" lon="8.709509026049044"><ele>111.0</ele><time>2026-05-03T13:57:15Z</time></trkpt><trkpt lat="45.28178071704157" lon="8.709402539532213"><ele>111.0</ele><time>2026-05-03T13:57:16Z</time></trkpt><trkpt lat="45.2817645173526" lon="8.709290134516989"><ele>111.16666666666667</ele><time>2026-05-03T13:57:17Z</time></trkpt><trkpt lat="45.28174989932301" lon="8.709179872537659"><ele>111.33333333333334</ele><time>2026-05-03T13:57:18Z</time></trkpt><trkpt lat="45.2817356367072" lon="8.70906682049644"><ele>111.5</ele><time>2026-05-03T13:57:19Z</time></trkpt><trkpt lat="45.28172274287763" lon="8.70895137942372"><ele>111.66666666666667</ele><time>2026-05-03T13:57:20Z</time></trkpt><trkpt lat="45.281708847940976" lon="8.708841210958344"><ele>111.83333333333334</ele><time>2026-05-03T13:57:21Z</time></trkpt><trkpt lat="45.28169591559862" lon="8.708735708325593"><ele>112.0</ele><time>2026-05-03T13:57:22Z</time></trkpt><trkpt lat="45.28168415917528" lon="8.708616850541162"><ele>112.16666666666667</ele><time>2026-05-03T13:57:23Z</time></trkpt><trkpt lat="45.281673857893274" lon="8.708499703216413"><ele>112.33333333333334</ele><time>2026-05-03T13:57:24Z</time></trkpt><trkpt lat="45.28166100258106" lon="8.708382041671806"><ele>112.5</ele><time>2026-05-03T13:57:25Z</time></trkpt><trkpt lat="45.28164903290013" lon="8.708278687125135"><ele>112.66666666666666</ele><time>2026-05-03T13:57:26Z</time></trkpt><trkpt lat="45.281638215093324" lon="8.708169059785002"><ele>112.83333333333333</ele><time>2026-05-03T13:57:27Z</time></trkpt><trkpt lat="45.281626954707015" lon="8.708054598500327"><ele>113.0</ele><time>2026-05-03T13:57:28Z</time></trkpt><trkpt lat="45.28161653254111" lon="8.707940718273585"><ele>113.0</ele><time>2026-05-03T13:57:29Z</time></trkpt><trkpt lat="45.28160519536853" lon="8.707814747100985"><ele>113.0</ele><time>2026-05-03T13:57:30Z</time></trkpt><trkpt lat="45.2815926280195" lon="8.707710374242069"><ele>113.0</ele><time>2026-05-03T13:57:31Z</time></trkpt><trkpt lat="45.281586134582646" lon="8.707613526490958"><ele>113.0</ele><time>2026-05-03T13:57:32Z</time></trkpt><trkpt lat="45.281578575410656" lon="8.707510138054538"><ele>113.0</ele><time>2026-05-03T13:57:33Z</time></trkpt><trkpt lat="45.281569831677366" lon="8.707412623957254"><ele>113.0</ele><time>2026-05-03T13:57:34Z</time></trkpt><trkpt lat="45.28155971008391" lon="8.707311871928091"><ele>113.0</ele><time>2026-05-03T13:57:35Z</time></trkpt><trkpt lat="45.281549953800514" lon="8.707213638866989"><ele>112.66666666666666</ele><time>2026-05-03T13:57:36Z</time></trkpt><trkpt lat="45.28154149589766" lon="8.707109826055849"><ele>112.33333333333333</ele><time>2026-05-03T13:57:37Z</time></trkpt><trkpt lat="45.281534050544145" lon="8.707003643654266"><ele>112.0</ele><time>2026-05-03T13:57:38Z</time></trkpt><trkpt lat="45.28152640272352" lon="8.70689214658226"><ele>111.66666666666666</ele><time>2026-05-03T13:57:39Z</time></trkpt><trkpt lat="45.28151728613497" lon="8.706771392103397"><ele>111.33333333333333</ele><time>2026-05-03T13:57:40Z</time></trkpt><trkpt lat="45.281507893739224" lon="8.706663639054705"><ele>111.0</ele><time>2026-05-03T13:57:41Z</time></trkpt><trkpt lat="45.281498621022685" lon="8.706553412911271"><ele>111.0</ele><time>2026-05-03T13:57:42Z</time></trkpt><trkpt lat="45.28148878700505" lon="8.706439675055357"><ele>111.0</ele><time>2026-05-03T13:57:43Z</time></trkpt><trkpt lat="45.281476564196296" lon="8.706332228440317"><ele>111.0</ele><time>2026-05-03T13:57:44Z</time></trkpt><trkpt lat="45.281464840327835" lon="8.70622730324822"><ele>111.0</ele><time>2026-05-03T13:57:45Z</time></trkpt><trkpt lat="45.28145082211029" lon="8.70612989721169"><ele>111.0</ele><time>2026-05-03T13:57:46Z</time></trkpt><trkpt lat="45.28143694009659" lon="8.706036486009792"><ele>111.0</ele><time>2026-05-03T13:57:47Z</time></trkpt><trkpt lat="45.2814205305402" lon="8.705938521411257"><ele>111.0</ele><time>2026-05-03T13:57:48Z</time></trkpt><trkpt lat="45.28140609065748" lon="8.705838574802435"><ele>111.0</ele><time>2026-05-03T13:57:49Z</time></trkpt><trkpt lat="45.28139270350026" lon="8.705737322397859"><ele>111.0</ele><time>2026-05-03T13:57:50Z</time></trkpt><trkpt lat="45.28138447814034" lon="8.705634483258937"><ele>111.0</ele><time>2026-05-03T13:57:51Z</time></trkpt><trkpt lat="45.28137992168506" lon="8.705536282960077"><ele>111.0</ele><time>2026-05-03T13:57:52Z</time></trkpt><trkpt lat="45.281377568323734" lon="8.705429076975841"><ele>111.0</ele><time>2026-05-03T13:57:53Z</time></trkpt><trkpt lat="45.281374455184334" lon="8.7053269372504"><ele>111.0</ele><time>2026-05-03T13:57:54Z</time></trkpt><trkpt lat="45.28137671693016" lon="8.705232964187823"><ele>111.0</ele><time>2026-05-03T13:57:55Z</time></trkpt><trkpt lat="45.28138094963143" lon="8.705139988911586"><ele>111.0</ele><time>2026-05-03T13:57:56Z</time></trkpt><trkpt lat="45.28138443248383" lon="8.705041693359655"><ele>111.0</ele><time>2026-05-03T13:57:57Z</time></trkpt><trkpt lat="45.281391395079275" lon="8.704948335181315"><ele>111.0</ele><time>2026-05-03T13:57:58Z</time></trkpt><trkpt lat="45.28139526870174" lon="8.704850803295908"><ele>111.0</ele><time>2026-05-03T13:57:59Z</time></trkpt><trkpt lat="45.281397987909585" lon="8.704754292237833"><ele>111.0</ele><time>2026-05-03T13:58:00Z</time></trkpt><trkpt lat="45.281403851730545" lon="8.704650448379445"><ele>111.0</ele><time>2026-05-03T13:58:01Z</time></trkpt><trkpt lat="45.281410804172566" lon="8.704557126278313"><ele>111.0</ele><time>2026-05-03T13:58:02Z</time></trkpt><trkpt lat="45.28141592788734" lon="8.704459088637638"><ele>111.0</ele><time>2026-05-03T13:58:03Z</time></trkpt><trkpt lat="45.28142144863797" lon="8.704364302360538"><ele>111.0</ele><time>2026-05-03T13:58:04Z</time></trkpt><trkpt lat="45.28142776645313" lon="8.70425583172847"><ele>111.0</ele><time>2026-05-03T13:58:05Z</time></trkpt><trkpt lat="45.28143548692885" lon="8.704155369005033"><ele>111.0</ele><time>2026-05-03T13:58:06Z</time></trkpt><trkpt lat="45.28145160399916" lon="8.703980858964112"><ele>111.0</ele><time>2026-05-03T13:58:08Z</time></trkpt><trkpt lat="45.28145859314333" lon="8.703891068651547"><ele>111.0</ele><time>2026-05-03T13:58:09Z</time></trkpt><trkpt lat="45.28148157680763" lon="8.7037522162314"><ele>110.83333333333333</ele><time>2026-05-03T13:58:11Z</time></trkpt><trkpt lat="45.281528268642134" lon="8.703687595058975"><ele>110.66666666666666</ele><time>2026-05-03T13:58:13Z</time></trkpt><trkpt lat="45.28162680660615" lon="8.703666215774291"><ele>110.5</ele><time>2026-05-03T13:58:15Z</time></trkpt><trkpt lat="45.28169828438949" lon="8.70366982873575"><ele>110.33333333333333</ele><time>2026-05-03T13:58:16Z</time></trkpt><trkpt lat="45.28177886923258" lon="8.703679749853745"><ele>110.16666666666666</ele><time>2026-05-03T13:58:17Z</time></trkpt><trkpt lat="45.28185971861207" lon="8.703689091596713"><ele>110.0</ele><time>2026-05-03T13:58:18Z</time></trkpt><trkpt lat="45.28193132908318" lon="8.703693183936196"><ele>109.99999999999999</ele><time>2026-05-03T13:58:19Z</time></trkpt><trkpt lat="45.282000006365315" lon="8.70370011665694"><ele>110.0</ele><time>2026-05-03T13:58:20Z</time></trkpt><trkpt lat="45.282066563735874" lon="8.703702395497245"><ele>110.0</ele><time>2026-05-03T13:58:21Z</time></trkpt><trkpt lat="45.28213830378026" lon="8.703708027301124"><ele>110.0</ele><time>2026-05-03T13:58:22Z</time></trkpt><trkpt lat="45.28220949807176" lon="8.703720295717355"><ele>110.0</ele><time>2026-05-03T13:58:23Z</time></trkpt><trkpt lat="45.28228083286438" lon="8.703730619748734"><ele>109.99999999999999</ele><time>2026-05-03T13:58:24Z</time></trkpt><trkpt lat="45.28235121918748" lon="8.703736887460517"><ele>110.0</ele><time>2026-05-03T13:58:25Z</time></trkpt><trkpt lat="45.282423299870956" lon="8.70374452252087"><ele>110.2</ele><time>2026-05-03T13:58:26Z</time></trkpt><trkpt lat="45.28249536737931" lon="8.70375059934556"><ele>110.4</ele><time>2026-05-03T13:58:27Z</time></trkpt><trkpt lat="45.28261940967572" lon="8.703765850721393"><ele>110.6</ele><time>2026-05-03T13:58:29Z</time></trkpt><trkpt lat="45.28268477545385" lon="8.703771783146019"><ele>110.8</ele><time>2026-05-03T13:58:30Z</time></trkpt><trkpt lat="45.282815454720954" lon="8.703789276109518"><ele>111.0</ele><time>2026-05-03T13:58:32Z</time></trkpt><trkpt lat="45.282880736037825" lon="8.703793793803566"><ele>111.0</ele><time>2026-05-03T13:58:33Z</time></trkpt><trkpt lat="45.282946702180816" lon="8.703800853958143"><ele>111.0</ele><time>2026-05-03T13:58:34Z</time></trkpt><trkpt lat="45.283009858473946" lon="8.703808800976145"><ele>111.0</ele><time>2026-05-03T13:58:35Z</time></trkpt><trkpt lat="45.28307457170778" lon="8.703815936038188"><ele>111.0</ele><time>2026-05-03T13:58:36Z</time></trkpt><trkpt lat="45.283141095914424" lon="8.703823292993768"><ele>111.0</ele><time>2026-05-03T13:58:37Z</time></trkpt><trkpt lat="45.28320410478991" lon="8.703833021350368"><ele>111.0</ele><time>2026-05-03T13:58:38Z</time></trkpt><trkpt lat="45.283269296635964" lon="8.703842412603521"><ele>111.0</ele><time>2026-05-03T13:58:39Z</time></trkpt><trkpt lat="45.283334194360684" lon="8.703850794286204"><ele>111.0</ele><time>2026-05-03T13:58:40Z</time></trkpt><trkpt lat="45.283460193494925" lon="8.703863124013338"><ele>111.0</ele><time>2026-05-03T13:58:42Z</time></trkpt><trkpt lat="45.2835243884924" lon="8.703874040405985"><ele>111.0</ele><time>2026-05-03T13:58:43Z</time></trkpt><trkpt lat="45.28364770424458" lon="8.703889382825757"><ele>111.0</ele><time>2026-05-03T13:58:45Z</time></trkpt><trkpt lat="45.28378060187264" lon="8.703903446251768"><ele>111.0</ele><time>2026-05-03T13:58:47Z</time></trkpt><trkpt lat="45.283854717465566" lon="8.703913806475972"><ele>111.0</ele><time>2026-05-03T13:58:48Z</time></trkpt><trkpt lat="45.283928625394736" lon="8.70392259681037"><ele>111.0</ele><time>2026-05-03T13:58:49Z</time></trkpt><trkpt lat="45.284004084881346" lon="8.70393041913662"><ele>111.0</ele><time>2026-05-03T13:58:50Z</time></trkpt><trkpt lat="45.284075497279304" lon="8.70394039215431"><ele>111.0</ele><time>2026-05-03T13:58:51Z</time></trkpt><trkpt lat="45.28414225776782" lon="8.703949054148662"><ele>111.0</ele><time>2026-05-03T13:58:52Z</time></trkpt><trkpt lat="45.28421067797789" lon="8.703956932069358"><ele>111.0</ele><time>2026-05-03T13:58:53Z</time></trkpt><trkpt lat="45.28427858436382" lon="8.703966826990698"><ele>111.0</ele><time>2026-05-03T13:58:54Z</time></trkpt><trkpt lat="45.284349561787394" lon="8.703976558763147"><ele>111.14285714285714</ele><time>2026-05-03T13:58:55Z</time></trkpt><trkpt lat="45.28441888726574" lon="8.703983344188059"><ele>111.28571428571429</ele><time>2026-05-03T13:58:56Z</time></trkpt><trkpt lat="45.28448926079597" lon="8.70398933367759"><ele>111.42857142857143</ele><time>2026-05-03T13:58:57Z</time></trkpt><trkpt lat="45.28455889294288" lon="8.703998370175567"><ele>111.57142857142857</ele><time>2026-05-03T13:58:58Z</time></trkpt><trkpt lat="45.2846268281756" lon="8.704004142056425"><ele>111.71428571428572</ele><time>2026-05-03T13:58:59Z</time></trkpt><trkpt lat="45.28470052013664" lon="8.704010109524011"><ele>111.85714285714286</ele><time>2026-05-03T13:59:00Z</time></trkpt><trkpt lat="45.28478078131795" lon="8.704020692772717"><ele>112.0</ele><time>2026-05-03T13:59:01Z</time></trkpt><trkpt lat="45.284861663472014" lon="8.704028225646603"><ele>112.00000000000001</ele><time>2026-05-03T13:59:02Z</time></trkpt><trkpt lat="45.28494538624874" lon="8.704040076395227"><ele>112.0</ele><time>2026-05-03T13:59:03Z</time></trkpt><trkpt lat="45.28503277999996" lon="8.70404993127881"><ele>112.0</ele><time>2026-05-03T13:59:04Z</time></trkpt><trkpt lat="45.28511898616289" lon="8.7040601142246"><ele>112.0</ele><time>2026-05-03T13:59:05Z</time></trkpt><trkpt lat="45.285206257053304" lon="8.70407057692154"><ele>112.00000000000001</ele><time>2026-05-03T13:59:06Z</time></trkpt><trkpt lat="45.285291699104874" lon="8.70408196785185"><ele>112.0</ele><time>2026-05-03T13:59:07Z</time></trkpt><trkpt lat="45.285371256199056" lon="8.704089803506116"><ele>112.00000000000001</ele><time>2026-05-03T13:59:08Z</time></trkpt><trkpt lat="45.28544780255535" lon="8.704096140788389"><ele>112.0</ele><time>2026-05-03T13:59:09Z</time></trkpt><trkpt lat="45.28552754006319" lon="8.704102761954362"><ele>112.0</ele><time>2026-05-03T13:59:10Z</time></trkpt><trkpt lat="45.2856168485874" lon="8.704106134373575"><ele>112.0</ele><time>2026-05-03T13:59:11Z</time></trkpt><trkpt lat="45.285706918772725" lon="8.704106333588598"><ele>112.00000000000001</ele><time>2026-05-03T13:59:12Z</time></trkpt><trkpt lat="45.28579914098805" lon="8.70411143644044"><ele>112.0</ele><time>2026-05-03T13:59:13Z</time></trkpt><trkpt lat="45.285884781325876" lon="8.704111677781308"><ele>112.00000000000001</ele><time>2026-05-03T13:59:14Z</time></trkpt><trkpt lat="45.28596629764251" lon="8.70410991093196"><ele>112.0</ele><time>2026-05-03T13:59:15Z</time></trkpt><trkpt lat="45.28604602449349" lon="8.70409929808317"><ele>112.0</ele><time>2026-05-03T13:59:16Z</time></trkpt><trkpt lat="45.28612691374041" lon="8.70408701768443"><ele>112.0</ele><time>2026-05-03T13:59:17Z</time></trkpt><trkpt lat="45.2862134756945" lon="8.70407045039218"><ele>112.00000000000001</ele><time>2026-05-03T13:59:18Z</time></trkpt><trkpt lat="45.28630259278992" lon="8.704050636203931"><ele>112.0</ele><time>2026-05-03T13:59:19Z</time></trkpt><trkpt lat="45.286389905161755" lon="8.704026539829414"><ele>111.83333333333334</ele><time>2026-05-03T13:59:20Z</time></trkpt><trkpt lat="45.28647277938778" lon="8.70400002891406"><ele>111.66666666666667</ele><time>2026-05-03T13:59:21Z</time></trkpt><trkpt lat="45.28654487690034" lon="8.703976230640063"><ele>111.5</ele><time>2026-05-03T13:59:22Z</time></trkpt><trkpt lat="45.28661126439559" lon="8.703957364738574"><ele>111.33333333333334</ele><time>2026-05-03T13:59:23Z</time></trkpt><trkpt lat="45.286685737795516" lon="8.703928085552342"><ele>111.16666666666667</ele><time>2026-05-03T13:59:24Z</time></trkpt><trkpt lat="45.28676585984298" lon="8.703902677381295"><ele>111.0</ele><time>2026-05-03T13:59:25Z</time></trkpt><trkpt lat="45.286837429181034" lon="8.703880947968278"><ele>111.0</ele><time>2026-05-03T13:59:26Z</time></trkpt><trkpt lat="45.28690440563637" lon="8.703855448202958"><ele>111.0</ele><time>2026-05-03T13:59:27Z</time></trkpt><trkpt lat="45.28697963326019" lon="8.703831158898613"><ele>111.0</ele><time>2026-05-03T13:59:28Z</time></trkpt><trkpt lat="45.28705536228403" lon="8.703807182343873"><ele>111.0</ele><time>2026-05-03T13:59:29Z</time></trkpt><trkpt lat="45.28713158477977" lon="8.703781666859465"><ele>111.0</ele><time>2026-05-03T13:59:30Z</time></trkpt><trkpt lat="45.28721041551354" lon="8.703754949638563"><ele>111.0</ele><time>2026-05-03T13:59:31Z</time></trkpt><trkpt lat="45.2872876654679" lon="8.703731383941445"><ele>111.16666666666667</ele><time>2026-05-03T13:59:32Z</time></trkpt><trkpt lat="45.28736887190632" lon="8.703705579874876"><ele>111.33333333333334</ele><time>2026-05-03T13:59:33Z</time></trkpt><trkpt lat="45.28744368685815" lon="8.703679748770906"><ele>111.5</ele><time>2026-05-03T13:59:34Z</time></trkpt><trkpt lat="45.287523594296765" lon="8.703656028143826"><ele>111.66666666666667</ele><time>2026-05-03T13:59:35Z</time></trkpt><trkpt lat="45.28760303356984" lon="8.703628399033473"><ele>111.83333333333334</ele><time>2026-05-03T13:59:36Z</time></trkpt><trkpt lat="45.287687138556855" lon="8.70360100515923"><ele>112.0</ele><time>2026-05-03T13:59:37Z</time></trkpt><trkpt lat="45.287767268131056" lon="8.703572539996959"><ele>112.00000000000001</ele><time>2026-05-03T13:59:38Z</time></trkpt><trkpt lat="45.28785009109982" lon="8.703542099888084"><ele>112.0</ele><time>2026-05-03T13:59:39Z</time></trkpt><trkpt lat="45.28793387073782" lon="8.703510614963154"><ele>112.0</ele><time>2026-05-03T13:59:40Z</time></trkpt><trkpt lat="45.2880179471155" lon="8.703479784124877"><ele>112.0</ele><time>2026-05-03T13:59:41Z</time></trkpt><trkpt lat="45.288097602095306" lon="8.703451299913718"><ele>112.00000000000001</ele><time>2026-05-03T13:59:42Z</time></trkpt><trkpt lat="45.288178619595776" lon="8.70341996332526"><ele>112.0</ele><time>2026-05-03T13:59:43Z</time></trkpt><trkpt lat="45.28825440995964" lon="8.703388408078597"><ele>112.00000000000001</ele><time>2026-05-03T13:59:44Z</time></trkpt><trkpt lat="45.28833288058024" lon="8.703357548111136"><ele>112.0</ele><time>2026-05-03T13:59:45Z</time></trkpt><trkpt lat="45.28841045345253" lon="8.703328662984205"><ele>112.0</ele><time>2026-05-03T13:59:46Z</time></trkpt><trkpt lat="45.28849013799066" lon="8.7032991345139"><ele>112.0</ele><time>2026-05-03T13:59:47Z</time></trkpt><trkpt lat="45.28857089008515" lon="8.703268266351163"><ele>112.00000000000001</ele><time>2026-05-03T13:59:48Z</time></trkpt><trkpt lat="45.28865530795299" lon="8.703237992090997"><ele>112.0</ele><time>2026-05-03T13:59:49Z</time></trkpt><trkpt lat="45.2887391047987" lon="8.703211222741109"><ele>112.00000000000001</ele><time>2026-05-03T13:59:50Z</time></trkpt><trkpt lat="45.288823086904884" lon="8.703179211148566"><ele>112.0</ele><time>2026-05-03T13:59:51Z</time></trkpt><trkpt lat="45.28890866741925" lon="8.703150631614722"><ele>112.0</ele><time>2026-05-03T13:59:52Z</time></trkpt><trkpt lat="45.28899051603536" lon="8.703123837021385"><ele>112.0</ele><time>2026-05-03T13:59:53Z</time></trkpt><trkpt lat="45.289071138522424" lon="8.703101280996028"><ele>112.00000000000001</ele><time>2026-05-03T13:59:54Z</time></trkpt><trkpt lat="45.28915042840427" lon="8.703082712399087"><ele>112.0</ele><time>2026-05-03T13:59:55Z</time></trkpt><trkpt lat="45.28923208133399" lon="8.703071106741398"><ele>112.00000000000001</ele><time>2026-05-03T13:59:56Z</time></trkpt><trkpt lat="45.28930766613628" lon="8.703066528617358"><ele>112.0</ele><time>2026-05-03T13:59:57Z</time></trkpt><trkpt lat="45.28938430733381" lon="8.703053873671516"><ele>112.0</ele><time>2026-05-03T13:59:58Z</time></trkpt><trkpt lat="45.28946676318341" lon="8.703064442304981"><ele>112.0</ele><time>2026-05-03T13:59:59Z</time></trkpt><trkpt lat="45.2895469294697" lon="8.703032464942615"><ele>112.00000000000001</ele><time>2026-05-03T14:00:00Z</time></trkpt><trkpt lat="45.289629537758685" lon="8.70302417115685"><ele>112.0</ele><time>2026-05-03T14:00:01Z</time></trkpt><trkpt lat="45.28971472903059" lon="8.703014185574798"><ele>112.33333333333334</ele><time>2026-05-03T14:00:02Z</time></trkpt><trkpt lat="45.289799732052956" lon="8.702998706789353"><ele>112.66666666666667</ele><time>2026-05-03T14:00:03Z</time></trkpt><trkpt lat="45.28988514416969" lon="8.702987289193281"><ele>113.0</ele><time>2026-05-03T14:00:04Z</time></trkpt><trkpt lat="45.289962146721365" lon="8.702977087214778"><ele>113.33333333333334</ele><time>2026-05-03T14:00:05Z</time></trkpt><trkpt lat="45.29002988215241" lon="8.702971096954567"><ele>113.66666666666667</ele><time>2026-05-03T14:00:06Z</time></trkpt><trkpt lat="45.29014853671813" lon="8.702956796340217"><ele>114.0</ele><time>2026-05-03T14:00:08Z</time></trkpt><trkpt lat="45.290216034766466" lon="8.702945124840912"><ele>114.0</ele><time>2026-05-03T14:00:09Z</time></trkpt><trkpt lat="45.29029042955876" lon="8.702938096578691"><ele>114.0</ele><time>2026-05-03T14:00:10Z</time></trkpt><trkpt lat="45.290354399430385" lon="8.70293444395874"><ele>114.0</ele><time>2026-05-03T14:00:11Z</time></trkpt><trkpt lat="45.2904485297235" lon="8.702927259427451"><ele>114.0</ele><time>2026-05-03T14:00:13Z</time></trkpt><trkpt lat="45.29051145105142" lon="8.702902536574852"><ele>114.0</ele><time>2026-05-03T14:00:16Z</time></trkpt><trkpt lat="45.29050829493275" lon="8.702684723625746"><ele>113.80000000000001</ele><time>2026-05-03T14:00:20Z</time></trkpt><trkpt lat="45.290423852970584" lon="8.702534963280744"><ele>113.60000000000001</ele><time>2026-05-03T14:00:22Z</time></trkpt><trkpt lat="45.290353566637435" lon="8.702416284875408"><ele>113.4</ele><time>2026-05-03T14:00:24Z</time></trkpt><trkpt lat="45.29031278426147" lon="8.702341382145834"><ele>113.2</ele><time>2026-05-03T14:00:25Z</time></trkpt><trkpt lat="45.290270066621666" lon="8.702251377672553"><ele>113.0</ele><time>2026-05-03T14:00:26Z</time></trkpt><trkpt lat="45.29023392283523" lon="8.70217156065597"><ele>113.0</ele><time>2026-05-03T14:00:27Z</time></trkpt><trkpt lat="45.290199036119226" lon="8.702093277181213"><ele>113.0</ele><time>2026-05-03T14:00:28Z</time></trkpt><trkpt lat="45.29016048629655" lon="8.702006112657633"><ele>113.0</ele><time>2026-05-03T14:00:29Z</time></trkpt><trkpt lat="45.29012350311859" lon="8.70192205291033"><ele>113.0</ele><time>2026-05-03T14:00:30Z</time></trkpt><trkpt lat="45.29008534292222" lon="8.701835317897212"><ele>113.0</ele><time>2026-05-03T14:00:31Z</time></trkpt><trkpt lat="45.29004784716119" lon="8.701750093090707"><ele>113.0</ele><time>2026-05-03T14:00:32Z</time></trkpt><trkpt lat="45.290010752259214" lon="8.701665779403944"><ele>113.0</ele><time>2026-05-03T14:00:33Z</time></trkpt><trkpt lat="45.28996510540086" lon="8.701591244250272"><ele>112.71428571428572</ele><time>2026-05-03T14:00:34Z</time></trkpt><trkpt lat="45.28993699084669" lon="8.70149835019518"><ele>112.42857142857142</ele><time>2026-05-03T14:00:35Z</time></trkpt><trkpt lat="45.289898745957686" lon="8.701412431156179"><ele>112.14285714285714</ele><time>2026-05-03T14:00:36Z</time></trkpt><trkpt lat="45.28986092653441" lon="8.70132746794708"><ele>111.85714285714286</ele><time>2026-05-03T14:00:37Z</time></trkpt><trkpt lat="45.2898225429324" lon="8.701241237283819"><ele>111.57142857142858</ele><time>2026-05-03T14:00:38Z</time></trkpt><trkpt lat="45.289767030861526" lon="8.701156770248865"><ele>111.28571428571428</ele><time>2026-05-03T14:00:39Z</time></trkpt><trkpt lat="45.28973509410268" lon="8.701049129031071"><ele>111.0</ele><time>2026-05-03T14:00:40Z</time></trkpt><trkpt lat="45.28967667266105" lon="8.70096323103433"><ele>110.83333333333333</ele><time>2026-05-03T14:00:41Z</time></trkpt><trkpt lat="45.28962877598834" lon="8.700873701632837"><ele>110.66666666666666</ele><time>2026-05-03T14:00:42Z</time></trkpt><trkpt lat="45.28957729603212" lon="8.70078289768856"><ele>110.5</ele><time>2026-05-03T14:00:43Z</time></trkpt><trkpt lat="45.2895252533368" lon="8.700695623125302"><ele>110.33333333333333</ele><time>2026-05-03T14:00:44Z</time></trkpt><trkpt lat="45.28947514030221" lon="8.700605251754668"><ele>110.16666666666666</ele><time>2026-05-03T14:00:45Z</time></trkpt><trkpt lat="45.28942417923705" lon="8.700517086881986"><ele>110.0</ele><time>2026-05-03T14:00:46Z</time></trkpt><trkpt lat="45.28937159869685" lon="8.700432830889039"><ele>109.99999999999999</ele><time>2026-05-03T14:00:47Z</time></trkpt><trkpt lat="45.28932247526786" lon="8.70034264408311"><ele>110.0</ele><time>2026-05-03T14:00:48Z</time></trkpt><trkpt lat="45.289267458068245" lon="8.70024704069792"><ele>110.0</ele><time>2026-05-03T14:00:49Z</time></trkpt><trkpt lat="45.289208500439635" lon="8.700142325713678"><ele>110.0</ele><time>2026-05-03T14:00:50Z</time></trkpt><trkpt lat="45.28914762400327" lon="8.700034505716149"><ele>109.99999999999999</ele><time>2026-05-03T14:00:51Z</time></trkpt><trkpt lat="45.28909251537402" lon="8.699938442167385"><ele>110.0</ele><time>2026-05-03T14:00:52Z</time></trkpt><trkpt lat="45.28903185783076" lon="8.69982361747085"><ele>110.0</ele><time>2026-05-03T14:00:53Z</time></trkpt><trkpt lat="45.288973563067394" lon="8.699724852868659"><ele>110.0</ele><time>2026-05-03T14:00:54Z</time></trkpt><trkpt lat="45.28892623241758" lon="8.699598296765423"><ele>110.0</ele><time>2026-05-03T14:00:55Z</time></trkpt><trkpt lat="45.28887283401662" lon="8.699495328249904"><ele>110.0</ele><time>2026-05-03T14:00:56Z</time></trkpt><trkpt lat="45.28882350920148" lon="8.699395075635977"><ele>110.0</ele><time>2026-05-03T14:00:57Z</time></trkpt><trkpt lat="45.2887731236748" lon="8.699287829777708"><ele>110.2</ele><time>2026-05-03T14:00:58Z</time></trkpt><trkpt lat="45.28873290314006" lon="8.699195813517415"><ele>110.4</ele><time>2026-05-03T14:00:59Z</time></trkpt><trkpt lat="45.28866888987016" lon="8.699049364401974"><ele>110.6</ele><time>2026-05-03T14:01:01Z</time></trkpt><trkpt lat="45.288612173823545" lon="8.69896553689828"><ele>110.8</ele><time>2026-05-03T14:01:02Z</time></trkpt><trkpt lat="45.288559951984546" lon="8.698852156776008"><ele>111.0</ele><time>2026-05-03T14:01:03Z</time></trkpt><trkpt lat="45.288518976047875" lon="8.698726812003011"><ele>111.0</ele><time>2026-05-03T14:01:04Z</time></trkpt><trkpt lat="45.288480711655" lon="8.69864748877293"><ele>111.0</ele><time>2026-05-03T14:01:05Z</time></trkpt><trkpt lat="45.28844482922953" lon="8.698573103433993"><ele>111.0</ele><time>2026-05-03T14:01:06Z</time></trkpt><trkpt lat="45.28839835838985" lon="8.69847676799382"><ele>111.0</ele><time>2026-05-03T14:01:07Z</time></trkpt><trkpt lat="45.288340861387205" lon="8.698357574988849"><ele>111.0</ele><time>2026-05-03T14:01:08Z</time></trkpt><trkpt lat="45.28827268129953" lon="8.698257980261307"><ele>111.0</ele><time>2026-05-03T14:01:09Z</time></trkpt><trkpt lat="45.28823402183152" lon="8.698171718362321"><ele>111.16666666666667</ele><time>2026-05-03T14:01:10Z</time></trkpt><trkpt lat="45.288208196973095" lon="8.698082557689602"><ele>111.33333333333334</ele><time>2026-05-03T14:01:11Z</time></trkpt><trkpt lat="45.28816137182245" lon="8.697985487752135"><ele>111.5</ele><time>2026-05-03T14:01:12Z</time></trkpt><trkpt lat="45.28810803171027" lon="8.697874912105656"><ele>111.66666666666667</ele><time>2026-05-03T14:01:13Z</time></trkpt><trkpt lat="45.28806117011332" lon="8.6977777666154"><ele>111.83333333333334</ele><time>2026-05-03T14:01:14Z</time></trkpt><trkpt lat="45.28801334825702" lon="8.697678630477515"><ele>112.0</ele><time>2026-05-03T14:01:16Z</time></trkpt><trkpt lat="45.28794819097825" lon="8.69754421471285"><ele>112.0</ele><time>2026-05-03T14:01:18Z</time></trkpt><trkpt lat="45.287895929419214" lon="8.69743776074911"><ele>111.99999999999999</ele><time>2026-05-03T14:01:19Z</time></trkpt><trkpt lat="45.28783877390258" lon="8.697320770537496"><ele>111.99999999999999</ele><time>2026-05-03T14:01:20Z</time></trkpt><trkpt lat="45.28778402540094" lon="8.697203978963444"><ele>112.0</ele><time>2026-05-03T14:01:21Z</time></trkpt><trkpt lat="45.28773425800685" lon="8.697094861299279"><ele>112.0</ele><time>2026-05-03T14:01:22Z</time></trkpt><trkpt lat="45.287671656057924" lon="8.696985386071484"><ele>112.0</ele><time>2026-05-03T14:01:23Z</time></trkpt><trkpt lat="45.28763935963737" lon="8.69686595233846"><ele>111.99999999999999</ele><time>2026-05-03T14:01:24Z</time></trkpt><trkpt lat="45.28759604496468" lon="8.696758173425192"><ele>111.99999999999999</ele><time>2026-05-03T14:01:25Z</time></trkpt><trkpt lat="45.28754928572475" lon="8.696640373899765"><ele>112.0</ele><time>2026-05-03T14:01:26Z</time></trkpt><trkpt lat="45.28748422296368" lon="8.696516054203352"><ele>112.0</ele><time>2026-05-03T14:01:27Z</time></trkpt><trkpt lat="45.287433077898136" lon="8.696382944963041"><ele>112.0</ele><time>2026-05-03T14:01:28Z</time></trkpt><trkpt lat="45.28738684109306" lon="8.696272413721848"><ele>111.99999999999999</ele><time>2026-05-03T14:01:29Z</time></trkpt><trkpt lat="45.28733710412889" lon="8.696154043246121"><ele>111.99999999999999</ele><time>2026-05-03T14:01:30Z</time></trkpt><trkpt lat="45.287288068295396" lon="8.69603800882391"><ele>112.0</ele><time>2026-05-03T14:01:31Z</time></trkpt><trkpt lat="45.28723519706146" lon="8.695917658708977"><ele>112.0</ele><time>2026-05-03T14:01:32Z</time></trkpt><trkpt lat="45.28719611335744" lon="8.695783057414701"><ele>112.0</ele><time>2026-05-03T14:01:33Z</time></trkpt><trkpt lat="45.287149541120776" lon="8.695671018920574"><ele>111.99999999999999</ele><time>2026-05-03T14:01:34Z</time></trkpt><trkpt lat="45.28708650971834" lon="8.69556837558022"><ele>111.99999999999999</ele><time>2026-05-03T14:01:35Z</time></trkpt><trkpt lat="45.287051986883185" lon="8.69544533154446"><ele>112.0</ele><time>2026-05-03T14:01:36Z</time></trkpt><trkpt lat="45.286985361661934" lon="8.695333493609725"><ele>112.0</ele><time>2026-05-03T14:01:37Z</time></trkpt><trkpt lat="45.28693621033662" lon="8.695216393867636"><ele>112.19999999999999</ele><time>2026-05-03T14:01:38Z</time></trkpt><trkpt lat="45.286883945106084" lon="8.695099397080682"><ele>112.39999999999999</ele><time>2026-05-03T14:01:39Z</time></trkpt><trkpt lat="45.28683447573037" lon="8.694987805154796"><ele>112.60000000000001</ele><time>2026-05-03T14:01:40Z</time></trkpt><trkpt lat="45.286799928153194" lon="8.694869720951749"><ele>112.80000000000001</ele><time>2026-05-03T14:01:41Z</time></trkpt><trkpt lat="45.28675422277498" lon="8.694765434168348"><ele>113.0</ele><time>2026-05-03T14:01:42Z</time></trkpt><trkpt lat="45.2867100626955" lon="8.694664673321356"><ele>112.99999999999999</ele><time>2026-05-03T14:01:43Z</time></trkpt><trkpt lat="45.286674725426785" lon="8.694583351590166"><ele>113.0</ele><time>2026-05-03T14:01:44Z</time></trkpt><trkpt lat="45.28663987775785" lon="8.694499044493288"><ele>113.0</ele><time>2026-05-03T14:01:45Z</time></trkpt><trkpt lat="45.286604771803354" lon="8.694411424862077"><ele>113.0</ele><time>2026-05-03T14:01:46Z</time></trkpt><trkpt lat="45.286569952851984" lon="8.694314362290166"><ele>112.99999999999999</ele><time>2026-05-03T14:01:47Z</time></trkpt><trkpt lat="45.286538131819924" lon="8.694208356785467"><ele>113.0</ele><time>2026-05-03T14:01:48Z</time></trkpt><trkpt lat="45.286503102885476" lon="8.694084948393158"><ele>112.99999999999999</ele><time>2026-05-03T14:01:49Z</time></trkpt><trkpt lat="45.28645636689457" lon="8.693986255156313"><ele>113.0</ele><time>2026-05-03T14:01:50Z</time></trkpt><trkpt lat="45.28642628479724" lon="8.693886534557514"><ele>113.0</ele><time>2026-05-03T14:01:51Z</time></trkpt><trkpt lat="45.28639604565415" lon="8.69377679475612"><ele>113.0</ele><time>2026-05-03T14:01:52Z</time></trkpt><trkpt lat="45.28637402926184" lon="8.693664753508541"><ele>112.99999999999999</ele><time>2026-05-03T14:01:53Z</time></trkpt><trkpt lat="45.286323970906984" lon="8.693567591733789"><ele>113.0</ele><time>2026-05-03T14:01:54Z</time></trkpt><trkpt lat="45.28630725180736" lon="8.693461318573789"><ele>112.66666666666666</ele><time>2026-05-03T14:01:55Z</time></trkpt><trkpt lat="45.286274859681946" lon="8.693362657831788"><ele>112.33333333333333</ele><time>2026-05-03T14:01:56Z</time></trkpt><trkpt lat="45.286243490052065" lon="8.693263445931933"><ele>112.0</ele><time>2026-05-03T14:01:57Z</time></trkpt><trkpt lat="45.28621544445937" lon="8.693172210953009"><ele>111.66666666666666</ele><time>2026-05-03T14:01:58Z</time></trkpt><trkpt lat="45.286188411242655" lon="8.693076939757002"><ele>111.33333333333333</ele><time>2026-05-03T14:01:59Z</time></trkpt><trkpt lat="45.28616163068517" lon="8.692973704650706"><ele>111.0</ele><time>2026-05-03T14:02:00Z</time></trkpt><trkpt lat="45.2861355492487" lon="8.692864660317253"><ele>111.0</ele><time>2026-05-03T14:02:01Z</time></trkpt><trkpt lat="45.286110396026594" lon="8.692751314854924"><ele>111.0</ele><time>2026-05-03T14:02:02Z</time></trkpt><trkpt lat="45.286072427654545" lon="8.6926405900606"><ele>111.0</ele><time>2026-05-03T14:02:03Z</time></trkpt><trkpt lat="45.28605255041533" lon="8.692526772909146"><ele>111.0</ele><time>2026-05-03T14:02:04Z</time></trkpt><trkpt lat="45.28603877618108" lon="8.692406184683444"><ele>111.0</ele><time>2026-05-03T14:02:05Z</time></trkpt><trkpt lat="45.28600425480179" lon="8.692293826341894"><ele>111.0</ele><time>2026-05-03T14:02:06Z</time></trkpt><trkpt lat="45.28598006494206" lon="8.692179532058693"><ele>111.0</ele><time>2026-05-03T14:02:07Z</time></trkpt><trkpt lat="45.28597629170835" lon="8.692068834726763"><ele>111.0</ele><time>2026-05-03T14:02:08Z</time></trkpt><trkpt lat="45.28593930276927" lon="8.69196286885523"><ele>111.0</ele><time>2026-05-03T14:02:09Z</time></trkpt><trkpt lat="45.28592087817338" lon="8.691865093912885"><ele>111.0</ele><time>2026-05-03T14:02:10Z</time></trkpt><trkpt lat="45.285881308856034" lon="8.691780085179296"><ele>111.0</ele><time>2026-05-03T14:02:11Z</time></trkpt><trkpt lat="45.2858444025564" lon="8.691682105170122"><ele>111.0</ele><time>2026-05-03T14:02:12Z</time></trkpt><trkpt lat="45.28582506435789" lon="8.691570001719345"><ele>111.19999999999999</ele><time>2026-05-03T14:02:13Z</time></trkpt><trkpt lat="45.28580129349834" lon="8.691458171731963"><ele>111.39999999999999</ele><time>2026-05-03T14:02:14Z</time></trkpt><trkpt lat="45.28576477504102" lon="8.691320961423203"><ele>111.6</ele><time>2026-05-03T14:02:15Z</time></trkpt><trkpt lat="45.2857359722679" lon="8.691195496250204"><ele>111.8</ele><time>2026-05-03T14:02:16Z</time></trkpt><trkpt lat="45.28571339768522" lon="8.691067818027475"><ele>112.0</ele><time>2026-05-03T14:02:17Z</time></trkpt><trkpt lat="45.28571274914321" lon="8.690922956234793"><ele>112.00000000000001</ele><time>2026-05-03T14:02:18Z</time></trkpt><trkpt lat="45.285687957962786" lon="8.690800429955129"><ele>112.0</ele><time>2026-05-03T14:02:19Z</time></trkpt><trkpt lat="45.28566963017947" lon="8.690684225922654"><ele>112.0</ele><time>2026-05-03T14:02:20Z</time></trkpt><trkpt lat="45.285670473139646" lon="8.690563564780804"><ele>112.0</ele><time>2026-05-03T14:02:21Z</time></trkpt><trkpt lat="45.28563940371617" lon="8.690454260769458"><ele>112.00000000000001</ele><time>2026-05-03T14:02:22Z</time></trkpt><trkpt lat="45.285625523974396" lon="8.690345557896979"><ele>112.0</ele><time>2026-05-03T14:02:23Z</time></trkpt><trkpt lat="45.28561350915232" lon="8.690241701322112"><ele>112.0</ele><time>2026-05-03T14:02:24Z</time></trkpt><trkpt lat="45.285570440555624" lon="8.690102479527583"><ele>111.99999999999999</ele><time>2026-05-03T14:02:26Z</time></trkpt><trkpt lat="45.28552442379013" lon="8.689992377317449"><ele>111.99999999999999</ele><time>2026-05-03T14:02:29Z</time></trkpt><trkpt lat="45.28560934878016" lon="8.68993571049435"><ele>112.0</ele><time>2026-05-03T14:02:34Z</time></trkpt><trkpt lat="45.2857392929439" lon="8.689930246344678"><ele>112.0</ele><time>2026-05-03T14:02:36Z</time></trkpt><trkpt lat="45.28586179307169" lon="8.68993625366827"><ele>112.16666666666667</ele><time>2026-05-03T14:02:38Z</time></trkpt><trkpt lat="45.28598497333839" lon="8.689943396034485"><ele>112.33333333333334</ele><time>2026-05-03T14:02:40Z</time></trkpt><trkpt lat="45.286054884209584" lon="8.689947003069094"><ele>112.5</ele><time>2026-05-03T14:02:41Z</time></trkpt><trkpt lat="45.28612779344786" lon="8.689948238979149"><ele>112.66666666666666</ele><time>2026-05-03T14:02:42Z</time></trkpt><trkpt lat="45.286198870441645" lon="8.689956621898707"><ele>112.83333333333333</ele><time>2026-05-03T14:02:43Z</time></trkpt><trkpt lat="45.28626876332247" lon="8.689959349465752"><ele>113.0</ele><time>2026-05-03T14:02:44Z</time></trkpt><trkpt lat="45.28633973836238" lon="8.689963862083102"><ele>112.99999999999999</ele><time>2026-05-03T14:02:45Z</time></trkpt><trkpt lat="45.28641055515821" lon="8.689967773286563"><ele>113.0</ele><time>2026-05-03T14:02:46Z</time></trkpt><trkpt lat="45.28647784732012" lon="8.689988810548915"><ele>113.0</ele><time>2026-05-03T14:02:47Z</time></trkpt><trkpt lat="45.28654749904129" lon="8.689975216957743"><ele>113.0</ele><time>2026-05-03T14:02:48Z</time></trkpt><trkpt lat="45.2866166593536" lon="8.689978675294094"><ele>112.99999999999999</ele><time>2026-05-03T14:02:49Z</time></trkpt><trkpt lat="45.28668666397847" lon="8.689981180546162"><ele>113.0</ele><time>2026-05-03T14:02:50Z</time></trkpt><trkpt lat="45.286804655497264" lon="8.689985625886438"><ele>112.80000000000001</ele><time>2026-05-03T14:02:52Z</time></trkpt><trkpt lat="45.28690792289289" lon="8.689990033090341"><ele>112.60000000000001</ele><time>2026-05-03T14:02:54Z</time></trkpt><trkpt lat="45.287018785849654" lon="8.689995113816392"><ele>112.39999999999999</ele><time>2026-05-03T14:02:56Z</time></trkpt><trkpt lat="45.287135531336084" lon="8.690000044594257"><ele>112.19999999999999</ele><time>2026-05-03T14:02:58Z</time></trkpt><trkpt lat="45.28724797970364" lon="8.69000724461845"><ele>112.0</ele><time>2026-05-03T14:03:00Z</time></trkpt><trkpt lat="45.287360997932865" lon="8.690017063833066"><ele>112.00000000000001</ele><time>2026-05-03T14:03:02Z</time></trkpt><trkpt lat="45.28747183039768" lon="8.690063896167826"><ele>112.0</ele><time>2026-05-03T14:03:04Z</time></trkpt><trkpt lat="45.2875381197126" lon="8.69006170823317"><ele>112.0</ele><time>2026-05-03T14:03:05Z</time></trkpt><trkpt lat="45.28760609391645" lon="8.690104865026349"><ele>112.0</ele><time>2026-05-03T14:03:06Z</time></trkpt><trkpt lat="45.28768165996318" lon="8.69012852730515"><ele>112.00000000000001</ele><time>2026-05-03T14:03:07Z</time></trkpt><trkpt lat="45.28774617300777" lon="8.690148728682933"><ele>112.0</ele><time>2026-05-03T14:03:08Z</time></trkpt><trkpt lat="45.287812846662995" lon="8.690170190221773"><ele>112.0</ele><time>2026-05-03T14:03:09Z</time></trkpt><trkpt lat="45.287884541750564" lon="8.69019458791533"><ele>112.0</ele><time>2026-05-03T14:03:10Z</time></trkpt><trkpt lat="45.28795707778093" lon="8.690195070464814"><ele>112.0</ele><time>2026-05-03T14:03:11Z</time></trkpt><trkpt lat="45.28802393384408" lon="8.690219902379047"><ele>112.0</ele><time>2026-05-03T14:03:12Z</time></trkpt><trkpt lat="45.28808923737178" lon="8.690263924983064"><ele>112.0</ele><time>2026-05-03T14:03:13Z</time></trkpt><trkpt lat="45.28815245099191" lon="8.69028531287879"><ele>112.0</ele><time>2026-05-03T14:03:14Z</time></trkpt><trkpt lat="45.288220794467456" lon="8.690308436522942"><ele>112.0</ele><time>2026-05-03T14:03:15Z</time></trkpt><trkpt lat="45.28828721881323" lon="8.690330910779796"><ele>112.19999999999999</ele><time>2026-05-03T14:03:16Z</time></trkpt><trkpt lat="45.28835053608438" lon="8.690327862846253"><ele>112.39999999999999</ele><time>2026-05-03T14:03:17Z</time></trkpt><trkpt lat="45.28841043368937" lon="8.690370186214627"><ele>112.60000000000001</ele><time>2026-05-03T14:03:18Z</time></trkpt><trkpt lat="45.2885167536485" lon="8.690378638697538"><ele>112.80000000000001</ele><time>2026-05-03T14:03:20Z</time></trkpt><trkpt lat="45.28859874384726" lon="8.69039272563529"><ele>113.0</ele><time>2026-05-03T14:03:29Z</time></trkpt><trkpt lat="45.28858941318281" lon="8.690167825975074"><ele>113.16666666666666</ele><time>2026-05-03T14:03:31Z</time></trkpt><trkpt lat="45.28859188161212" lon="8.690072221519584"><ele>113.33333333333333</ele><time>2026-05-03T14:03:32Z</time></trkpt><trkpt lat="45.28857647294464" lon="8.689951317906749"><ele>113.5</ele><time>2026-05-03T14:03:33Z</time></trkpt><trkpt lat="45.288555895349205" lon="8.689815412264563"><ele>113.66666666666666</ele><time>2026-05-03T14:03:34Z</time></trkpt><trkpt lat="45.28852796744128" lon="8.689687633995062"><ele>113.83333333333333</ele><time>2026-05-03T14:03:35Z</time></trkpt><trkpt lat="45.2885032858455" lon="8.689556060068286"><ele>114.0</ele><time>2026-05-03T14:03:36Z</time></trkpt><trkpt lat="45.288465346639846" lon="8.689410803375141"><ele>114.0</ele><time>2026-05-03T14:03:37Z</time></trkpt><trkpt lat="45.28842174549413" lon="8.6892571833869"><ele>114.0</ele><time>2026-05-03T14:03:38Z</time></trkpt><trkpt lat="45.288376654135014" lon="8.689113382764006"><ele>114.0</ele><time>2026-05-03T14:03:39Z</time></trkpt><trkpt lat="45.28832937748053" lon="8.68895950168371"><ele>114.0</ele><time>2026-05-03T14:03:40Z</time></trkpt><trkpt lat="45.28827682385787" lon="8.688803803786561"><ele>114.0</ele><time>2026-05-03T14:03:41Z</time></trkpt><trkpt lat="45.288222415060126" lon="8.688647057521901"><ele>114.0</ele><time>2026-05-03T14:03:42Z</time></trkpt><trkpt lat="45.28816388662392" lon="8.688486975672614"><ele>114.0</ele><time>2026-05-03T14:03:43Z</time></trkpt><trkpt lat="45.28810232601157" lon="8.688321850419348"><ele>114.0</ele><time>2026-05-03T14:03:44Z</time></trkpt><trkpt lat="45.28803777582095" lon="8.688153590135704"><ele>114.0</ele><time>2026-05-03T14:03:45Z</time></trkpt><trkpt lat="45.28797856812938" lon="8.687993778332151"><ele>114.0</ele><time>2026-05-03T14:03:46Z</time></trkpt><trkpt lat="45.28791498366728" lon="8.687828857465833"><ele>114.0</ele><time>2026-05-03T14:03:47Z</time></trkpt><trkpt lat="45.28785413018941" lon="8.68766626119941"><ele>114.0</ele><time>2026-05-03T14:03:48Z</time></trkpt><trkpt lat="45.28779413309764" lon="8.687501919932242"><ele>114.0</ele><time>2026-05-03T14:03:49Z</time></trkpt><trkpt lat="45.287733544611164" lon="8.68734032035132"><ele>114.0</ele><time>2026-05-03T14:03:50Z</time></trkpt><trkpt lat="45.28767166060986" lon="8.68717805010544"><ele>114.0</ele><time>2026-05-03T14:03:51Z</time></trkpt><trkpt lat="45.28761075879299" lon="8.687013485095605"><ele>114.0</ele><time>2026-05-03T14:03:52Z</time></trkpt><trkpt lat="45.287552420215974" lon="8.68684741579696"><ele>113.25</ele><time>2026-05-03T14:03:53Z</time></trkpt><trkpt lat="45.28750442597847" lon="8.686676083773822"><ele>112.5</ele><time>2026-05-03T14:03:54Z</time></trkpt><trkpt lat="45.2874695877012" lon="8.68650256845652"><ele>111.75</ele><time>2026-05-03T14:03:55Z</time></trkpt><trkpt lat="45.287443008134126" lon="8.68632242756075"><ele>111.0</ele><time>2026-05-03T14:03:56Z</time></trkpt><trkpt lat="45.28742659133805" lon="8.686138543570403"><ele>110.75</ele><time>2026-05-03T14:03:57Z</time></trkpt><trkpt lat="45.287406213003784" lon="8.685948070680611"><ele>110.5</ele><time>2026-05-03T14:03:58Z</time></trkpt><trkpt lat="45.287382376543356" lon="8.685749769627314"><ele>110.25</ele><time>2026-05-03T14:03:59Z</time></trkpt><trkpt lat="45.28735926762639" lon="8.685545100004372"><ele>110.0</ele><time>2026-05-03T14:04:00Z</time></trkpt><trkpt lat="45.287335776063536" lon="8.685335320132825"><ele>110.5</ele><time>2026-05-03T14:04:01Z</time></trkpt><trkpt lat="45.28731131449563" lon="8.68513276148269"><ele>111.0</ele><time>2026-05-03T14:04:02Z</time></trkpt><trkpt lat="45.28728696701231" lon="8.684924518381049"><ele>111.5</ele><time>2026-05-03T14:04:03Z</time></trkpt><trkpt lat="45.287265763330694" lon="8.684718373509115"><ele>112.0</ele><time>2026-05-03T14:04:04Z</time></trkpt><trkpt lat="45.287241768243675" lon="8.684518855299551"><ele>112.0</ele><time>2026-05-03T14:04:05Z</time></trkpt><trkpt lat="45.28721819586469" lon="8.684320694273874"><ele>112.0</ele><time>2026-05-03T14:04:06Z</time></trkpt><trkpt lat="45.28719569207963" lon="8.684121475088029"><ele>112.0</ele><time>2026-05-03T14:04:07Z</time></trkpt><trkpt lat="45.2871741047672" lon="8.68391839889735"><ele>112.0</ele><time>2026-05-03T14:04:08Z</time></trkpt><trkpt lat="45.28715348184838" lon="8.68371142689416"><ele>111.75</ele><time>2026-05-03T14:04:09Z</time></trkpt><trkpt lat="45.28713204395347" lon="8.683504494930176"><ele>111.5</ele><time>2026-05-03T14:04:10Z</time></trkpt><trkpt lat="45.28711278115587" lon="8.683295482568594"><ele>111.25</ele><time>2026-05-03T14:04:11Z</time></trkpt><trkpt lat="45.28709377528414" lon="8.683088202835497"><ele>111.0</ele><time>2026-05-03T14:04:12Z</time></trkpt><trkpt lat="45.287072943136" lon="8.682881952702159"><ele>111.33333333333334</ele><time>2026-05-03T14:04:13Z</time></trkpt><trkpt lat="45.287051804987485" lon="8.682648184899769"><ele>111.66666666666667</ele><time>2026-05-03T14:04:14Z</time></trkpt><trkpt lat="45.28703361579597" lon="8.682411493238895"><ele>112.0</ele><time>2026-05-03T14:04:15Z</time></trkpt><trkpt lat="45.28701037456977" lon="8.682134508339942"><ele>111.66666666666667</ele><time>2026-05-03T14:04:16Z</time></trkpt><trkpt lat="45.287008620187116" lon="8.68186898501656"><ele>111.33333333333334</ele><time>2026-05-03T14:04:17Z</time></trkpt><trkpt lat="45.28699051858001" lon="8.68160003490766"><ele>111.0</ele><time>2026-05-03T14:04:18Z</time></trkpt><trkpt lat="45.286972111834366" lon="8.681326552506961"><ele>111.33333333333334</ele><time>2026-05-03T14:04:19Z</time></trkpt><trkpt lat="45.286953461062566" lon="8.681049444359163"><ele>111.66666666666667</ele><time>2026-05-03T14:04:20Z</time></trkpt><trkpt lat="45.28693444760453" lon="8.680766946829618"><ele>112.0</ele><time>2026-05-03T14:04:21Z</time></trkpt><trkpt lat="45.28691553579136" lon="8.680485959108603"><ele>112.0</ele><time>2026-05-03T14:04:22Z</time></trkpt><trkpt lat="45.286896911402614" lon="8.680201821654704"><ele>112.0</ele><time>2026-05-03T14:04:23Z</time></trkpt><trkpt lat="45.28687838222625" lon="8.67991859977754"><ele>112.0</ele><time>2026-05-03T14:04:24Z</time></trkpt><trkpt lat="45.28686019910313" lon="8.679640666735382"><ele>112.0</ele><time>2026-05-03T14:04:25Z</time></trkpt><trkpt lat="45.28684206377471" lon="8.679363464829773"><ele>112.0</ele><time>2026-05-03T14:04:26Z</time></trkpt><trkpt lat="45.286823932518494" lon="8.679081937108933"><ele>112.0</ele><time>2026-05-03T14:04:27Z</time></trkpt><trkpt lat="45.28680614462222" lon="8.678802157377492"><ele>112.0</ele><time>2026-05-03T14:04:28Z</time></trkpt><trkpt lat="45.28678971321275" lon="8.67854371335383"><ele>112.0</ele><time>2026-05-03T14:04:29Z</time></trkpt><trkpt lat="45.286774225679075" lon="8.678300115014254"><ele>112.0</ele><time>2026-05-03T14:04:30Z</time></trkpt><trkpt lat="45.28675863149316" lon="8.678054839041623"><ele>112.0</ele><time>2026-05-03T14:04:31Z</time></trkpt><trkpt lat="45.286729030758664" lon="8.67780643113047"><ele>112.0</ele><time>2026-05-03T14:04:32Z</time></trkpt><trkpt lat="45.28672683730801" lon="8.677554759106789"><ele>112.0</ele><time>2026-05-03T14:04:33Z</time></trkpt><trkpt lat="45.28671087132099" lon="8.677303635438365"><ele>111.66666666666667</ele><time>2026-05-03T14:04:34Z</time></trkpt><trkpt lat="45.28669458644342" lon="8.677047495788962"><ele>111.33333333333334</ele><time>2026-05-03T14:04:35Z</time></trkpt><trkpt lat="45.286678901522244" lon="8.676800792999675"><ele>111.0</ele><time>2026-05-03T14:04:36Z</time></trkpt><trkpt lat="45.2866629215307" lon="8.676554082210187"><ele>110.66666666666666</ele><time>2026-05-03T14:04:37Z</time></trkpt><trkpt lat="45.28664695900863" lon="8.676308468532122"><ele>110.33333333333333</ele><time>2026-05-03T14:04:38Z</time></trkpt><trkpt lat="45.286630735714795" lon="8.676058842389132"><ele>110.0</ele><time>2026-05-03T14:04:39Z</time></trkpt><trkpt lat="45.28661459819969" lon="8.675810536130076"><ele>110.0</ele><time>2026-05-03T14:04:40Z</time></trkpt><trkpt lat="45.28659874863908" lon="8.675566660544586"><ele>110.0</ele><time>2026-05-03T14:04:41Z</time></trkpt><trkpt lat="45.286582874422834" lon="8.675322405738564"><ele>110.0</ele><time>2026-05-03T14:04:42Z</time></trkpt><trkpt lat="45.286567022285254" lon="8.675078490591115"><ele>110.33333333333333</ele><time>2026-05-03T14:04:43Z</time></trkpt><trkpt lat="45.28655195592651" lon="8.674840647144395"><ele>110.66666666666666</ele><time>2026-05-03T14:04:44Z</time></trkpt><trkpt lat="45.28653682922466" lon="8.67460095538499"><ele>111.0</ele><time>2026-05-03T14:04:45Z</time></trkpt><trkpt lat="45.286522008863706" lon="8.674366117785626"><ele>111.66666666666666</ele><time>2026-05-03T14:04:46Z</time></trkpt><trkpt lat="45.28650691717092" lon="8.674126983320756"><ele>112.33333333333333</ele><time>2026-05-03T14:04:47Z</time></trkpt><trkpt lat="45.28649236647622" lon="8.673900549502733"><ele>113.0</ele><time>2026-05-03T14:04:48Z</time></trkpt><trkpt lat="45.28646114845021" lon="8.673670321780293"><ele>112.66666666666666</ele><time>2026-05-03T14:04:49Z</time></trkpt><trkpt lat="45.28646262726722" lon="8.673434707397611"><ele>112.33333333333334</ele><time>2026-05-03T14:04:50Z</time></trkpt><trkpt lat="45.286449050131665" lon="8.673205780234767"><ele>112.0</ele><time>2026-05-03T14:04:51Z</time></trkpt><trkpt lat="45.28643509535029" lon="8.672983202513795"><ele>111.66666666666667</ele><time>2026-05-03T14:04:52Z</time></trkpt><trkpt lat="45.28641930520926" lon="8.672761781932373"><ele>111.33333333333334</ele><time>2026-05-03T14:04:53Z</time></trkpt><trkpt lat="45.28640304035692" lon="8.672533704373773"><ele>111.0</ele><time>2026-05-03T14:04:54Z</time></trkpt><trkpt lat="45.28638487247439" lon="8.672308079335046"><ele>111.0</ele><time>2026-05-03T14:04:55Z</time></trkpt><trkpt lat="45.2863642043294" lon="8.672087970873028"><ele>111.0</ele><time>2026-05-03T14:04:56Z</time></trkpt><trkpt lat="45.28633884728588" lon="8.671869272117348"><ele>111.0</ele><time>2026-05-03T14:04:57Z</time></trkpt><trkpt lat="45.286313051821026" lon="8.671654193723747"><ele>110.66666666666666</ele><time>2026-05-03T14:04:58Z</time></trkpt><trkpt lat="45.28628140444262" lon="8.671430398687603"><ele>110.33333333333333</ele><time>2026-05-03T14:04:59Z</time></trkpt><trkpt lat="45.28624683606928" lon="8.67121445974371"><ele>110.0</ele><time>2026-05-03T14:05:00Z</time></trkpt><trkpt lat="45.28621085405341" lon="8.671013103668418"><ele>110.5</ele><time>2026-05-03T14:05:01Z</time></trkpt><trkpt lat="45.28617395294505" lon="8.670829337598024"><ele>111.0</ele><time>2026-05-03T14:05:02Z</time></trkpt><trkpt lat="45.28613104396833" lon="8.670645601046958"><ele>111.5</ele><time>2026-05-03T14:05:03Z</time></trkpt><trkpt lat="45.28608607326879" lon="8.670461301750967"><ele>112.0</ele><time>2026-05-03T14:05:04Z</time></trkpt><trkpt lat="45.28604129746398" lon="8.670277801342309"><ele>112.25</ele><time>2026-05-03T14:05:05Z</time></trkpt><trkpt lat="45.285996225337975" lon="8.670093597702227"><ele>112.5</ele><time>2026-05-03T14:05:06Z</time></trkpt><trkpt lat="45.28595091192604" lon="8.669908741714314"><ele>112.75</ele><time>2026-05-03T14:05:07Z</time></trkpt><trkpt lat="45.285905478963116" lon="8.669722740320953"><ele>113.0</ele><time>2026-05-03T14:05:08Z</time></trkpt><trkpt lat="45.2858605779564" lon="8.669539126945619"><ele>113.25</ele><time>2026-05-03T14:05:09Z</time></trkpt><trkpt lat="45.28580203680857" lon="8.669370277533469"><ele>113.5</ele><time>2026-05-03T14:05:10Z</time></trkpt><trkpt lat="45.285753642443694" lon="8.669197534082379"><ele>113.75</ele><time>2026-05-03T14:05:11Z</time></trkpt><trkpt lat="45.28570969864445" lon="8.669036226728112"><ele>114.0</ele><time>2026-05-03T14:05:12Z</time></trkpt><trkpt lat="45.28566772913178" lon="8.66888952170011"><ele>114.0</ele><time>2026-05-03T14:05:13Z</time></trkpt><trkpt lat="45.28562666636656" lon="8.668753528292577"><ele>114.0</ele><time>2026-05-03T14:05:14Z</time></trkpt><trkpt lat="45.28560083823349" lon="8.66862132783408"><ele>114.0</ele><time>2026-05-03T14:05:15Z</time></trkpt><trkpt lat="45.28556705762613" lon="8.668500853735061"><ele>114.0</ele><time>2026-05-03T14:05:16Z</time></trkpt><trkpt lat="45.28553509685341" lon="8.668386675625579"><ele>114.0</ele><time>2026-05-03T14:05:17Z</time></trkpt><trkpt lat="45.285509400587294" lon="8.66827688039107"><ele>114.33333333333333</ele><time>2026-05-03T14:05:18Z</time></trkpt><trkpt lat="45.285481025868826" lon="8.668172463107426"><ele>114.66666666666666</ele><time>2026-05-03T14:05:19Z</time></trkpt><trkpt lat="45.28546884568656" lon="8.668076488189168"><ele>115.0</ele><time>2026-05-03T14:05:20Z</time></trkpt><trkpt lat="45.28543223882311" lon="8.667925333205762"><ele>115.33333333333333</ele><time>2026-05-03T14:05:22Z</time></trkpt><trkpt lat="45.28535169838778" lon="8.667837601296503"><ele>115.66666666666666</ele><time>2026-05-03T14:05:24Z</time></trkpt><trkpt lat="45.28527396946005" lon="8.667867583431514"><ele>116.0</ele><time>2026-05-03T14:05:25Z</time></trkpt><trkpt lat="45.285202350081406" lon="8.66791965327284"><ele>116.0</ele><time>2026-05-03T14:05:26Z</time></trkpt><trkpt lat="45.285115571100306" lon="8.66796689610319"><ele>116.0</ele><time>2026-05-03T14:05:27Z</time></trkpt><trkpt lat="45.28502597560049" lon="8.668010400242762"><ele>116.0</ele><time>2026-05-03T14:05:28Z</time></trkpt><trkpt lat="45.28492918294861" lon="8.668058685390722"><ele>116.0</ele><time>2026-05-03T14:05:29Z</time></trkpt><trkpt lat="45.28482711113748" lon="8.668107353082197"><ele>116.0</ele><time>2026-05-03T14:05:30Z</time></trkpt><trkpt lat="45.28472902433568" lon="8.668150362015933"><ele>115.8</ele><time>2026-05-03T14:05:31Z</time></trkpt><trkpt lat="45.28462868943825" lon="8.668193441713846"><ele>115.6</ele><time>2026-05-03T14:05:32Z</time></trkpt><trkpt lat="45.28452924672466" lon="8.668242949159929"><ele>115.4</ele><time>2026-05-03T14:05:33Z</time></trkpt><trkpt lat="45.28442946302528" lon="8.668301936503864"><ele>115.2</ele><time>2026-05-03T14:05:34Z</time></trkpt><trkpt lat="45.28432832931378" lon="8.668362905594686"><ele>115.0</ele><time>2026-05-03T14:05:35Z</time></trkpt><trkpt lat="45.28423351767264" lon="8.668406501377008"><ele>115.0</ele><time>2026-05-03T14:05:36Z</time></trkpt><trkpt lat="45.284151049531914" lon="8.66844861480889"><ele>115.0</ele><time>2026-05-03T14:05:37Z</time></trkpt><trkpt lat="45.28407426245982" lon="8.668489737239058"><ele>115.0</ele><time>2026-05-03T14:05:38Z</time></trkpt><trkpt lat="45.28398870545677" lon="8.668530733860932"><ele>115.0</ele><time>2026-05-03T14:05:39Z</time></trkpt><trkpt lat="45.283899008537446" lon="8.668570923226918"><ele>115.0</ele><time>2026-05-03T14:05:40Z</time></trkpt><trkpt lat="45.28380594833132" lon="8.66862308227901"><ele>114.8</ele><time>2026-05-03T14:05:41Z</time></trkpt><trkpt lat="45.2837110963767" lon="8.668668044915497"><ele>114.6</ele><time>2026-05-03T14:05:42Z</time></trkpt><trkpt lat="45.283621646029964" lon="8.668693741497353"><ele>114.4</ele><time>2026-05-03T14:05:43Z</time></trkpt><trkpt lat="45.28354848818072" lon="8.66870093221041"><ele>114.2</ele><time>2026-05-03T14:05:44Z</time></trkpt><trkpt lat="45.28344527451355" lon="8.668636924295535"><ele>114.0</ele><time>2026-05-03T14:05:46Z</time></trkpt><trkpt lat="45.283381099831665" lon="8.668487594697638"><ele>114.0</ele><time>2026-05-03T14:05:48Z</time></trkpt><trkpt lat="45.283368705594015" lon="8.668379603851813"><ele>114.0</ele><time>2026-05-03T14:05:49Z</time></trkpt><trkpt lat="45.28332572762151" lon="8.66825954505043"><ele>114.0</ele><time>2026-05-03T14:05:50Z</time></trkpt><trkpt lat="45.28329669840215" lon="8.668107533938691"><ele>114.0</ele><time>2026-05-03T14:05:51Z</time></trkpt><trkpt lat="45.283263519071205" lon="8.667952750468391"><ele>114.0</ele><time>2026-05-03T14:05:52Z</time></trkpt><trkpt lat="45.28323392903931" lon="8.667802578802776"><ele>113.80000000000001</ele><time>2026-05-03T14:05:53Z</time></trkpt><trkpt lat="45.28320457285384" lon="8.667657016880156"><ele>113.60000000000001</ele><time>2026-05-03T14:05:54Z</time></trkpt><trkpt lat="45.28317585405127" lon="8.667513621021373"><ele>113.4</ele><time>2026-05-03T14:05:55Z</time></trkpt><trkpt lat="45.28314932127597" lon="8.667370792945961"><ele>113.2</ele><time>2026-05-03T14:05:56Z</time></trkpt><trkpt lat="45.28310948731393" lon="8.667235035655832"><ele>113.0</ele><time>2026-05-03T14:05:57Z</time></trkpt><trkpt lat="45.28304637571336" lon="8.667122515015604"><ele>113.0</ele><time>2026-05-03T14:05:58Z</time></trkpt><trkpt lat="45.282979070225636" lon="8.667023587764609"><ele>113.0</ele><time>2026-05-03T14:05:59Z</time></trkpt><trkpt lat="45.2829305725538" lon="8.6669364184019"><ele>113.0</ele><time>2026-05-03T14:06:00Z</time></trkpt><trkpt lat="45.28286901936588" lon="8.66687120064606"><ele>113.0</ele><time>2026-05-03T14:06:01Z</time></trkpt><trkpt lat="45.282838753034696" lon="8.666787091665784"><ele>113.0</ele><time>2026-05-03T14:06:02Z</time></trkpt><trkpt lat="45.282837701998254" lon="8.666696822063205"><ele>113.0</ele><time>2026-05-03T14:06:03Z</time></trkpt><trkpt lat="45.282861042016954" lon="8.666608558675607"><ele>113.0</ele><time>2026-05-03T14:06:04Z</time></trkpt><trkpt lat="45.2829096492044" lon="8.666513879536074"><ele>113.0</ele><time>2026-05-03T14:06:05Z</time></trkpt><trkpt lat="45.28297259074496" lon="8.666398918066873"><ele>113.0</ele><time>2026-05-03T14:06:06Z</time></trkpt><trkpt lat="45.283040528293306" lon="8.666239724832872"><ele>113.0</ele><time>2026-05-03T14:06:07Z</time></trkpt><trkpt lat="45.28310802547083" lon="8.666091220477497"><ele>113.0</ele><time>2026-05-03T14:06:08Z</time></trkpt><trkpt lat="45.283167201023" lon="8.665950239866186"><ele>112.5</ele><time>2026-05-03T14:06:09Z</time></trkpt><trkpt lat="45.28322205762323" lon="8.665798309526599"><ele>112.0</ele><time>2026-05-03T14:06:10Z</time></trkpt><trkpt lat="45.28328128744438" lon="8.665642381977388"><ele>111.5</ele><time>2026-05-03T14:06:11Z</time></trkpt><trkpt lat="45.28334071378804" lon="8.665484626254004"><ele>111.0</ele><time>2026-05-03T14:06:12Z</time></trkpt><trkpt lat="45.28339173857893" lon="8.665317302573886"><ele>111.25</ele><time>2026-05-03T14:06:13Z</time></trkpt><trkpt lat="45.2834360143769" lon="8.66514666925801"><ele>111.5</ele><time>2026-05-03T14:06:14Z</time></trkpt><trkpt lat="45.283472468541866" lon="8.664970580068077"><ele>111.75</ele><time>2026-05-03T14:06:15Z</time></trkpt><trkpt lat="45.28349998771392" lon="8.664789230014646"><ele>112.0</ele><time>2026-05-03T14:06:16Z</time></trkpt><trkpt lat="45.28352068628784" lon="8.664600923980679"><ele>112.25</ele><time>2026-05-03T14:06:17Z</time></trkpt><trkpt lat="45.28353492147701" lon="8.664420482653568"><ele>112.5</ele><time>2026-05-03T14:06:18Z</time></trkpt><trkpt lat="45.2835481265595" lon="8.664237635438537"><ele>112.75</ele><time>2026-05-03T14:06:19Z</time></trkpt><trkpt lat="45.28356528493847" lon="8.664043109131281"><ele>113.0</ele><time>2026-05-03T14:06:20Z</time></trkpt><trkpt lat="45.28358352159916" lon="8.663846858941234"><ele>113.0</ele><time>2026-05-03T14:06:21Z</time></trkpt><trkpt lat="45.2836021372135" lon="8.663646870376315"><ele>113.0</ele><time>2026-05-03T14:06:22Z</time></trkpt><trkpt lat="45.28361990889108" lon="8.663440770577326"><ele>113.0</ele><time>2026-05-03T14:06:23Z</time></trkpt><trkpt lat="45.28363682676926" lon="8.663234285614152"><ele>113.0</ele><time>2026-05-03T14:06:24Z</time></trkpt><trkpt lat="45.28365464892712" lon="8.66302669282024"><ele>113.0</ele><time>2026-05-03T14:06:25Z</time></trkpt><trkpt lat="45.283674241159325" lon="8.662816466046596"><ele>113.0</ele><time>2026-05-03T14:06:26Z</time></trkpt><trkpt lat="45.28369386289567" lon="8.662607454111328"><ele>113.0</ele><time>2026-05-03T14:06:27Z</time></trkpt><trkpt lat="45.28371367819121" lon="8.66239459478689"><ele>113.0</ele><time>2026-05-03T14:06:28Z</time></trkpt><trkpt lat="45.28373279385864" lon="8.662183979426539"><ele>113.0</ele><time>2026-05-03T14:06:29Z</time></trkpt><trkpt lat="45.283753014070456" lon="8.661969857079756"><ele>113.0</ele><time>2026-05-03T14:06:30Z</time></trkpt><trkpt lat="45.28377186806877" lon="8.661760673798039"><ele>113.0</ele><time>2026-05-03T14:06:31Z</time></trkpt><trkpt lat="45.28379123240199" lon="8.661545471507695"><ele>113.0</ele><time>2026-05-03T14:06:32Z</time></trkpt><trkpt lat="45.28380909790197" lon="8.66133852457375"><ele>113.0</ele><time>2026-05-03T14:06:33Z</time></trkpt><trkpt lat="45.28383077540824" lon="8.661127985844109"><ele>113.0</ele><time>2026-05-03T14:06:34Z</time></trkpt><trkpt lat="45.28385028085144" lon="8.660916263943944"><ele>113.0</ele><time>2026-05-03T14:06:35Z</time></trkpt><trkpt lat="45.28386920668677" lon="8.660703708289752"><ele>112.75</ele><time>2026-05-03T14:06:36Z</time></trkpt><trkpt lat="45.28388763969668" lon="8.66049118424908"><ele>112.5</ele><time>2026-05-03T14:06:37Z</time></trkpt><trkpt lat="45.28390587198987" lon="8.660281956013867"><ele>112.25</ele><time>2026-05-03T14:06:38Z</time></trkpt><trkpt lat="45.2839233227884" lon="8.660069727291804"><ele>112.0</ele><time>2026-05-03T14:06:39Z</time></trkpt><trkpt lat="45.283943125254325" lon="8.659857262413569"><ele>111.66666666666667</ele><time>2026-05-03T14:06:40Z</time></trkpt><trkpt lat="45.28396671163964" lon="8.659635282244981"><ele>111.33333333333334</ele><time>2026-05-03T14:06:41Z</time></trkpt><trkpt lat="45.28398407527111" lon="8.659421912461859"><ele>111.0</ele><time>2026-05-03T14:06:42Z</time></trkpt><trkpt lat="45.28400541569207" lon="8.659195430229513"><ele>111.0</ele><time>2026-05-03T14:06:43Z</time></trkpt><trkpt lat="45.284023274201466" lon="8.658973291411513"><ele>111.0</ele><time>2026-05-03T14:06:44Z</time></trkpt><trkpt lat="45.28404876074893" lon="8.658741595831543"><ele>111.0</ele><time>2026-05-03T14:06:45Z</time></trkpt><trkpt lat="45.28406939469531" lon="8.658514815038577"><ele>111.66666666666666</ele><time>2026-05-03T14:06:46Z</time></trkpt><trkpt lat="45.28408912503731" lon="8.658284425766432"><ele>112.33333333333333</ele><time>2026-05-03T14:06:47Z</time></trkpt><trkpt lat="45.28411033897841" lon="8.658051233959302"><ele>113.0</ele><time>2026-05-03T14:06:48Z</time></trkpt><trkpt lat="45.284131450974954" lon="8.657820465581251"><ele>112.66666666666666</ele><time>2026-05-03T14:06:49Z</time></trkpt><trkpt lat="45.284153257791885" lon="8.657587013633007"><ele>112.33333333333334</ele><time>2026-05-03T14:06:50Z</time></trkpt><trkpt lat="45.28417509485847" lon="8.657358146766517"><ele>112.0</ele><time>2026-05-03T14:06:51Z</time></trkpt><trkpt lat="45.28419428810352" lon="8.657151413412631"><ele>111.75</ele><time>2026-05-03T14:06:52Z</time></trkpt><trkpt lat="45.284231221195945" lon="8.6569366922609"><ele>111.5</ele><time>2026-05-03T14:06:53Z</time></trkpt><trkpt lat="45.28424949333864" lon="8.656735751225154"><ele>111.25</ele><time>2026-05-03T14:06:54Z</time></trkpt><trkpt lat="45.284251254458674" lon="8.65652686111441"><ele>111.0</ele><time>2026-05-03T14:06:55Z</time></trkpt><trkpt lat="45.284255136628545" lon="8.656301798758566"><ele>110.66666666666666</ele><time>2026-05-03T14:06:56Z</time></trkpt><trkpt lat="45.28426292675934" lon="8.656073295361972"><ele>110.33333333333333</ele><time>2026-05-03T14:06:57Z</time></trkpt><trkpt lat="45.28424228900271" lon="8.655824652172756"><ele>110.0</ele><time>2026-05-03T14:06:58Z</time></trkpt><trkpt lat="45.28420749509151" lon="8.655563692523526"><ele>110.0</ele><time>2026-05-03T14:06:59Z</time></trkpt><trkpt lat="45.2841658368337" lon="8.655323305269954"><ele>110.0</ele><time>2026-05-03T14:07:00Z</time></trkpt><trkpt lat="45.284118673899904" lon="8.655061956506566"><ele>110.0</ele><time>2026-05-03T14:07:01Z</time></trkpt><trkpt lat="45.28406092779919" lon="8.654799649348542"><ele>109.66666666666666</ele><time>2026-05-03T14:07:02Z</time></trkpt><trkpt lat="45.284008862173145" lon="8.654548394722996"><ele>109.33333333333334</ele><time>2026-05-03T14:07:03Z</time></trkpt><trkpt lat="45.283960810521954" lon="8.654309387475953"><ele>109.0</ele><time>2026-05-03T14:07:04Z</time></trkpt><trkpt lat="45.283934219747344" lon="8.654060506000299"><ele>109.0</ele><time>2026-05-03T14:07:05Z</time></trkpt><trkpt lat="45.28390135213185" lon="8.653813340428945"><ele>109.0</ele><time>2026-05-03T14:07:06Z</time></trkpt><trkpt lat="45.28388879988052" lon="8.653575909145129"><ele>109.0</ele><time>2026-05-03T14:07:07Z</time></trkpt><trkpt lat="45.28389333087169" lon="8.653351247514045"><ele>109.0</ele><time>2026-05-03T14:07:08Z</time></trkpt><trkpt lat="45.28392521139537" lon="8.653148621435726"><ele>109.0</ele><time>2026-05-03T14:07:09Z</time></trkpt><trkpt lat="45.28396952360608" lon="8.652965624052415"><ele>109.0</ele><time>2026-05-03T14:07:10Z</time></trkpt><trkpt lat="45.284025120281676" lon="8.652797505489106"><ele>109.0</ele><time>2026-05-03T14:07:11Z</time></trkpt><trkpt lat="45.28409536645316" lon="8.652631162462399"><ele>109.66666666666667</ele><time>2026-05-03T14:07:12Z</time></trkpt><trkpt lat="45.28417829218018" lon="8.652449444963013"><ele>110.33333333333334</ele><time>2026-05-03T14:07:13Z</time></trkpt><trkpt lat="45.28426840607313" lon="8.652263181469838"><ele>111.0</ele><time>2026-05-03T14:07:14Z</time></trkpt><trkpt lat="45.28436797554864" lon="8.652057921177795"><ele>110.66666666666666</ele><time>2026-05-03T14:07:15Z</time></trkpt><trkpt lat="45.28447355321712" lon="8.651840274830935"><ele>110.33333333333333</ele><time>2026-05-03T14:07:16Z</time></trkpt><trkpt lat="45.28457874904045" lon="8.651623416276696"><ele>110.0</ele><time>2026-05-03T14:07:17Z</time></trkpt><trkpt lat="45.28468272345911" lon="8.65140907518483"><ele>110.0</ele><time>2026-05-03T14:07:18Z</time></trkpt><trkpt lat="45.28478349023725" lon="8.65120134655711"><ele>110.0</ele><time>2026-05-03T14:07:19Z</time></trkpt><trkpt lat="45.28486935278611" lon="8.650984306656424"><ele>110.0</ele><time>2026-05-03T14:07:20Z</time></trkpt><trkpt lat="45.28496855521821" lon="8.650787087333649"><ele>110.0</ele><time>2026-05-03T14:07:21Z</time></trkpt><trkpt lat="45.285064331487675" lon="8.650591618961789"><ele>110.0</ele><time>2026-05-03T14:07:22Z</time></trkpt><trkpt lat="45.28516005334116" lon="8.650400834493237"><ele>110.0</ele><time>2026-05-03T14:07:23Z</time></trkpt><trkpt lat="45.28525515804655" lon="8.65020700652282"><ele>110.33333333333333</ele><time>2026-05-03T14:07:24Z</time></trkpt><trkpt lat="45.28535107836582" lon="8.650015716949282"><ele>110.66666666666666</ele><time>2026-05-03T14:07:25Z</time></trkpt><trkpt lat="45.2854414847579" lon="8.649827650293874"><ele>111.0</ele><time>2026-05-03T14:07:26Z</time></trkpt><trkpt lat="45.28553404909071" lon="8.649639164811555"><ele>111.0</ele><time>2026-05-03T14:07:27Z</time></trkpt><trkpt lat="45.285621521305046" lon="8.649461332968734"><ele>111.0</ele><time>2026-05-03T14:07:28Z</time></trkpt><trkpt lat="45.28570315606263" lon="8.64930836713148"><ele>111.0</ele><time>2026-05-03T14:07:29Z</time></trkpt><trkpt lat="45.28577352372515" lon="8.649181422417069"><ele>111.0</ele><time>2026-05-03T14:07:30Z</time></trkpt><trkpt lat="45.28583067843955" lon="8.649079779915475"><ele>111.16666666666667</ele><time>2026-05-03T14:07:31Z</time></trkpt><trkpt lat="45.285888468665476" lon="8.648996496510764"><ele>111.33333333333334</ele><time>2026-05-03T14:07:32Z</time></trkpt><trkpt lat="45.285951408441335" lon="8.64891986682314"><ele>111.5</ele><time>2026-05-03T14:07:33Z</time></trkpt><trkpt lat="45.286010342231755" lon="8.648850277594304"><ele>111.66666666666667</ele><time>2026-05-03T14:07:34Z</time></trkpt><trkpt lat="45.286072749191156" lon="8.648784388842541"><ele>111.83333333333334</ele><time>2026-05-03T14:07:35Z</time></trkpt><trkpt lat="45.286140473380605" lon="8.648710922570931"><ele>112.0</ele><time>2026-05-03T14:07:36Z</time></trkpt><trkpt lat="45.28621530215957" lon="8.648636676650113"><ele>111.8</ele><time>2026-05-03T14:07:37Z</time></trkpt><trkpt lat="45.28628610011155" lon="8.648570015187179"><ele>111.6</ele><time>2026-05-03T14:07:38Z</time></trkpt><trkpt lat="45.286377731114975" lon="8.648488496046602"><ele>111.39999999999999</ele><time>2026-05-03T14:07:39Z</time></trkpt><trkpt lat="45.28648211363825" lon="8.648400006310995"><ele>111.19999999999999</ele><time>2026-05-03T14:07:40Z</time></trkpt><trkpt lat="45.28659141003118" lon="8.648304227122946"><ele>111.0</ele><time>2026-05-03T14:07:41Z</time></trkpt><trkpt lat="45.286709832096896" lon="8.648194304972364"><ele>111.0</ele><time>2026-05-03T14:07:42Z</time></trkpt><trkpt lat="45.28683127773651" lon="8.64807881369443"><ele>111.0</ele><time>2026-05-03T14:07:43Z</time></trkpt><trkpt lat="45.28683127773651" lon="8.64807881369443"><ele>111.0</ele><time>2026-05-03T14:07:43Z</time></trkpt><trkpt lat="45.28617786921173" lon="8.649468084263756"><ele>111.0</ele><time>2026-05-03T14:08:53Z</time></trkpt><trkpt lat="45.28622516378333" lon="8.649529123721171"><ele>111.0</ele><time>2026-05-03T14:08:59Z</time></trkpt><trkpt lat="45.28628313910085" lon="8.649625081331687"><ele>111.0</ele><time>2026-05-03T14:09:01Z</time></trkpt><trkpt lat="45.28634346172629" lon="8.649711631022077"><ele>111.0</ele><time>2026-05-03T14:09:03Z</time></trkpt><trkpt lat="45.28640697574973" lon="8.649821379675073"><ele>111.0</ele><time>2026-05-03T14:09:05Z</time></trkpt><trkpt lat="45.28649018813675" lon="8.649947042168879"><ele>111.0</ele><time>2026-05-03T14:09:07Z</time></trkpt><trkpt lat="45.28655682931556" lon="8.65005096055627"><ele>111.0</ele><time>2026-05-03T14:09:09Z</time></trkpt><trkpt lat="45.28663316385109" lon="8.650159194379395"><ele>111.0</ele><time>2026-05-03T14:09:11Z</time></trkpt><trkpt lat="45.28669728409734" lon="8.650262592426614"><ele>111.0</ele><time>2026-05-03T14:09:13Z</time></trkpt><trkpt lat="45.286762551754805" lon="8.650357800889859"><ele>111.0</ele><time>2026-05-03T14:09:15Z</time></trkpt><trkpt lat="45.28683452083806" lon="8.650476328141387"><ele>110.8</ele><time>2026-05-03T14:09:17Z</time></trkpt><trkpt lat="45.28690570729276" lon="8.650578608459433"><ele>110.6</ele><time>2026-05-03T14:09:19Z</time></trkpt><trkpt lat="45.28697686067426" lon="8.650691429095685"><ele>110.4</ele><time>2026-05-03T14:09:21Z</time></trkpt><trkpt lat="45.287053349574734" lon="8.650814150469197"><ele>110.2</ele><time>2026-05-03T14:09:23Z</time></trkpt><trkpt lat="45.287132602294236" lon="8.650942470539862"><ele>110.0</ele><time>2026-05-03T14:09:25Z</time></trkpt><trkpt lat="45.28717533552853" lon="8.651009037332457"><ele>110.16666666666666</ele><time>2026-05-03T14:09:26Z</time></trkpt><trkpt lat="45.28725728764989" lon="8.651136570745724"><ele>110.33333333333333</ele><time>2026-05-03T14:09:28Z</time></trkpt><trkpt lat="45.287302929881946" lon="8.651208646185127"><ele>110.5</ele><time>2026-05-03T14:09:29Z</time></trkpt><trkpt lat="45.2873479689637" lon="8.651278355606776"><ele>110.66666666666666</ele><time>2026-05-03T14:09:30Z</time></trkpt><trkpt lat="45.28739278942824" lon="8.651349145138864"><ele>110.83333333333333</ele><time>2026-05-03T14:09:31Z</time></trkpt><trkpt lat="45.287466328106085" lon="8.651469103897815"><ele>111.0</ele><time>2026-05-03T14:09:33Z</time></trkpt><trkpt lat="45.287534979000135" lon="8.651612895089363"><ele>111.16666666666667</ele><time>2026-05-03T14:09:35Z</time></trkpt><trkpt lat="45.287595504556606" lon="8.651727040118962"><ele>111.33333333333334</ele><time>2026-05-03T14:09:37Z</time></trkpt><trkpt lat="45.28767194479389" lon="8.651859333375617"><ele>111.5</ele><time>2026-05-03T14:09:39Z</time></trkpt><trkpt lat="45.28770139853312" lon="8.651942799133638"><ele>111.66666666666667</ele><time>2026-05-03T14:09:40Z</time></trkpt><trkpt lat="45.287731094326084" lon="8.652032783900971"><ele>111.83333333333334</ele><time>2026-05-03T14:09:41Z</time></trkpt><trkpt lat="45.28776476839143" lon="8.65211663535056"><ele>112.0</ele><time>2026-05-03T14:09:42Z</time></trkpt><trkpt lat="45.28779511773559" lon="8.652204409032317"><ele>112.0</ele><time>2026-05-03T14:09:43Z</time></trkpt><trkpt lat="45.287828465819935" lon="8.652294054169312"><ele>112.0</ele><time>2026-05-03T14:09:44Z</time></trkpt><trkpt lat="45.28784950472704" lon="8.652387945480006"><ele>112.0</ele><time>2026-05-03T14:09:45Z</time></trkpt><trkpt lat="45.28789211448442" lon="8.652467448105593"><ele>112.0</ele><time>2026-05-03T14:09:46Z</time></trkpt><trkpt lat="45.28792331797834" lon="8.652552352697215"><ele>112.0</ele><time>2026-05-03T14:09:47Z</time></trkpt><trkpt lat="45.287954985836485" lon="8.652636418532813"><ele>112.0</ele><time>2026-05-03T14:09:48Z</time></trkpt><trkpt lat="45.287984228272286" lon="8.65271761616894"><ele>112.0</ele><time>2026-05-03T14:09:49Z</time></trkpt><trkpt lat="45.288036995076695" lon="8.652858443097069"><ele>112.00000000000001</ele><time>2026-05-03T14:09:51Z</time></trkpt><trkpt lat="45.28807643565533" lon="8.652965705211075"><ele>112.0</ele><time>2026-05-03T14:09:53Z</time></trkpt><trkpt lat="45.28802221244351" lon="8.653088790244551"><ele>112.0</ele><time>2026-05-03T14:09:57Z</time></trkpt><trkpt lat="45.28796677969377" lon="8.653133881993393"><ele>112.0</ele><time>2026-05-03T14:09:58Z</time></trkpt><trkpt lat="45.287906950806914" lon="8.65317957135698"><ele>112.00000000000001</ele><time>2026-05-03T14:09:59Z</time></trkpt><trkpt lat="45.28780154849242" lon="8.653266838853629"><ele>112.0</ele><time>2026-05-03T14:10:01Z</time></trkpt><trkpt lat="45.287752768543974" lon="8.653324815599982"><ele>112.0</ele><time>2026-05-03T14:10:02Z</time></trkpt><trkpt lat="45.28769328837856" lon="8.65336862804493"><ele>112.0</ele><time>2026-05-03T14:10:03Z</time></trkpt><trkpt lat="45.28763538004448" lon="8.653424313590788"><ele>112.0</ele><time>2026-05-03T14:10:04Z</time></trkpt><trkpt lat="45.287578701828686" lon="8.653474545425667"><ele>112.0</ele><time>2026-05-03T14:10:05Z</time></trkpt><trkpt lat="45.287524471084474" lon="8.65352319790399"><ele>112.0</ele><time>2026-05-03T14:10:06Z</time></trkpt><trkpt lat="45.28746586113078" lon="8.653575470440092"><ele>112.0</ele><time>2026-05-03T14:10:07Z</time></trkpt><trkpt lat="45.287407688726034" lon="8.653627137017196"><ele>112.0</ele><time>2026-05-03T14:10:08Z</time></trkpt><trkpt lat="45.28731222432997" lon="8.653713030672954"><ele>111.66666666666667</ele><time>2026-05-03T14:10:10Z</time></trkpt><trkpt lat="45.28724146360678" lon="8.653783399217494"><ele>111.33333333333334</ele><time>2026-05-03T14:10:12Z</time></trkpt><trkpt lat="45.287163070034715" lon="8.653810044010898"><ele>111.0</ele><time>2026-05-03T14:10:14Z</time></trkpt><trkpt lat="45.287075195438774" lon="8.65379549910847"><ele>110.66666666666666</ele><time>2026-05-03T14:10:16Z</time></trkpt><trkpt lat="45.28697820372635" lon="8.65378344767602"><ele>110.33333333333333</ele><time>2026-05-03T14:10:18Z</time></trkpt><trkpt lat="45.286899547767625" lon="8.653720343758142"><ele>110.0</ele><time>2026-05-03T14:10:20Z</time></trkpt><trkpt lat="45.28682591890876" lon="8.653684336755529"><ele>109.99999999999999</ele><time>2026-05-03T14:10:22Z</time></trkpt><trkpt lat="45.28674380560064" lon="8.65370981246543"><ele>110.0</ele><time>2026-05-03T14:10:24Z</time></trkpt><trkpt lat="45.2866613718938" lon="8.653714794237963"><ele>110.0</ele><time>2026-05-03T14:10:26Z</time></trkpt><trkpt lat="45.28658560790816" lon="8.6537271931566"><ele>110.0</ele><time>2026-05-03T14:10:28Z</time></trkpt><trkpt lat="45.286499296876094" lon="8.65374620729343"><ele>109.99999999999999</ele><time>2026-05-03T14:10:30Z</time></trkpt><trkpt lat="45.28640885496097" lon="8.65376786459251"><ele>110.0</ele><time>2026-05-03T14:10:32Z</time></trkpt><trkpt lat="45.2863247564431" lon="8.653828937855486"><ele>110.2</ele><time>2026-05-03T14:10:34Z</time></trkpt><trkpt lat="45.286225511990004" lon="8.653881422302252"><ele>110.4</ele><time>2026-05-03T14:10:36Z</time></trkpt><trkpt lat="45.286124319565694" lon="8.653968336754891"><ele>110.6</ele><time>2026-05-03T14:10:38Z</time></trkpt><trkpt lat="45.28602847229163" lon="8.65400658567782"><ele>110.8</ele><time>2026-05-03T14:10:40Z</time></trkpt><trkpt lat="45.285929813589455" lon="8.654001577453053"><ele>111.0</ele><time>2026-05-03T14:10:42Z</time></trkpt><trkpt lat="45.28581495608353" lon="8.653969523808907"><ele>111.0</ele><time>2026-05-03T14:10:44Z</time></trkpt><trkpt lat="45.28574826761964" lon="8.653962872551395"><ele>111.0</ele><time>2026-05-03T14:10:45Z</time></trkpt><trkpt lat="45.28567801743071" lon="8.653955866038169"><ele>111.0</ele><time>2026-05-03T14:10:46Z</time></trkpt><trkpt lat="45.285612602215835" lon="8.65394934181244"><ele>111.0</ele><time>2026-05-03T14:10:47Z</time></trkpt><trkpt lat="45.28554466698985" lon="8.65394256618194"><ele>111.0</ele><time>2026-05-03T14:10:48Z</time></trkpt><trkpt lat="45.285415267400666" lon="8.653930812085449"><ele>111.0</ele><time>2026-05-03T14:10:50Z</time></trkpt><trkpt lat="45.2853407965801" lon="8.653949502461122"><ele>110.8</ele><time>2026-05-03T14:10:51Z</time></trkpt><trkpt lat="45.285273358008865" lon="8.653945352623843"><ele>110.6</ele><time>2026-05-03T14:10:52Z</time></trkpt><trkpt lat="45.285155110693395" lon="8.653935083818805"><ele>110.4</ele><time>2026-05-03T14:10:54Z</time></trkpt><trkpt lat="45.28503816952256" lon="8.653936129851969"><ele>110.2</ele><time>2026-05-03T14:10:56Z</time></trkpt><trkpt lat="45.284938202586474" lon="8.653951717364272"><ele>110.0</ele><time>2026-05-03T14:10:58Z</time></trkpt><trkpt lat="45.28485920449738" lon="8.654026583359695"><ele>110.2</ele><time>2026-05-03T14:11:00Z</time></trkpt><trkpt lat="45.28475477732858" lon="8.654068703526239"><ele>110.4</ele><time>2026-05-03T14:11:02Z</time></trkpt><trkpt lat="45.284647151350846" lon="8.65412931206723"><ele>110.6</ele><time>2026-05-03T14:11:04Z</time></trkpt><trkpt lat="45.28456214007681" lon="8.654179549284446"><ele>110.8</ele><time>2026-05-03T14:11:06Z</time></trkpt><trkpt lat="45.28448247076334" lon="8.65422225565442"><ele>111.0</ele><time>2026-05-03T14:11:08Z</time></trkpt><trkpt lat="45.28440749944412" lon="8.654271551772442"><ele>111.0</ele><time>2026-05-03T14:11:10Z</time></trkpt><trkpt lat="45.28432925163133" lon="8.654317319294286"><ele>111.0</ele><time>2026-05-03T14:11:12Z</time></trkpt><trkpt lat="45.28424500706644" lon="8.654387110863482"><ele>111.0</ele><time>2026-05-03T14:11:14Z</time></trkpt><trkpt lat="45.284137760147104" lon="8.654465300076675"><ele>111.0</ele><time>2026-05-03T14:11:16Z</time></trkpt><trkpt lat="45.28406866185338" lon="8.654526714737624"><ele>111.0</ele><time>2026-05-03T14:11:18Z</time></trkpt><trkpt lat="45.28400767501361" lon="8.654573884099937"><ele>111.0</ele><time>2026-05-03T14:11:35Z</time></trkpt><trkpt lat="45.28398713177207" lon="8.654366927236094"><ele>111.0</ele><time>2026-05-03T14:11:37Z</time></trkpt><trkpt lat="45.283957339304216" lon="8.654280358009649"><ele>111.0</ele><time>2026-05-03T14:11:38Z</time></trkpt><trkpt lat="45.28393793683276" lon="8.654166457264777"><ele>111.0</ele><time>2026-05-03T14:11:39Z</time></trkpt><trkpt lat="45.283916614856345" lon="8.654038380177603"><ele>111.0</ele><time>2026-05-03T14:11:40Z</time></trkpt><trkpt lat="45.283914254209556" lon="8.653919400300376"><ele>110.6</ele><time>2026-05-03T14:11:41Z</time></trkpt><trkpt lat="45.28389983447086" lon="8.653800730322644"><ele>110.19999999999999</ele><time>2026-05-03T14:11:42Z</time></trkpt><trkpt lat="45.283890735612076" lon="8.653660404521544"><ele>109.80000000000001</ele><time>2026-05-03T14:11:43Z</time></trkpt><trkpt lat="45.28388795486673" lon="8.653516980576896"><ele>109.4</ele><time>2026-05-03T14:11:44Z</time></trkpt><trkpt lat="45.28389282280982" lon="8.653364514612774"><ele>109.0</ele><time>2026-05-03T14:11:45Z</time></trkpt><trkpt lat="45.28391399564481" lon="8.653207111457936"><ele>109.5</ele><time>2026-05-03T14:11:46Z</time></trkpt><trkpt lat="45.28394694936527" lon="8.653050301202251"><ele>110.0</ele><time>2026-05-03T14:11:47Z</time></trkpt><trkpt lat="45.28399351164565" lon="8.652892061568972"><ele>110.5</ele><time>2026-05-03T14:11:48Z</time></trkpt><trkpt lat="45.28405095047582" lon="8.652733871161134"><ele>111.0</ele><time>2026-05-03T14:11:49Z</time></trkpt><trkpt lat="45.28411534022587" lon="8.652586914605472"><ele>111.0</ele><time>2026-05-03T14:11:50Z</time></trkpt><trkpt lat="45.28418256211896" lon="8.652440147076737"><ele>111.0</ele><time>2026-05-03T14:11:51Z</time></trkpt><trkpt lat="45.28424279555563" lon="8.652315977079404"><ele>111.0</ele><time>2026-05-03T14:11:52Z</time></trkpt><trkpt lat="45.28420093239214" lon="8.652288909943511"><ele>111.0</ele><time>2026-05-03T14:12:54Z</time></trkpt><trkpt lat="45.28413205772426" lon="8.652437241914702"><ele>111.0</ele><time>2026-05-03T14:12:55Z</time></trkpt><trkpt lat="45.284064029799275" lon="8.652579608047633"><ele>111.0</ele><time>2026-05-03T14:12:56Z</time></trkpt><trkpt lat="45.28399905427996" lon="8.652719084708949"><ele>111.0</ele><time>2026-05-03T14:12:57Z</time></trkpt><trkpt lat="45.28394754815596" lon="8.652846981366702"><ele>111.0</ele><time>2026-05-03T14:12:58Z</time></trkpt><trkpt lat="45.28391528488319" lon="8.65296960265468"><ele>111.0</ele><time>2026-05-03T14:12:59Z</time></trkpt><trkpt lat="45.283895960138395" lon="8.653068904166023"><ele>111.0</ele><time>2026-05-03T14:13:00Z</time></trkpt><trkpt lat="45.283852982951174" lon="8.653185046557738"><ele>110.66666666666667</ele><time>2026-05-03T14:13:02Z</time></trkpt><trkpt lat="45.28375242043096" lon="8.653154493568902"><ele>110.33333333333334</ele><time>2026-05-03T14:13:05Z</time></trkpt><trkpt lat="45.28369936763212" lon="8.653090847599922"><ele>110.0</ele><time>2026-05-03T14:13:06Z</time></trkpt><trkpt lat="45.283635916543034" lon="8.653017784473537"><ele>109.66666666666667</ele><time>2026-05-03T14:13:07Z</time></trkpt><trkpt lat="45.28357263129802" lon="8.652944385894315"><ele>109.33333333333334</ele><time>2026-05-03T14:13:08Z</time></trkpt><trkpt lat="45.28350231994827" lon="8.652860917582307"><ele>109.0</ele><time>2026-05-03T14:13:09Z</time></trkpt><trkpt lat="45.28343059775523" lon="8.652775774272884"><ele>109.00000000000001</ele><time>2026-05-03T14:13:10Z</time></trkpt><trkpt lat="45.28336557838925" lon="8.652690345624471"><ele>109.0</ele><time>2026-05-03T14:13:11Z</time></trkpt><trkpt lat="45.283297444964084" lon="8.652595329529378"><ele>109.0</ele><time>2026-05-03T14:13:12Z</time></trkpt><trkpt lat="45.283234873245604" lon="8.652498835999081"><ele>109.0</ele><time>2026-05-03T14:13:13Z</time></trkpt><trkpt lat="45.28318395415034" lon="8.652402565231634"><ele>109.00000000000001</ele><time>2026-05-03T14:13:14Z</time></trkpt><trkpt lat="45.28314460896687" lon="8.652300162052672"><ele>109.0</ele><time>2026-05-03T14:13:15Z</time></trkpt><trkpt lat="45.28311150310294" lon="8.652206680930478"><ele>109.28571428571429</ele><time>2026-05-03T14:13:16Z</time></trkpt><trkpt lat="45.283081791519045" lon="8.652109242393026"><ele>109.57142857142858</ele><time>2026-05-03T14:13:17Z</time></trkpt><trkpt lat="45.28305170932202" lon="8.65200677691982"><ele>109.85714285714286</ele><time>2026-05-03T14:13:18Z</time></trkpt><trkpt lat="45.283017966418825" lon="8.65190144287157"><ele>110.14285714285714</ele><time>2026-05-03T14:13:19Z</time></trkpt><trkpt lat="45.282983898546675" lon="8.65180221737288"><ele>110.42857142857143</ele><time>2026-05-03T14:13:20Z</time></trkpt><trkpt lat="45.282952566832016" lon="8.651710961230629"><ele>110.71428571428571</ele><time>2026-05-03T14:13:21Z</time></trkpt><trkpt lat="45.28292322304944" lon="8.65163023821931"><ele>111.0</ele><time>2026-05-03T14:13:22Z</time></trkpt><trkpt lat="45.282884707728265" lon="8.651513410670956"><ele>111.0</ele><time>2026-05-03T14:13:24Z</time></trkpt><trkpt lat="45.28286652502068" lon="8.651411896533293"><ele>111.0</ele><time>2026-05-03T14:13:26Z</time></trkpt><trkpt lat="45.28283692457594" lon="8.651226875675404"><ele>111.0</ele><time>2026-05-03T14:13:28Z</time></trkpt><trkpt lat="45.28280886294873" lon="8.65110809470267"><ele>111.0</ele><time>2026-05-03T14:13:29Z</time></trkpt><trkpt lat="45.282774076686046" lon="8.650971923982468"><ele>111.0</ele><time>2026-05-03T14:13:30Z</time></trkpt><trkpt lat="45.28271992664579" lon="8.65083177673154"><ele>111.0</ele><time>2026-05-03T14:13:31Z</time></trkpt><trkpt lat="45.28269387228907" lon="8.650680655342361"><ele>111.0</ele><time>2026-05-03T14:13:32Z</time></trkpt><trkpt lat="45.282653214863736" lon="8.650527636047805"><ele>111.0</ele><time>2026-05-03T14:13:33Z</time></trkpt><trkpt lat="45.2826112219301" lon="8.650371397556357"><ele>111.0</ele><time>2026-05-03T14:13:34Z</time></trkpt><trkpt lat="45.282565122902824" lon="8.650205383076699"><ele>111.19999999999999</ele><time>2026-05-03T14:13:35Z</time></trkpt><trkpt lat="45.28251970607184" lon="8.650046315464376"><ele>111.39999999999999</ele><time>2026-05-03T14:13:36Z</time></trkpt><trkpt lat="45.28248125452094" lon="8.649911642939662"><ele>111.6</ele><time>2026-05-03T14:13:37Z</time></trkpt><trkpt lat="45.282442459850735" lon="8.649775768908356"><ele>111.8</ele><time>2026-05-03T14:13:38Z</time></trkpt><trkpt lat="45.28240329544395" lon="8.649632809400028"><ele>112.0</ele><time>2026-05-03T14:13:39Z</time></trkpt><trkpt lat="45.28236175824372" lon="8.649480415824057"><ele>112.0</ele><time>2026-05-03T14:13:40Z</time></trkpt><trkpt lat="45.28232934737841" lon="8.649313877978855"><ele>112.0</ele><time>2026-05-03T14:13:41Z</time></trkpt><trkpt lat="45.2822953394071" lon="8.649123689589187"><ele>112.0</ele><time>2026-05-03T14:13:42Z</time></trkpt><trkpt lat="45.28225888883063" lon="8.648919841179852"><ele>112.0</ele><time>2026-05-03T14:13:43Z</time></trkpt><trkpt lat="45.282224859474056" lon="8.648712013651222"><ele>112.0</ele><time>2026-05-03T14:13:44Z</time></trkpt><trkpt lat="45.28218269928284" lon="8.648505514892765"><ele>112.0</ele><time>2026-05-03T14:13:45Z</time></trkpt><trkpt lat="45.282197260480594" lon="8.648292815083371"><ele>112.0</ele><time>2026-05-03T14:13:46Z</time></trkpt><trkpt lat="45.28220768298379" lon="8.648080981708272"><ele>112.0</ele><time>2026-05-03T14:13:47Z</time></trkpt><trkpt lat="45.282226682563184" lon="8.647888828798152"><ele>111.99999999999999</ele><time>2026-05-03T14:13:48Z</time></trkpt><trkpt lat="45.282247365457785" lon="8.647726426235872"><ele>111.99999999999999</ele><time>2026-05-03T14:13:49Z</time></trkpt><trkpt lat="45.282268175768515" lon="8.647583689024096"><ele>112.0</ele><time>2026-05-03T14:13:50Z</time></trkpt><trkpt lat="45.28228159531911" lon="8.647472623942082"><ele>112.0</ele><time>2026-05-03T14:13:51Z</time></trkpt><trkpt lat="45.28227315244118" lon="8.647365154762818"><ele>112.16666666666667</ele><time>2026-05-03T14:13:52Z</time></trkpt><trkpt lat="45.28231089276004" lon="8.647283754495495"><ele>112.33333333333334</ele><time>2026-05-03T14:13:53Z</time></trkpt><trkpt lat="45.28234276441696" lon="8.647130053865817"><ele>112.5</ele><time>2026-05-03T14:13:55Z</time></trkpt><trkpt lat="45.28237589960219" lon="8.646965586430563"><ele>112.66666666666666</ele><time>2026-05-03T14:13:57Z</time></trkpt><trkpt lat="45.28239764450632" lon="8.646878698081247"><ele>112.83333333333333</ele><time>2026-05-03T14:13:58Z</time></trkpt><trkpt lat="45.28242276433623" lon="8.646783474925043"><ele>113.0</ele><time>2026-05-03T14:13:59Z</time></trkpt><trkpt lat="45.28244866404597" lon="8.646689818709234"><ele>112.99999999999999</ele><time>2026-05-03T14:14:00Z</time></trkpt><trkpt lat="45.282476689760685" lon="8.646588204305337"><ele>113.0</ele><time>2026-05-03T14:14:01Z</time></trkpt><trkpt lat="45.28250476655897" lon="8.646486404870789"><ele>113.0</ele><time>2026-05-03T14:14:02Z</time></trkpt><trkpt lat="45.282524362072124" lon="8.646374617308638"><ele>113.0</ele><time>2026-05-03T14:14:03Z</time></trkpt><trkpt lat="45.282552550115284" lon="8.646262544507403"><ele>112.99999999999999</ele><time>2026-05-03T14:14:04Z</time></trkpt><trkpt lat="45.282583985277846" lon="8.646146601550878"><ele>113.0</ele><time>2026-05-03T14:14:05Z</time></trkpt><trkpt lat="45.282615166031285" lon="8.646036476517514"><ele>112.83333333333333</ele><time>2026-05-03T14:14:06Z</time></trkpt><trkpt lat="45.28264312910834" lon="8.645939855776225"><ele>112.66666666666666</ele><time>2026-05-03T14:14:07Z</time></trkpt><trkpt lat="45.282697805295996" lon="8.645787763866862"><ele>112.5</ele><time>2026-05-03T14:14:09Z</time></trkpt><trkpt lat="45.28272644849211" lon="8.64570089393496"><ele>112.33333333333334</ele><time>2026-05-03T14:14:10Z</time></trkpt><trkpt lat="45.282737742427194" lon="8.64560161286572"><ele>112.16666666666667</ele><time>2026-05-03T14:14:11Z</time></trkpt><trkpt lat="45.28273029350188" lon="8.64548855233886"><ele>112.0</ele><time>2026-05-03T14:14:12Z</time></trkpt><trkpt lat="45.28270912737116" lon="8.64538209622726"><ele>112.16666666666667</ele><time>2026-05-03T14:14:13Z</time></trkpt><trkpt lat="45.282683606039555" lon="8.645276991550917"><ele>112.33333333333334</ele><time>2026-05-03T14:14:14Z</time></trkpt><trkpt lat="45.28264115468674" lon="8.6451768360235"><ele>112.5</ele><time>2026-05-03T14:14:15Z</time></trkpt><trkpt lat="45.28262409105991" lon="8.645068928805165"><ele>112.66666666666666</ele><time>2026-05-03T14:14:16Z</time></trkpt><trkpt lat="45.28259333962495" lon="8.644953390527379"><ele>112.83333333333333</ele><time>2026-05-03T14:14:17Z</time></trkpt><trkpt lat="45.282564376620094" lon="8.644844571800512"><ele>113.0</ele><time>2026-05-03T14:14:18Z</time></trkpt><trkpt lat="45.28253253842668" lon="8.644723602404083"><ele>113.0</ele><time>2026-05-03T14:14:19Z</time></trkpt><trkpt lat="45.28249850888837" lon="8.644593437275509"><ele>113.00000000000001</ele><time>2026-05-03T14:14:20Z</time></trkpt><trkpt lat="45.282465435488575" lon="8.644464209009492"><ele>113.00000000000001</ele><time>2026-05-03T14:14:21Z</time></trkpt><trkpt lat="45.282435274106504" lon="8.6443431497272"><ele>113.0</ele><time>2026-05-03T14:14:22Z</time></trkpt><trkpt lat="45.28240178311351" lon="8.644208726658592"><ele>113.0</ele><time>2026-05-03T14:14:23Z</time></trkpt><trkpt lat="45.28237156089265" lon="8.64408055844973"><ele>113.0</ele><time>2026-05-03T14:14:24Z</time></trkpt><trkpt lat="45.2823425079529" lon="8.643951844271047"><ele>113.00000000000001</ele><time>2026-05-03T14:14:25Z</time></trkpt><trkpt lat="45.28231863580579" lon="8.643837134750864"><ele>113.00000000000001</ele><time>2026-05-03T14:14:26Z</time></trkpt><trkpt lat="45.28229630092169" lon="8.643722373362799"><ele>113.0</ele><time>2026-05-03T14:14:27Z</time></trkpt><trkpt lat="45.282272987784566" lon="8.643593783746022"><ele>113.0</ele><time>2026-05-03T14:14:28Z</time></trkpt><trkpt lat="45.28224844551201" lon="8.643454266649812"><ele>113.0</ele><time>2026-05-03T14:14:29Z</time></trkpt><trkpt lat="45.28222543415452" lon="8.643323452074352"><ele>113.00000000000001</ele><time>2026-05-03T14:14:30Z</time></trkpt><trkpt lat="45.28219179997044" lon="8.64319075047717"><ele>113.00000000000001</ele><time>2026-05-03T14:14:31Z</time></trkpt><trkpt lat="45.282166245442795" lon="8.643054937290342"><ele>113.0</ele><time>2026-05-03T14:14:32Z</time></trkpt><trkpt lat="45.282142453775506" lon="8.642915976845092"><ele>113.0</ele><time>2026-05-03T14:14:33Z</time></trkpt><trkpt lat="45.28211808634288" lon="8.642797964654514"><ele>113.2</ele><time>2026-05-03T14:14:34Z</time></trkpt><trkpt lat="45.28210578541383" lon="8.642699185336058"><ele>113.4</ele><time>2026-05-03T14:14:35Z</time></trkpt><trkpt lat="45.28209133665104" lon="8.642610491887604"><ele>113.60000000000001</ele><time>2026-05-03T14:14:36Z</time></trkpt><trkpt lat="45.2820875738524" lon="8.642461272489045"><ele>113.80000000000001</ele><time>2026-05-03T14:14:38Z</time></trkpt><trkpt lat="45.2820850840964" lon="8.642303446462794"><ele>114.0</ele><time>2026-05-03T14:14:40Z</time></trkpt><trkpt lat="45.28211447294482" lon="8.642141882569833"><ele>114.0</ele><time>2026-05-03T14:14:42Z</time></trkpt><trkpt lat="45.28210924167167" lon="8.641984532950305"><ele>114.0</ele><time>2026-05-03T14:14:44Z</time></trkpt><trkpt lat="45.282109466374344" lon="8.641890180052338"><ele>114.0</ele><time>2026-05-03T14:14:46Z</time></trkpt><trkpt lat="45.28204429844426" lon="8.64182265519382"><ele>114.0</ele><time>2026-05-03T14:14:49Z</time></trkpt><trkpt lat="45.28198083438013" lon="8.641685541289746"><ele>114.0</ele><time>2026-05-03T14:14:51Z</time></trkpt><trkpt lat="45.28197698217505" lon="8.641507532778672"><ele>113.83333333333333</ele><time>2026-05-03T14:14:53Z</time></trkpt><trkpt lat="45.28194632804476" lon="8.641406003556538"><ele>113.66666666666666</ele><time>2026-05-03T14:14:54Z</time></trkpt><trkpt lat="45.28192385044374" lon="8.641303962598382"><ele>113.5</ele><time>2026-05-03T14:14:55Z</time></trkpt><trkpt lat="45.28189813824423" lon="8.641185079541813"><ele>113.33333333333333</ele><time>2026-05-03T14:14:56Z</time></trkpt><trkpt lat="45.28187314305286" lon="8.641059004786793"><ele>113.16666666666666</ele><time>2026-05-03T14:14:57Z</time></trkpt><trkpt lat="45.281840766771175" lon="8.640948153266931"><ele>113.0</ele><time>2026-05-03T14:14:58Z</time></trkpt><trkpt lat="45.28182344110209" lon="8.640825062682632"><ele>113.0</ele><time>2026-05-03T14:14:59Z</time></trkpt><trkpt lat="45.281782294863106" lon="8.640723096094165"><ele>113.00000000000001</ele><time>2026-05-03T14:15:00Z</time></trkpt><trkpt lat="45.28174397318946" lon="8.640614200675529"><ele>113.00000000000001</ele><time>2026-05-03T14:15:01Z</time></trkpt><trkpt lat="45.28170628981096" lon="8.640497356160603"><ele>113.0</ele><time>2026-05-03T14:15:02Z</time></trkpt><trkpt lat="45.28166975932006" lon="8.640375275758176"><ele>113.0</ele><time>2026-05-03T14:15:03Z</time></trkpt><trkpt lat="45.28162016620113" lon="8.640248886397014"><ele>112.99999999999999</ele><time>2026-05-03T14:15:04Z</time></trkpt><trkpt lat="45.281572851283116" lon="8.640129975144651"><ele>113.0</ele><time>2026-05-03T14:15:05Z</time></trkpt><trkpt lat="45.28152940964537" lon="8.640019956159184"><ele>113.0</ele><time>2026-05-03T14:15:06Z</time></trkpt><trkpt lat="45.281504360698484" lon="8.639902649572408"><ele>113.0</ele><time>2026-05-03T14:15:07Z</time></trkpt><trkpt lat="45.2814759906589" lon="8.639817299896137"><ele>112.99999999999999</ele><time>2026-05-03T14:15:08Z</time></trkpt><trkpt lat="45.28144683507044" lon="8.639723435710385"><ele>113.0</ele><time>2026-05-03T14:15:09Z</time></trkpt><trkpt lat="45.28142233640712" lon="8.639630145412452"><ele>112.99999999999999</ele><time>2026-05-03T14:15:10Z</time></trkpt><trkpt lat="45.281400387743645" lon="8.63951550910207"><ele>113.0</ele><time>2026-05-03T14:15:11Z</time></trkpt><trkpt lat="45.281389782468146" lon="8.6393943949499"><ele>113.0</ele><time>2026-05-03T14:15:12Z</time></trkpt><trkpt lat="45.28138851644497" lon="8.639279016195356"><ele>113.0</ele><time>2026-05-03T14:15:13Z</time></trkpt><trkpt lat="45.28138788034161" lon="8.63918359383731"><ele>112.99999999999999</ele><time>2026-05-03T14:15:14Z</time></trkpt><trkpt lat="45.28136995376144" lon="8.639080884923128"><ele>113.0</ele><time>2026-05-03T14:15:15Z</time></trkpt><trkpt lat="45.28138207551796" lon="8.638965168240382"><ele>112.99999999999999</ele><time>2026-05-03T14:15:16Z</time></trkpt><trkpt lat="45.28137873687113" lon="8.638839540587634"><ele>113.0</ele><time>2026-05-03T14:15:17Z</time></trkpt><trkpt lat="45.28137612351431" lon="8.638714399747547"><ele>113.0</ele><time>2026-05-03T14:15:18Z</time></trkpt><trkpt lat="45.281360141656776" lon="8.638597320673199"><ele>113.0</ele><time>2026-05-03T14:15:19Z</time></trkpt><trkpt lat="45.28136347139481" lon="8.638487095039235"><ele>112.99999999999999</ele><time>2026-05-03T14:15:20Z</time></trkpt><trkpt lat="45.28138119060509" lon="8.638379518237427"><ele>113.0</ele><time>2026-05-03T14:15:21Z</time></trkpt><trkpt lat="45.281374972742476" lon="8.638269537247579"><ele>113.2</ele><time>2026-05-03T14:15:22Z</time></trkpt><trkpt lat="45.281407640657115" lon="8.638162444544294"><ele>113.4</ele><time>2026-05-03T14:15:23Z</time></trkpt><trkpt lat="45.281436583795205" lon="8.638049437135848"><ele>113.60000000000001</ele><time>2026-05-03T14:15:24Z</time></trkpt><trkpt lat="45.28145323689472" lon="8.637933642510012"><ele>113.80000000000001</ele><time>2026-05-03T14:15:25Z</time></trkpt><trkpt lat="45.281497832581955" lon="8.637807551238986"><ele>114.0</ele><time>2026-05-03T14:15:26Z</time></trkpt><trkpt lat="45.28154054095736" lon="8.637664462933934"><ele>114.4</ele><time>2026-05-03T14:15:27Z</time></trkpt><trkpt lat="45.28159547877131" lon="8.637522327044186"><ele>114.80000000000001</ele><time>2026-05-03T14:15:28Z</time></trkpt><trkpt lat="45.281624665548165" lon="8.637394317786494"><ele>115.19999999999999</ele><time>2026-05-03T14:15:29Z</time></trkpt><trkpt lat="45.28165959011916" lon="8.637267346017444"><ele>115.6</ele><time>2026-05-03T14:15:30Z</time></trkpt><trkpt lat="45.281693037583466" lon="8.637138233746537"><ele>116.0</ele><time>2026-05-03T14:15:31Z</time></trkpt><trkpt lat="45.28172064894037" lon="8.63700582164901"><ele>115.6</ele><time>2026-05-03T14:15:32Z</time></trkpt><trkpt lat="45.281767851741876" lon="8.63688115649687"><ele>115.19999999999999</ele><time>2026-05-03T14:15:33Z</time></trkpt><trkpt lat="45.28179811428315" lon="8.636754191685718"><ele>114.80000000000001</ele><time>2026-05-03T14:15:34Z</time></trkpt><trkpt lat="45.28182551418454" lon="8.636635390370103"><ele>114.4</ele><time>2026-05-03T14:15:35Z</time></trkpt><trkpt lat="45.281855919666405" lon="8.63650073727199"><ele>114.0</ele><time>2026-05-03T14:15:36Z</time></trkpt><trkpt lat="45.28186534523317" lon="8.636381092993291"><ele>114.0</ele><time>2026-05-03T14:15:37Z</time></trkpt><trkpt lat="45.281892310169944" lon="8.636274412821637"><ele>114.0</ele><time>2026-05-03T14:15:38Z</time></trkpt><trkpt lat="45.28191906517631" lon="8.636162732610007"><ele>114.0</ele><time>2026-05-03T14:15:39Z</time></trkpt><trkpt lat="45.28193603349329" lon="8.636021682505925"><ele>114.0</ele><time>2026-05-03T14:15:40Z</time></trkpt><trkpt lat="45.281967858764354" lon="8.635895587478966"><ele>114.0</ele><time>2026-05-03T14:15:41Z</time></trkpt><trkpt lat="45.28197040475113" lon="8.635746589103782"><ele>113.6</ele><time>2026-05-03T14:15:42Z</time></trkpt><trkpt lat="45.281966427771486" lon="8.635606361142651"><ele>113.2</ele><time>2026-05-03T14:15:43Z</time></trkpt><trkpt lat="45.28197620496059" lon="8.635464822896969"><ele>112.79999999999998</ele><time>2026-05-03T14:15:44Z</time></trkpt><trkpt lat="45.28197995190208" lon="8.635323776116003"><ele>112.39999999999999</ele><time>2026-05-03T14:15:45Z</time></trkpt><trkpt lat="45.28198485187644" lon="8.635178094741004"><ele>112.0</ele><time>2026-05-03T14:15:46Z</time></trkpt><trkpt lat="45.28198904472463" lon="8.635036493192915"><ele>112.0</ele><time>2026-05-03T14:15:47Z</time></trkpt><trkpt lat="45.281989784191104" lon="8.634895782564529"><ele>111.99999999999999</ele><time>2026-05-03T14:15:48Z</time></trkpt><trkpt lat="45.28199041219428" lon="8.63475821770955"><ele>111.99999999999999</ele><time>2026-05-03T14:15:49Z</time></trkpt><trkpt lat="45.28200868288001" lon="8.634604209117917"><ele>112.0</ele><time>2026-05-03T14:15:50Z</time></trkpt><trkpt lat="45.28201067151376" lon="8.634448777713406"><ele>112.0</ele><time>2026-05-03T14:15:51Z</time></trkpt><trkpt lat="45.28199621376002" lon="8.634307774588471"><ele>112.16666666666667</ele><time>2026-05-03T14:15:52Z</time></trkpt><trkpt lat="45.282012504579974" lon="8.634187642206156"><ele>112.33333333333334</ele><time>2026-05-03T14:15:53Z</time></trkpt><trkpt lat="45.281999287472054" lon="8.63406704064718"><ele>112.5</ele><time>2026-05-03T14:15:54Z</time></trkpt><trkpt lat="45.28199296838043" lon="8.63394153056507"><ele>112.66666666666666</ele><time>2026-05-03T14:15:55Z</time></trkpt><trkpt lat="45.28198837274941" lon="8.633804979789378"><ele>112.83333333333333</ele><time>2026-05-03T14:15:56Z</time></trkpt><trkpt lat="45.28198520854156" lon="8.633674991994157"><ele>113.0</ele><time>2026-05-03T14:15:57Z</time></trkpt><trkpt lat="45.28197625432976" lon="8.63353865707436"><ele>113.16666666666666</ele><time>2026-05-03T14:15:58Z</time></trkpt><trkpt lat="45.281984526503074" lon="8.633401844454289"><ele>113.33333333333333</ele><time>2026-05-03T14:15:59Z</time></trkpt><trkpt lat="45.281977567996236" lon="8.633276197949192"><ele>113.5</ele><time>2026-05-03T14:16:00Z</time></trkpt><trkpt lat="45.28197177270597" lon="8.633171555068165"><ele>113.66666666666666</ele><time>2026-05-03T14:16:01Z</time></trkpt><trkpt lat="45.28195023026347" lon="8.633084550705814"><ele>113.83333333333333</ele><time>2026-05-03T14:16:02Z</time></trkpt><trkpt lat="45.28193947653555" lon="8.632931358092202"><ele>114.0</ele><time>2026-05-03T14:16:04Z</time></trkpt><trkpt lat="45.28191271772624" lon="8.632759995090883"><ele>114.0</ele><time>2026-05-03T14:16:06Z</time></trkpt><trkpt lat="45.28183921890897" lon="8.632684346568634"><ele>114.0</ele><time>2026-05-03T14:16:07Z</time></trkpt><trkpt lat="45.28179009967043" lon="8.632577142421882"><ele>114.0</ele><time>2026-05-03T14:16:08Z</time></trkpt><trkpt lat="45.28176517726056" lon="8.63244574705006"><ele>114.0</ele><time>2026-05-03T14:16:09Z</time></trkpt><trkpt lat="45.28173209336882" lon="8.632328104872013"><ele>114.0</ele><time>2026-05-03T14:16:10Z</time></trkpt><trkpt lat="45.28167817081421" lon="8.632203330363819"><ele>114.0</ele><time>2026-05-03T14:16:11Z</time></trkpt><trkpt lat="45.28163544887345" lon="8.632061559194035"><ele>114.0</ele><time>2026-05-03T14:16:12Z</time></trkpt><trkpt lat="45.281610372016885" lon="8.631920652278861"><ele>114.0</ele><time>2026-05-03T14:16:13Z</time></trkpt><trkpt lat="45.28156415464281" lon="8.631803768997603"><ele>114.0</ele><time>2026-05-03T14:16:14Z</time></trkpt><trkpt lat="45.28152250190423" lon="8.631680155738293"><ele>114.0</ele><time>2026-05-03T14:16:15Z</time></trkpt><trkpt lat="45.28148823792083" lon="8.631557129478184"><ele>114.0</ele><time>2026-05-03T14:16:16Z</time></trkpt><trkpt lat="45.28145063893206" lon="8.631427025575046"><ele>114.0</ele><time>2026-05-03T14:16:17Z</time></trkpt><trkpt lat="45.28140742646913" lon="8.631285991858896"><ele>114.0</ele><time>2026-05-03T14:16:18Z</time></trkpt><trkpt lat="45.281369490311924" lon="8.631154984097394"><ele>114.0</ele><time>2026-05-03T14:16:19Z</time></trkpt><trkpt lat="45.28134779145123" lon="8.63102581588201"><ele>114.0</ele><time>2026-05-03T14:16:20Z</time></trkpt><trkpt lat="45.28131234797505" lon="8.630907345060175"><ele>114.0</ele><time>2026-05-03T14:16:21Z</time></trkpt><trkpt lat="45.28127982327227" lon="8.63079862980834"><ele>114.0</ele><time>2026-05-03T14:16:22Z</time></trkpt><trkpt lat="45.28123782662116" lon="8.630696596867194"><ele>114.0</ele><time>2026-05-03T14:16:23Z</time></trkpt><trkpt lat="45.28120528070651" lon="8.630602259531951"><ele>114.0</ele><time>2026-05-03T14:16:24Z</time></trkpt><trkpt lat="45.28117894185117" lon="8.630513638234104"><ele>114.0</ele><time>2026-05-03T14:16:25Z</time></trkpt><trkpt lat="45.28115290827775" lon="8.63033671785811"><ele>114.0</ele><time>2026-05-03T14:16:27Z</time></trkpt><trkpt lat="45.281135926784366" lon="8.630228327687743"><ele>113.83333333333333</ele><time>2026-05-03T14:16:28Z</time></trkpt><trkpt lat="45.2811254173115" lon="8.630108582726637"><ele>113.66666666666666</ele><time>2026-05-03T14:16:29Z</time></trkpt><trkpt lat="45.281116744359295" lon="8.629989976030455"><ele>113.5</ele><time>2026-05-03T14:16:30Z</time></trkpt><trkpt lat="45.28110636762802" lon="8.629878351932229"><ele>113.33333333333333</ele><time>2026-05-03T14:16:31Z</time></trkpt><trkpt lat="45.281095522874594" lon="8.629776251610652"><ele>113.16666666666666</ele><time>2026-05-03T14:16:32Z</time></trkpt><trkpt lat="45.281078885497486" lon="8.629661251654374"><ele>113.0</ele><time>2026-05-03T14:16:33Z</time></trkpt><trkpt lat="45.28104948330693" lon="8.629545573910221"><ele>113.16666666666666</ele><time>2026-05-03T14:16:34Z</time></trkpt><trkpt lat="45.281006432282304" lon="8.629424315558058"><ele>113.33333333333333</ele><time>2026-05-03T14:16:35Z</time></trkpt><trkpt lat="45.28097601030014" lon="8.629331695448677"><ele>113.5</ele><time>2026-05-03T14:16:36Z</time></trkpt><trkpt lat="45.280942017699616" lon="8.629166221414094"><ele>113.66666666666666</ele><time>2026-05-03T14:16:38Z</time></trkpt><trkpt lat="45.28094080977277" lon="8.629067643914402"><ele>113.83333333333333</ele><time>2026-05-03T14:16:39Z</time></trkpt><trkpt lat="45.28095091392401" lon="8.62896101632222"><ele>114.0</ele><time>2026-05-03T14:16:40Z</time></trkpt><trkpt lat="45.280963054436825" lon="8.628834018038573"><ele>114.0</ele><time>2026-05-03T14:16:41Z</time></trkpt><trkpt lat="45.280962619543985" lon="8.628693325034229"><ele>114.0</ele><time>2026-05-03T14:16:42Z</time></trkpt><trkpt lat="45.28099446250451" lon="8.628555024057588"><ele>114.0</ele><time>2026-05-03T14:16:43Z</time></trkpt><trkpt lat="45.280992068548755" lon="8.628430502995945"><ele>114.0</ele><time>2026-05-03T14:16:44Z</time></trkpt><trkpt lat="45.281022946284374" lon="8.628316709102437"><ele>114.0</ele><time>2026-05-03T14:16:45Z</time></trkpt><trkpt lat="45.28104241901159" lon="8.628181779140688"><ele>114.2</ele><time>2026-05-03T14:16:46Z</time></trkpt><trkpt lat="45.281064635313605" lon="8.628050892135052"><ele>114.4</ele><time>2026-05-03T14:16:47Z</time></trkpt><trkpt lat="45.28108931495684" lon="8.627923042246211"><ele>114.6</ele><time>2026-05-03T14:16:48Z</time></trkpt><trkpt lat="45.28111425063009" lon="8.627796883055197"><ele>114.8</ele><time>2026-05-03T14:16:49Z</time></trkpt><trkpt lat="45.28112472330355" lon="8.627667240685955"><ele>115.0</ele><time>2026-05-03T14:16:50Z</time></trkpt><trkpt lat="45.28116130131421" lon="8.627549021729438"><ele>115.0</ele><time>2026-05-03T14:16:51Z</time></trkpt><trkpt lat="45.2811865637352" lon="8.62741702738682"><ele>115.0</ele><time>2026-05-03T14:16:52Z</time></trkpt><trkpt lat="45.281213576093805" lon="8.62728962004223"><ele>115.0</ele><time>2026-05-03T14:16:53Z</time></trkpt><trkpt lat="45.28122943295264" lon="8.627154915627818"><ele>115.0</ele><time>2026-05-03T14:16:54Z</time></trkpt><trkpt lat="45.28125917729517" lon="8.627033992205982"><ele>115.0</ele><time>2026-05-03T14:16:55Z</time></trkpt><trkpt lat="45.28129083299818" lon="8.626915128633195"><ele>115.00000000000001</ele><time>2026-05-03T14:16:56Z</time></trkpt><trkpt lat="45.281335827723495" lon="8.626811970778677"><ele>115.0</ele><time>2026-05-03T14:16:57Z</time></trkpt><trkpt lat="45.28136280371691" lon="8.626712306138998"><ele>115.0</ele><time>2026-05-03T14:16:58Z</time></trkpt><trkpt lat="45.28139129334445" lon="8.626607049205463"><ele>115.0</ele><time>2026-05-03T14:16:59Z</time></trkpt><trkpt lat="45.28141732552345" lon="8.62651087129204"><ele>115.00000000000001</ele><time>2026-05-03T14:17:00Z</time></trkpt><trkpt lat="45.28144263013057" lon="8.626417381604602"><ele>115.0</ele><time>2026-05-03T14:17:01Z</time></trkpt><trkpt lat="45.281469447739504" lon="8.626318301954957"><ele>115.00000000000001</ele><time>2026-05-03T14:17:02Z</time></trkpt><trkpt lat="45.28148147685282" lon="8.626209075424278"><ele>115.0</ele><time>2026-05-03T14:17:03Z</time></trkpt><trkpt lat="45.281510467565504" lon="8.626102208934295"><ele>115.0</ele><time>2026-05-03T14:17:04Z</time></trkpt><trkpt lat="45.281553185368566" lon="8.626001619606962"><ele>115.0</ele><time>2026-05-03T14:17:05Z</time></trkpt><trkpt lat="45.281581950383426" lon="8.625888927858929"><ele>115.00000000000001</ele><time>2026-05-03T14:17:06Z</time></trkpt><trkpt lat="45.28161039767818" lon="8.625777480487589"><ele>115.0</ele><time>2026-05-03T14:17:07Z</time></trkpt><trkpt lat="45.28162349526347" lon="8.625657672208245"><ele>114.83333333333334</ele><time>2026-05-03T14:17:08Z</time></trkpt><trkpt lat="45.281655107519576" lon="8.625551919034075"><ele>114.66666666666667</ele><time>2026-05-03T14:17:09Z</time></trkpt><trkpt lat="45.28167754903157" lon="8.625450113961122"><ele>114.5</ele><time>2026-05-03T14:17:10Z</time></trkpt><trkpt lat="45.28170295736951" lon="8.625345748179587"><ele>114.33333333333334</ele><time>2026-05-03T14:17:11Z</time></trkpt><trkpt lat="45.281745828112214" lon="8.625246909009432"><ele>114.16666666666667</ele><time>2026-05-03T14:17:12Z</time></trkpt><trkpt lat="45.281773205301306" lon="8.625139654214404"><ele>114.0</ele><time>2026-05-03T14:17:13Z</time></trkpt><trkpt lat="45.28180105637023" lon="8.625030542805666"><ele>114.0</ele><time>2026-05-03T14:17:14Z</time></trkpt><trkpt lat="45.28183021323473" lon="8.624916315714495"><ele>114.0</ele><time>2026-05-03T14:17:15Z</time></trkpt><trkpt lat="45.28185934471782" lon="8.624802188319835"><ele>114.0</ele><time>2026-05-03T14:17:16Z</time></trkpt><trkpt lat="45.28188633889246" lon="8.62469643422218"><ele>114.0</ele><time>2026-05-03T14:17:17Z</time></trkpt><trkpt lat="45.28190022390972" lon="8.624573522336425"><ele>114.0</ele><time>2026-05-03T14:17:18Z</time></trkpt><trkpt lat="45.281932382803156" lon="8.624460673484291"><ele>114.0</ele><time>2026-05-03T14:17:19Z</time></trkpt><trkpt lat="45.281977700672094" lon="8.624338508742056"><ele>114.0</ele><time>2026-05-03T14:17:20Z</time></trkpt><trkpt lat="45.28200809986067" lon="8.62422211107472"><ele>114.0</ele><time>2026-05-03T14:17:21Z</time></trkpt><trkpt lat="45.28203691309519" lon="8.624114629561976"><ele>114.0</ele><time>2026-05-03T14:17:22Z</time></trkpt><trkpt lat="45.28206596293812" lon="8.624017454882077"><ele>114.0</ele><time>2026-05-03T14:17:23Z</time></trkpt><trkpt lat="45.282100079451745" lon="8.6239113549616"><ele>114.0</ele><time>2026-05-03T14:17:24Z</time></trkpt><trkpt lat="45.282136024373294" lon="8.623807417423315"><ele>114.0</ele><time>2026-05-03T14:17:25Z</time></trkpt><trkpt lat="45.28217118893167" lon="8.623707975312403"><ele>114.16666666666667</ele><time>2026-05-03T14:17:26Z</time></trkpt><trkpt lat="45.28221046307794" lon="8.623606284263072"><ele>114.33333333333334</ele><time>2026-05-03T14:17:27Z</time></trkpt><trkpt lat="45.28223141815533" lon="8.62350111657758"><ele>114.5</ele><time>2026-05-03T14:17:28Z</time></trkpt><trkpt lat="45.28226809468213" lon="8.623408009567955"><ele>114.66666666666667</ele><time>2026-05-03T14:17:29Z</time></trkpt><trkpt lat="45.28230932458565" lon="8.62330265906774"><ele>114.83333333333334</ele><time>2026-05-03T14:17:30Z</time></trkpt><trkpt lat="45.28232946204423" lon="8.623187495138557"><ele>115.0</ele><time>2026-05-03T14:17:31Z</time></trkpt><trkpt lat="45.282325965389234" lon="8.623067656239144"><ele>115.00000000000001</ele><time>2026-05-03T14:17:32Z</time></trkpt><trkpt lat="45.28234281306688" lon="8.62295004210525"><ele>115.0</ele><time>2026-05-03T14:17:33Z</time></trkpt><trkpt lat="45.282348659224155" lon="8.622837064233854"><ele>115.0</ele><time>2026-05-03T14:17:34Z</time></trkpt><trkpt lat="45.28235599213063" lon="8.622719775645045"><ele>115.0</ele><time>2026-05-03T14:17:35Z</time></trkpt><trkpt lat="45.28238003646723" lon="8.622606580568895"><ele>115.00000000000001</ele><time>2026-05-03T14:17:36Z</time></trkpt><trkpt lat="45.282376445672796" lon="8.622487104549213"><ele>115.0</ele><time>2026-05-03T14:17:37Z</time></trkpt><trkpt lat="45.282385236233544" lon="8.622371295397727"><ele>115.00000000000001</ele><time>2026-05-03T14:17:38Z</time></trkpt><trkpt lat="45.28241339300475" lon="8.622270557539709"><ele>115.0</ele><time>2026-05-03T14:17:39Z</time></trkpt><trkpt lat="45.28243512555339" lon="8.62216909195404"><ele>115.0</ele><time>2026-05-03T14:17:40Z</time></trkpt><trkpt lat="45.28246814536588" lon="8.622071496587175"><ele>115.0</ele><time>2026-05-03T14:17:41Z</time></trkpt><trkpt lat="45.282506271985696" lon="8.621975207916444"><ele>115.00000000000001</ele><time>2026-05-03T14:17:42Z</time></trkpt><trkpt lat="45.28255366649705" lon="8.621880074051418"><ele>115.0</ele><time>2026-05-03T14:17:43Z</time></trkpt><trkpt lat="45.282586376766105" lon="8.62176917167869"><ele>114.83333333333334</ele><time>2026-05-03T14:17:44Z</time></trkpt><trkpt lat="45.28263670123545" lon="8.621670979218665"><ele>114.66666666666667</ele><time>2026-05-03T14:17:45Z</time></trkpt><trkpt lat="45.28268082874706" lon="8.621568747191233"><ele>114.5</ele><time>2026-05-03T14:17:46Z</time></trkpt><trkpt lat="45.282716977707764" lon="8.621485008576517"><ele>114.33333333333334</ele><time>2026-05-03T14:17:47Z</time></trkpt><trkpt lat="45.28275490643173" lon="8.62140272137071"><ele>114.16666666666667</ele><time>2026-05-03T14:17:48Z</time></trkpt><trkpt lat="45.28280743881814" lon="8.621326534557266"><ele>114.0</ele><time>2026-05-03T14:17:49Z</time></trkpt><trkpt lat="45.282834928000646" lon="8.621221781946353"><ele>114.28571428571428</ele><time>2026-05-03T14:17:50Z</time></trkpt><trkpt lat="45.28289241900439" lon="8.621134947864272"><ele>114.57142857142856</ele><time>2026-05-03T14:17:51Z</time></trkpt><trkpt lat="45.282919269528136" lon="8.621032707054614"><ele>114.85714285714286</ele><time>2026-05-03T14:17:52Z</time></trkpt><trkpt lat="45.282968629478106" lon="8.620963508451325"><ele>115.14285714285714</ele><time>2026-05-03T14:17:53Z</time></trkpt><trkpt lat="45.282997088585354" lon="8.620866984262351"><ele>115.42857142857143</ele><time>2026-05-03T14:17:54Z</time></trkpt><trkpt lat="45.2830406141892" lon="8.620781055585129"><ele>115.71428571428572</ele><time>2026-05-03T14:17:55Z</time></trkpt><trkpt lat="45.28309403629159" lon="8.620714708992379"><ele>116.00000000000001</ele><time>2026-05-03T14:17:56Z</time></trkpt><trkpt lat="45.28314200578443" lon="8.62063272370369"><ele>116.0</ele><time>2026-05-03T14:17:57Z</time></trkpt><trkpt lat="45.28319591126575" lon="8.620550859935541"><ele>116.0</ele><time>2026-05-03T14:17:58Z</time></trkpt><trkpt lat="45.28318162705158" lon="8.620380995028267"><ele>116.0</ele><time>2026-05-03T14:17:59Z</time></trkpt><trkpt lat="45.28320434795867" lon="8.620247681290198"><ele>116.0</ele><time>2026-05-03T14:18:00Z</time></trkpt><trkpt lat="45.28322513829223" lon="8.620102236510647"><ele>116.0</ele><time>2026-05-03T14:18:01Z</time></trkpt><trkpt lat="45.28325593703826" lon="8.619925313863112"><ele>116.0</ele><time>2026-05-03T14:18:02Z</time></trkpt><trkpt lat="45.28329884210985" lon="8.61975879780619"><ele>116.0</ele><time>2026-05-03T14:18:03Z</time></trkpt><trkpt lat="45.283333271474326" lon="8.619592127802148"><ele>116.0</ele><time>2026-05-03T14:18:04Z</time></trkpt><trkpt lat="45.28337606889958" lon="8.61940107692305"><ele>116.0</ele><time>2026-05-03T14:18:05Z</time></trkpt><trkpt lat="45.2834317096323" lon="8.61919273244752"><ele>115.66666666666666</ele><time>2026-05-03T14:18:06Z</time></trkpt><trkpt lat="45.28349836693225" lon="8.618977457263549"><ele>115.33333333333334</ele><time>2026-05-03T14:18:07Z</time></trkpt><trkpt lat="45.28357376713678" lon="8.618748297668002"><ele>115.0</ele><time>2026-05-03T14:18:08Z</time></trkpt><trkpt lat="45.28365737477731" lon="8.618505202655161"><ele>114.66666666666667</ele><time>2026-05-03T14:18:09Z</time></trkpt><trkpt lat="45.28373163114866" lon="8.61828929726456"><ele>114.33333333333334</ele><time>2026-05-03T14:18:10Z</time></trkpt><trkpt lat="45.28379713156942" lon="8.618089562680636"><ele>114.0</ele><time>2026-05-03T14:18:11Z</time></trkpt><trkpt lat="45.28384915098063" lon="8.61790578433877"><ele>114.25</ele><time>2026-05-03T14:18:12Z</time></trkpt><trkpt lat="45.28385759331454" lon="8.617696607277997"><ele>114.5</ele><time>2026-05-03T14:18:13Z</time></trkpt><trkpt lat="45.28386608140298" lon="8.61751277637074"><ele>114.75</ele><time>2026-05-03T14:18:14Z</time></trkpt><trkpt lat="45.283850344935836" lon="8.61734064105652"><ele>115.0</ele><time>2026-05-03T14:18:15Z</time></trkpt><trkpt lat="45.283832620953746" lon="8.617169513594567"><ele>115.0</ele><time>2026-05-03T14:18:16Z</time></trkpt><trkpt lat="45.283816513769416" lon="8.617007905014669"><ele>115.0</ele><time>2026-05-03T14:18:17Z</time></trkpt><trkpt lat="45.28380358998001" lon="8.616846135742119"><ele>115.0</ele><time>2026-05-03T14:18:18Z</time></trkpt><trkpt lat="45.283785731644535" lon="8.61669696251335"><ele>115.0</ele><time>2026-05-03T14:18:19Z</time></trkpt><trkpt lat="45.2837609536342" lon="8.61654502482705"><ele>115.0</ele><time>2026-05-03T14:18:20Z</time></trkpt><trkpt lat="45.28371688431608" lon="8.616398094117013"><ele>115.25</ele><time>2026-05-03T14:18:21Z</time></trkpt><trkpt lat="45.28366785718501" lon="8.61624833173709"><ele>115.5</ele><time>2026-05-03T14:18:22Z</time></trkpt><trkpt lat="45.28360793226068" lon="8.616108633970832"><ele>115.75</ele><time>2026-05-03T14:18:23Z</time></trkpt><trkpt lat="45.283560613226676" lon="8.615956922791112"><ele>116.0</ele><time>2026-05-03T14:18:24Z</time></trkpt><trkpt lat="45.2835112204068" lon="8.615811023558749"><ele>116.0</ele><time>2026-05-03T14:18:25Z</time></trkpt><trkpt lat="45.28345269332388" lon="8.61566595467862"><ele>116.0</ele><time>2026-05-03T14:18:26Z</time></trkpt><trkpt lat="45.28338615687461" lon="8.6155274993253"><ele>116.0</ele><time>2026-05-03T14:18:27Z</time></trkpt><trkpt lat="45.28332268804654" lon="8.615391516376054"><ele>116.0</ele><time>2026-05-03T14:18:28Z</time></trkpt><trkpt lat="45.28323508620661" lon="8.615292694302823"><ele>116.0</ele><time>2026-05-03T14:18:29Z</time></trkpt><trkpt lat="45.283129483843716" lon="8.615242069542315"><ele>116.0</ele><time>2026-05-03T14:18:30Z</time></trkpt><trkpt lat="45.28306148421549" lon="8.615150918402698"><ele>116.0</ele><time>2026-05-03T14:18:31Z</time></trkpt><trkpt lat="45.28298458859026" lon="8.615090162350226"><ele>116.0</ele><time>2026-05-03T14:18:32Z</time></trkpt><trkpt lat="45.28293678835602" lon="8.614986564341319"><ele>116.0</ele><time>2026-05-03T14:18:33Z</time></trkpt><trkpt lat="45.28292607921462" lon="8.614843269506393"><ele>116.0</ele><time>2026-05-03T14:18:34Z</time></trkpt><trkpt lat="45.28292195205532" lon="8.614694430441437"><ele>116.0</ele><time>2026-05-03T14:18:35Z</time></trkpt><trkpt lat="45.28291954510731" lon="8.61452314057474"><ele>116.0</ele><time>2026-05-03T14:18:36Z</time></trkpt><trkpt lat="45.28291678390026" lon="8.614326640081131"><ele>116.0</ele><time>2026-05-03T14:18:37Z</time></trkpt><trkpt lat="45.2829142872727" lon="8.614148968327536"><ele>116.0</ele><time>2026-05-03T14:18:38Z</time></trkpt><trkpt lat="45.28290895551489" lon="8.61399376260893"><ele>116.0</ele><time>2026-05-03T14:18:39Z</time></trkpt><trkpt lat="45.28290358285574" lon="8.61385326304081"><ele>116.0</ele><time>2026-05-03T14:18:40Z</time></trkpt><trkpt lat="45.28288229107684" lon="8.613728978994638"><ele>116.0</ele><time>2026-05-03T14:18:41Z</time></trkpt><trkpt lat="45.28288309453865" lon="8.613615321958745"><ele>116.0</ele><time>2026-05-03T14:18:42Z</time></trkpt><trkpt lat="45.28290989799221" lon="8.613484132839398"><ele>115.75</ele><time>2026-05-03T14:18:43Z</time></trkpt><trkpt lat="45.28298925233093" lon="8.613356554262097"><ele>115.5</ele><time>2026-05-03T14:18:44Z</time></trkpt><trkpt lat="45.28306001857709" lon="8.61319536414314"><ele>115.25</ele><time>2026-05-03T14:18:45Z</time></trkpt><trkpt lat="45.28313700496795" lon="8.613012300029148"><ele>115.0</ele><time>2026-05-03T14:18:46Z</time></trkpt><trkpt lat="45.28321289445401" lon="8.612835740432304"><ele>115.33333333333334</ele><time>2026-05-03T14:18:47Z</time></trkpt><trkpt lat="45.283302751591734" lon="8.61264545384498"><ele>115.66666666666666</ele><time>2026-05-03T14:18:48Z</time></trkpt><trkpt lat="45.283389937859404" lon="8.61246401202"><ele>116.0</ele><time>2026-05-03T14:18:49Z</time></trkpt><trkpt lat="45.283477904688255" lon="8.612283816824146"><ele>116.0</ele><time>2026-05-03T14:18:50Z</time></trkpt><trkpt lat="45.28356676416366" lon="8.612103352999108"><ele>116.0</ele><time>2026-05-03T14:18:51Z</time></trkpt><trkpt lat="45.283653210722676" lon="8.61192780403"><ele>116.0</ele><time>2026-05-03T14:18:52Z</time></trkpt><trkpt lat="45.283740466007" lon="8.611748382282057"><ele>116.0</ele><time>2026-05-03T14:18:53Z</time></trkpt><trkpt lat="45.28382387127447" lon="8.611576719314144"><ele>116.0</ele><time>2026-05-03T14:18:54Z</time></trkpt><trkpt lat="45.28389694394832" lon="8.611422631279531"><ele>116.0</ele><time>2026-05-03T14:18:55Z</time></trkpt><trkpt lat="45.28396487414783" lon="8.611279387155097"><ele>116.0</ele><time>2026-05-03T14:18:56Z</time></trkpt><trkpt lat="45.28403839798914" lon="8.61112434782166"><ele>116.0</ele><time>2026-05-03T14:18:57Z</time></trkpt><trkpt lat="45.28411115765284" lon="8.610967107007877"><ele>116.0</ele><time>2026-05-03T14:18:58Z</time></trkpt><trkpt lat="45.28416367957423" lon="8.610810518250398"><ele>116.0</ele><time>2026-05-03T14:18:59Z</time></trkpt><trkpt lat="45.28422921128623" lon="8.610675994736253"><ele>116.0</ele><time>2026-05-03T14:19:00Z</time></trkpt><trkpt lat="45.284285249513815" lon="8.610546469626136"><ele>116.0</ele><time>2026-05-03T14:19:01Z</time></trkpt><trkpt lat="45.28434264355599" lon="8.610409663752309"><ele>116.0</ele><time>2026-05-03T14:19:02Z</time></trkpt><trkpt lat="45.28440431887435" lon="8.610276064615526"><ele>116.0</ele><time>2026-05-03T14:19:03Z</time></trkpt><trkpt lat="45.28445328364929" lon="8.610147715669427"><ele>116.0</ele><time>2026-05-03T14:19:04Z</time></trkpt><trkpt lat="45.28450854152149" lon="8.610033227343363"><ele>116.0</ele><time>2026-05-03T14:19:05Z</time></trkpt><trkpt lat="45.28456140013932" lon="8.609912905572566"><ele>116.0</ele><time>2026-05-03T14:19:06Z</time></trkpt><trkpt lat="45.2846322433648" lon="8.609785848926638"><ele>116.0</ele><time>2026-05-03T14:19:07Z</time></trkpt><trkpt lat="45.284685210788915" lon="8.609623743810877"><ele>116.0</ele><time>2026-05-03T14:19:08Z</time></trkpt><trkpt lat="45.28475965415707" lon="8.609463461285614"><ele>116.0</ele><time>2026-05-03T14:19:09Z</time></trkpt><trkpt lat="45.284829683591035" lon="8.609300242201723"><ele>116.0</ele><time>2026-05-03T14:19:10Z</time></trkpt><trkpt lat="45.28489859439169" lon="8.609167918572366"><ele>116.0</ele><time>2026-05-03T14:19:11Z</time></trkpt><trkpt lat="45.28496863060373" lon="8.609044714328059"><ele>116.0</ele><time>2026-05-03T14:19:12Z</time></trkpt><trkpt lat="45.285045040397385" lon="8.608911752644321"><ele>116.0</ele><time>2026-05-03T14:19:13Z</time></trkpt><trkpt lat="45.28511203023808" lon="8.608760305265402"><ele>115.75</ele><time>2026-05-03T14:19:14Z</time></trkpt><trkpt lat="45.28518267815952" lon="8.608594864071435"><ele>115.5</ele><time>2026-05-03T14:19:15Z</time></trkpt><trkpt lat="45.28524572875364" lon="8.608414198841356"><ele>115.25</ele><time>2026-05-03T14:19:16Z</time></trkpt><trkpt lat="45.28530491097349" lon="8.608230498687464"><ele>115.0</ele><time>2026-05-03T14:19:17Z</time></trkpt><trkpt lat="45.285373235354946" lon="8.608032385356182"><ele>114.66666666666667</ele><time>2026-05-03T14:19:18Z</time></trkpt><trkpt lat="45.2854245649736" lon="8.607810232420531"><ele>114.33333333333334</ele><time>2026-05-03T14:19:19Z</time></trkpt><trkpt lat="45.285461298883824" lon="8.607578111775346"><ele>114.0</ele><time>2026-05-03T14:19:20Z</time></trkpt><trkpt lat="45.285514004951864" lon="8.607330236764877"><ele>114.0</ele><time>2026-05-03T14:19:21Z</time></trkpt><trkpt lat="45.28556214066734" lon="8.607120527738072"><ele>114.0</ele><time>2026-05-03T14:19:22Z</time></trkpt><trkpt lat="45.28561928975489" lon="8.606917808344237"><ele>114.0</ele><time>2026-05-03T14:19:23Z</time></trkpt><trkpt lat="45.28566173465211" lon="8.606725408719818"><ele>114.25</ele><time>2026-05-03T14:19:24Z</time></trkpt><trkpt lat="45.28570228733646" lon="8.606541587145031"><ele>114.5</ele><time>2026-05-03T14:19:25Z</time></trkpt><trkpt lat="45.28572824975019" lon="8.606345485179883"><ele>114.75</ele><time>2026-05-03T14:19:26Z</time></trkpt><trkpt lat="45.28578637843086" lon="8.606167385631318"><ele>115.0</ele><time>2026-05-03T14:19:27Z</time></trkpt><trkpt lat="45.28581787198324" lon="8.605972639069755"><ele>115.5</ele><time>2026-05-03T14:19:28Z</time></trkpt><trkpt lat="45.28586391031076" lon="8.60578507284589"><ele>116.0</ele><time>2026-05-03T14:19:29Z</time></trkpt><trkpt lat="45.28590844422913" lon="8.605605277710632"><ele>116.5</ele><time>2026-05-03T14:19:30Z</time></trkpt><trkpt lat="45.2859548975896" lon="8.605434558133409"><ele>117.0</ele><time>2026-05-03T14:19:31Z</time></trkpt><trkpt lat="45.286000974189605" lon="8.60526771346303"><ele>117.0</ele><time>2026-05-03T14:19:32Z</time></trkpt><trkpt lat="45.286023836860664" lon="8.605084984594031"><ele>117.0</ele><time>2026-05-03T14:19:33Z</time></trkpt><trkpt lat="45.286041489062285" lon="8.604885376823704"><ele>117.0</ele><time>2026-05-03T14:19:34Z</time></trkpt><trkpt lat="45.28605603707786" lon="8.60467757761359"><ele>117.0</ele><time>2026-05-03T14:19:35Z</time></trkpt><trkpt lat="45.28607074401966" lon="8.604471608470485"><ele>117.25</ele><time>2026-05-03T14:19:36Z</time></trkpt><trkpt lat="45.286076094134636" lon="8.604273695424583"><ele>117.5</ele><time>2026-05-03T14:19:37Z</time></trkpt><trkpt lat="45.28607653420693" lon="8.604073182465969"><ele>117.75</ele><time>2026-05-03T14:19:38Z</time></trkpt><trkpt lat="45.28607681966691" lon="8.603859672142134"><ele>118.0</ele><time>2026-05-03T14:19:39Z</time></trkpt><trkpt lat="45.28607320852712" lon="8.603650713898771"><ele>118.25</ele><time>2026-05-03T14:19:40Z</time></trkpt><trkpt lat="45.28606954715869" lon="8.60345172118521"><ele>118.5</ele><time>2026-05-03T14:19:41Z</time></trkpt><trkpt lat="45.28606975084286" lon="8.60326969756703"><ele>118.75</ele><time>2026-05-03T14:19:42Z</time></trkpt><trkpt lat="45.28606437480622" lon="8.603126222169745"><ele>119.0</ele><time>2026-05-03T14:19:43Z</time></trkpt><trkpt lat="45.286063505324215" lon="8.602985197635528"><ele>118.99999999999999</ele><time>2026-05-03T14:19:44Z</time></trkpt><trkpt lat="45.28606568067196" lon="8.602851221200739"><ele>119.0</ele><time>2026-05-03T14:19:45Z</time></trkpt><trkpt lat="45.286071834153844" lon="8.602727584384727"><ele>119.0</ele><time>2026-05-03T14:19:46Z</time></trkpt><trkpt lat="45.2860857064714" lon="8.602610821803005"><ele>119.0</ele><time>2026-05-03T14:19:47Z</time></trkpt><trkpt lat="45.28610954722484" lon="8.602504976960693"><ele>118.99999999999999</ele><time>2026-05-03T14:19:48Z</time></trkpt><trkpt lat="45.28613908801367" lon="8.6024117240419"><ele>119.0</ele><time>2026-05-03T14:19:49Z</time></trkpt><trkpt lat="45.28617831848877" lon="8.602338162554354"><ele>118.99999999999999</ele><time>2026-05-03T14:19:50Z</time></trkpt><trkpt lat="45.28624459683525" lon="8.602229134525942"><ele>119.0</ele><time>2026-05-03T14:19:52Z</time></trkpt><trkpt lat="45.2862999301399" lon="8.602177673705219"><ele>119.0</ele><time>2026-05-03T14:19:55Z</time></trkpt><trkpt lat="45.28637756909457" lon="8.602096799062307"><ele>119.0</ele><time>2026-05-03T14:19:57Z</time></trkpt><trkpt lat="45.28636253945823" lon="8.601973030897595"><ele>118.99999999999999</ele><time>2026-05-03T14:19:59Z</time></trkpt><trkpt lat="45.286292175268116" lon="8.601917809583998"><ele>119.0</ele><time>2026-05-03T14:20:00Z</time></trkpt><trkpt lat="45.286182568319276" lon="8.601932268727527"><ele>118.80000000000001</ele><time>2026-05-03T14:20:01Z</time></trkpt><trkpt lat="45.28608992262473" lon="8.601939412471207"><ele>118.60000000000001</ele><time>2026-05-03T14:20:02Z</time></trkpt><trkpt lat="45.285997238347555" lon="8.601939062792054"><ele>118.4</ele><time>2026-05-03T14:20:03Z</time></trkpt><trkpt lat="45.28589548899349" lon="8.601920151804663"><ele>118.2</ele><time>2026-05-03T14:20:04Z</time></trkpt><trkpt lat="45.28578060363938" lon="8.60188517590489"><ele>118.0</ele><time>2026-05-03T14:20:05Z</time></trkpt><trkpt lat="45.28565305013058" lon="8.601847959148364"><ele>118.0</ele><time>2026-05-03T14:20:06Z</time></trkpt><trkpt lat="45.28552730175301" lon="8.601801819961103"><ele>118.0</ele><time>2026-05-03T14:20:07Z</time></trkpt><trkpt lat="45.28541660033098" lon="8.601744407957108"><ele>118.0</ele><time>2026-05-03T14:20:08Z</time></trkpt><trkpt lat="45.28531322470299" lon="8.601670050415889"><ele>118.0</ele><time>2026-05-03T14:20:09Z</time></trkpt><trkpt lat="45.28521395708836" lon="8.601591361949481"><ele>118.0</ele><time>2026-05-03T14:20:10Z</time></trkpt><trkpt lat="45.28511797108727" lon="8.601515524609043"><ele>118.00000000000001</ele><time>2026-05-03T14:20:11Z</time></trkpt><trkpt lat="45.28503215742515" lon="8.601450125163163"><ele>118.00000000000001</ele><time>2026-05-03T14:20:12Z</time></trkpt><trkpt lat="45.28494546835629" lon="8.601384026672378"><ele>118.0</ele><time>2026-05-03T14:20:13Z</time></trkpt><trkpt lat="45.28485479678566" lon="8.601298865030982"><ele>118.0</ele><time>2026-05-03T14:20:14Z</time></trkpt><trkpt lat="45.28476199711151" lon="8.601192622144094"><ele>118.2</ele><time>2026-05-03T14:20:15Z</time></trkpt><trkpt lat="45.28467413005808" lon="8.60108969773289"><ele>118.4</ele><time>2026-05-03T14:20:16Z</time></trkpt><trkpt lat="45.28459060898131" lon="8.600992248542404"><ele>118.60000000000001</ele><time>2026-05-03T14:20:17Z</time></trkpt><trkpt lat="45.28451741620687" lon="8.600900825343578"><ele>118.80000000000001</ele><time>2026-05-03T14:20:18Z</time></trkpt><trkpt lat="45.28445466240969" lon="8.600816012466545"><ele>119.0</ele><time>2026-05-03T14:20:19Z</time></trkpt><trkpt lat="45.284122385112006" lon="8.60024084820765"><ele>119.16666666666666</ele><time>2026-05-03T14:29:08Z</time></trkpt><trkpt lat="45.28405794430472" lon="8.600194704598323"><ele>119.33333333333333</ele><time>2026-05-03T14:29:42Z</time></trkpt><trkpt lat="45.28399498055057" lon="8.60012315605846"><ele>119.5</ele><time>2026-05-03T14:29:44Z</time></trkpt><trkpt lat="45.283962355850555" lon="8.600042601056522"><ele>119.66666666666666</ele><time>2026-05-03T14:29:46Z</time></trkpt><trkpt lat="45.283925376361005" lon="8.599965014098723"><ele>119.83333333333333</ele><time>2026-05-03T14:29:48Z</time></trkpt><trkpt lat="45.28387122712934" lon="8.599858577780243"><ele>120.0</ele><time>2026-05-03T14:29:51Z</time></trkpt><trkpt lat="45.283824919521265" lon="8.599762774336352"><ele>120.25</ele><time>2026-05-03T14:29:54Z</time></trkpt><trkpt lat="45.28378789368088" lon="8.59966879377755"><ele>120.5</ele><time>2026-05-03T14:29:59Z</time></trkpt><trkpt lat="45.28375305422447" lon="8.599592472201902"><ele>120.75</ele><time>2026-05-03T14:30:05Z</time></trkpt><trkpt lat="45.2836195459723" lon="8.599714531794852"><ele>121.0</ele><time>2026-05-03T14:30:06Z</time></trkpt><trkpt lat="45.283516817055535" lon="8.599878585831293"><ele>121.0</ele><time>2026-05-03T14:30:08Z</time></trkpt><trkpt lat="45.28342596330698" lon="8.599986022639847"><ele>121.0</ele><time>2026-05-03T14:30:09Z</time></trkpt><trkpt lat="45.28332864732698" lon="8.600087143348798"><ele>121.0</ele><time>2026-05-03T14:30:10Z</time></trkpt><trkpt lat="45.28320813182476" lon="8.600216765664971"><ele>121.0</ele><time>2026-05-03T14:30:11Z</time></trkpt><trkpt lat="45.28308345732189" lon="8.600363172146759"><ele>120.0</ele><time>2026-05-03T14:30:12Z</time></trkpt><trkpt lat="45.282952300431745" lon="8.60052719788753"><ele>119.0</ele><time>2026-05-03T14:30:13Z</time></trkpt><trkpt lat="45.28280844061858" lon="8.600700215025043"><ele>118.0</ele><time>2026-05-03T14:30:14Z</time></trkpt><trkpt lat="45.28266353944784" lon="8.600864171012631"><ele>118.0</ele><time>2026-05-03T14:30:15Z</time></trkpt><trkpt lat="45.282534147993914" lon="8.601015690470446"><ele>118.0</ele><time>2026-05-03T14:30:16Z</time></trkpt><trkpt lat="45.28241779171962" lon="8.60115624497201"><ele>118.0</ele><time>2026-05-03T14:30:17Z</time></trkpt><trkpt lat="45.28230061221095" lon="8.601298664880627"><ele>118.25</ele><time>2026-05-03T14:30:18Z</time></trkpt><trkpt lat="45.282169468164376" lon="8.601453390861188"><ele>118.5</ele><time>2026-05-03T14:30:19Z</time></trkpt><trkpt lat="45.28207566876553" lon="8.601564581559552"><ele>118.75</ele><time>2026-05-03T14:30:20Z</time></trkpt><trkpt lat="45.281987729067964" lon="8.601664607736003"><ele>119.0</ele><time>2026-05-03T14:30:21Z</time></trkpt><trkpt lat="45.281902063888275" lon="8.601763118430446"><ele>118.99999999999999</ele><time>2026-05-03T14:30:22Z</time></trkpt><trkpt lat="45.28182573821326" lon="8.601851849913478"><ele>119.0</ele><time>2026-05-03T14:30:23Z</time></trkpt><trkpt lat="45.281752717706006" lon="8.601923443783944"><ele>119.0</ele><time>2026-05-03T14:30:24Z</time></trkpt><trkpt lat="45.28168585706736" lon="8.601977254143984"><ele>119.0</ele><time>2026-05-03T14:30:25Z</time></trkpt><trkpt lat="45.28162231798459" lon="8.602006198395872"><ele>118.99999999999999</ele><time>2026-05-03T14:30:26Z</time></trkpt><trkpt lat="45.28151317717871" lon="8.601942464113902"><ele>119.0</ele><time>2026-05-03T14:30:28Z</time></trkpt><trkpt lat="45.28136446959176" lon="8.601945081221965"><ele>118.66666666666666</ele><time>2026-05-03T14:30:30Z</time></trkpt><trkpt lat="45.281307202357716" lon="8.602016102478064"><ele>118.33333333333333</ele><time>2026-05-03T14:30:31Z</time></trkpt><trkpt lat="45.281278906983104" lon="8.602119939672674"><ele>118.0</ele><time>2026-05-03T14:30:32Z</time></trkpt><trkpt lat="45.28128902304449" lon="8.602237917442482"><ele>117.66666666666666</ele><time>2026-05-03T14:30:33Z</time></trkpt><trkpt lat="45.281243359183634" lon="8.602355422179336"><ele>117.33333333333333</ele><time>2026-05-03T14:30:34Z</time></trkpt><trkpt lat="45.281195286811545" lon="8.602477417929306"><ele>117.0</ele><time>2026-05-03T14:30:35Z</time></trkpt><trkpt lat="45.28114445708068" lon="8.602622287340331"><ele>117.0</ele><time>2026-05-03T14:30:36Z</time></trkpt><trkpt lat="45.28104216023398" lon="8.602749934291086"><ele>117.0</ele><time>2026-05-03T14:30:37Z</time></trkpt><trkpt lat="45.28094763571315" lon="8.602882283700621"><ele>117.0</ele><time>2026-05-03T14:30:38Z</time></trkpt><trkpt lat="45.28086031569633" lon="8.602995185564394"><ele>117.0</ele><time>2026-05-03T14:30:39Z</time></trkpt><trkpt lat="45.28076821385955" lon="8.603108213326177"><ele>117.0</ele><time>2026-05-03T14:30:40Z</time></trkpt><trkpt lat="45.28067488943847" lon="8.603219694667098"><ele>117.0</ele><time>2026-05-03T14:30:41Z</time></trkpt><trkpt lat="45.28057844418015" lon="8.603332761103976"><ele>117.0</ele><time>2026-05-03T14:30:42Z</time></trkpt><trkpt lat="45.280479327525185" lon="8.603449415464132"><ele>117.0</ele><time>2026-05-03T14:30:43Z</time></trkpt><trkpt lat="45.280378555738444" lon="8.603567906963418"><ele>117.0</ele><time>2026-05-03T14:30:44Z</time></trkpt><trkpt lat="45.28027574347446" lon="8.603690765584107"><ele>117.0</ele><time>2026-05-03T14:30:45Z</time></trkpt><trkpt lat="45.28016601688327" lon="8.603820746306079"><ele>117.0</ele><time>2026-05-03T14:30:46Z</time></trkpt><trkpt lat="45.28005304400285" lon="8.603955311253568"><ele>117.0</ele><time>2026-05-03T14:30:47Z</time></trkpt><trkpt lat="45.27993841061602" lon="8.604090220395136"><ele>117.0</ele><time>2026-05-03T14:30:48Z</time></trkpt><trkpt lat="45.27982570075512" lon="8.6042214933226"><ele>117.0</ele><time>2026-05-03T14:30:49Z</time></trkpt><trkpt lat="45.27971254639391" lon="8.604352750931467"><ele>117.0</ele><time>2026-05-03T14:30:50Z</time></trkpt><trkpt lat="45.27960554627528" lon="8.6044800897509"><ele>117.0</ele><time>2026-05-03T14:30:51Z</time></trkpt><trkpt lat="45.279498679041" lon="8.604608320706635"><ele>116.66666666666666</ele><time>2026-05-03T14:30:52Z</time></trkpt><trkpt lat="45.27938583748844" lon="8.604740452187025"><ele>116.33333333333333</ele><time>2026-05-03T14:30:53Z</time></trkpt><trkpt lat="45.27926579423051" lon="8.604880610268637"><ele>116.0</ele><time>2026-05-03T14:30:54Z</time></trkpt><trkpt lat="45.27914907150184" lon="8.605016984454464"><ele>116.0</ele><time>2026-05-03T14:30:55Z</time></trkpt><trkpt lat="45.27904096420944" lon="8.605145089675196"><ele>116.0</ele><time>2026-05-03T14:30:56Z</time></trkpt><trkpt lat="45.27891928422044" lon="8.605278724243526"><ele>116.0</ele><time>2026-05-03T14:30:57Z</time></trkpt><trkpt lat="45.2788130793963" lon="8.605397764564604"><ele>116.0</ele><time>2026-05-03T14:30:58Z</time></trkpt><trkpt lat="45.27871109807516" lon="8.605513566843653"><ele>115.66666666666666</ele><time>2026-05-03T14:30:59Z</time></trkpt><trkpt lat="45.27853983013605" lon="8.605723903021614"><ele>115.33333333333334</ele><time>2026-05-03T14:31:00Z</time></trkpt><trkpt lat="45.27840201377291" lon="8.605894083109844"><ele>115.0</ele><time>2026-05-03T14:31:01Z</time></trkpt><trkpt lat="45.278271102821364" lon="8.606048452689132"><ele>115.0</ele><time>2026-05-03T14:31:02Z</time></trkpt><trkpt lat="45.27814593616558" lon="8.606188430316367"><ele>115.0</ele><time>2026-05-03T14:31:03Z</time></trkpt><trkpt lat="45.278027948178895" lon="8.606331383631506"><ele>115.0</ele><time>2026-05-03T14:31:04Z</time></trkpt><trkpt lat="45.277908793751635" lon="8.60648021981403"><ele>115.0</ele><time>2026-05-03T14:31:05Z</time></trkpt><trkpt lat="45.2777872648544" lon="8.606628577000096"><ele>115.0</ele><time>2026-05-03T14:31:06Z</time></trkpt><trkpt lat="45.277665597080684" lon="8.606774426387831"><ele>115.0</ele><time>2026-05-03T14:31:07Z</time></trkpt><trkpt lat="45.27754288346766" lon="8.606915901803887"><ele>115.0</ele><time>2026-05-03T14:31:08Z</time></trkpt><trkpt lat="45.277419993814874" lon="8.6070585995454"><ele>115.0</ele><time>2026-05-03T14:31:09Z</time></trkpt><trkpt lat="45.277295089088796" lon="8.60720665339965"><ele>115.0</ele><time>2026-05-03T14:31:10Z</time></trkpt><trkpt lat="45.27716958576015" lon="8.607354954177005"><ele>115.0</ele><time>2026-05-03T14:31:11Z</time></trkpt><trkpt lat="45.27704288728213" lon="8.607502164750017"><ele>115.0</ele><time>2026-05-03T14:31:12Z</time></trkpt><trkpt lat="45.276920474851856" lon="8.607641954604116"><ele>115.0</ele><time>2026-05-03T14:31:13Z</time></trkpt><trkpt lat="45.27680326196421" lon="8.607776816300074"><ele>115.25</ele><time>2026-05-03T14:31:14Z</time></trkpt><trkpt lat="45.276693514319916" lon="8.607904986704511"><ele>115.5</ele><time>2026-05-03T14:31:15Z</time></trkpt><trkpt lat="45.27659578893457" lon="8.60802067524591"><ele>115.75</ele><time>2026-05-03T14:31:16Z</time></trkpt><trkpt lat="45.27650669024911" lon="8.608131209568663"><ele>116.0</ele><time>2026-05-03T14:31:17Z</time></trkpt><trkpt lat="45.276420707295486" lon="8.608243678314645"><ele>116.0</ele><time>2026-05-03T14:31:18Z</time></trkpt><trkpt lat="45.27615201318418" lon="8.608555167340175"><ele>116.0</ele><time>2026-05-03T14:31:19Z</time></trkpt><trkpt lat="45.27602675885159" lon="8.608706691653078"><ele>115.0</ele><time>2026-05-03T14:31:20Z</time></trkpt></trkseg><trkseg><trkpt lat="45.27343847231373" lon="8.6118111039935"><ele>113.0</ele><time>2026-05-03T14:34:14Z</time></trkpt><trkpt lat="45.27356876004372" lon="8.611654149606418"><ele>113.0</ele><time>2026-05-03T14:34:15Z</time></trkpt><trkpt lat="45.273698638719694" lon="8.611504654172606"><ele>113.0</ele><time>2026-05-03T14:34:16Z</time></trkpt><trkpt lat="45.27382528740051" lon="8.611357556138099"><ele>113.0</ele><time>2026-05-03T14:34:17Z</time></trkpt><trkpt lat="45.27395050389511" lon="8.611205990659572"><ele>113.0</ele><time>2026-05-03T14:34:18Z</time></trkpt><trkpt lat="45.27408118806883" lon="8.611052083965248"><ele>113.0</ele><time>2026-05-03T14:34:19Z</time></trkpt><trkpt lat="45.27421302517628" lon="8.6108939010384"><ele>113.66666666666666</ele><time>2026-05-03T14:34:20Z</time></trkpt><trkpt lat="45.27434886527403" lon="8.610734586052075"><ele>114.33333333333334</ele><time>2026-05-03T14:34:21Z</time></trkpt><trkpt lat="45.27448620499661" lon="8.610573969114876"><ele>115.0</ele><time>2026-05-03T14:34:22Z</time></trkpt><trkpt lat="45.274627115096045" lon="8.610413204820405"><ele>114.66666666666667</ele><time>2026-05-03T14:34:23Z</time></trkpt><trkpt lat="45.27475555923372" lon="8.610261627592038"><ele>114.33333333333334</ele><time>2026-05-03T14:34:24Z</time></trkpt><trkpt lat="45.2748843040149" lon="8.61011107749532"><ele>114.0</ele><time>2026-05-03T14:34:25Z</time></trkpt><trkpt lat="45.27501320851654" lon="8.609958767783686"><ele>113.66666666666666</ele><time>2026-05-03T14:34:26Z</time></trkpt><trkpt lat="45.27514961385835" lon="8.609796408905824"><ele>113.33333333333333</ele><time>2026-05-03T14:34:27Z</time></trkpt><trkpt lat="45.27528865735383" lon="8.60962561707041"><ele>113.0</ele><time>2026-05-03T14:34:28Z</time></trkpt><trkpt lat="45.275438680477095" lon="8.609444894002465"><ele>113.0</ele><time>2026-05-03T14:34:29Z</time></trkpt><trkpt lat="45.27558812103724" lon="8.609265771810671"><ele>113.0</ele><time>2026-05-03T14:34:30Z</time></trkpt><trkpt lat="45.275746657551565" lon="8.60908174729127"><ele>113.0</ele><time>2026-05-03T14:34:31Z</time></trkpt><trkpt lat="45.27590513383655" lon="8.608897089303865"><ele>113.66666666666666</ele><time>2026-05-03T14:34:32Z</time></trkpt><trkpt lat="45.276063756192215" lon="8.608710337165343"><ele>114.33333333333334</ele><time>2026-05-03T14:34:33Z</time></trkpt><trkpt lat="45.276223206751304" lon="8.608523939479458"><ele>115.0</ele><time>2026-05-03T14:34:34Z</time></trkpt><trkpt lat="45.27638486608893" lon="8.608335256375547"><ele>115.0</ele><time>2026-05-03T14:34:35Z</time></trkpt><trkpt lat="45.27654301453485" lon="8.608148977785005"><ele>115.0</ele><time>2026-05-03T14:34:36Z</time></trkpt><trkpt lat="45.27669846416944" lon="8.607965475285479"><ele>115.0</ele><time>2026-05-03T14:34:37Z</time></trkpt><trkpt lat="45.27684910782659" lon="8.607787403438074"><ele>115.0</ele><time>2026-05-03T14:34:38Z</time></trkpt><trkpt lat="45.27699619711413" lon="8.607613879384681"><ele>115.0</ele><time>2026-05-03T14:34:39Z</time></trkpt><trkpt lat="45.27714198384272" lon="8.60744051013048"><ele>115.0</ele><time>2026-05-03T14:34:40Z</time></trkpt><trkpt lat="45.27728224590881" lon="8.607274543361335"><ele>115.0</ele><time>2026-05-03T14:34:41Z</time></trkpt><trkpt lat="45.277418838579564" lon="8.607111581293383"><ele>115.0</ele><time>2026-05-03T14:34:42Z</time></trkpt><trkpt lat="45.27755384909292" lon="8.606952631347859"><ele>115.0</ele><time>2026-05-03T14:34:43Z</time></trkpt><trkpt lat="45.27767215576244" lon="8.606814349389705"><ele>115.0</ele><time>2026-05-03T14:34:44Z</time></trkpt><trkpt lat="45.27778444345969" lon="8.60667900109908"><ele>115.0</ele><time>2026-05-03T14:34:45Z</time></trkpt><trkpt lat="45.27789589209931" lon="8.606545617709884"><ele>115.0</ele><time>2026-05-03T14:34:46Z</time></trkpt><trkpt lat="45.2779992358898" lon="8.606423645427148"><ele>115.0</ele><time>2026-05-03T14:34:47Z</time></trkpt><trkpt lat="45.278098759216974" lon="8.606307296644315"><ele>115.0</ele><time>2026-05-03T14:34:48Z</time></trkpt><trkpt lat="45.27820165761255" lon="8.60618892196244"><ele>115.0</ele><time>2026-05-03T14:34:49Z</time></trkpt><trkpt lat="45.278305932300995" lon="8.606066476650273"><ele>115.0</ele><time>2026-05-03T14:34:50Z</time></trkpt><trkpt lat="45.27840315670837" lon="8.605950173628933"><ele>115.0</ele><time>2026-05-03T14:34:51Z</time></trkpt><trkpt lat="45.27849333555983" lon="8.605842923165051"><ele>115.0</ele><time>2026-05-03T14:34:52Z</time></trkpt><trkpt lat="45.27857748502337" lon="8.60574203078787"><ele>115.0</ele><time>2026-05-03T14:34:53Z</time></trkpt><trkpt lat="45.27865798353545" lon="8.605648176629998"><ele>115.0</ele><time>2026-05-03T14:34:54Z</time></trkpt><trkpt lat="45.278733258126266" lon="8.605561929021926"><ele>115.0</ele><time>2026-05-03T14:34:55Z</time></trkpt><trkpt lat="45.27880331923124" lon="8.605481114783819"><ele>115.0</ele><time>2026-05-03T14:34:56Z</time></trkpt><trkpt lat="45.278865642963815" lon="8.605408675632638"><ele>115.00000000000001</ele><time>2026-05-03T14:34:57Z</time></trkpt><trkpt lat="45.27892160188778" lon="8.605343783888912"><ele>115.0</ele><time>2026-05-03T14:34:58Z</time></trkpt><trkpt lat="45.27901160680193" lon="8.605239552096599"><ele>115.0</ele><time>2026-05-03T14:35:00Z</time></trkpt><trkpt lat="45.27907597420782" lon="8.605160198022212"><ele>115.0</ele><time>2026-05-03T14:35:02Z</time></trkpt><trkpt lat="45.279138838313926" lon="8.605121165122654"><ele>115.00000000000001</ele><time>2026-05-03T14:35:04Z</time></trkpt><trkpt lat="45.2792174707789" lon="8.605094938227206"><ele>115.0</ele><time>2026-05-03T14:35:07Z</time></trkpt><trkpt lat="45.279235467030254" lon="8.605003979816164"><ele>115.25</ele><time>2026-05-03T14:35:49Z</time></trkpt><trkpt lat="45.2791491561832" lon="8.605074739221138"><ele>115.5</ele><time>2026-05-03T14:35:52Z</time></trkpt><trkpt lat="45.278986351127394" lon="8.605104807006194"><ele>115.75</ele><time>2026-05-03T14:35:55Z</time></trkpt><trkpt lat="45.278899021261196" lon="8.605084347076637"><ele>116.0</ele><time>2026-05-03T14:35:57Z</time></trkpt><trkpt lat="45.278794289058716" lon="8.605073223956703"><ele>115.99999999999999</ele><time>2026-05-03T14:35:59Z</time></trkpt><trkpt lat="45.278680754483226" lon="8.60506893576214"><ele>116.0</ele><time>2026-05-03T14:36:01Z</time></trkpt><trkpt lat="45.278613590818594" lon="8.605063262899847"><ele>116.0</ele><time>2026-05-03T14:36:02Z</time></trkpt><trkpt lat="45.278543560803875" lon="8.605056091688802"><ele>116.0</ele><time>2026-05-03T14:36:03Z</time></trkpt><trkpt lat="45.27847324286893" lon="8.605045694628323"><ele>115.99999999999999</ele><time>2026-05-03T14:36:04Z</time></trkpt><trkpt lat="45.27840081317454" lon="8.60503262557518"><ele>116.0</ele><time>2026-05-03T14:36:05Z</time></trkpt><trkpt lat="45.278326681244835" lon="8.605017797104862"><ele>115.99999999999999</ele><time>2026-05-03T14:36:06Z</time></trkpt><trkpt lat="45.278251912610884" lon="8.605001313293865"><ele>116.0</ele><time>2026-05-03T14:36:07Z</time></trkpt><trkpt lat="45.27817453814655" lon="8.60498258974381"><ele>116.0</ele><time>2026-05-03T14:36:08Z</time></trkpt><trkpt lat="45.27809318444545" lon="8.604963643029581"><ele>116.0</ele><time>2026-05-03T14:36:09Z</time></trkpt><trkpt lat="45.27801105698738" lon="8.604942043349624"><ele>115.99999999999999</ele><time>2026-05-03T14:36:10Z</time></trkpt><trkpt lat="45.27793238575057" lon="8.604916995284409"><ele>116.0</ele><time>2026-05-03T14:36:11Z</time></trkpt><trkpt lat="45.277850175311535" lon="8.604890970432795"><ele>115.66666666666666</ele><time>2026-05-03T14:36:12Z</time></trkpt><trkpt lat="45.2777684513512" lon="8.604864596326394"><ele>115.33333333333333</ele><time>2026-05-03T14:36:13Z</time></trkpt><trkpt lat="45.27768714746211" lon="8.604838775750386"><ele>115.0</ele><time>2026-05-03T14:36:14Z</time></trkpt><trkpt lat="45.277609259114094" lon="8.604815686936133"><ele>114.66666666666666</ele><time>2026-05-03T14:36:15Z</time></trkpt><trkpt lat="45.277530113080005" lon="8.604793161788306"><ele>114.33333333333333</ele><time>2026-05-03T14:36:16Z</time></trkpt><trkpt lat="45.27745413152946" lon="8.604745915610298"><ele>114.0</ele><time>2026-05-03T14:36:17Z</time></trkpt><trkpt lat="45.27737354294821" lon="8.604723282596305"><ele>114.0</ele><time>2026-05-03T14:36:18Z</time></trkpt><trkpt lat="45.27728970667117" lon="8.604699737421443"><ele>114.0</ele><time>2026-05-03T14:36:19Z</time></trkpt><trkpt lat="45.277202802760904" lon="8.604675330792348"><ele>114.0</ele><time>2026-05-03T14:36:20Z</time></trkpt><trkpt lat="45.27711112446984" lon="8.60464958321988"><ele>114.0</ele><time>2026-05-03T14:36:21Z</time></trkpt><trkpt lat="45.27702235368781" lon="8.604624652191296"><ele>114.0</ele><time>2026-05-03T14:36:22Z</time></trkpt><trkpt lat="45.276929852768134" lon="8.604598673624052"><ele>114.2</ele><time>2026-05-03T14:36:23Z</time></trkpt><trkpt lat="45.27683405472964" lon="8.604595803191202"><ele>114.4</ele><time>2026-05-03T14:36:24Z</time></trkpt><trkpt lat="45.276740380122874" lon="8.604567631542302"><ele>114.6</ele><time>2026-05-03T14:36:25Z</time></trkpt><trkpt lat="45.2766409822688" lon="8.604547042370932"><ele>114.8</ele><time>2026-05-03T14:36:26Z</time></trkpt><trkpt lat="45.27655121276055" lon="8.604501902193935"><ele>115.0</ele><time>2026-05-03T14:36:27Z</time></trkpt><trkpt lat="45.276472441853066" lon="8.60448273678909"><ele>115.00000000000001</ele><time>2026-05-03T14:36:28Z</time></trkpt><trkpt lat="45.27639064057963" lon="8.604462834143154"><ele>115.0</ele><time>2026-05-03T14:36:29Z</time></trkpt><trkpt lat="45.276304762345276" lon="8.604439245594548"><ele>115.0</ele><time>2026-05-03T14:36:30Z</time></trkpt><trkpt lat="45.276217729645055" lon="8.604438161320523"><ele>115.0</ele><time>2026-05-03T14:36:31Z</time></trkpt><trkpt lat="45.27614873664284" lon="8.604394434545295"><ele>115.00000000000001</ele><time>2026-05-03T14:36:32Z</time></trkpt><trkpt lat="45.276074234746524" lon="8.604395761345865"><ele>115.0</ele><time>2026-05-03T14:36:33Z</time></trkpt><trkpt lat="45.275997709253716" lon="8.604376584509984"><ele>115.0</ele><time>2026-05-03T14:36:34Z</time></trkpt><trkpt lat="45.27591691083401" lon="8.604358287121578"><ele>115.0</ele><time>2026-05-03T14:36:35Z</time></trkpt><trkpt lat="45.27583363065355" lon="8.604340307037067"><ele>115.0</ele><time>2026-05-03T14:36:36Z</time></trkpt><trkpt lat="45.275742348093445" lon="8.604336196377984"><ele>115.0</ele><time>2026-05-03T14:36:37Z</time></trkpt><trkpt lat="45.27564224577564" lon="8.60433673619068"><ele>115.0</ele><time>2026-05-03T14:36:38Z</time></trkpt><trkpt lat="45.275542316580655" lon="8.604340857855828"><ele>115.0</ele><time>2026-05-03T14:36:39Z</time></trkpt><trkpt lat="45.275448392659314" lon="8.604349467556363"><ele>115.0</ele><time>2026-05-03T14:36:40Z</time></trkpt><trkpt lat="45.27536178454015" lon="8.604358245876435"><ele>115.0</ele><time>2026-05-03T14:36:41Z</time></trkpt><trkpt lat="45.275265976602846" lon="8.604367043737794"><ele>115.0</ele><time>2026-05-03T14:36:42Z</time></trkpt><trkpt lat="45.275168446207914" lon="8.604359736878513"><ele>115.0</ele><time>2026-05-03T14:36:43Z</time></trkpt><trkpt lat="45.275070423108616" lon="8.604366707561462"><ele>115.00000000000001</ele><time>2026-05-03T14:36:44Z</time></trkpt><trkpt lat="45.274981055908725" lon="8.60437306264549"><ele>115.0</ele><time>2026-05-03T14:36:45Z</time></trkpt><trkpt lat="45.27490457792662" lon="8.604378501195232"><ele>115.0</ele><time>2026-05-03T14:36:46Z</time></trkpt><trkpt lat="45.274828134216555" lon="8.60440070576526"><ele>115.0</ele><time>2026-05-03T14:36:47Z</time></trkpt><trkpt lat="45.274740833248416" lon="8.604386940221163"><ele>115.00000000000001</ele><time>2026-05-03T14:36:48Z</time></trkpt><trkpt lat="45.274651185964586" lon="8.604391331695416"><ele>115.0</ele><time>2026-05-03T14:36:49Z</time></trkpt><trkpt lat="45.274560221466" lon="8.604395787686494"><ele>115.00000000000001</ele><time>2026-05-03T14:36:50Z</time></trkpt><trkpt lat="45.27446863362706" lon="8.604423748540148"><ele>115.0</ele><time>2026-05-03T14:36:51Z</time></trkpt><trkpt lat="45.274374629067424" lon="8.60442230466806"><ele>115.0</ele><time>2026-05-03T14:36:52Z</time></trkpt><trkpt lat="45.274286032806486" lon="8.604428143159437"><ele>115.0</ele><time>2026-05-03T14:36:53Z</time></trkpt><trkpt lat="45.27421067562333" lon="8.604408640140171"><ele>115.00000000000001</ele><time>2026-05-03T14:36:54Z</time></trkpt><trkpt lat="45.27413973587258" lon="8.604440467881963"><ele>115.0</ele><time>2026-05-03T14:36:55Z</time></trkpt><trkpt lat="45.274062113968945" lon="8.604473396882662"><ele>115.16666666666667</ele><time>2026-05-03T14:36:56Z</time></trkpt><trkpt lat="45.27398123073389" lon="8.604513409920235"><ele>115.33333333333334</ele><time>2026-05-03T14:36:57Z</time></trkpt><trkpt lat="45.27389788890224" lon="8.604563307853613"><ele>115.5</ele><time>2026-05-03T14:36:58Z</time></trkpt><trkpt lat="45.273821533918166" lon="8.604622124510778"><ele>115.66666666666666</ele><time>2026-05-03T14:36:59Z</time></trkpt><trkpt lat="45.27375979832495" lon="8.60467877695088"><ele>115.83333333333333</ele><time>2026-05-03T14:37:00Z</time></trkpt><trkpt lat="45.27365739877603" lon="8.604738162641567"><ele>116.0</ele><time>2026-05-03T14:37:02Z</time></trkpt><trkpt lat="45.27357878870694" lon="8.604817047460774"><ele>116.0</ele><time>2026-05-03T14:37:04Z</time></trkpt><trkpt lat="45.2735155466045" lon="8.60487813952944"><ele>116.0</ele><time>2026-05-03T14:37:06Z</time></trkpt><trkpt lat="45.27340586364116" lon="8.604941370144546"><ele>116.0</ele><time>2026-05-03T14:37:08Z</time></trkpt><trkpt lat="45.27332780978979" lon="8.604995212764047"><ele>116.0</ele><time>2026-05-03T14:37:09Z</time></trkpt><trkpt lat="45.27324003577515" lon="8.605054245930306"><ele>116.0</ele><time>2026-05-03T14:37:10Z</time></trkpt><trkpt lat="45.273151939217655" lon="8.60511317232712"><ele>115.6</ele><time>2026-05-03T14:37:11Z</time></trkpt><trkpt lat="45.27305901565704" lon="8.60517514872823"><ele>115.19999999999999</ele><time>2026-05-03T14:37:12Z</time></trkpt><trkpt lat="45.272962235347734" lon="8.605239481734957"><ele>114.80000000000001</ele><time>2026-05-03T14:37:13Z</time></trkpt><trkpt lat="45.27288536697429" lon="8.60531583410024"><ele>114.4</ele><time>2026-05-03T14:37:14Z</time></trkpt><trkpt lat="45.27280385605197" lon="8.605363575307821"><ele>114.0</ele><time>2026-05-03T14:37:15Z</time></trkpt><trkpt lat="45.27272278300448" lon="8.605423534465718"><ele>114.0</ele><time>2026-05-03T14:37:16Z</time></trkpt><trkpt lat="45.272632717985786" lon="8.60548250192641"><ele>114.0</ele><time>2026-05-03T14:37:17Z</time></trkpt><trkpt lat="45.27254085008045" lon="8.605540033314995"><ele>114.0</ele><time>2026-05-03T14:37:18Z</time></trkpt><trkpt lat="45.272450921218784" lon="8.60559714721058"><ele>114.0</ele><time>2026-05-03T14:37:19Z</time></trkpt><trkpt lat="45.272367840265964" lon="8.605658380551153"><ele>114.0</ele><time>2026-05-03T14:37:20Z</time></trkpt><trkpt lat="45.27228481835597" lon="8.60570713913871"><ele>114.2</ele><time>2026-05-03T14:37:21Z</time></trkpt><trkpt lat="45.272200288513325" lon="8.605764911263144"><ele>114.4</ele><time>2026-05-03T14:37:22Z</time></trkpt><trkpt lat="45.272120365657536" lon="8.605815921233221"><ele>114.6</ele><time>2026-05-03T14:37:23Z</time></trkpt><trkpt lat="45.27203900947518" lon="8.605870698574192"><ele>114.8</ele><time>2026-05-03T14:37:24Z</time></trkpt><trkpt lat="45.27195644943778" lon="8.60592710510199"><ele>115.0</ele><time>2026-05-03T14:37:25Z</time></trkpt><trkpt lat="45.271874055615285" lon="8.605980216290984"><ele>115.0</ele><time>2026-05-03T14:37:26Z</time></trkpt><trkpt lat="45.27179451719421" lon="8.60603497240723"><ele>115.0</ele><time>2026-05-03T14:37:27Z</time></trkpt><trkpt lat="45.27171357780431" lon="8.606086619898406"><ele>115.0</ele><time>2026-05-03T14:37:28Z</time></trkpt><trkpt lat="45.271633665015266" lon="8.60613825548164"><ele>115.0</ele><time>2026-05-03T14:37:29Z</time></trkpt><trkpt lat="45.27154561802098" lon="8.606186739397009"><ele>115.0</ele><time>2026-05-03T14:37:30Z</time></trkpt><trkpt lat="45.27145724182758" lon="8.606224436170312"><ele>115.0</ele><time>2026-05-03T14:37:31Z</time></trkpt><trkpt lat="45.27136755346228" lon="8.606255015576703"><ele>115.0</ele><time>2026-05-03T14:37:32Z</time></trkpt><trkpt lat="45.27127430989913" lon="8.606282674772416"><ele>115.0</ele><time>2026-05-03T14:37:33Z</time></trkpt><trkpt lat="45.27118220295669" lon="8.60631321586241"><ele>115.0</ele><time>2026-05-03T14:37:34Z</time></trkpt><trkpt lat="45.27109113119429" lon="8.606341334986196"><ele>115.0</ele><time>2026-05-03T14:37:35Z</time></trkpt><trkpt lat="45.27100684908618" lon="8.606357420744452"><ele>115.00000000000001</ele><time>2026-05-03T14:37:36Z</time></trkpt><trkpt lat="45.270929397344986" lon="8.60639053403304"><ele>115.0</ele><time>2026-05-03T14:37:37Z</time></trkpt><trkpt lat="45.270852862454156" lon="8.606416542118676"><ele>115.0</ele><time>2026-05-03T14:37:38Z</time></trkpt><trkpt lat="45.27077177904915" lon="8.606443771471247"><ele>115.0</ele><time>2026-05-03T14:37:39Z</time></trkpt><trkpt lat="45.27068718783061" lon="8.606474785943329"><ele>115.00000000000001</ele><time>2026-05-03T14:37:40Z</time></trkpt><trkpt lat="45.270601745550614" lon="8.606506216743064"><ele>115.0</ele><time>2026-05-03T14:37:41Z</time></trkpt><trkpt lat="45.27050849045782" lon="8.60652892446957"><ele>115.4</ele><time>2026-05-03T14:37:42Z</time></trkpt><trkpt lat="45.270415450619815" lon="8.606563986670736"><ele>115.8</ele><time>2026-05-03T14:37:43Z</time></trkpt><trkpt lat="45.270326859900536" lon="8.60659118175017"><ele>116.19999999999999</ele><time>2026-05-03T14:37:44Z</time></trkpt><trkpt lat="45.270236366647026" lon="8.606622389267919"><ele>116.6</ele><time>2026-05-03T14:37:45Z</time></trkpt><trkpt lat="45.27014609614039" lon="8.606653423233302"><ele>117.0</ele><time>2026-05-03T14:37:46Z</time></trkpt><trkpt lat="45.27006142174328" lon="8.606680113369718"><ele>117.0</ele><time>2026-05-03T14:37:47Z</time></trkpt><trkpt lat="45.269982398331464" lon="8.606705483168618"><ele>117.0</ele><time>2026-05-03T14:37:48Z</time></trkpt><trkpt lat="45.269893577187645" lon="8.606731612938578"><ele>117.0</ele><time>2026-05-03T14:37:49Z</time></trkpt><trkpt lat="45.26980258453419" lon="8.606733016169208"><ele>117.0</ele><time>2026-05-03T14:37:50Z</time></trkpt><trkpt lat="45.26971508361548" lon="8.606778080962307"><ele>117.0</ele><time>2026-05-03T14:37:51Z</time></trkpt><trkpt lat="45.26962897232379" lon="8.606802543785683"><ele>117.0</ele><time>2026-05-03T14:37:52Z</time></trkpt><trkpt lat="45.26954944912177" lon="8.606842252230633"><ele>116.6</ele><time>2026-05-03T14:37:53Z</time></trkpt><trkpt lat="45.26947014505901" lon="8.606897871732741"><ele>116.19999999999999</ele><time>2026-05-03T14:37:54Z</time></trkpt><trkpt lat="45.269376104627355" lon="8.606958542041214"><ele>115.8</ele><time>2026-05-03T14:37:55Z</time></trkpt><trkpt lat="45.26928630012905" lon="8.607025043336943"><ele>115.4</ele><time>2026-05-03T14:37:56Z</time></trkpt><trkpt lat="45.26920746691481" lon="8.607094736676451"><ele>115.0</ele><time>2026-05-03T14:37:57Z</time></trkpt><trkpt lat="45.269136745094" lon="8.607154118861121"><ele>115.00000000000001</ele><time>2026-05-03T14:37:58Z</time></trkpt><trkpt lat="45.26907374748439" lon="8.60721912855126"><ele>115.0</ele><time>2026-05-03T14:37:59Z</time></trkpt><trkpt lat="45.26900230986689" lon="8.607282917409808"><ele>115.0</ele><time>2026-05-03T14:38:00Z</time></trkpt><trkpt lat="45.26892500997858" lon="8.607354824888239"><ele>115.0</ele><time>2026-05-03T14:38:01Z</time></trkpt><trkpt lat="45.26885048564886" lon="8.607423517492641"><ele>115.00000000000001</ele><time>2026-05-03T14:38:02Z</time></trkpt><trkpt lat="45.26876612309223" lon="8.607484045404945"><ele>115.0</ele><time>2026-05-03T14:38:03Z</time></trkpt><trkpt lat="45.26868357018886" lon="8.607547330811151"><ele>115.0</ele><time>2026-05-03T14:38:04Z</time></trkpt><trkpt lat="45.26859735383963" lon="8.607624666692024"><ele>115.0</ele><time>2026-05-03T14:38:05Z</time></trkpt><trkpt lat="45.26851938272719" lon="8.60767362474178"><ele>115.0</ele><time>2026-05-03T14:38:06Z</time></trkpt><trkpt lat="45.26843685992047" lon="8.607715770572572"><ele>115.0</ele><time>2026-05-03T14:38:07Z</time></trkpt><trkpt lat="45.268350780386655" lon="8.607746259303413"><ele>115.0</ele><time>2026-05-03T14:38:08Z</time></trkpt><trkpt lat="45.268256556912476" lon="8.607749902205825"><ele>115.0</ele><time>2026-05-03T14:38:09Z</time></trkpt><trkpt lat="45.268162863167056" lon="8.607772473283571"><ele>115.0</ele><time>2026-05-03T14:38:10Z</time></trkpt><trkpt lat="45.268076189385816" lon="8.60780722911012"><ele>115.0</ele><time>2026-05-03T14:38:11Z</time></trkpt><trkpt lat="45.26798105449624" lon="8.607818781889588"><ele>115.0</ele><time>2026-05-03T14:38:12Z</time></trkpt><trkpt lat="45.2678753479262" lon="8.607831080316828"><ele>115.0</ele><time>2026-05-03T14:38:13Z</time></trkpt><trkpt lat="45.267772254662276" lon="8.607845894197855"><ele>114.8</ele><time>2026-05-03T14:38:14Z</time></trkpt><trkpt lat="45.267671099835205" lon="8.607861659676653"><ele>114.6</ele><time>2026-05-03T14:38:15Z</time></trkpt><trkpt lat="45.26756998802412" lon="8.607869725907207"><ele>114.4</ele><time>2026-05-03T14:38:16Z</time></trkpt><trkpt lat="45.26746596694578" lon="8.60788811334936"><ele>114.2</ele><time>2026-05-03T14:38:17Z</time></trkpt><trkpt lat="45.26736381121315" lon="8.607892705458047"><ele>114.0</ele><time>2026-05-03T14:38:18Z</time></trkpt><trkpt lat="45.26726043694918" lon="8.607892709850098"><ele>113.80000000000001</ele><time>2026-05-03T14:38:19Z</time></trkpt><trkpt lat="45.26716064304604" lon="8.607927555042028"><ele>113.60000000000001</ele><time>2026-05-03T14:38:20Z</time></trkpt><trkpt lat="45.26706677969658" lon="8.607918914309927"><ele>113.4</ele><time>2026-05-03T14:38:21Z</time></trkpt><trkpt lat="45.26697195510711" lon="8.607932937422014"><ele>113.2</ele><time>2026-05-03T14:38:22Z</time></trkpt><trkpt lat="45.26687264348055" lon="8.607947626102606"><ele>113.0</ele><time>2026-05-03T14:38:23Z</time></trkpt><trkpt lat="45.26676777936076" lon="8.607966149791869"><ele>113.0</ele><time>2026-05-03T14:38:24Z</time></trkpt><trkpt lat="45.266662932782886" lon="8.607984700585396"><ele>113.00000000000001</ele><time>2026-05-03T14:38:25Z</time></trkpt><trkpt lat="45.26656321353425" lon="8.608002344159885"><ele>113.00000000000001</ele><time>2026-05-03T14:38:26Z</time></trkpt><trkpt lat="45.266464738388315" lon="8.608021806013696"><ele>113.0</ele><time>2026-05-03T14:38:27Z</time></trkpt><trkpt lat="45.26636931570525" lon="8.60804247318024"><ele>113.0</ele><time>2026-05-03T14:38:28Z</time></trkpt><trkpt lat="45.266279459996326" lon="8.608063318660955"><ele>113.0</ele><time>2026-05-03T14:38:29Z</time></trkpt><trkpt lat="45.26618218641592" lon="8.608085885040696"><ele>113.00000000000001</ele><time>2026-05-03T14:38:30Z</time></trkpt><trkpt lat="45.26608712716072" lon="8.608105510887682"><ele>113.00000000000001</ele><time>2026-05-03T14:38:31Z</time></trkpt><trkpt lat="45.26599160154453" lon="8.608122670616476"><ele>113.0</ele><time>2026-05-03T14:38:32Z</time></trkpt><trkpt lat="45.26589429085215" lon="8.60813638649492"><ele>113.0</ele><time>2026-05-03T14:38:33Z</time></trkpt><trkpt lat="45.265796041376575" lon="8.608147120532816"><ele>113.0</ele><time>2026-05-03T14:38:34Z</time></trkpt><trkpt lat="45.26569903946565" lon="8.60815405777766"><ele>113.00000000000001</ele><time>2026-05-03T14:38:35Z</time></trkpt><trkpt lat="45.26559748265317" lon="8.608154127621972"><ele>113.00000000000001</ele><time>2026-05-03T14:38:36Z</time></trkpt><trkpt lat="45.26549038058293" lon="8.608149576551074"><ele>113.0</ele><time>2026-05-03T14:38:37Z</time></trkpt><trkpt lat="45.26536996963314" lon="8.60813946876811"><ele>113.0</ele><time>2026-05-03T14:38:38Z</time></trkpt><trkpt lat="45.26526650895664" lon="8.608128995853821"><ele>113.2</ele><time>2026-05-03T14:38:39Z</time></trkpt><trkpt lat="45.26516475808504" lon="8.608118696022778"><ele>113.4</ele><time>2026-05-03T14:38:40Z</time></trkpt><trkpt lat="45.26505909686689" lon="8.608109174388133"><ele>113.60000000000001</ele><time>2026-05-03T14:38:41Z</time></trkpt><trkpt lat="45.26495541297664" lon="8.608100372033316"><ele>113.80000000000001</ele><time>2026-05-03T14:38:42Z</time></trkpt><trkpt lat="45.26484988376847" lon="8.608091413011815"><ele>114.0</ele><time>2026-05-03T14:38:43Z</time></trkpt><trkpt lat="45.26474420778418" lon="8.608082441531726"><ele>114.0</ele><time>2026-05-03T14:38:44Z</time></trkpt><trkpt lat="45.26463975707608" lon="8.608078697513434"><ele>114.0</ele><time>2026-05-03T14:38:45Z</time></trkpt><trkpt lat="45.264547380248885" lon="8.60807577351568"><ele>114.0</ele><time>2026-05-03T14:38:46Z</time></trkpt><trkpt lat="45.26446514576605" lon="8.608072829770405"><ele>114.0</ele><time>2026-05-03T14:38:47Z</time></trkpt><trkpt lat="45.26438157535457" lon="8.608068255285877"><ele>114.0</ele><time>2026-05-03T14:38:48Z</time></trkpt><trkpt lat="45.264289883046466" lon="8.608063102455365"><ele>114.0</ele><time>2026-05-03T14:38:49Z</time></trkpt><trkpt lat="45.26419538196431" lon="8.608057306904294"><ele>114.0</ele><time>2026-05-03T14:38:50Z</time></trkpt><trkpt lat="45.26409282446905" lon="8.608051702141061"><ele>114.0</ele><time>2026-05-03T14:38:51Z</time></trkpt><trkpt lat="45.26399158625878" lon="8.608048978695193"><ele>114.0</ele><time>2026-05-03T14:38:52Z</time></trkpt><trkpt lat="45.26390030307024" lon="8.608046523052867"><ele>114.0</ele><time>2026-05-03T14:38:53Z</time></trkpt><trkpt lat="45.26380437220937" lon="8.6080437382499"><ele>113.80000000000001</ele><time>2026-05-03T14:38:54Z</time></trkpt><trkpt lat="45.26370190734252" lon="8.60803808094917"><ele>113.60000000000001</ele><time>2026-05-03T14:38:55Z</time></trkpt><trkpt lat="45.26360012707094" lon="8.608032461430039"><ele>113.4</ele><time>2026-05-03T14:38:56Z</time></trkpt><trkpt lat="45.263494364279694" lon="8.608032201516908"><ele>113.2</ele><time>2026-05-03T14:38:57Z</time></trkpt><trkpt lat="45.263392571232934" lon="8.608044027818195"><ele>113.0</ele><time>2026-05-03T14:38:58Z</time></trkpt><trkpt lat="45.26328787617937" lon="8.608073374809655"><ele>113.0</ele><time>2026-05-03T14:38:59Z</time></trkpt><trkpt lat="45.2631875765103" lon="8.608128855363017"><ele>113.0</ele><time>2026-05-03T14:39:00Z</time></trkpt><trkpt lat="45.26307689706629" lon="8.608170309524285"><ele>113.0</ele><time>2026-05-03T14:39:01Z</time></trkpt><trkpt lat="45.262960155827365" lon="8.608219331086788"><ele>113.0</ele><time>2026-05-03T14:39:02Z</time></trkpt><trkpt lat="45.26284037926936" lon="8.608265764171895"><ele>113.0</ele><time>2026-05-03T14:39:03Z</time></trkpt><trkpt lat="45.262722478754014" lon="8.608315105073277"><ele>113.0</ele><time>2026-05-03T14:39:04Z</time></trkpt><trkpt lat="45.26259767600729" lon="8.608370152662419"><ele>113.0</ele><time>2026-05-03T14:39:05Z</time></trkpt><trkpt lat="45.26247255285829" lon="8.608427691796395"><ele>113.0</ele><time>2026-05-03T14:39:06Z</time></trkpt><trkpt lat="45.262357099950506" lon="8.608483375580787"><ele>113.0</ele><time>2026-05-03T14:39:07Z</time></trkpt><trkpt lat="45.2622561772979" lon="8.608530451484638"><ele>113.00000000000001</ele><time>2026-05-03T14:39:08Z</time></trkpt><trkpt lat="45.26214624726347" lon="8.608583385147142"><ele>113.00000000000001</ele><time>2026-05-03T14:39:09Z</time></trkpt><trkpt lat="45.26204161362594" lon="8.60863504926832"><ele>113.0</ele><time>2026-05-03T14:39:10Z</time></trkpt><trkpt lat="45.26195004166529" lon="8.608677324081487"><ele>113.0</ele><time>2026-05-03T14:39:11Z</time></trkpt><trkpt lat="45.261857511479455" lon="8.608718379503747"><ele>113.0</ele><time>2026-05-03T14:39:12Z</time></trkpt><trkpt lat="45.26175360583024" lon="8.608761860429382"><ele>113.00000000000001</ele><time>2026-05-03T14:39:13Z</time></trkpt><trkpt lat="45.26165785758948" lon="8.608800842668145"><ele>113.00000000000001</ele><time>2026-05-03T14:39:14Z</time></trkpt><trkpt lat="45.26155637468895" lon="8.608838888070796"><ele>113.0</ele><time>2026-05-03T14:39:15Z</time></trkpt><trkpt lat="45.261452888914015" lon="8.608873068834724"><ele>113.0</ele><time>2026-05-03T14:39:16Z</time></trkpt><trkpt lat="45.26135236122161" lon="8.608894123048717"><ele>113.0</ele><time>2026-05-03T14:39:17Z</time></trkpt><trkpt lat="45.261248261381965" lon="8.608909707902601"><ele>113.00000000000001</ele><time>2026-05-03T14:39:18Z</time></trkpt><trkpt lat="45.2611489610266" lon="8.608917186693999"><ele>113.00000000000001</ele><time>2026-05-03T14:39:19Z</time></trkpt><trkpt lat="45.261044773370024" lon="8.60892134260041"><ele>113.0</ele><time>2026-05-03T14:39:20Z</time></trkpt><trkpt lat="45.260942570085824" lon="8.608926649741798"><ele>113.0</ele><time>2026-05-03T14:39:21Z</time></trkpt><trkpt lat="45.260851636311756" lon="8.608930980363821"><ele>112.99999999999999</ele><time>2026-05-03T14:39:22Z</time></trkpt><trkpt lat="45.26076773378282" lon="8.608933398014635"><ele>113.0</ele><time>2026-05-03T14:39:23Z</time></trkpt><trkpt lat="45.260695120320335" lon="8.608938396006574"><ele>113.0</ele><time>2026-05-03T14:39:24Z</time></trkpt><trkpt lat="45.26058990085878" lon="8.608943265488032"><ele>113.0</ele><time>2026-05-03T14:39:26Z</time></trkpt><trkpt lat="45.26051168549943" lon="8.608946878615406"><ele>112.99999999999999</ele><time>2026-05-03T14:39:29Z</time></trkpt><trkpt lat="45.260420254354656" lon="8.608954068589606"><ele>113.0</ele><time>2026-05-03T14:39:32Z</time></trkpt><trkpt lat="45.26034769367756" lon="8.608959717027599"><ele>113.16666666666666</ele><time>2026-05-03T14:39:33Z</time></trkpt><trkpt lat="45.26026172897185" lon="8.6089657989927"><ele>113.33333333333333</ele><time>2026-05-03T14:39:34Z</time></trkpt><trkpt lat="45.26017442883642" lon="8.60895328480699"><ele>113.5</ele><time>2026-05-03T14:39:35Z</time></trkpt><trkpt lat="45.260105450652574" lon="8.608975986820184"><ele>113.66666666666666</ele><time>2026-05-03T14:39:36Z</time></trkpt><trkpt lat="45.2600214359535" lon="8.608984610218306"><ele>113.83333333333333</ele><time>2026-05-03T14:39:37Z</time></trkpt><trkpt lat="45.25993968151157" lon="8.608983469105707"><ele>114.0</ele><time>2026-05-03T14:39:38Z</time></trkpt><trkpt lat="45.259872570590225" lon="8.608993055657027"><ele>113.83333333333333</ele><time>2026-05-03T14:39:39Z</time></trkpt><trkpt lat="45.25975775578703" lon="8.60900461610731"><ele>113.66666666666666</ele><time>2026-05-03T14:39:41Z</time></trkpt><trkpt lat="45.259665077869364" lon="8.609008470298921"><ele>113.5</ele><time>2026-05-03T14:39:43Z</time></trkpt><trkpt lat="45.259584813336744" lon="8.608995129590946"><ele>113.33333333333333</ele><time>2026-05-03T14:39:46Z</time></trkpt><trkpt lat="45.25950550173205" lon="8.608982120059522"><ele>113.16666666666666</ele><time>2026-05-03T14:40:16Z</time></trkpt><trkpt lat="45.25943656669361" lon="8.608994362363257"><ele>113.0</ele><time>2026-05-03T14:40:18Z</time></trkpt><trkpt lat="45.25934623706929" lon="8.609015297479495"><ele>113.0</ele><time>2026-05-03T14:40:20Z</time></trkpt><trkpt lat="45.25922740070957" lon="8.609052618360892"><ele>113.00000000000001</ele><time>2026-05-03T14:40:22Z</time></trkpt><trkpt lat="45.25914225600671" lon="8.60907448636193"><ele>113.00000000000001</ele><time>2026-05-03T14:40:23Z</time></trkpt><trkpt lat="45.25906287934668" lon="8.609093811804698"><ele>113.0</ele><time>2026-05-03T14:40:24Z</time></trkpt><trkpt lat="45.25897280916627" lon="8.609117557300161"><ele>113.0</ele><time>2026-05-03T14:40:25Z</time></trkpt><trkpt lat="45.25887035552369" lon="8.609121341789024"><ele>112.75</ele><time>2026-05-03T14:40:26Z</time></trkpt><trkpt lat="45.258764281257626" lon="8.60917282302278"><ele>112.5</ele><time>2026-05-03T14:40:27Z</time></trkpt><trkpt lat="45.25864264544443" lon="8.60919613620335"><ele>112.25</ele><time>2026-05-03T14:40:28Z</time></trkpt><trkpt lat="45.25853265967065" lon="8.609221655081331"><ele>112.0</ele><time>2026-05-03T14:40:29Z</time></trkpt><trkpt lat="45.25842034204412" lon="8.60924663648384"><ele>112.0</ele><time>2026-05-03T14:40:30Z</time></trkpt><trkpt lat="45.25830382479598" lon="8.609265398708873"><ele>111.99999999999999</ele><time>2026-05-03T14:40:31Z</time></trkpt><trkpt lat="45.25818475052224" lon="8.609278094425926"><ele>111.99999999999999</ele><time>2026-05-03T14:40:32Z</time></trkpt><trkpt lat="45.25807039002031" lon="8.609273273803668"><ele>112.0</ele><time>2026-05-03T14:40:33Z</time></trkpt><trkpt lat="45.25797328337914" lon="8.609258975663845"><ele>112.0</ele><time>2026-05-03T14:40:34Z</time></trkpt><trkpt lat="45.25788821997141" lon="8.609251881071922"><ele>112.00000000000001</ele><time>2026-05-03T14:40:35Z</time></trkpt><trkpt lat="45.25780856160707" lon="8.609243263867134"><ele>112.0</ele><time>2026-05-03T14:40:36Z</time></trkpt><trkpt lat="45.257729317024975" lon="8.609250333428694"><ele>112.0</ele><time>2026-05-03T14:40:37Z</time></trkpt><trkpt lat="45.25764678215016" lon="8.609223958396909"><ele>112.0</ele><time>2026-05-03T14:40:38Z</time></trkpt><trkpt lat="45.257559048171096" lon="8.609180701373818"><ele>112.00000000000001</ele><time>2026-05-03T14:40:39Z</time></trkpt><trkpt lat="45.257467273975244" lon="8.609108385263468"><ele>112.0</ele><time>2026-05-03T14:40:40Z</time></trkpt><trkpt lat="45.25737795681353" lon="8.609001048702806"><ele>112.5</ele><time>2026-05-03T14:40:41Z</time></trkpt><trkpt lat="45.25727332090086" lon="8.608934514812008"><ele>113.0</ele><time>2026-05-03T14:40:42Z</time></trkpt><trkpt lat="45.2571948100531" lon="8.608848804728034"><ele>113.5</ele><time>2026-05-03T14:40:43Z</time></trkpt><trkpt lat="45.25707771014654" lon="8.608739026309003"><ele>114.0</ele><time>2026-05-03T14:40:44Z</time></trkpt><trkpt lat="45.256968530788534" lon="8.608652808641098"><ele>114.16666666666667</ele><time>2026-05-03T14:40:45Z</time></trkpt><trkpt lat="45.25687413395864" lon="8.608570634181795"><ele>114.33333333333334</ele><time>2026-05-03T14:40:46Z</time></trkpt><trkpt lat="45.256789949422206" lon="8.608497071371291"><ele>114.5</ele><time>2026-05-03T14:40:47Z</time></trkpt><trkpt lat="45.25671621875051" lon="8.60842920791433"><ele>114.66666666666667</ele><time>2026-05-03T14:40:48Z</time></trkpt><trkpt lat="45.25665199780333" lon="8.608364878346736"><ele>114.83333333333334</ele><time>2026-05-03T14:40:49Z</time></trkpt><trkpt lat="45.256592894430995" lon="8.60831553880477"><ele>115.0</ele><time>2026-05-03T14:40:50Z</time></trkpt><trkpt lat="45.256540139755074" lon="8.608263744679991"><ele>114.8</ele><time>2026-05-03T14:40:51Z</time></trkpt><trkpt lat="45.25642366596705" lon="8.608195222246431"><ele>114.6</ele><time>2026-05-03T14:40:53Z</time></trkpt><trkpt lat="45.2563462005493" lon="8.608191135787596"><ele>114.4</ele><time>2026-05-03T14:40:54Z</time></trkpt><trkpt lat="45.25626241721215" lon="8.608256941755709"><ele>114.2</ele><time>2026-05-03T14:40:55Z</time></trkpt><trkpt lat="45.2561703275725" lon="8.608302307734201"><ele>114.0</ele><time>2026-05-03T14:40:56Z</time></trkpt><trkpt lat="45.25609664602377" lon="8.608358621791576"><ele>114.0</ele><time>2026-05-03T14:40:57Z</time></trkpt><trkpt lat="45.25603720799388" lon="8.608429576199535"><ele>114.0</ele><time>2026-05-03T14:40:58Z</time></trkpt><trkpt lat="45.25595441865538" lon="8.608507318399115"><ele>114.0</ele><time>2026-05-03T14:41:02Z</time></trkpt><trkpt lat="45.25596180772688" lon="8.608678872120668"><ele>114.0</ele><time>2026-05-03T14:41:03Z</time></trkpt><trkpt lat="45.25594643613429" lon="8.608853170632946"><ele>114.0</ele><time>2026-05-03T14:41:05Z</time></trkpt><trkpt lat="45.25590148890153" lon="8.608977837290565"><ele>114.0</ele><time>2026-05-03T14:41:06Z</time></trkpt><trkpt lat="45.25585179089173" lon="8.609094578184258"><ele>114.0</ele><time>2026-05-03T14:41:07Z</time></trkpt><trkpt lat="45.25578369405582" lon="8.609195833070508"><ele>114.0</ele><time>2026-05-03T14:41:08Z</time></trkpt><trkpt lat="45.25567948010904" lon="8.609225554621068"><ele>114.0</ele><time>2026-05-03T14:41:09Z</time></trkpt><trkpt lat="45.255580963423576" lon="8.609289496386408"><ele>114.0</ele><time>2026-05-03T14:41:10Z</time></trkpt><trkpt lat="45.255480503414425" lon="8.609330514798216"><ele>113.80000000000001</ele><time>2026-05-03T14:41:11Z</time></trkpt><trkpt lat="45.25537973062821" lon="8.609372939138618"><ele>113.60000000000001</ele><time>2026-05-03T14:41:12Z</time></trkpt><trkpt lat="45.25528165459606" lon="8.609417028351364"><ele>113.4</ele><time>2026-05-03T14:41:13Z</time></trkpt><trkpt lat="45.255179961037136" lon="8.60944140670295"><ele>113.2</ele><time>2026-05-03T14:41:14Z</time></trkpt><trkpt lat="45.25507498298326" lon="8.609489823648596"><ele>113.0</ele><time>2026-05-03T14:41:15Z</time></trkpt><trkpt lat="45.25496875506477" lon="8.609539666781302"><ele>113.16666666666666</ele><time>2026-05-03T14:41:16Z</time></trkpt><trkpt lat="45.25486857186571" lon="8.609589303845086"><ele>113.33333333333333</ele><time>2026-05-03T14:41:17Z</time></trkpt><trkpt lat="45.254782287845444" lon="8.609657167725802"><ele>113.5</ele><time>2026-05-03T14:41:18Z</time></trkpt><trkpt lat="45.25469923409501" lon="8.609686700847963"><ele>113.66666666666666</ele><time>2026-05-03T14:41:19Z</time></trkpt><trkpt lat="45.254636844254684" lon="8.609702597274277"><ele>113.83333333333333</ele><time>2026-05-03T14:41:20Z</time></trkpt><trkpt lat="45.254569809241445" lon="8.609738559526866"><ele>114.0</ele><time>2026-05-03T14:41:21Z</time></trkpt><trkpt lat="45.254505562768706" lon="8.609778017113634"><ele>114.0</ele><time>2026-05-03T14:41:22Z</time></trkpt><trkpt lat="45.254463523320084" lon="8.609859701576381"><ele>114.0</ele><time>2026-05-03T14:41:23Z</time></trkpt><trkpt lat="45.254443366922" lon="8.609989674943838"><ele>114.0</ele><time>2026-05-03T14:41:25Z</time></trkpt><trkpt lat="45.2544897515782" lon="8.610150880800616"><ele>114.0</ele><time>2026-05-03T14:41:27Z</time></trkpt><trkpt lat="45.25453848051915" lon="8.610267045852835"><ele>114.0</ele><time>2026-05-03T14:41:28Z</time></trkpt><trkpt lat="45.25460086843158" lon="8.610439963851212"><ele>114.2</ele><time>2026-05-03T14:41:29Z</time></trkpt><trkpt lat="45.25465110352551" lon="8.61062336136769"><ele>114.4</ele><time>2026-05-03T14:41:30Z</time></trkpt><trkpt lat="45.254693960003166" lon="8.610769488676866"><ele>114.6</ele><time>2026-05-03T14:41:31Z</time></trkpt><trkpt lat="45.25473433744335" lon="8.610895266807962"><ele>114.8</ele><time>2026-05-03T14:41:32Z</time></trkpt><trkpt lat="45.25477104530104" lon="8.611007618763015"><ele>115.0</ele><time>2026-05-03T14:41:33Z</time></trkpt><trkpt lat="45.25480423678653" lon="8.611109009682556"><ele>114.8</ele><time>2026-05-03T14:41:34Z</time></trkpt><trkpt lat="45.25483653730018" lon="8.61120067111465"><ele>114.6</ele><time>2026-05-03T14:41:35Z</time></trkpt><trkpt lat="45.25488196308009" lon="8.611304782118625"><ele>114.4</ele><time>2026-05-03T14:41:36Z</time></trkpt><trkpt lat="45.25492001086485" lon="8.611438776388923"><ele>114.2</ele><time>2026-05-03T14:41:37Z</time></trkpt><trkpt lat="45.25497739190048" lon="8.611569895291408"><ele>114.0</ele><time>2026-05-03T14:41:38Z</time></trkpt><trkpt lat="45.2550375562506" lon="8.611709245559629"><ele>114.0</ele><time>2026-05-03T14:41:39Z</time></trkpt><trkpt lat="45.25509942521717" lon="8.611857190107587"><ele>114.0</ele><time>2026-05-03T14:41:40Z</time></trkpt><trkpt lat="45.25515897454966" lon="8.611999587759325"><ele>114.0</ele><time>2026-05-03T14:41:41Z</time></trkpt><trkpt lat="45.25522138025393" lon="8.612110173001174"><ele>114.0</ele><time>2026-05-03T14:41:42Z</time></trkpt><trkpt lat="45.25526473262604" lon="8.612233178177572"><ele>114.0</ele><time>2026-05-03T14:41:43Z</time></trkpt><trkpt lat="45.25529785727539" lon="8.612343624182007"><ele>114.16666666666667</ele><time>2026-05-03T14:41:44Z</time></trkpt><trkpt lat="45.25532141649366" lon="8.612445430124643"><ele>114.33333333333334</ele><time>2026-05-03T14:41:45Z</time></trkpt><trkpt lat="45.25533028003706" lon="8.612547150514732"><ele>114.5</ele><time>2026-05-03T14:41:46Z</time></trkpt><trkpt lat="45.255309875224526" lon="8.61263832125803"><ele>114.66666666666667</ele><time>2026-05-03T14:41:47Z</time></trkpt><trkpt lat="45.25529181974856" lon="8.612795381814207"><ele>114.83333333333334</ele><time>2026-05-03T14:41:49Z</time></trkpt><trkpt lat="45.25521043444929" lon="8.612850298503178"><ele>115.0</ele><time>2026-05-03T14:41:50Z</time></trkpt><trkpt lat="45.25512541337866" lon="8.612897068242585"><ele>115.0</ele><time>2026-05-03T14:41:51Z</time></trkpt><trkpt lat="45.25502402589586" lon="8.612958491932611"><ele>115.0</ele><time>2026-05-03T14:41:52Z</time></trkpt><trkpt lat="45.254922548774495" lon="8.613029886365535"><ele>115.0</ele><time>2026-05-03T14:41:53Z</time></trkpt><trkpt lat="45.25483028097067" lon="8.613098135477543"><ele>115.0</ele><time>2026-05-03T14:41:54Z</time></trkpt><trkpt lat="45.25473412209557" lon="8.613168884789362"><ele>115.0</ele><time>2026-05-03T14:41:55Z</time></trkpt><trkpt lat="45.254635701911965" lon="8.613239358034294"><ele>115.0</ele><time>2026-05-03T14:41:56Z</time></trkpt><trkpt lat="45.25454067438521" lon="8.61330767141787"><ele>115.0</ele><time>2026-05-03T14:41:57Z</time></trkpt><trkpt lat="45.25443942554455" lon="8.613359725477205"><ele>115.0</ele><time>2026-05-03T14:41:58Z</time></trkpt><trkpt lat="45.2543480777527" lon="8.61342222208208"><ele>115.0</ele><time>2026-05-03T14:41:59Z</time></trkpt><trkpt lat="45.25426230259795" lon="8.61348050687313"><ele>115.0</ele><time>2026-05-03T14:42:00Z</time></trkpt><trkpt lat="45.254174191978755" lon="8.613539076038792"><ele>115.0</ele><time>2026-05-03T14:42:01Z</time></trkpt><trkpt lat="45.25409364640982" lon="8.61359261652815"><ele>115.0</ele><time>2026-05-03T14:42:02Z</time></trkpt><trkpt lat="45.25401322295315" lon="8.613644711645588"><ele>115.0</ele><time>2026-05-03T14:42:03Z</time></trkpt><trkpt lat="45.25393534934786" lon="8.61371119227401"><ele>115.0</ele><time>2026-05-03T14:42:04Z</time></trkpt><trkpt lat="45.25384525016973" lon="8.613763648442022"><ele>115.0</ele><time>2026-05-03T14:42:05Z</time></trkpt><trkpt lat="45.253744219068" lon="8.613825886676933"><ele>115.0</ele><time>2026-05-03T14:42:06Z</time></trkpt><trkpt lat="45.25363761487327" lon="8.613888122783866"><ele>115.0</ele><time>2026-05-03T14:42:07Z</time></trkpt><trkpt lat="45.253524838474206" lon="8.613953159889348"><ele>115.0</ele><time>2026-05-03T14:42:08Z</time></trkpt><trkpt lat="45.25340651918939" lon="8.614015923571792"><ele>115.0</ele><time>2026-05-03T14:42:09Z</time></trkpt><trkpt lat="45.253289965994746" lon="8.614078171739362"><ele>115.0</ele><time>2026-05-03T14:42:10Z</time></trkpt><trkpt lat="45.25317054152569" lon="8.61413868523889"><ele>115.0</ele><time>2026-05-03T14:42:11Z</time></trkpt><trkpt lat="45.253052773768964" lon="8.614202596890436"><ele>115.0</ele><time>2026-05-03T14:42:12Z</time></trkpt><trkpt lat="45.25293682332076" lon="8.614271507663648"><ele>115.0</ele><time>2026-05-03T14:42:13Z</time></trkpt><trkpt lat="45.25282569188043" lon="8.614338194271959"><ele>114.8</ele><time>2026-05-03T14:42:14Z</time></trkpt><trkpt lat="45.25272301639818" lon="8.61439930559508"><ele>114.6</ele><time>2026-05-03T14:42:15Z</time></trkpt><trkpt lat="45.252629862495105" lon="8.614459385833667"><ele>114.4</ele><time>2026-05-03T14:42:16Z</time></trkpt><trkpt lat="45.25254626493518" lon="8.61452026786403"><ele>114.2</ele><time>2026-05-03T14:42:17Z</time></trkpt><trkpt lat="45.25246403944683" lon="8.6145701170572"><ele>114.0</ele><time>2026-05-03T14:42:18Z</time></trkpt><trkpt lat="45.25238003000691" lon="8.614614960614704"><ele>113.80000000000001</ele><time>2026-05-03T14:42:19Z</time></trkpt><trkpt lat="45.25229333639931" lon="8.614669624942945"><ele>113.60000000000001</ele><time>2026-05-03T14:42:20Z</time></trkpt><trkpt lat="45.25221126415564" lon="8.614744464932787"><ele>113.4</ele><time>2026-05-03T14:42:21Z</time></trkpt><trkpt lat="45.252137638694236" lon="8.61483267084732"><ele>113.2</ele><time>2026-05-03T14:42:22Z</time></trkpt><trkpt lat="45.252047139127505" lon="8.614893515957585"><ele>113.0</ele><time>2026-05-03T14:42:23Z</time></trkpt><trkpt lat="45.25198625621902" lon="8.615042746499523"><ele>113.0</ele><time>2026-05-03T14:42:24Z</time></trkpt><trkpt lat="45.25194006695072" lon="8.615179931982974"><ele>113.0</ele><time>2026-05-03T14:42:25Z</time></trkpt><trkpt lat="45.251879658372964" lon="8.61530652496836"><ele>113.0</ele><time>2026-05-03T14:42:26Z</time></trkpt><trkpt lat="45.2518065782559" lon="8.615446394837683"><ele>113.0</ele><time>2026-05-03T14:42:27Z</time></trkpt><trkpt lat="45.25172596548438" lon="8.615592949606"><ele>112.60000000000001</ele><time>2026-05-03T14:42:28Z</time></trkpt><trkpt lat="45.25164481334367" lon="8.615746128736784"><ele>112.20000000000002</ele><time>2026-05-03T14:42:29Z</time></trkpt><trkpt lat="45.25156938974226" lon="8.615889798140604"><ele>111.8</ele><time>2026-05-03T14:42:30Z</time></trkpt><trkpt lat="45.251506489801045" lon="8.616005891564743"><ele>111.4</ele><time>2026-05-03T14:42:31Z</time></trkpt><trkpt lat="45.25145820999842" lon="8.616087591880083"><ele>111.0</ele><time>2026-05-03T14:42:32Z</time></trkpt><trkpt lat="45.251415989516666" lon="8.616156725410024"><ele>111.0</ele><time>2026-05-03T14:42:33Z</time></trkpt><trkpt lat="45.251319418788334" lon="8.616253895621487"><ele>111.0</ele><time>2026-05-03T14:42:35Z</time></trkpt><trkpt lat="45.251240843494365" lon="8.616372151629928"><ele>111.0</ele><time>2026-05-03T14:42:37Z</time></trkpt><trkpt lat="45.25110971082177" lon="8.616300123397666"><ele>111.0</ele><time>2026-05-03T14:42:38Z</time></trkpt><trkpt lat="45.25103996050052" lon="8.616329814807962"><ele>111.0</ele><time>2026-05-03T14:42:39Z</time></trkpt><trkpt lat="45.25097174582751" lon="8.616358852524556"><ele>111.0</ele><time>2026-05-03T14:42:40Z</time></trkpt><trkpt lat="45.250901737615195" lon="8.616411926632777"><ele>111.0</ele><time>2026-05-03T14:42:41Z</time></trkpt><trkpt lat="45.25082992211351" lon="8.61643922284011"><ele>111.0</ele><time>2026-05-03T14:42:42Z</time></trkpt><trkpt lat="45.25075718648878" lon="8.616470085636234"><ele>111.0</ele><time>2026-05-03T14:42:43Z</time></trkpt><trkpt lat="45.250684489200296" lon="8.616501344064114"><ele>111.0</ele><time>2026-05-03T14:42:44Z</time></trkpt><trkpt lat="45.25061072930095" lon="8.616535257464841"><ele>111.0</ele><time>2026-05-03T14:42:45Z</time></trkpt><trkpt lat="45.25053654587117" lon="8.616553785442425"><ele>111.0</ele><time>2026-05-03T14:42:46Z</time></trkpt><trkpt lat="45.25046858530007" lon="8.616589932993286"><ele>111.0</ele><time>2026-05-03T14:42:47Z</time></trkpt><trkpt lat="45.25041474954661" lon="8.61664290897381"><ele>111.0</ele><time>2026-05-03T14:42:48Z</time></trkpt><trkpt lat="45.250348995492296" lon="8.616672582658605"><ele>111.0</ele><time>2026-05-03T14:42:49Z</time></trkpt><trkpt lat="45.2502864734821" lon="8.616713696195426"><ele>111.0</ele><time>2026-05-03T14:42:50Z</time></trkpt><trkpt lat="45.25022374855554" lon="8.61676854607033"><ele>111.0</ele><time>2026-05-03T14:42:51Z</time></trkpt><trkpt lat="45.2501599986562" lon="8.616815269803665"><ele>111.0</ele><time>2026-05-03T14:42:52Z</time></trkpt><trkpt lat="45.25009786182633" lon="8.616867332602956"><ele>111.0</ele><time>2026-05-03T14:42:53Z</time></trkpt><trkpt lat="45.25003894793783" lon="8.616917261944977"><ele>111.0</ele><time>2026-05-03T14:42:54Z</time></trkpt><trkpt lat="45.24997658169321" lon="8.616971073721897"><ele>111.0</ele><time>2026-05-03T14:42:55Z</time></trkpt><trkpt lat="45.249919136994876" lon="8.617026040065893"><ele>111.0</ele><time>2026-05-03T14:42:56Z</time></trkpt><trkpt lat="45.2498571380557" lon="8.617082362317177"><ele>111.0</ele><time>2026-05-03T14:42:57Z</time></trkpt><trkpt lat="45.24979607630099" lon="8.617136201380928"><ele>111.0</ele><time>2026-05-03T14:42:58Z</time></trkpt><trkpt lat="45.249743015318515" lon="8.617205119214061"><ele>111.0</ele><time>2026-05-03T14:42:59Z</time></trkpt><trkpt lat="45.24968469912155" lon="8.617272899541069"><ele>111.0</ele><time>2026-05-03T14:43:00Z</time></trkpt><trkpt lat="45.249629606672045" lon="8.617344239908684"><ele>111.0</ele><time>2026-05-03T14:43:01Z</time></trkpt><trkpt lat="45.249569800539255" lon="8.617416645777677"><ele>111.0</ele><time>2026-05-03T14:43:02Z</time></trkpt><trkpt lat="45.24951251527508" lon="8.617492649020367"><ele>111.0</ele><time>2026-05-03T14:43:03Z</time></trkpt><trkpt lat="45.24945603731071" lon="8.61756951247684"><ele>111.0</ele><time>2026-05-03T14:43:04Z</time></trkpt><trkpt lat="45.24939420187615" lon="8.617653337304876"><ele>111.0</ele><time>2026-05-03T14:43:05Z</time></trkpt><trkpt lat="45.24933567224259" lon="8.617727779932997"><ele>111.0</ele><time>2026-05-03T14:43:06Z</time></trkpt><trkpt lat="45.249281636138505" lon="8.617800967907117"><ele>111.0</ele><time>2026-05-03T14:43:07Z</time></trkpt><trkpt lat="45.249232366419434" lon="8.617870224883816"><ele>111.0</ele><time>2026-05-03T14:43:08Z</time></trkpt><trkpt lat="45.24917889281459" lon="8.617936063969156"><ele>111.0</ele><time>2026-05-03T14:43:09Z</time></trkpt><trkpt lat="45.249124703250324" lon="8.617992267957382"><ele>111.0</ele><time>2026-05-03T14:43:10Z</time></trkpt><trkpt lat="45.24903138213086" lon="8.618117106847262"><ele>111.0</ele><time>2026-05-03T14:43:12Z</time></trkpt><trkpt lat="45.24897897817927" lon="8.618185552206514"><ele>111.0</ele><time>2026-05-03T14:43:13Z</time></trkpt><trkpt lat="45.248926454303366" lon="8.618252117850622"><ele>111.0</ele><time>2026-05-03T14:43:14Z</time></trkpt><trkpt lat="45.24886898428938" lon="8.618320154809831"><ele>111.0</ele><time>2026-05-03T14:43:15Z</time></trkpt><trkpt lat="45.24881672101297" lon="8.618391633162915"><ele>111.0</ele><time>2026-05-03T14:43:16Z</time></trkpt><trkpt lat="45.24876051060529" lon="8.618466936128646"><ele>111.0</ele><time>2026-05-03T14:43:17Z</time></trkpt><trkpt lat="45.24870785852002" lon="8.618531866492447"><ele>111.0</ele><time>2026-05-03T14:43:18Z</time></trkpt><trkpt lat="45.2486551448452" lon="8.618598975105172"><ele>111.0</ele><time>2026-05-03T14:43:19Z</time></trkpt><trkpt lat="45.248598834973734" lon="8.618669468836453"><ele>111.0</ele><time>2026-05-03T14:43:20Z</time></trkpt><trkpt lat="45.24853766794333" lon="8.61873722142098"><ele>111.0</ele><time>2026-05-03T14:43:21Z</time></trkpt><trkpt lat="45.24847651704515" lon="8.618793874873809"><ele>111.0</ele><time>2026-05-03T14:43:22Z</time></trkpt><trkpt lat="45.24841038882046" lon="8.618827968301067"><ele>111.0</ele><time>2026-05-03T14:43:23Z</time></trkpt><trkpt lat="45.248354232540315" lon="8.618901939256167"><ele>111.0</ele><time>2026-05-03T14:43:24Z</time></trkpt><trkpt lat="45.248288466953134" lon="8.618948843350966"><ele>111.0</ele><time>2026-05-03T14:43:25Z</time></trkpt><trkpt lat="45.248223332993696" lon="8.619001091568924"><ele>111.0</ele><time>2026-05-03T14:43:26Z</time></trkpt><trkpt lat="45.24815591693866" lon="8.619049673331407"><ele>111.0</ele><time>2026-05-03T14:43:27Z</time></trkpt><trkpt lat="45.24808848587393" lon="8.619104655024701"><ele>111.0</ele><time>2026-05-03T14:43:28Z</time></trkpt><trkpt lat="45.2480107780258" lon="8.619171932543768"><ele>111.0</ele><time>2026-05-03T14:43:29Z</time></trkpt><trkpt lat="45.24792608701626" lon="8.619242627451891"><ele>111.0</ele><time>2026-05-03T14:43:30Z</time></trkpt><trkpt lat="45.24785328697805" lon="8.619297326949631"><ele>111.0</ele><time>2026-05-03T14:43:31Z</time></trkpt><trkpt lat="45.247786579128466" lon="8.619348663337664"><ele>111.0</ele><time>2026-05-03T14:43:32Z</time></trkpt><trkpt lat="45.247718703357414" lon="8.6193968245267"><ele>111.0</ele><time>2026-05-03T14:43:33Z</time></trkpt><trkpt lat="45.247644637561315" lon="8.619436082427782"><ele>111.0</ele><time>2026-05-03T14:43:34Z</time></trkpt><trkpt lat="45.24757519915903" lon="8.619476898978208"><ele>111.0</ele><time>2026-05-03T14:43:35Z</time></trkpt><trkpt lat="45.24750180028687" lon="8.61949568945631"><ele>111.0</ele><time>2026-05-03T14:43:36Z</time></trkpt><trkpt lat="45.24743985434058" lon="8.619552955852672"><ele>111.0</ele><time>2026-05-03T14:43:37Z</time></trkpt><trkpt lat="45.24736785414706" lon="8.619584653509529"><ele>111.0</ele><time>2026-05-03T14:43:38Z</time></trkpt><trkpt lat="45.24729518239292" lon="8.61959854261138"><ele>110.83333333333333</ele><time>2026-05-03T14:43:39Z</time></trkpt><trkpt lat="45.247218639718554" lon="8.619634131243489"><ele>110.66666666666666</ele><time>2026-05-03T14:43:40Z</time></trkpt><trkpt lat="45.247146540665476" lon="8.619667653809934"><ele>110.5</ele><time>2026-05-03T14:43:41Z</time></trkpt><trkpt lat="45.24706606086575" lon="8.61970467608497"><ele>110.33333333333333</ele><time>2026-05-03T14:43:42Z</time></trkpt><trkpt lat="45.246983900553516" lon="8.619740139383508"><ele>110.16666666666666</ele><time>2026-05-03T14:43:43Z</time></trkpt><trkpt lat="45.24690219989378" lon="8.619774147274304"><ele>110.0</ele><time>2026-05-03T14:43:44Z</time></trkpt><trkpt lat="45.246819401327045" lon="8.619806029480948"><ele>109.99999999999999</ele><time>2026-05-03T14:43:45Z</time></trkpt><trkpt lat="45.24673970939838" lon="8.619833679836201"><ele>110.0</ele><time>2026-05-03T14:43:46Z</time></trkpt><trkpt lat="45.24665892400965" lon="8.61986118887519"><ele>110.0</ele><time>2026-05-03T14:43:47Z</time></trkpt><trkpt lat="45.2465827060746" lon="8.619884686606989"><ele>110.0</ele><time>2026-05-03T14:43:48Z</time></trkpt><trkpt lat="45.24649798803538" lon="8.619910470357764"><ele>109.99999999999999</ele><time>2026-05-03T14:43:49Z</time></trkpt><trkpt lat="45.24641679394516" lon="8.619938666431807"><ele>110.0</ele><time>2026-05-03T14:43:50Z</time></trkpt><trkpt lat="45.24634395060665" lon="8.619964218332338"><ele>109.99999999999999</ele><time>2026-05-03T14:43:51Z</time></trkpt><trkpt lat="45.2462707721669" lon="8.619990582570152"><ele>110.0</ele><time>2026-05-03T14:43:52Z</time></trkpt><trkpt lat="45.24619803413815" lon="8.62001693615973"><ele>110.0</ele><time>2026-05-03T14:43:53Z</time></trkpt><trkpt lat="45.2461315418193" lon="8.620043855033416"><ele>110.0</ele><time>2026-05-03T14:43:54Z</time></trkpt><trkpt lat="45.24606971225666" lon="8.620092876014505"><ele>110.0</ele><time>2026-05-03T14:43:55Z</time></trkpt><trkpt lat="45.246006800303455" lon="8.620117084915194"><ele>109.99999999999999</ele><time>2026-05-03T14:43:56Z</time></trkpt><trkpt lat="45.245934427964826" lon="8.620154762017718"><ele>110.0</ele><time>2026-05-03T14:43:57Z</time></trkpt><trkpt lat="45.245863008230096" lon="8.620200057036444"><ele>109.99999999999999</ele><time>2026-05-03T14:43:58Z</time></trkpt><trkpt lat="45.24579146209119" lon="8.620242219612143"><ele>110.0</ele><time>2026-05-03T14:43:59Z</time></trkpt><trkpt lat="45.24571991026631" lon="8.620301869758848"><ele>110.0</ele><time>2026-05-03T14:44:00Z</time></trkpt><trkpt lat="45.24564650213797" lon="8.620361205861514"><ele>110.0</ele><time>2026-05-03T14:44:01Z</time></trkpt><trkpt lat="45.24556827700157" lon="8.620418848725611"><ele>109.99999999999999</ele><time>2026-05-03T14:44:02Z</time></trkpt><trkpt lat="45.2454998946405" lon="8.620485901303498"><ele>110.0</ele><time>2026-05-03T14:44:03Z</time></trkpt><trkpt lat="45.24542484562863" lon="8.620548471975448"><ele>109.99999999999999</ele><time>2026-05-03T14:44:04Z</time></trkpt><trkpt lat="45.245348766604344" lon="8.620612425543657"><ele>110.0</ele><time>2026-05-03T14:44:05Z</time></trkpt><trkpt lat="45.24527224746241" lon="8.620680308674842"><ele>110.0</ele><time>2026-05-03T14:44:06Z</time></trkpt><trkpt lat="45.24519590320902" lon="8.620735718741194"><ele>110.0</ele><time>2026-05-03T14:44:07Z</time></trkpt><trkpt lat="45.24511901458983" lon="8.620792830209334"><ele>109.99999999999999</ele><time>2026-05-03T14:44:08Z</time></trkpt><trkpt lat="45.24503890027908" lon="8.620841504563275"><ele>110.0</ele><time>2026-05-03T14:44:09Z</time></trkpt><trkpt lat="45.24496355610218" lon="8.62088923078397"><ele>109.99999999999999</ele><time>2026-05-03T14:44:10Z</time></trkpt><trkpt lat="45.244884279462134" lon="8.620932853642302"><ele>110.0</ele><time>2026-05-03T14:44:11Z</time></trkpt><trkpt lat="45.24480100304588" lon="8.620974451699784"><ele>110.0</ele><time>2026-05-03T14:44:12Z</time></trkpt><trkpt lat="45.244718780345494" lon="8.621013491880792"><ele>110.0</ele><time>2026-05-03T14:44:13Z</time></trkpt><trkpt lat="45.24464022675009" lon="8.621046313950155"><ele>109.99999999999999</ele><time>2026-05-03T14:44:14Z</time></trkpt><trkpt lat="45.244561753783685" lon="8.621069410511232"><ele>110.0</ele><time>2026-05-03T14:44:15Z</time></trkpt><trkpt lat="45.244479919108365" lon="8.62109663236752"><ele>109.83333333333333</ele><time>2026-05-03T14:44:16Z</time></trkpt><trkpt lat="45.244396264323974" lon="8.621118209678384"><ele>109.66666666666666</ele><time>2026-05-03T14:44:17Z</time></trkpt><trkpt lat="45.24431899033575" lon="8.621099825685707"><ele>109.5</ele><time>2026-05-03T14:44:18Z</time></trkpt><trkpt lat="45.24424832150065" lon="8.621124025696304"><ele>109.33333333333334</ele><time>2026-05-03T14:44:19Z</time></trkpt><trkpt lat="45.24416893312316" lon="8.621100373233894"><ele>109.16666666666667</ele><time>2026-05-03T14:44:20Z</time></trkpt><trkpt lat="45.24408626240997" lon="8.62111215597904"><ele>109.0</ele><time>2026-05-03T14:44:21Z</time></trkpt><trkpt lat="45.24399073519828" lon="8.621111235991966"><ele>109.16666666666667</ele><time>2026-05-03T14:44:22Z</time></trkpt><trkpt lat="45.243897210800164" lon="8.621107614368118"><ele>109.33333333333334</ele><time>2026-05-03T14:44:23Z</time></trkpt><trkpt lat="45.243821177236924" lon="8.621100713905047"><ele>109.5</ele><time>2026-05-03T14:44:24Z</time></trkpt><trkpt lat="45.243744032804784" lon="8.621097416423428"><ele>109.66666666666666</ele><time>2026-05-03T14:44:25Z</time></trkpt><trkpt lat="45.24367227385163" lon="8.62109151809915"><ele>109.83333333333333</ele><time>2026-05-03T14:44:26Z</time></trkpt><trkpt lat="45.24359722853055" lon="8.621084548474572"><ele>110.0</ele><time>2026-05-03T14:44:27Z</time></trkpt><trkpt lat="45.24352963270521" lon="8.621077473339366"><ele>109.99999999999999</ele><time>2026-05-03T14:44:28Z</time></trkpt><trkpt lat="45.24343196362227" lon="8.621068217063343"><ele>110.0</ele><time>2026-05-03T14:44:30Z</time></trkpt><trkpt lat="45.24335509723848" lon="8.621047415384677"><ele>110.0</ele><time>2026-05-03T14:44:32Z</time></trkpt><trkpt lat="45.243289884076205" lon="8.621035042312855"><ele>110.0</ele><time>2026-05-03T14:44:35Z</time></trkpt><trkpt lat="45.243207312507316" lon="8.621070047587336"><ele>109.99999999999999</ele><time>2026-05-03T14:45:04Z</time></trkpt><trkpt lat="45.24312959478563" lon="8.621107641302462"><ele>110.0</ele><time>2026-05-03T14:45:06Z</time></trkpt><trkpt lat="45.24302772237932" lon="8.621125094115026"><ele>110.28571428571428</ele><time>2026-05-03T14:45:08Z</time></trkpt><trkpt lat="45.24295834301168" lon="8.621149538827677"><ele>110.57142857142857</ele><time>2026-05-03T14:45:09Z</time></trkpt><trkpt lat="45.2428846750716" lon="8.621175494447087"><ele>110.85714285714286</ele><time>2026-05-03T14:45:10Z</time></trkpt><trkpt lat="45.242807178280685" lon="8.621202799151897"><ele>111.14285714285714</ele><time>2026-05-03T14:45:11Z</time></trkpt><trkpt lat="45.24274134609424" lon="8.621250093678501"><ele>111.42857142857143</ele><time>2026-05-03T14:45:12Z</time></trkpt><trkpt lat="45.24267286826808" lon="8.621267042992494"><ele>111.71428571428571</ele><time>2026-05-03T14:45:13Z</time></trkpt><trkpt lat="45.242597022197636" lon="8.62129527848252"><ele>112.0</ele><time>2026-05-03T14:45:14Z</time></trkpt><trkpt lat="45.242520772670105" lon="8.621315502268605"><ele>112.00000000000001</ele><time>2026-05-03T14:45:15Z</time></trkpt><trkpt lat="45.242443340508274" lon="8.62133392509261"><ele>112.0</ele><time>2026-05-03T14:45:16Z</time></trkpt><trkpt lat="45.24236552278702" lon="8.62135999708523"><ele>112.0</ele><time>2026-05-03T14:45:17Z</time></trkpt><trkpt lat="45.24229083302272" lon="8.621384368849643"><ele>112.0</ele><time>2026-05-03T14:45:18Z</time></trkpt><trkpt lat="45.2422139609007" lon="8.621410043700664"><ele>112.00000000000001</ele><time>2026-05-03T14:45:19Z</time></trkpt><trkpt lat="45.242147733921094" lon="8.621432876659496"><ele>112.0</ele><time>2026-05-03T14:45:20Z</time></trkpt><trkpt lat="45.2420783767009" lon="8.621455944826492"><ele>111.66666666666667</ele><time>2026-05-03T14:45:21Z</time></trkpt><trkpt lat="45.24200702287095" lon="8.621481245130006"><ele>111.33333333333334</ele><time>2026-05-03T14:45:22Z</time></trkpt><trkpt lat="45.24193310884974" lon="8.62150517430509"><ele>111.0</ele><time>2026-05-03T14:45:23Z</time></trkpt><trkpt lat="45.24185953898648" lon="8.621532325073218"><ele>110.66666666666666</ele><time>2026-05-03T14:45:24Z</time></trkpt><trkpt lat="45.24178386004069" lon="8.62155875242617"><ele>110.33333333333333</ele><time>2026-05-03T14:45:25Z</time></trkpt><trkpt lat="45.24170587760791" lon="8.621582854947963"><ele>110.0</ele><time>2026-05-03T14:45:26Z</time></trkpt><trkpt lat="45.241631556040055" lon="8.621609070703883"><ele>109.99999999999999</ele><time>2026-05-03T14:45:27Z</time></trkpt><trkpt lat="45.241560110108225" lon="8.621611809522811"><ele>110.0</ele><time>2026-05-03T14:45:28Z</time></trkpt><trkpt lat="45.24148765532366" lon="8.621657608334512"><ele>110.0</ele><time>2026-05-03T14:45:29Z</time></trkpt><trkpt lat="45.24140724784208" lon="8.621657655051395"><ele>110.0</ele><time>2026-05-03T14:45:30Z</time></trkpt><trkpt lat="45.24132644828036" lon="8.621681158160941"><ele>109.99999999999999</ele><time>2026-05-03T14:45:31Z</time></trkpt><trkpt lat="45.241251790596685" lon="8.621724204974008"><ele>110.0</ele><time>2026-05-03T14:45:32Z</time></trkpt><trkpt lat="45.241166956258375" lon="8.621723173100746"><ele>109.83333333333333</ele><time>2026-05-03T14:45:33Z</time></trkpt><trkpt lat="45.24108534572843" lon="8.621770266083812"><ele>109.66666666666666</ele><time>2026-05-03T14:45:34Z</time></trkpt><trkpt lat="45.24100063395193" lon="8.621793251615133"><ele>109.5</ele><time>2026-05-03T14:45:35Z</time></trkpt><trkpt lat="45.24092831794908" lon="8.621814941003452"><ele>109.33333333333334</ele><time>2026-05-03T14:45:36Z</time></trkpt><trkpt lat="45.24085136126639" lon="8.621833999448922"><ele>109.16666666666667</ele><time>2026-05-03T14:45:37Z</time></trkpt><trkpt lat="45.24076941145424" lon="8.62184980628561"><ele>109.0</ele><time>2026-05-03T14:45:38Z</time></trkpt><trkpt lat="45.24067854853066" lon="8.62186018764629"><ele>109.0</ele><time>2026-05-03T14:45:39Z</time></trkpt><trkpt lat="45.24056977566262" lon="8.621853352991499"><ele>109.0</ele><time>2026-05-03T14:45:40Z</time></trkpt><trkpt lat="45.24045391457889" lon="8.62188816834466"><ele>109.0</ele><time>2026-05-03T14:45:41Z</time></trkpt><trkpt lat="45.24035503258604" lon="8.621899110720156"><ele>109.0</ele><time>2026-05-03T14:45:42Z</time></trkpt><trkpt lat="45.240273772724436" lon="8.621905070124425"><ele>109.0</ele><time>2026-05-03T14:45:43Z</time></trkpt><trkpt lat="45.24019866229858" lon="8.621902879526397"><ele>109.00000000000001</ele><time>2026-05-03T14:45:44Z</time></trkpt><trkpt lat="45.24011678260273" lon="8.621914672916361"><ele>109.0</ele><time>2026-05-03T14:45:45Z</time></trkpt><trkpt lat="45.240035001181255" lon="8.621912747205924"><ele>109.0</ele><time>2026-05-03T14:45:46Z</time></trkpt><trkpt lat="45.239956449490954" lon="8.621901610638295"><ele>109.0</ele><time>2026-05-03T14:45:47Z</time></trkpt><trkpt lat="45.23988281999276" lon="8.62188333457181"><ele>109.00000000000001</ele><time>2026-05-03T14:45:48Z</time></trkpt><trkpt lat="45.239753464760234" lon="8.621855444482025"><ele>109.0</ele><time>2026-05-03T14:45:50Z</time></trkpt><trkpt lat="45.23968020992744" lon="8.621814518762966"><ele>109.00000000000001</ele><time>2026-05-03T14:45:51Z</time></trkpt><trkpt lat="45.239611143668675" lon="8.621794484552941"><ele>109.0</ele><time>2026-05-03T14:45:52Z</time></trkpt><trkpt lat="45.23954804206623" lon="8.621799347053791"><ele>109.0</ele><time>2026-05-03T14:45:53Z</time></trkpt><trkpt lat="45.23947452220361" lon="8.621774304710296"><ele>109.0</ele><time>2026-05-03T14:45:54Z</time></trkpt><trkpt lat="45.23939659158226" lon="8.621744656461104"><ele>109.00000000000001</ele><time>2026-05-03T14:45:55Z</time></trkpt><trkpt lat="45.23931532837952" lon="8.621716856126435"><ele>109.0</ele><time>2026-05-03T14:45:56Z</time></trkpt><trkpt lat="45.239234109967015" lon="8.621690073501604"><ele>109.00000000000001</ele><time>2026-05-03T14:45:57Z</time></trkpt><trkpt lat="45.23914554168474" lon="8.621661635834052"><ele>109.0</ele><time>2026-05-03T14:45:58Z</time></trkpt><trkpt lat="45.239064988525385" lon="8.621636593120801"><ele>109.0</ele><time>2026-05-03T14:45:59Z</time></trkpt><trkpt lat="45.238982670835455" lon="8.621612381640878"><ele>109.0</ele><time>2026-05-03T14:46:00Z</time></trkpt><trkpt lat="45.238903369681445" lon="8.62159111276696"><ele>109.00000000000001</ele><time>2026-05-03T14:46:01Z</time></trkpt><trkpt lat="45.23883478719654" lon="8.621575347384248"><ele>109.0</ele><time>2026-05-03T14:46:02Z</time></trkpt><trkpt lat="45.23876075382404" lon="8.621549681777795"><ele>108.83333333333334</ele><time>2026-05-03T14:46:03Z</time></trkpt><trkpt lat="45.23868825610337" lon="8.621520433909298"><ele>108.66666666666667</ele><time>2026-05-03T14:46:04Z</time></trkpt><trkpt lat="45.238615588471305" lon="8.62150664277914"><ele>108.5</ele><time>2026-05-03T14:46:05Z</time></trkpt><trkpt lat="45.23853848380998" lon="8.621479361616695"><ele>108.33333333333334</ele><time>2026-05-03T14:46:06Z</time></trkpt><trkpt lat="45.238459333699176" lon="8.621455631707464"><ele>108.16666666666667</ele><time>2026-05-03T14:46:07Z</time></trkpt><trkpt lat="45.23838249080647" lon="8.621422804568757"><ele>108.0</ele><time>2026-05-03T14:46:08Z</time></trkpt><trkpt lat="45.23830131774527" lon="8.621404997593746"><ele>108.0</ele><time>2026-05-03T14:46:09Z</time></trkpt><trkpt lat="45.23821939043861" lon="8.62137825810639"><ele>108.0</ele><time>2026-05-03T14:46:10Z</time></trkpt><trkpt lat="45.23814495744252" lon="8.621329349278536"><ele>108.0</ele><time>2026-05-03T14:46:11Z</time></trkpt><trkpt lat="45.238064568237625" lon="8.621325011929114"><ele>108.0</ele><time>2026-05-03T14:46:12Z</time></trkpt><trkpt lat="45.23799698898079" lon="8.621301943489346"><ele>108.0</ele><time>2026-05-03T14:46:13Z</time></trkpt><trkpt lat="45.2379205089138" lon="8.621269037814422"><ele>108.0</ele><time>2026-05-03T14:46:14Z</time></trkpt><trkpt lat="45.237846736138" lon="8.621249799233295"><ele>108.16666666666667</ele><time>2026-05-03T14:46:15Z</time></trkpt><trkpt lat="45.23777250386248" lon="8.62122668329964"><ele>108.33333333333334</ele><time>2026-05-03T14:46:16Z</time></trkpt><trkpt lat="45.237698970073886" lon="8.621199180899296"><ele>108.5</ele><time>2026-05-03T14:46:17Z</time></trkpt><trkpt lat="45.23762210181533" lon="8.62117408870336"><ele>108.66666666666667</ele><time>2026-05-03T14:46:18Z</time></trkpt><trkpt lat="45.237546858209484" lon="8.62114561561043"><ele>108.83333333333334</ele><time>2026-05-03T14:46:19Z</time></trkpt><trkpt lat="45.23747244173132" lon="8.621123909315036"><ele>109.0</ele><time>2026-05-03T14:46:20Z</time></trkpt><trkpt lat="45.23739939174742" lon="8.621103803309671"><ele>109.00000000000001</ele><time>2026-05-03T14:46:21Z</time></trkpt><trkpt lat="45.237325861732266" lon="8.621055070138631"><ele>109.0</ele><time>2026-05-03T14:46:22Z</time></trkpt><trkpt lat="45.237245466631755" lon="8.62102629432392"><ele>109.0</ele><time>2026-05-03T14:46:23Z</time></trkpt><trkpt lat="45.23716432648998" lon="8.621018221721565"><ele>109.0</ele><time>2026-05-03T14:46:24Z</time></trkpt><trkpt lat="45.237089765189566" lon="8.620978000825813"><ele>109.00000000000001</ele><time>2026-05-03T14:46:25Z</time></trkpt><trkpt lat="45.23701559850596" lon="8.6209441533536"><ele>109.0</ele><time>2026-05-03T14:46:26Z</time></trkpt><trkpt lat="45.23694593018701" lon="8.620920623514843"><ele>109.0</ele><time>2026-05-03T14:46:27Z</time></trkpt><trkpt lat="45.23688210034728" lon="8.620885062136832"><ele>109.0</ele><time>2026-05-03T14:46:28Z</time></trkpt><trkpt lat="45.23681529904395" lon="8.620854509925158"><ele>109.0</ele><time>2026-05-03T14:46:29Z</time></trkpt><trkpt lat="45.236747176001636" lon="8.620826174727474"><ele>109.0</ele><time>2026-05-03T14:46:30Z</time></trkpt><trkpt lat="45.23667646062384" lon="8.620804090512344"><ele>109.0</ele><time>2026-05-03T14:46:31Z</time></trkpt><trkpt lat="45.23660286992237" lon="8.620795106742968"><ele>109.0</ele><time>2026-05-03T14:46:32Z</time></trkpt><trkpt lat="45.236527155828945" lon="8.620792199934696"><ele>109.0</ele><time>2026-05-03T14:46:33Z</time></trkpt><trkpt lat="45.23645103928153" lon="8.6208002213474"><ele>108.66666666666667</ele><time>2026-05-03T14:46:34Z</time></trkpt><trkpt lat="45.23637143813005" lon="8.620806133706415"><ele>108.33333333333334</ele><time>2026-05-03T14:46:35Z</time></trkpt><trkpt lat="45.23628972597494" lon="8.620837491559067"><ele>108.0</ele><time>2026-05-03T14:46:36Z</time></trkpt><trkpt lat="45.23621273065705" lon="8.620851904595996"><ele>107.66666666666666</ele><time>2026-05-03T14:46:37Z</time></trkpt><trkpt lat="45.23614341917275" lon="8.62086223131479"><ele>107.33333333333333</ele><time>2026-05-03T14:46:38Z</time></trkpt><trkpt lat="45.23607038175412" lon="8.620874066560537"><ele>107.0</ele><time>2026-05-03T14:46:39Z</time></trkpt><trkpt lat="45.2359865963857" lon="8.620895007785272"><ele>107.0</ele><time>2026-05-03T14:46:40Z</time></trkpt><trkpt lat="45.235898121222775" lon="8.620913102792912"><ele>106.99999999999999</ele><time>2026-05-03T14:46:41Z</time></trkpt><trkpt lat="45.235805655642245" lon="8.620941954840772"><ele>106.99999999999999</ele><time>2026-05-03T14:46:42Z</time></trkpt><trkpt lat="45.23570711995797" lon="8.620967089472083"><ele>107.0</ele><time>2026-05-03T14:46:43Z</time></trkpt><trkpt lat="45.23561707767231" lon="8.620990061411824"><ele>107.0</ele><time>2026-05-03T14:46:44Z</time></trkpt><trkpt lat="45.235531726910374" lon="8.621011306730717"><ele>106.99999999999999</ele><time>2026-05-03T14:46:45Z</time></trkpt><trkpt lat="45.23544475786472" lon="8.62103458150743"><ele>107.0</ele><time>2026-05-03T14:46:46Z</time></trkpt><trkpt lat="45.23535965657039" lon="8.621057499564639"><ele>107.0</ele><time>2026-05-03T14:46:47Z</time></trkpt><trkpt lat="45.23527483726755" lon="8.621077783016114"><ele>107.0</ele><time>2026-05-03T14:46:48Z</time></trkpt><trkpt lat="45.23519168344661" lon="8.621089221770761"><ele>106.99999999999999</ele><time>2026-05-03T14:46:49Z</time></trkpt><trkpt lat="45.23510901472435" lon="8.621115979295167"><ele>107.0</ele><time>2026-05-03T14:46:50Z</time></trkpt><trkpt lat="45.23502868663937" lon="8.621134871985825"><ele>107.19999999999999</ele><time>2026-05-03T14:46:51Z</time></trkpt><trkpt lat="45.23494569619736" lon="8.62115217656997"><ele>107.39999999999999</ele><time>2026-05-03T14:46:52Z</time></trkpt><trkpt lat="45.23485387036148" lon="8.621162558009027"><ele>107.60000000000001</ele><time>2026-05-03T14:46:53Z</time></trkpt><trkpt lat="45.23476323861519" lon="8.621196127182067"><ele>107.80000000000001</ele><time>2026-05-03T14:46:54Z</time></trkpt><trkpt lat="45.23467024910102" lon="8.621211308138868"><ele>108.0</ele><time>2026-05-03T14:46:55Z</time></trkpt><trkpt lat="45.234576482187464" lon="8.621242749259228"><ele>108.2</ele><time>2026-05-03T14:46:56Z</time></trkpt><trkpt lat="45.234482175055966" lon="8.621264674749952"><ele>108.4</ele><time>2026-05-03T14:46:57Z</time></trkpt><trkpt lat="45.23438541922642" lon="8.621263817876974"><ele>108.60000000000001</ele><time>2026-05-03T14:46:58Z</time></trkpt><trkpt lat="45.234286819778724" lon="8.621286886453968"><ele>108.80000000000001</ele><time>2026-05-03T14:46:59Z</time></trkpt><trkpt lat="45.23419695884245" lon="8.621307910532831"><ele>109.0</ele><time>2026-05-03T14:47:00Z</time></trkpt><trkpt lat="45.23411918217558" lon="8.62132616205942"><ele>109.00000000000001</ele><time>2026-05-03T14:47:01Z</time></trkpt><trkpt lat="45.23403950815136" lon="8.621368421808025"><ele>109.0</ele><time>2026-05-03T14:47:02Z</time></trkpt><trkpt lat="45.23394633215992" lon="8.621383037685918"><ele>109.0</ele><time>2026-05-03T14:47:03Z</time></trkpt><trkpt lat="45.23386427034186" lon="8.621403120366292"><ele>109.0</ele><time>2026-05-03T14:47:04Z</time></trkpt><trkpt lat="45.23378620487797" lon="8.621421654023589"><ele>109.00000000000001</ele><time>2026-05-03T14:47:05Z</time></trkpt><trkpt lat="45.23370784319321" lon="8.621442183072157"><ele>109.0</ele><time>2026-05-03T14:47:06Z</time></trkpt><trkpt lat="45.23362330301466" lon="8.62146201673114"><ele>108.80000000000001</ele><time>2026-05-03T14:47:07Z</time></trkpt><trkpt lat="45.23353501460708" lon="8.621481623975951"><ele>108.60000000000001</ele><time>2026-05-03T14:47:08Z</time></trkpt><trkpt lat="45.233440748206846" lon="8.621506607989604"><ele>108.4</ele><time>2026-05-03T14:47:09Z</time></trkpt><trkpt lat="45.23333620738467" lon="8.62153120123836"><ele>108.2</ele><time>2026-05-03T14:47:10Z</time></trkpt><trkpt lat="45.2332265870552" lon="8.621561397111034"><ele>108.0</ele><time>2026-05-03T14:47:11Z</time></trkpt><trkpt lat="45.233123243945" lon="8.62156535777104"><ele>107.80000000000001</ele><time>2026-05-03T14:47:12Z</time></trkpt><trkpt lat="45.23302838372615" lon="8.621588790256208"><ele>107.60000000000001</ele><time>2026-05-03T14:47:13Z</time></trkpt><trkpt lat="45.23293255397958" lon="8.621635900935683"><ele>107.39999999999999</ele><time>2026-05-03T14:47:14Z</time></trkpt><trkpt lat="45.2328395015777" lon="8.62166030720196"><ele>107.19999999999999</ele><time>2026-05-03T14:47:15Z</time></trkpt><trkpt lat="45.232742931609685" lon="8.621683247053962"><ele>107.0</ele><time>2026-05-03T14:47:16Z</time></trkpt><trkpt lat="45.232648428551684" lon="8.621703354656805"><ele>107.0</ele><time>2026-05-03T14:47:17Z</time></trkpt><trkpt lat="45.232560550269575" lon="8.621722001374975"><ele>106.99999999999999</ele><time>2026-05-03T14:47:18Z</time></trkpt><trkpt lat="45.2324636562395" lon="8.62174776822776"><ele>106.99999999999999</ele><time>2026-05-03T14:47:19Z</time></trkpt><trkpt lat="45.23236199905575" lon="8.621773756983242"><ele>107.0</ele><time>2026-05-03T14:47:20Z</time></trkpt><trkpt lat="45.23226229648546" lon="8.621793944535813"><ele>107.0</ele><time>2026-05-03T14:47:21Z</time></trkpt><trkpt lat="45.23216124036538" lon="8.621817158711503"><ele>107.19999999999999</ele><time>2026-05-03T14:47:22Z</time></trkpt><trkpt lat="45.23205352243736" lon="8.621843047929813"><ele>107.39999999999999</ele><time>2026-05-03T14:47:23Z</time></trkpt><trkpt lat="45.231952312898834" lon="8.621868906156907"><ele>107.60000000000001</ele><time>2026-05-03T14:47:24Z</time></trkpt><trkpt lat="45.23185926287894" lon="8.621890644952257"><ele>107.80000000000001</ele><time>2026-05-03T14:47:25Z</time></trkpt><trkpt lat="45.23177772996554" lon="8.62190793697571"><ele>108.0</ele><time>2026-05-03T14:47:26Z</time></trkpt><trkpt lat="45.23170393785931" lon="8.621924240261624"><ele>108.0</ele><time>2026-05-03T14:47:27Z</time></trkpt><trkpt lat="45.23161417788428" lon="8.621938595914482"><ele>108.0</ele><time>2026-05-03T14:47:29Z</time></trkpt><trkpt lat="45.23155782613328" lon="8.621881824338802"><ele>108.0</ele><time>2026-05-03T14:47:33Z</time></trkpt><trkpt lat="45.23159982709046" lon="8.621737502970209"><ele>108.0</ele><time>2026-05-03T14:47:34Z</time></trkpt><trkpt lat="45.23161876363612" lon="8.62164284069577"><ele>108.0</ele><time>2026-05-03T14:47:35Z</time></trkpt><trkpt lat="45.23164006215324" lon="8.621532832388692"><ele>108.0</ele><time>2026-05-03T14:47:36Z</time></trkpt><trkpt lat="45.23166027304489" lon="8.621428442094611"><ele>108.0</ele><time>2026-05-03T14:47:37Z</time></trkpt><trkpt lat="45.23168274662813" lon="8.621312369438991"><ele>108.00000000000001</ele><time>2026-05-03T14:47:38Z</time></trkpt><trkpt lat="45.23169788186558" lon="8.621181638540119"><ele>108.00000000000001</ele><time>2026-05-03T14:47:39Z</time></trkpt><trkpt lat="45.231722619099756" lon="8.621055948537192"><ele>108.0</ele><time>2026-05-03T14:47:40Z</time></trkpt><trkpt lat="45.23174359569851" lon="8.62093056075358"><ele>108.0</ele><time>2026-05-03T14:47:41Z</time></trkpt><trkpt lat="45.23176994627705" lon="8.620804934916167"><ele>107.80000000000001</ele><time>2026-05-03T14:47:42Z</time></trkpt><trkpt lat="45.23179283378451" lon="8.620690449753262"><ele>107.60000000000001</ele><time>2026-05-03T14:47:43Z</time></trkpt><trkpt lat="45.23182118947745" lon="8.620577798678427"><ele>107.39999999999999</ele><time>2026-05-03T14:47:44Z</time></trkpt><trkpt lat="45.23184248687643" lon="8.620456169380796"><ele>107.19999999999999</ele><time>2026-05-03T14:47:45Z</time></trkpt><trkpt lat="45.23186921501934" lon="8.62032307589816"><ele>107.0</ele><time>2026-05-03T14:47:46Z</time></trkpt><trkpt lat="45.231898728946035" lon="8.62019251603424"><ele>106.99999999999999</ele><time>2026-05-03T14:47:47Z</time></trkpt><trkpt lat="45.23192927605935" lon="8.620058357219756"><ele>107.0</ele><time>2026-05-03T14:47:48Z</time></trkpt><trkpt lat="45.231961014072404" lon="8.619925360865077"><ele>107.0</ele><time>2026-05-03T14:47:49Z</time></trkpt><trkpt lat="45.23199171542822" lon="8.61981181335083"><ele>107.0</ele><time>2026-05-03T14:47:50Z</time></trkpt><trkpt lat="45.23201976731438" lon="8.619715805716917"><ele>106.99999999999999</ele><time>2026-05-03T14:47:51Z</time></trkpt><trkpt lat="45.23204597265306" lon="8.619631102401428"><ele>107.0</ele><time>2026-05-03T14:47:52Z</time></trkpt><trkpt lat="45.23208128585564" lon="8.619488690729167"><ele>107.19999999999999</ele><time>2026-05-03T14:47:54Z</time></trkpt><trkpt lat="45.23208776210986" lon="8.619353759100647"><ele>107.39999999999999</ele><time>2026-05-03T14:47:56Z</time></trkpt><trkpt lat="45.232069128186644" lon="8.619225171603276"><ele>107.60000000000001</ele><time>2026-05-03T14:47:58Z</time></trkpt><trkpt lat="45.23199057374427" lon="8.619140132947306"><ele>107.80000000000001</ele><time>2026-05-03T14:48:00Z</time></trkpt><trkpt lat="45.23187994249001" lon="8.619169702098068"><ele>108.0</ele><time>2026-05-03T14:48:02Z</time></trkpt><trkpt lat="45.23182172740618" lon="8.619216628759775"><ele>108.0</ele><time>2026-05-03T14:48:03Z</time></trkpt><trkpt lat="45.23175466457342" lon="8.619250558355397"><ele>108.0</ele><time>2026-05-03T14:48:04Z</time></trkpt><trkpt lat="45.231666913942064" lon="8.619310563524232"><ele>108.0</ele><time>2026-05-03T14:48:06Z</time></trkpt><trkpt lat="45.23160328010038" lon="8.619365377415571"><ele>108.0</ele><time>2026-05-03T14:48:08Z</time></trkpt><trkpt lat="45.231529175147266" lon="8.619318072067475"><ele>108.0</ele><time>2026-05-03T14:48:10Z</time></trkpt><trkpt lat="45.231476631573464" lon="8.619172914651251"><ele>108.0</ele><time>2026-05-03T14:48:12Z</time></trkpt><trkpt lat="45.23143346208663" lon="8.619071668790156"><ele>108.25</ele><time>2026-05-03T14:48:13Z</time></trkpt><trkpt lat="45.23139909289471" lon="8.618951527656346"><ele>108.5</ele><time>2026-05-03T14:48:14Z</time></trkpt><trkpt lat="45.231334346829996" lon="8.618822797516401"><ele>108.75</ele><time>2026-05-03T14:48:15Z</time></trkpt><trkpt lat="45.231247079861696" lon="8.61869294099728"><ele>109.0</ele><time>2026-05-03T14:48:16Z</time></trkpt><trkpt lat="45.23116398606266" lon="8.618539649228435"><ele>108.0</ele><time>2026-05-03T14:48:17Z</time></trkpt><trkpt lat="45.23108050920907" lon="8.618381674736161"><ele>107.0</ele><time>2026-05-03T14:48:18Z</time></trkpt><trkpt lat="45.231007792470486" lon="8.61824189751333"><ele>106.0</ele><time>2026-05-03T14:48:19Z</time></trkpt><trkpt lat="45.23093188829983" lon="8.618112419293906"><ele>105.0</ele><time>2026-05-03T14:48:20Z</time></trkpt><trkpt lat="45.23086007606443" lon="8.617977863349093"><ele>105.0</ele><time>2026-05-03T14:48:21Z</time></trkpt><trkpt lat="45.230786339667254" lon="8.617840434544453"><ele>105.0</ele><time>2026-05-03T14:48:22Z</time></trkpt><trkpt lat="45.23071013576637" lon="8.617707486056792"><ele>105.0</ele><time>2026-05-03T14:48:23Z</time></trkpt><trkpt lat="45.230638166874954" lon="8.617577976552063"><ele>105.0</ele><time>2026-05-03T14:48:24Z</time></trkpt><trkpt lat="45.23057391268903" lon="8.617442236537324"><ele>105.0</ele><time>2026-05-03T14:48:25Z</time></trkpt><trkpt lat="45.23049963365784" lon="8.617320305271688"><ele>105.0</ele><time>2026-05-03T14:48:26Z</time></trkpt><trkpt lat="45.23041293271605" lon="8.617214637475614"><ele>105.0</ele><time>2026-05-03T14:48:27Z</time></trkpt><trkpt lat="45.23034547106879" lon="8.617098665779992"><ele>105.0</ele><time>2026-05-03T14:48:28Z</time></trkpt><trkpt lat="45.23028120928644" lon="8.617006343110972"><ele>105.0</ele><time>2026-05-03T14:48:29Z</time></trkpt><trkpt lat="45.23022452858992" lon="8.616913658869974"><ele>104.8</ele><time>2026-05-03T14:48:30Z</time></trkpt><trkpt lat="45.230177726312114" lon="8.61679714978879"><ele>104.6</ele><time>2026-05-03T14:48:31Z</time></trkpt><trkpt lat="45.23011991368573" lon="8.616681447511128"><ele>104.4</ele><time>2026-05-03T14:48:32Z</time></trkpt><trkpt lat="45.23007693781141" lon="8.616554466921112"><ele>104.2</ele><time>2026-05-03T14:48:33Z</time></trkpt><trkpt lat="45.23003070714993" lon="8.616421369630606"><ele>104.0</ele><time>2026-05-03T14:48:34Z</time></trkpt><trkpt lat="45.22997266189093" lon="8.616307722119862"><ele>104.0</ele><time>2026-05-03T14:48:35Z</time></trkpt><trkpt lat="45.229939824630776" lon="8.616197157433522"><ele>104.0</ele><time>2026-05-03T14:48:36Z</time></trkpt><trkpt lat="45.229897770732364" lon="8.61607325106473"><ele>104.0</ele><time>2026-05-03T14:48:37Z</time></trkpt><trkpt lat="45.22985306260231" lon="8.615940280415929"><ele>104.0</ele><time>2026-05-03T14:48:38Z</time></trkpt><trkpt lat="45.229804220997366" lon="8.615803385691938"><ele>104.0</ele><time>2026-05-03T14:48:39Z</time></trkpt><trkpt lat="45.22975155881437" lon="8.615660356728508"><ele>104.2</ele><time>2026-05-03T14:48:40Z</time></trkpt><trkpt lat="45.22969860045142" lon="8.615511697729875"><ele>104.4</ele><time>2026-05-03T14:48:41Z</time></trkpt><trkpt lat="45.22964505593262" lon="8.615356670243974"><ele>104.6</ele><time>2026-05-03T14:48:42Z</time></trkpt><trkpt lat="45.22960302608883" lon="8.61522665734814"><ele>104.8</ele><time>2026-05-03T14:48:43Z</time></trkpt><trkpt lat="45.22956376582364" lon="8.615104685106742"><ele>105.0</ele><time>2026-05-03T14:48:44Z</time></trkpt><trkpt lat="45.22952122091773" lon="8.614976804586455"><ele>104.8</ele><time>2026-05-03T14:48:45Z</time></trkpt><trkpt lat="45.2294753912394" lon="8.614861614340342"><ele>104.6</ele><time>2026-05-03T14:48:46Z</time></trkpt><trkpt lat="45.22944436551618" lon="8.61474218156102"><ele>104.4</ele><time>2026-05-03T14:48:47Z</time></trkpt><trkpt lat="45.22939554851862" lon="8.61462580122553"><ele>104.2</ele><time>2026-05-03T14:48:48Z</time></trkpt><trkpt lat="45.229353567379846" lon="8.614500845000684"><ele>104.0</ele><time>2026-05-03T14:48:49Z</time></trkpt><trkpt lat="45.229309560428845" lon="8.614370389307034"><ele>104.0</ele><time>2026-05-03T14:48:50Z</time></trkpt><trkpt lat="45.22926676672686" lon="8.614243674909167"><ele>104.0</ele><time>2026-05-03T14:48:51Z</time></trkpt><trkpt lat="45.22922481359794" lon="8.6141310126842"><ele>104.0</ele><time>2026-05-03T14:48:52Z</time></trkpt><trkpt lat="45.22918462190578" lon="8.614017238362022"><ele>104.0</ele><time>2026-05-03T14:48:53Z</time></trkpt><trkpt lat="45.22914021285438" lon="8.613889319649903"><ele>104.0</ele><time>2026-05-03T14:48:54Z</time></trkpt><trkpt lat="45.22909595348744" lon="8.61376181412024"><ele>104.4</ele><time>2026-05-03T14:48:55Z</time></trkpt><trkpt lat="45.22906917116422" lon="8.613629342795385"><ele>104.80000000000001</ele><time>2026-05-03T14:48:56Z</time></trkpt><trkpt lat="45.229019445475224" lon="8.61351662226943"><ele>105.19999999999999</ele><time>2026-05-03T14:48:57Z</time></trkpt><trkpt lat="45.228981385014485" lon="8.613386893245533"><ele>105.6</ele><time>2026-05-03T14:48:58Z</time></trkpt><trkpt lat="45.2289625462459" lon="8.613238964984493"><ele>106.0</ele><time>2026-05-03T14:48:59Z</time></trkpt><trkpt lat="45.228933285728935" lon="8.613096774554508"><ele>106.0</ele><time>2026-05-03T14:49:00Z</time></trkpt><trkpt lat="45.22890489169224" lon="8.612958794818018"><ele>106.0</ele><time>2026-05-03T14:49:01Z</time></trkpt><trkpt lat="45.228875656876994" lon="8.61281672907872"><ele>106.0</ele><time>2026-05-03T14:49:02Z</time></trkpt><trkpt lat="45.22884572232871" lon="8.61267126338269"><ele>106.0</ele><time>2026-05-03T14:49:03Z</time></trkpt><trkpt lat="45.22881546152328" lon="8.612524212040531"><ele>106.0</ele><time>2026-05-03T14:49:04Z</time></trkpt><trkpt lat="45.228770559779726" lon="8.612384388841695"><ele>106.19999999999999</ele><time>2026-05-03T14:49:05Z</time></trkpt><trkpt lat="45.228742144977396" lon="8.612238256058147"><ele>106.39999999999999</ele><time>2026-05-03T14:49:06Z</time></trkpt><trkpt lat="45.228713683707994" lon="8.612092939995247"><ele>106.6</ele><time>2026-05-03T14:49:07Z</time></trkpt><trkpt lat="45.22868501436702" lon="8.611953963684876"><ele>106.8</ele><time>2026-05-03T14:49:08Z</time></trkpt><trkpt lat="45.22866376784527" lon="8.611814493706532"><ele>107.0</ele><time>2026-05-03T14:49:09Z</time></trkpt><trkpt lat="45.228635015506384" lon="8.611680308861219"><ele>107.16666666666666</ele><time>2026-05-03T14:49:10Z</time></trkpt><trkpt lat="45.228608976658066" lon="8.611541619604683"><ele>107.33333333333333</ele><time>2026-05-03T14:49:11Z</time></trkpt><trkpt lat="45.22858498855359" lon="8.611413294077442"><ele>107.5</ele><time>2026-05-03T14:49:12Z</time></trkpt><trkpt lat="45.228563494672706" lon="8.611302789639515"><ele>107.66666666666666</ele><time>2026-05-03T14:49:13Z</time></trkpt><trkpt lat="45.22853853527746" lon="8.611180543951043"><ele>107.83333333333333</ele><time>2026-05-03T14:49:14Z</time></trkpt><trkpt lat="45.22851561356156" lon="8.611068667663861"><ele>108.0</ele><time>2026-05-03T14:49:15Z</time></trkpt><trkpt lat="45.22849225805575" lon="8.610946543708282"><ele>107.5</ele><time>2026-05-03T14:49:16Z</time></trkpt><trkpt lat="45.228469121457856" lon="8.61083015854653"><ele>107.0</ele><time>2026-05-03T14:49:17Z</time></trkpt><trkpt lat="45.22844950061292" lon="8.610717275902271"><ele>106.5</ele><time>2026-05-03T14:49:18Z</time></trkpt><trkpt lat="45.2284180422571" lon="8.610602087928635"><ele>106.0</ele><time>2026-05-03T14:49:19Z</time></trkpt><trkpt lat="45.22839074361034" lon="8.610484495510917"><ele>105.5</ele><time>2026-05-03T14:49:20Z</time></trkpt><trkpt lat="45.22834602914861" lon="8.610360520750229"><ele>105.0</ele><time>2026-05-03T14:49:21Z</time></trkpt><trkpt lat="45.228304572404426" lon="8.61023182992595"><ele>105.0</ele><time>2026-05-03T14:49:22Z</time></trkpt><trkpt lat="45.22826428754073" lon="8.610097701680665"><ele>105.0</ele><time>2026-05-03T14:49:23Z</time></trkpt><trkpt lat="45.22821499650013" lon="8.609964301970711"><ele>105.0</ele><time>2026-05-03T14:49:24Z</time></trkpt><trkpt lat="45.22817607636886" lon="8.609834141409694"><ele>105.0</ele><time>2026-05-03T14:49:25Z</time></trkpt><trkpt lat="45.228129123425575" lon="8.609714508891223"><ele>105.0</ele><time>2026-05-03T14:49:26Z</time></trkpt><trkpt lat="45.22809105108244" lon="8.609597670790674"><ele>104.83333333333333</ele><time>2026-05-03T14:49:27Z</time></trkpt><trkpt lat="45.228056396310016" lon="8.609494145425282"><ele>104.66666666666666</ele><time>2026-05-03T14:49:28Z</time></trkpt><trkpt lat="45.22802411787633" lon="8.609393196982802"><ele>104.5</ele><time>2026-05-03T14:49:29Z</time></trkpt><trkpt lat="45.22799183945124" lon="8.609291665295938"><ele>104.33333333333333</ele><time>2026-05-03T14:49:30Z</time></trkpt><trkpt lat="45.22795481237554" lon="8.609180756592817"><ele>104.16666666666666</ele><time>2026-05-03T14:49:31Z</time></trkpt><trkpt lat="45.22791573130133" lon="8.609056677184116"><ele>104.0</ele><time>2026-05-03T14:49:32Z</time></trkpt><trkpt lat="45.22788199530742" lon="8.608916817323315"><ele>104.0</ele><time>2026-05-03T14:49:33Z</time></trkpt><trkpt lat="45.2278592779701" lon="8.608784375283237"><ele>104.0</ele><time>2026-05-03T14:49:34Z</time></trkpt><trkpt lat="45.22783491606565" lon="8.608658296729995"><ele>104.0</ele><time>2026-05-03T14:49:35Z</time></trkpt><trkpt lat="45.227812506920635" lon="8.608525990828328"><ele>104.0</ele><time>2026-05-03T14:49:36Z</time></trkpt><trkpt lat="45.22779304667916" lon="8.60838719663013"><ele>104.0</ele><time>2026-05-03T14:49:37Z</time></trkpt><trkpt lat="45.22777203864516" lon="8.608254572973705"><ele>104.2</ele><time>2026-05-03T14:49:38Z</time></trkpt><trkpt lat="45.22774917509449" lon="8.608112148964041"><ele>104.4</ele><time>2026-05-03T14:49:39Z</time></trkpt><trkpt lat="45.227726173532155" lon="8.607971379531671"><ele>104.6</ele><time>2026-05-03T14:49:40Z</time></trkpt><trkpt lat="45.22770943278805" lon="8.607829194147712"><ele>104.8</ele><time>2026-05-03T14:49:41Z</time></trkpt><trkpt lat="45.22768540963241" lon="8.607689557704392"><ele>105.0</ele><time>2026-05-03T14:49:42Z</time></trkpt><trkpt lat="45.22766467897691" lon="8.607535730052332"><ele>105.2</ele><time>2026-05-03T14:49:43Z</time></trkpt><trkpt lat="45.22764631529969" lon="8.60737786669833"><ele>105.4</ele><time>2026-05-03T14:49:44Z</time></trkpt><trkpt lat="45.227625492018966" lon="8.607244212911578"><ele>105.6</ele><time>2026-05-03T14:49:45Z</time></trkpt><trkpt lat="45.22760876328954" lon="8.607109805159787"><ele>105.8</ele><time>2026-05-03T14:49:46Z</time></trkpt><trkpt lat="45.22759357572676" lon="8.606975156215276"><ele>106.0</ele><time>2026-05-03T14:49:47Z</time></trkpt><trkpt lat="45.22757413610249" lon="8.606830601489488"><ele>106.0</ele><time>2026-05-03T14:49:48Z</time></trkpt><trkpt lat="45.22755528115356" lon="8.60668882913491"><ele>106.0</ele><time>2026-05-03T14:49:49Z</time></trkpt><trkpt lat="45.227537686922304" lon="8.606552796355135"><ele>106.0</ele><time>2026-05-03T14:49:50Z</time></trkpt><trkpt lat="45.22752039021137" lon="8.606418357257175"><ele>106.0</ele><time>2026-05-03T14:49:51Z</time></trkpt><trkpt lat="45.22750096517666" lon="8.606272610478522"><ele>106.0</ele><time>2026-05-03T14:49:52Z</time></trkpt><trkpt lat="45.227482585793204" lon="8.606140077044211"><ele>105.8</ele><time>2026-05-03T14:49:53Z</time></trkpt><trkpt lat="45.22746776756364" lon="8.606008037571442"><ele>105.6</ele><time>2026-05-03T14:49:54Z</time></trkpt><trkpt lat="45.227456094618255" lon="8.605879276749093"><ele>105.4</ele><time>2026-05-03T14:49:55Z</time></trkpt><trkpt lat="45.22745066459948" lon="8.60574880468359"><ele>105.2</ele><time>2026-05-03T14:49:56Z</time></trkpt><trkpt lat="45.22744158286193" lon="8.605617844638633"><ele>105.0</ele><time>2026-05-03T14:49:57Z</time></trkpt><trkpt lat="45.22743608935714" lon="8.605499823616691"><ele>105.0</ele><time>2026-05-03T14:49:58Z</time></trkpt><trkpt lat="45.22743281208311" lon="8.605376476023418"><ele>105.0</ele><time>2026-05-03T14:49:59Z</time></trkpt><trkpt lat="45.22742840172102" lon="8.605240417558731"><ele>105.0</ele><time>2026-05-03T14:50:00Z</time></trkpt><trkpt lat="45.227417903747344" lon="8.605092727395736"><ele>105.0</ele><time>2026-05-03T14:50:01Z</time></trkpt><trkpt lat="45.22743492242416" lon="8.604943510998138"><ele>105.0</ele><time>2026-05-03T14:50:02Z</time></trkpt><trkpt lat="45.22743555481905" lon="8.60478719666254"><ele>105.2</ele><time>2026-05-03T14:50:03Z</time></trkpt><trkpt lat="45.227436200952454" lon="8.604627486324354"><ele>105.4</ele><time>2026-05-03T14:50:04Z</time></trkpt><trkpt lat="45.22743685111795" lon="8.604466779369853"><ele>105.6</ele><time>2026-05-03T14:50:05Z</time></trkpt><trkpt lat="45.22743809942803" lon="8.604307547970134"><ele>105.8</ele><time>2026-05-03T14:50:06Z</time></trkpt><trkpt lat="45.227442596352816" lon="8.604150434001118"><ele>106.0</ele><time>2026-05-03T14:50:07Z</time></trkpt><trkpt lat="45.22745007601651" lon="8.603998007899119"><ele>106.25</ele><time>2026-05-03T14:50:08Z</time></trkpt><trkpt lat="45.227472509439096" lon="8.60381783819022"><ele>106.5</ele><time>2026-05-03T14:50:09Z</time></trkpt><trkpt lat="45.22747759907806" lon="8.60369458662842"><ele>106.75</ele><time>2026-05-03T14:50:10Z</time></trkpt><trkpt lat="45.227518509195974" lon="8.603542940227976"><ele>107.0</ele><time>2026-05-03T14:50:11Z</time></trkpt><trkpt lat="45.2275592996678" lon="8.603372605161091"><ele>107.16666666666666</ele><time>2026-05-03T14:50:12Z</time></trkpt><trkpt lat="45.227582153238984" lon="8.603209626669631"><ele>107.33333333333333</ele><time>2026-05-03T14:50:13Z</time></trkpt><trkpt lat="45.227611400628874" lon="8.603080105823091"><ele>107.5</ele><time>2026-05-03T14:50:14Z</time></trkpt><trkpt lat="45.2276313004018" lon="8.602972614022063"><ele>107.66666666666666</ele><time>2026-05-03T14:50:15Z</time></trkpt><trkpt lat="45.22764877151925" lon="8.60287101102453"><ele>107.83333333333333</ele><time>2026-05-03T14:50:17Z</time></trkpt><trkpt lat="45.227680034398944" lon="8.602781789960709"><ele>108.0</ele><time>2026-05-03T14:50:24Z</time></trkpt><trkpt lat="45.22757763715728" lon="8.602670572698043"><ele>108.0</ele><time>2026-05-03T14:50:26Z</time></trkpt><trkpt lat="45.22751320312039" lon="8.602633378597336"><ele>108.0</ele><time>2026-05-03T14:50:27Z</time></trkpt><trkpt lat="45.22737539620225" lon="8.602545755724814"><ele>108.0</ele><time>2026-05-03T14:50:29Z</time></trkpt><trkpt lat="45.22730243811187" lon="8.602478674967813"><ele>108.0</ele><time>2026-05-03T14:50:30Z</time></trkpt><trkpt lat="45.22724654902424" lon="8.602417291020126"><ele>108.0</ele><time>2026-05-03T14:50:31Z</time></trkpt><trkpt lat="45.227201639630884" lon="8.602347732354678"><ele>108.0</ele><time>2026-05-03T14:50:32Z</time></trkpt><trkpt lat="45.22713253066658" lon="8.60229860372354"><ele>108.0</ele><time>2026-05-03T14:50:33Z</time></trkpt><trkpt lat="45.22711649392883" lon="8.602114122378257"><ele>108.00000000000001</ele><time>2026-05-03T14:50:34Z</time></trkpt><trkpt lat="45.22707966820668" lon="8.601997359810033"><ele>108.00000000000001</ele><time>2026-05-03T14:50:35Z</time></trkpt><trkpt lat="45.22704269728843" lon="8.601873672008445"><ele>108.0</ele><time>2026-05-03T14:50:36Z</time></trkpt><trkpt lat="45.226995173673934" lon="8.601769721520883"><ele>108.0</ele><time>2026-05-03T14:50:37Z</time></trkpt><trkpt lat="45.22693264997293" lon="8.60166276452094"><ele>108.0</ele><time>2026-05-03T14:50:38Z</time></trkpt><trkpt lat="45.226864378409275" lon="8.60156567752846"><ele>108.0</ele><time>2026-05-03T14:50:39Z</time></trkpt><trkpt lat="45.2267930928043" lon="8.601497055379564"><ele>108.0</ele><time>2026-05-03T14:50:40Z</time></trkpt><trkpt lat="45.22672456623911" lon="8.601448914706268"><ele>108.0</ele><time>2026-05-03T14:50:41Z</time></trkpt><trkpt lat="45.22666654600159" lon="8.601407575878607"><ele>108.0</ele><time>2026-05-03T14:50:42Z</time></trkpt><trkpt lat="45.2266069486353" lon="8.601347761649256"><ele>108.0</ele><time>2026-05-03T14:50:43Z</time></trkpt><trkpt lat="45.22653693216843" lon="8.601251349417112"><ele>107.5</ele><time>2026-05-03T14:50:44Z</time></trkpt><trkpt lat="45.22645770601622" lon="8.601130250956409"><ele>107.0</ele><time>2026-05-03T14:50:45Z</time></trkpt><trkpt lat="45.22637992103263" lon="8.601006359049112"><ele>106.5</ele><time>2026-05-03T14:50:46Z</time></trkpt><trkpt lat="45.226323515842324" lon="8.600863307256002"><ele>106.0</ele><time>2026-05-03T14:50:47Z</time></trkpt><trkpt lat="45.22626468639206" lon="8.600727180965205"><ele>106.0</ele><time>2026-05-03T14:50:48Z</time></trkpt><trkpt lat="45.22620909148189" lon="8.600603529131465"><ele>106.0</ele><time>2026-05-03T14:50:49Z</time></trkpt><trkpt lat="45.22617412376265" lon="8.600470748631059"><ele>106.0</ele><time>2026-05-03T14:50:50Z</time></trkpt><trkpt lat="45.226137251190124" lon="8.60032436070032"><ele>106.0</ele><time>2026-05-03T14:50:51Z</time></trkpt><trkpt lat="45.22610442725397" lon="8.600169979656968"><ele>106.0</ele><time>2026-05-03T14:50:52Z</time></trkpt><trkpt lat="45.226071590554966" lon="8.60001382568582"><ele>106.0</ele><time>2026-05-03T14:50:53Z</time></trkpt><trkpt lat="45.22603903318344" lon="8.5998596666136"><ele>106.0</ele><time>2026-05-03T14:50:54Z</time></trkpt><trkpt lat="45.22600628932367" lon="8.599714212847434"><ele>106.0</ele><time>2026-05-03T14:50:55Z</time></trkpt><trkpt lat="45.225974867063634" lon="8.599579065772668"><ele>106.0</ele><time>2026-05-03T14:50:56Z</time></trkpt><trkpt lat="45.22594969218852" lon="8.599469503479762"><ele>106.0</ele><time>2026-05-03T14:50:57Z</time></trkpt><trkpt lat="45.22593433404375" lon="8.599374273165555"><ele>106.0</ele><time>2026-05-03T14:50:58Z</time></trkpt><trkpt lat="45.22590365750065" lon="8.599230834900336"><ele>106.0</ele><time>2026-05-03T14:51:00Z</time></trkpt><trkpt lat="45.22589306598338" lon="8.599132101252744"><ele>106.0</ele><time>2026-05-03T14:51:03Z</time></trkpt><trkpt lat="45.22571574272007" lon="8.599180854538771"><ele>106.0</ele><time>2026-05-03T14:51:05Z</time></trkpt><trkpt lat="45.225631483695786" lon="8.599200160942898"><ele>106.0</ele><time>2026-05-03T14:51:06Z</time></trkpt><trkpt lat="45.225551787910234" lon="8.599242161707696"><ele>106.00000000000001</ele><time>2026-05-03T14:51:07Z</time></trkpt><trkpt lat="45.2254621440332" lon="8.599292404012065"><ele>106.0</ele><time>2026-05-03T14:51:08Z</time></trkpt><trkpt lat="45.22538451121554" lon="8.599360398859135"><ele>106.0</ele><time>2026-05-03T14:51:09Z</time></trkpt><trkpt lat="45.22531092141795" lon="8.599399034257706"><ele>106.0</ele><time>2026-05-03T14:51:10Z</time></trkpt><trkpt lat="45.22525161533038" lon="8.599433274212435"><ele>106.00000000000001</ele><time>2026-05-03T14:51:11Z</time></trkpt><trkpt lat="45.22518303527107" lon="8.599469771339196"><ele>106.0</ele><time>2026-05-03T14:51:12Z</time></trkpt><trkpt lat="45.22510786197507" lon="8.59947946815374"><ele>106.00000000000001</ele><time>2026-05-03T14:51:13Z</time></trkpt><trkpt lat="45.22504275045124" lon="8.599531984391072"><ele>106.0</ele><time>2026-05-03T14:51:14Z</time></trkpt><trkpt lat="45.2249736851707" lon="8.599556237689871"><ele>106.0</ele><time>2026-05-03T14:51:15Z</time></trkpt><trkpt lat="45.22489689870821" lon="8.599581446466214"><ele>106.0</ele><time>2026-05-03T14:51:16Z</time></trkpt><trkpt lat="45.22481092169458" lon="8.59960348236682"><ele>106.00000000000001</ele><time>2026-05-03T14:51:17Z</time></trkpt><trkpt lat="45.22472702618052" lon="8.599617365170786"><ele>106.0</ele><time>2026-05-03T14:51:18Z</time></trkpt><trkpt lat="45.2246514316892" lon="8.599628682451936"><ele>106.00000000000001</ele><time>2026-05-03T14:51:19Z</time></trkpt><trkpt lat="45.22458211648899" lon="8.599635143439233"><ele>106.0</ele><time>2026-05-03T14:51:20Z</time></trkpt><trkpt lat="45.22450332780812" lon="8.599638920222336"><ele>106.0</ele><time>2026-05-03T14:51:21Z</time></trkpt><trkpt lat="45.22441863424516" lon="8.59961182309527"><ele>106.0</ele><time>2026-05-03T14:51:22Z</time></trkpt><trkpt lat="45.22433056405308" lon="8.599599035649884"><ele>106.00000000000001</ele><time>2026-05-03T14:51:23Z</time></trkpt><trkpt lat="45.224243129513184" lon="8.599579604442374"><ele>106.0</ele><time>2026-05-03T14:51:24Z</time></trkpt><trkpt lat="45.22414738267947" lon="8.599553141007158"><ele>106.0</ele><time>2026-05-03T14:51:25Z</time></trkpt><trkpt lat="45.2240581725254" lon="8.599527082932418"><ele>106.0</ele><time>2026-05-03T14:51:26Z</time></trkpt><trkpt lat="45.22396387653436" lon="8.59949587546517"><ele>106.0</ele><time>2026-05-03T14:51:27Z</time></trkpt><trkpt lat="45.22387626541857" lon="8.599463595340769"><ele>106.0</ele><time>2026-05-03T14:51:28Z</time></trkpt><trkpt lat="45.22378465171648" lon="8.599429840537617"><ele>106.0</ele><time>2026-05-03T14:51:29Z</time></trkpt><trkpt lat="45.22369525182648" lon="8.599394818483189"><ele>106.19999999999999</ele><time>2026-05-03T14:51:30Z</time></trkpt><trkpt lat="45.22360167221365" lon="8.599358075132484"><ele>106.39999999999999</ele><time>2026-05-03T14:51:31Z</time></trkpt><trkpt lat="45.22350957996774" lon="8.599321915918974"><ele>106.6</ele><time>2026-05-03T14:51:32Z</time></trkpt><trkpt lat="45.22341205287367" lon="8.599281632608097"><ele>106.8</ele><time>2026-05-03T14:51:33Z</time></trkpt><trkpt lat="45.22332698374772" lon="8.599246590600828"><ele>107.0</ele><time>2026-05-03T14:51:34Z</time></trkpt><trkpt lat="45.22323613326508" lon="8.599209167004348"><ele>107.19999999999999</ele><time>2026-05-03T14:51:35Z</time></trkpt><trkpt lat="45.22314573770157" lon="8.599171930958322"><ele>107.39999999999999</ele><time>2026-05-03T14:51:36Z</time></trkpt><trkpt lat="45.22304532296688" lon="8.599130567806757"><ele>107.60000000000001</ele><time>2026-05-03T14:51:37Z</time></trkpt><trkpt lat="45.22294684465198" lon="8.599090002100992"><ele>107.80000000000001</ele><time>2026-05-03T14:51:38Z</time></trkpt><trkpt lat="45.2228537506676" lon="8.59905165466223"><ele>108.0</ele><time>2026-05-03T14:51:39Z</time></trkpt><trkpt lat="45.222755938333144" lon="8.599009970188199"><ele>108.0</ele><time>2026-05-03T14:51:40Z</time></trkpt><trkpt lat="45.222676045380595" lon="8.59897589242904"><ele>108.0</ele><time>2026-05-03T14:51:41Z</time></trkpt><trkpt lat="45.22259602499989" lon="8.598941760199994"><ele>108.0</ele><time>2026-05-03T14:51:42Z</time></trkpt><trkpt lat="45.22250769244008" lon="8.598919634133312"><ele>108.0</ele><time>2026-05-03T14:51:43Z</time></trkpt><trkpt lat="45.222420771295475" lon="8.598897426156883"><ele>108.0</ele><time>2026-05-03T14:51:44Z</time></trkpt><trkpt lat="45.22234636939784" lon="8.598873483609726"><ele>108.0</ele><time>2026-05-03T14:51:45Z</time></trkpt><trkpt lat="45.22222787166337" lon="8.598832067513076"><ele>107.80000000000001</ele><time>2026-05-03T14:51:47Z</time></trkpt><trkpt lat="45.22210382869345" lon="8.598750219812246"><ele>107.60000000000001</ele><time>2026-05-03T14:51:49Z</time></trkpt><trkpt lat="45.22203398998718" lon="8.598679917782043"><ele>107.39999999999999</ele><time>2026-05-03T14:51:50Z</time></trkpt><trkpt lat="45.22194691803393" lon="8.598597397587332"><ele>107.19999999999999</ele><time>2026-05-03T14:51:51Z</time></trkpt><trkpt lat="45.221852106953705" lon="8.598498839433082"><ele>107.0</ele><time>2026-05-03T14:51:52Z</time></trkpt><trkpt lat="45.221755947008994" lon="8.598399854000904"><ele>106.8</ele><time>2026-05-03T14:51:53Z</time></trkpt><trkpt lat="45.221681208715296" lon="8.598321539171385"><ele>106.6</ele><time>2026-05-03T14:51:54Z</time></trkpt><trkpt lat="45.22161132106422" lon="8.598250376813915"><ele>106.39999999999999</ele><time>2026-05-03T14:51:55Z</time></trkpt><trkpt lat="45.221531544696454" lon="8.598167755799558"><ele>106.19999999999999</ele><time>2026-05-03T14:51:56Z</time></trkpt><trkpt lat="45.221441338087594" lon="8.59807571392298"><ele>106.0</ele><time>2026-05-03T14:51:57Z</time></trkpt><trkpt lat="45.2213552829919" lon="8.59798320564678"><ele>105.8</ele><time>2026-05-03T14:51:58Z</time></trkpt><trkpt lat="45.221273297432134" lon="8.597896296188123"><ele>105.6</ele><time>2026-05-03T14:51:59Z</time></trkpt><trkpt lat="45.221190752497016" lon="8.597810964029758"><ele>105.4</ele><time>2026-05-03T14:52:00Z</time></trkpt><trkpt lat="45.22110752788984" lon="8.597723421184243"><ele>105.2</ele><time>2026-05-03T14:52:01Z</time></trkpt><trkpt lat="45.221028435809906" lon="8.59764393303195"><ele>105.0</ele><time>2026-05-03T14:52:02Z</time></trkpt><trkpt lat="45.22094644547239" lon="8.597561625242854"><ele>104.8</ele><time>2026-05-03T14:52:03Z</time></trkpt><trkpt lat="45.22086368163668" lon="8.597474986810942"><ele>104.6</ele><time>2026-05-03T14:52:04Z</time></trkpt><trkpt lat="45.22077942013173" lon="8.597392270756805"><ele>104.4</ele><time>2026-05-03T14:52:05Z</time></trkpt><trkpt lat="45.22069668513688" lon="8.59730812876692"><ele>104.2</ele><time>2026-05-03T14:52:06Z</time></trkpt><trkpt lat="45.220615778877864" lon="8.597226990296488"><ele>104.0</ele><time>2026-05-03T14:52:07Z</time></trkpt><trkpt lat="45.22053491664434" lon="8.597140465785786"><ele>104.33333333333333</ele><time>2026-05-03T14:52:08Z</time></trkpt><trkpt lat="45.220458551535046" lon="8.597063906402981"><ele>104.66666666666666</ele><time>2026-05-03T14:52:09Z</time></trkpt><trkpt lat="45.22039577381728" lon="8.596993937254672"><ele>105.0</ele><time>2026-05-03T14:52:10Z</time></trkpt><trkpt lat="45.22033590543339" lon="8.596932807836396"><ele>105.33333333333334</ele><time>2026-05-03T14:52:11Z</time></trkpt><trkpt lat="45.220269641364446" lon="8.59688054876795"><ele>105.66666666666667</ele><time>2026-05-03T14:52:12Z</time></trkpt><trkpt lat="45.22019623854772" lon="8.596843477830404"><ele>106.0</ele><time>2026-05-03T14:52:13Z</time></trkpt><trkpt lat="45.22010973978439" lon="8.596808745739434"><ele>106.16666666666667</ele><time>2026-05-03T14:52:14Z</time></trkpt><trkpt lat="45.2200168367997" lon="8.59678392648037"><ele>106.33333333333334</ele><time>2026-05-03T14:52:15Z</time></trkpt><trkpt lat="45.219931520478795" lon="8.596766502995656"><ele>106.5</ele><time>2026-05-03T14:52:16Z</time></trkpt><trkpt lat="45.21984320277749" lon="8.596742602082395"><ele>106.66666666666666</ele><time>2026-05-03T14:52:17Z</time></trkpt><trkpt lat="45.21977327145164" lon="8.596691954263488"><ele>106.83333333333333</ele><time>2026-05-03T14:52:18Z</time></trkpt><trkpt lat="45.21970346260787" lon="8.59665825713627"><ele>107.0</ele><time>2026-05-03T14:52:19Z</time></trkpt><trkpt lat="45.219633301313195" lon="8.596601688153164"><ele>107.0</ele><time>2026-05-03T14:52:20Z</time></trkpt><trkpt lat="45.21957276487946" lon="8.596531425637707"><ele>106.99999999999999</ele><time>2026-05-03T14:52:21Z</time></trkpt><trkpt lat="45.219522594423076" lon="8.596439045208115"><ele>106.99999999999999</ele><time>2026-05-03T14:52:22Z</time></trkpt><trkpt lat="45.21945543895834" lon="8.5963322941836"><ele>107.0</ele><time>2026-05-03T14:52:23Z</time></trkpt><trkpt lat="45.219364954601716" lon="8.596221519320972"><ele>107.0</ele><time>2026-05-03T14:52:24Z</time></trkpt><trkpt lat="45.21927782427897" lon="8.596100060986593"><ele>107.0</ele><time>2026-05-03T14:52:25Z</time></trkpt><trkpt lat="45.21919942646304" lon="8.595999227806487"><ele>106.99999999999999</ele><time>2026-05-03T14:52:26Z</time></trkpt><trkpt lat="45.219126925271965" lon="8.595905519260056"><ele>106.99999999999999</ele><time>2026-05-03T14:52:27Z</time></trkpt><trkpt lat="45.21905662631267" lon="8.595809560670428"><ele>107.0</ele><time>2026-05-03T14:52:28Z</time></trkpt><trkpt lat="45.218983589016574" lon="8.595719756649842"><ele>107.0</ele><time>2026-05-03T14:52:29Z</time></trkpt><trkpt lat="45.21891205922075" lon="8.595628220062837"><ele>107.19999999999999</ele><time>2026-05-03T14:52:30Z</time></trkpt><trkpt lat="45.21883471240519" lon="8.595544829341529"><ele>107.39999999999999</ele><time>2026-05-03T14:52:31Z</time></trkpt><trkpt lat="45.21876143590159" lon="8.595464450585176"><ele>107.60000000000001</ele><time>2026-05-03T14:52:32Z</time></trkpt><trkpt lat="45.21869540936813" lon="8.595359657392645"><ele>107.80000000000001</ele><time>2026-05-03T14:52:33Z</time></trkpt><trkpt lat="45.21861612732407" lon="8.595262036436772"><ele>108.0</ele><time>2026-05-03T14:52:34Z</time></trkpt><trkpt lat="45.21853813659516" lon="8.595162059378156"><ele>108.0</ele><time>2026-05-03T14:52:35Z</time></trkpt><trkpt lat="45.21846301245" lon="8.595063862893564"><ele>108.00000000000001</ele><time>2026-05-03T14:52:36Z</time></trkpt><trkpt lat="45.21838944329258" lon="8.594967698867348"><ele>108.00000000000001</ele><time>2026-05-03T14:52:37Z</time></trkpt><trkpt lat="45.21831884060163" lon="8.594875412590138"><ele>108.0</ele><time>2026-05-03T14:52:38Z</time></trkpt><trkpt lat="45.21824103063192" lon="8.594806572868828"><ele>108.0</ele><time>2026-05-03T14:52:39Z</time></trkpt><trkpt lat="45.21817100915859" lon="8.594702816868596"><ele>108.2</ele><time>2026-05-03T14:52:40Z</time></trkpt><trkpt lat="45.218105413061565" lon="8.5946446813918"><ele>108.4</ele><time>2026-05-03T14:52:41Z</time></trkpt><trkpt lat="45.218053656094646" lon="8.594587981591129"><ele>108.60000000000001</ele><time>2026-05-03T14:52:42Z</time></trkpt><trkpt lat="45.21794871627072" lon="8.59449216558867"><ele>108.80000000000001</ele><time>2026-05-03T14:52:44Z</time></trkpt><trkpt lat="45.217870463741804" lon="8.59440085268407"><ele>109.0</ele><time>2026-05-03T14:52:46Z</time></trkpt><trkpt lat="45.21774392465312" lon="8.594489993338126"><ele>109.00000000000001</ele><time>2026-05-03T14:52:51Z</time></trkpt><trkpt lat="45.217688550436286" lon="8.594566490910372"><ele>109.0</ele><time>2026-05-03T14:52:52Z</time></trkpt><trkpt lat="45.217631948517926" lon="8.594632156169213"><ele>109.0</ele><time>2026-05-03T14:52:53Z</time></trkpt><trkpt lat="45.217579532480286" lon="8.594689275326928"><ele>109.0</ele><time>2026-05-03T14:52:54Z</time></trkpt><trkpt lat="45.21747889363761" lon="8.594821735985365"><ele>109.00000000000001</ele><time>2026-05-03T14:52:56Z</time></trkpt><trkpt lat="45.21742689008824" lon="8.594893306121314"><ele>109.0</ele><time>2026-05-03T14:52:57Z</time></trkpt><trkpt lat="45.217383318764305" lon="8.594966287386312"><ele>109.00000000000001</ele><time>2026-05-03T14:52:58Z</time></trkpt><trkpt lat="45.21732405206734" lon="8.595041859438798"><ele>109.0</ele><time>2026-05-03T14:52:59Z</time></trkpt><trkpt lat="45.2172547233656" lon="8.59512878860322"><ele>109.0</ele><time>2026-05-03T14:53:00Z</time></trkpt><trkpt lat="45.217182732112356" lon="8.595217869498628"><ele>109.0</ele><time>2026-05-03T14:53:01Z</time></trkpt><trkpt lat="45.21712311150707" lon="8.595297036097884"><ele>109.00000000000001</ele><time>2026-05-03T14:53:02Z</time></trkpt><trkpt lat="45.217056366376816" lon="8.59538270280627"><ele>109.0</ele><time>2026-05-03T14:53:03Z</time></trkpt><trkpt lat="45.21698325599366" lon="8.595477145444713"><ele>108.83333333333334</ele><time>2026-05-03T14:53:04Z</time></trkpt><trkpt lat="45.216921704864205" lon="8.595555757614255"><ele>108.66666666666667</ele><time>2026-05-03T14:53:05Z</time></trkpt><trkpt lat="45.216870183658635" lon="8.595619844654308"><ele>108.5</ele><time>2026-05-03T14:53:06Z</time></trkpt><trkpt lat="45.21682192946234" lon="8.595688044919909"><ele>108.33333333333334</ele><time>2026-05-03T14:53:07Z</time></trkpt><trkpt lat="45.2167409559092" lon="8.595789176437885"><ele>108.16666666666667</ele><time>2026-05-03T14:53:09Z</time></trkpt><trkpt lat="45.216651608822694" lon="8.595855539727875"><ele>108.0</ele><time>2026-05-03T14:53:12Z</time></trkpt><trkpt lat="45.21654607014109" lon="8.595823477089015"><ele>107.83333333333333</ele><time>2026-05-03T14:53:14Z</time></trkpt><trkpt lat="45.2164826164264" lon="8.595781145181423"><ele>107.66666666666666</ele><time>2026-05-03T14:53:15Z</time></trkpt><trkpt lat="45.21640789192789" lon="8.595725878506288"><ele>107.5</ele><time>2026-05-03T14:53:16Z</time></trkpt><trkpt lat="45.21633401252188" lon="8.59567663145771"><ele>107.33333333333333</ele><time>2026-05-03T14:53:17Z</time></trkpt><trkpt lat="45.216254484625175" lon="8.595623668978783"><ele>107.16666666666666</ele><time>2026-05-03T14:53:18Z</time></trkpt><trkpt lat="45.2161717271809" lon="8.595570285625687"><ele>107.0</ele><time>2026-05-03T14:53:19Z</time></trkpt><trkpt lat="45.21608940042951" lon="8.595513897341913"><ele>106.99999999999999</ele><time>2026-05-03T14:53:20Z</time></trkpt><trkpt lat="45.216010208869925" lon="8.59545905772823"><ele>107.0</ele><time>2026-05-03T14:53:21Z</time></trkpt><trkpt lat="45.21593095619745" lon="8.595403411520989"><ele>107.0</ele><time>2026-05-03T14:53:22Z</time></trkpt><trkpt lat="45.215849575492165" lon="8.595339652425249"><ele>107.0</ele><time>2026-05-03T14:53:23Z</time></trkpt><trkpt lat="45.21576763401246" lon="8.595284795378056"><ele>106.99999999999999</ele><time>2026-05-03T14:53:24Z</time></trkpt><trkpt lat="45.215689114827626" lon="8.595234987209126"><ele>107.0</ele><time>2026-05-03T14:53:25Z</time></trkpt><trkpt lat="45.21561823528567" lon="8.595189385339392"><ele>106.99999999999999</ele><time>2026-05-03T14:53:26Z</time></trkpt><trkpt lat="45.21554223910739" lon="8.595143188915527"><ele>107.0</ele><time>2026-05-03T14:53:27Z</time></trkpt><trkpt lat="45.21546186178197" lon="8.595092588127047"><ele>107.0</ele><time>2026-05-03T14:53:28Z</time></trkpt><trkpt lat="45.21538019546083" lon="8.595048556665263"><ele>107.0</ele><time>2026-05-03T14:53:29Z</time></trkpt><trkpt lat="45.215296531268024" lon="8.59500439102286"><ele>106.99999999999999</ele><time>2026-05-03T14:53:30Z</time></trkpt><trkpt lat="45.21520867562907" lon="8.594961850306197"><ele>107.0</ele><time>2026-05-03T14:53:31Z</time></trkpt><trkpt lat="45.215126952751596" lon="8.594923883416449"><ele>106.99999999999999</ele><time>2026-05-03T14:53:32Z</time></trkpt><trkpt lat="45.215044791622255" lon="8.59489286665911"><ele>107.0</ele><time>2026-05-03T14:53:33Z</time></trkpt><trkpt lat="45.21496537453841" lon="8.594864849093337"><ele>107.0</ele><time>2026-05-03T14:53:34Z</time></trkpt><trkpt lat="45.21488219424231" lon="8.59484115933591"><ele>107.0</ele><time>2026-05-03T14:53:35Z</time></trkpt><trkpt lat="45.21479310339421" lon="8.59481979733317"><ele>106.99999999999999</ele><time>2026-05-03T14:53:36Z</time></trkpt><trkpt lat="45.214706534090006" lon="8.594803141265524"><ele>107.0</ele><time>2026-05-03T14:53:37Z</time></trkpt><trkpt lat="45.21461773311918" lon="8.594783926538938"><ele>107.19999999999999</ele><time>2026-05-03T14:53:38Z</time></trkpt><trkpt lat="45.21451748383051" lon="8.59476786565743"><ele>107.39999999999999</ele><time>2026-05-03T14:53:39Z</time></trkpt><trkpt lat="45.214422597818064" lon="8.594750574356173"><ele>107.60000000000001</ele><time>2026-05-03T14:53:40Z</time></trkpt><trkpt lat="45.21432440879574" lon="8.594734341199498"><ele>107.80000000000001</ele><time>2026-05-03T14:53:41Z</time></trkpt><trkpt lat="45.21422710582287" lon="8.594717680060262"><ele>108.0</ele><time>2026-05-03T14:53:42Z</time></trkpt><trkpt lat="45.214148064554806" lon="8.594706523453505"><ele>108.0</ele><time>2026-05-03T14:53:43Z</time></trkpt><trkpt lat="45.214067686959005" lon="8.594694711200052"><ele>108.0</ele><time>2026-05-03T14:53:44Z</time></trkpt><trkpt lat="45.21399929791444" lon="8.594687447815895"><ele>108.0</ele><time>2026-05-03T14:53:45Z</time></trkpt><trkpt lat="45.21391970125169" lon="8.594675262294553"><ele>108.0</ele><time>2026-05-03T14:53:46Z</time></trkpt><trkpt lat="45.213842758098565" lon="8.594663151948764"><ele>108.0</ele><time>2026-05-03T14:53:47Z</time></trkpt><trkpt lat="45.213760309377335" lon="8.594648608987532"><ele>108.0</ele><time>2026-05-03T14:53:48Z</time></trkpt><trkpt lat="45.213675526481474" lon="8.594637148004121"><ele>107.80000000000001</ele><time>2026-05-03T14:53:49Z</time></trkpt><trkpt lat="45.21357956817827" lon="8.594621795806043"><ele>107.60000000000001</ele><time>2026-05-03T14:53:50Z</time></trkpt><trkpt lat="45.21348757968061" lon="8.594606098714157"><ele>107.39999999999999</ele><time>2026-05-03T14:53:51Z</time></trkpt><trkpt lat="45.21339353652203" lon="8.594590571209885"><ele>107.19999999999999</ele><time>2026-05-03T14:53:52Z</time></trkpt><trkpt lat="45.213303098456464" lon="8.594574926100988"><ele>107.0</ele><time>2026-05-03T14:53:53Z</time></trkpt><trkpt lat="45.213214043743115" lon="8.594557542660374"><ele>107.19999999999999</ele><time>2026-05-03T14:53:54Z</time></trkpt><trkpt lat="45.21312695856565" lon="8.594543971652207"><ele>107.39999999999999</ele><time>2026-05-03T14:53:55Z</time></trkpt><trkpt lat="45.21303783739505" lon="8.59452934642339"><ele>107.60000000000001</ele><time>2026-05-03T14:53:56Z</time></trkpt><trkpt lat="45.21294178623258" lon="8.594513933475245"><ele>107.80000000000001</ele><time>2026-05-03T14:53:57Z</time></trkpt><trkpt lat="45.212845578187384" lon="8.594498329513769"><ele>108.0</ele><time>2026-05-03T14:53:58Z</time></trkpt><trkpt lat="45.21274557188009" lon="8.594479878475868"><ele>108.0</ele><time>2026-05-03T14:53:59Z</time></trkpt><trkpt lat="45.21264308731838" lon="8.594461420620597"><ele>108.00000000000001</ele><time>2026-05-03T14:54:00Z</time></trkpt><trkpt lat="45.2125334309017" lon="8.59444433032026"><ele>108.00000000000001</ele><time>2026-05-03T14:54:01Z</time></trkpt><trkpt lat="45.21242592959243" lon="8.594424329608"><ele>108.0</ele><time>2026-05-03T14:54:02Z</time></trkpt><trkpt lat="45.21231990044163" lon="8.594409427574128"><ele>108.0</ele><time>2026-05-03T14:54:03Z</time></trkpt><trkpt lat="45.21221642048949" lon="8.594394139917748"><ele>107.80000000000001</ele><time>2026-05-03T14:54:04Z</time></trkpt><trkpt lat="45.21211086865336" lon="8.594379422232496"><ele>107.60000000000001</ele><time>2026-05-03T14:54:05Z</time></trkpt><trkpt lat="45.21200533242727" lon="8.594364545056166"><ele>107.39999999999999</ele><time>2026-05-03T14:54:06Z</time></trkpt><trkpt lat="45.21190062493715" lon="8.594349525012069"><ele>107.19999999999999</ele><time>2026-05-03T14:54:07Z</time></trkpt><trkpt lat="45.21179483714273" lon="8.59433590059904"><ele>107.0</ele><time>2026-05-03T14:54:08Z</time></trkpt><trkpt lat="45.21170252895475" lon="8.594328117339616"><ele>107.0</ele><time>2026-05-03T14:54:09Z</time></trkpt><trkpt lat="45.211624451373915" lon="8.59432589647345"><ele>106.99999999999999</ele><time>2026-05-03T14:54:10Z</time></trkpt><trkpt lat="45.21153365730329" lon="8.594324230702993"><ele>106.99999999999999</ele><time>2026-05-03T14:54:11Z</time></trkpt><trkpt lat="45.21143179540711" lon="8.594324877915351"><ele>107.0</ele><time>2026-05-03T14:54:12Z</time></trkpt><trkpt lat="45.211345943780465" lon="8.59431523087527"><ele>107.0</ele><time>2026-05-03T14:54:13Z</time></trkpt><trkpt lat="45.21125430143855" lon="8.594289790312294"><ele>106.8</ele><time>2026-05-03T14:54:14Z</time></trkpt><trkpt lat="45.21114691816325" lon="8.594260796410717"><ele>106.6</ele><time>2026-05-03T14:54:15Z</time></trkpt><trkpt lat="45.211037489743504" lon="8.594230721066577"><ele>106.39999999999999</ele><time>2026-05-03T14:54:16Z</time></trkpt><trkpt lat="45.210941724671855" lon="8.594196617445842"><ele>106.19999999999999</ele><time>2026-05-03T14:54:17Z</time></trkpt><trkpt lat="45.21084370485285" lon="8.594164778610134"><ele>106.0</ele><time>2026-05-03T14:54:18Z</time></trkpt><trkpt lat="45.21074002821029" lon="8.594131887575058"><ele>106.0</ele><time>2026-05-03T14:54:19Z</time></trkpt><trkpt lat="45.21063720100554" lon="8.594103338674929"><ele>106.0</ele><time>2026-05-03T14:54:20Z</time></trkpt><trkpt lat="45.210546354625315" lon="8.594082735165236"><ele>106.0</ele><time>2026-05-03T14:54:21Z</time></trkpt><trkpt lat="45.21045279414051" lon="8.594058978950551"><ele>106.0</ele><time>2026-05-03T14:54:22Z</time></trkpt><trkpt lat="45.2103492973516" lon="8.594036849394318"><ele>106.0</ele><time>2026-05-03T14:54:23Z</time></trkpt><trkpt lat="45.21026195410528" lon="8.594024636646902"><ele>106.0</ele><time>2026-05-03T14:54:24Z</time></trkpt><trkpt lat="45.210184364035456" lon="8.594016881784867"><ele>106.0</ele><time>2026-05-03T14:54:25Z</time></trkpt><trkpt lat="45.21011218507966" lon="8.594018559060359"><ele>106.0</ele><time>2026-05-03T14:54:26Z</time></trkpt><trkpt lat="45.210037131733046" lon="8.594022718597826"><ele>106.0</ele><time>2026-05-03T14:54:27Z</time></trkpt><trkpt lat="45.20991830620716" lon="8.59405952767761"><ele>106.0</ele><time>2026-05-03T14:54:29Z</time></trkpt><trkpt lat="45.2098040163986" lon="8.594123876635553"><ele>105.66666666666667</ele><time>2026-05-03T14:54:31Z</time></trkpt><trkpt lat="45.209739864297" lon="8.594186210876305"><ele>105.33333333333334</ele><time>2026-05-03T14:54:32Z</time></trkpt><trkpt lat="45.20967804406472" lon="8.594249897029226"><ele>105.0</ele><time>2026-05-03T14:54:33Z</time></trkpt><trkpt lat="45.20960289028626" lon="8.594313482656124"><ele>104.66666666666666</ele><time>2026-05-03T14:54:34Z</time></trkpt><trkpt lat="45.20951924450877" lon="8.594372112579434"><ele>104.33333333333333</ele><time>2026-05-03T14:54:35Z</time></trkpt><trkpt lat="45.20943263802193" lon="8.594432767890575"><ele>104.0</ele><time>2026-05-03T14:54:36Z</time></trkpt><trkpt lat="45.2093424071934" lon="8.594496146707822"><ele>103.80000000000001</ele><time>2026-05-03T14:54:37Z</time></trkpt><trkpt lat="45.209259840308235" lon="8.594560790996054"><ele>103.60000000000001</ele><time>2026-05-03T14:54:38Z</time></trkpt><trkpt lat="45.20917794897474" lon="8.594628801229398"><ele>103.4</ele><time>2026-05-03T14:54:39Z</time></trkpt><trkpt lat="45.209092844182514" lon="8.59469598559528"><ele>103.2</ele><time>2026-05-03T14:54:40Z</time></trkpt><trkpt lat="45.20900734023112" lon="8.59475281665367"><ele>103.0</ele><time>2026-05-03T14:54:41Z</time></trkpt><trkpt lat="45.20892537464281" lon="8.594813890650856"><ele>103.0</ele><time>2026-05-03T14:54:42Z</time></trkpt><trkpt lat="45.20884713004626" lon="8.59487831217938"><ele>103.0</ele><time>2026-05-03T14:54:43Z</time></trkpt><trkpt lat="45.208766103600844" lon="8.594944959186275"><ele>103.0</ele><time>2026-05-03T14:54:44Z</time></trkpt><trkpt lat="45.20869207783979" lon="8.595004424942024"><ele>103.0</ele><time>2026-05-03T14:54:45Z</time></trkpt><trkpt lat="45.20861161038609" lon="8.59507284815755"><ele>103.0</ele><time>2026-05-03T14:54:46Z</time></trkpt><trkpt lat="45.208522934173644" lon="8.595144822410164"><ele>103.0</ele><time>2026-05-03T14:54:47Z</time></trkpt><trkpt lat="45.20844219610137" lon="8.595208262558554"><ele>103.0</ele><time>2026-05-03T14:54:48Z</time></trkpt><trkpt lat="45.208359679768805" lon="8.59527189209882"><ele>103.0</ele><time>2026-05-03T14:54:49Z</time></trkpt><trkpt lat="45.208279206929824" lon="8.595330042949868"><ele>103.0</ele><time>2026-05-03T14:54:50Z</time></trkpt><trkpt lat="45.20819777076553" lon="8.595391668180826"><ele>103.0</ele><time>2026-05-03T14:54:51Z</time></trkpt><trkpt lat="45.208117651866345" lon="8.59544974086498"><ele>103.00000000000001</ele><time>2026-05-03T14:54:52Z</time></trkpt><trkpt lat="45.208046039364476" lon="8.595506604857817"><ele>103.0</ele><time>2026-05-03T14:54:53Z</time></trkpt><trkpt lat="45.20798500001173" lon="8.595553549406338"><ele>103.0</ele><time>2026-05-03T14:54:54Z</time></trkpt><trkpt lat="45.20790511012651" lon="8.595614699695318"><ele>103.0</ele><time>2026-05-03T14:54:55Z</time></trkpt><trkpt lat="45.20781805696092" lon="8.595683809093588"><ele>103.00000000000001</ele><time>2026-05-03T14:54:56Z</time></trkpt><trkpt lat="45.20772377054212" lon="8.595757097138174"><ele>103.0</ele><time>2026-05-03T14:54:57Z</time></trkpt><trkpt lat="45.207636442630836" lon="8.595829334583573"><ele>103.0</ele><time>2026-05-03T14:54:58Z</time></trkpt><trkpt lat="45.20755268907201" lon="8.595905040308123"><ele>103.0</ele><time>2026-05-03T14:54:59Z</time></trkpt><trkpt lat="45.20748392322581" lon="8.595967788289926"><ele>103.0</ele><time>2026-05-03T14:55:00Z</time></trkpt><trkpt lat="45.20740267137341" lon="8.596032968739449"><ele>103.0</ele><time>2026-05-03T14:55:01Z</time></trkpt><trkpt lat="45.20731697744717" lon="8.596101701978712"><ele>103.0</ele><time>2026-05-03T14:55:02Z</time></trkpt><trkpt lat="45.20723050990818" lon="8.596175472457853"><ele>103.0</ele><time>2026-05-03T14:55:03Z</time></trkpt><trkpt lat="45.207144995673886" lon="8.596246710501871"><ele>103.0</ele><time>2026-05-03T14:55:04Z</time></trkpt><trkpt lat="45.20706280209206" lon="8.5963168643483"><ele>103.0</ele><time>2026-05-03T14:55:05Z</time></trkpt><trkpt lat="45.20697674308412" lon="8.596395019103591"><ele>103.0</ele><time>2026-05-03T14:55:06Z</time></trkpt><trkpt lat="45.20688938206317" lon="8.59647534612829"><ele>103.0</ele><time>2026-05-03T14:55:07Z</time></trkpt><trkpt lat="45.20681611843994" lon="8.596537144264719"><ele>103.0</ele><time>2026-05-03T14:55:08Z</time></trkpt><trkpt lat="45.20673570782008" lon="8.596602764106127"><ele>103.0</ele><time>2026-05-03T14:55:09Z</time></trkpt><trkpt lat="45.206636299676994" lon="8.596680146072362"><ele>103.0</ele><time>2026-05-03T14:55:10Z</time></trkpt><trkpt lat="45.20655060328128" lon="8.596746407059014"><ele>103.0</ele><time>2026-05-03T14:55:11Z</time></trkpt><trkpt lat="45.20647495742591" lon="8.596813791375158"><ele>103.0</ele><time>2026-05-03T14:55:12Z</time></trkpt><trkpt lat="45.20638566551066" lon="8.596886192050825"><ele>103.0</ele><time>2026-05-03T14:55:13Z</time></trkpt><trkpt lat="45.206291060188995" lon="8.596954001051955"><ele>103.0</ele><time>2026-05-03T14:55:14Z</time></trkpt><trkpt lat="45.20619396738579" lon="8.597006295591326"><ele>103.0</ele><time>2026-05-03T14:55:15Z</time></trkpt><trkpt lat="45.20611734499615" lon="8.597048092316314"><ele>103.0</ele><time>2026-05-03T14:55:16Z</time></trkpt><trkpt lat="45.206022406315654" lon="8.597103160680359"><ele>103.0</ele><time>2026-05-03T14:55:17Z</time></trkpt><trkpt lat="45.205917647014836" lon="8.597174544014793"><ele>103.0</ele><time>2026-05-03T14:55:18Z</time></trkpt><trkpt lat="45.20580911954552" lon="8.597255592230068"><ele>103.0</ele><time>2026-05-03T14:55:19Z</time></trkpt><trkpt lat="45.205716747222624" lon="8.59732847487643"><ele>103.0</ele><time>2026-05-03T14:55:20Z</time></trkpt><trkpt lat="45.205635385336194" lon="8.597390736794553"><ele>103.0</ele><time>2026-05-03T14:55:21Z</time></trkpt><trkpt lat="45.20554364532703" lon="8.597452743260348"><ele>103.0</ele><time>2026-05-03T14:55:22Z</time></trkpt><trkpt lat="45.20545027740717" lon="8.597512009601745"><ele>103.0</ele><time>2026-05-03T14:55:23Z</time></trkpt><trkpt lat="45.20535324490239" lon="8.597578962204594"><ele>103.0</ele><time>2026-05-03T14:55:24Z</time></trkpt><trkpt lat="45.205262198307715" lon="8.597644985024003"><ele>103.0</ele><time>2026-05-03T14:55:25Z</time></trkpt><trkpt lat="45.20516601491165" lon="8.597715608289203"><ele>103.0</ele><time>2026-05-03T14:55:26Z</time></trkpt><trkpt lat="45.205067926881355" lon="8.597791598661807"><ele>103.0</ele><time>2026-05-03T14:55:27Z</time></trkpt><trkpt lat="45.20496753990445" lon="8.597867934176467"><ele>103.0</ele><time>2026-05-03T14:55:28Z</time></trkpt><trkpt lat="45.204866217346556" lon="8.597942034578422"><ele>103.0</ele><time>2026-05-03T14:55:29Z</time></trkpt><trkpt lat="45.204764526680165" lon="8.59801525463061"><ele>103.0</ele><time>2026-05-03T14:55:30Z</time></trkpt><trkpt lat="45.204653319167655" lon="8.598094664674598"><ele>103.0</ele><time>2026-05-03T14:55:31Z</time></trkpt><trkpt lat="45.20455999102144" lon="8.598162656372518"><ele>103.0</ele><time>2026-05-03T14:55:32Z</time></trkpt><trkpt lat="45.204473160472595" lon="8.598226008295716"><ele>103.0</ele><time>2026-05-03T14:55:33Z</time></trkpt><trkpt lat="45.20437994193673" lon="8.59829958962857"><ele>103.0</ele><time>2026-05-03T14:55:34Z</time></trkpt><trkpt lat="45.20428276196106" lon="8.598373463691251"><ele>103.0</ele><time>2026-05-03T14:55:35Z</time></trkpt><trkpt lat="45.20420459575013" lon="8.598434803216945"><ele>103.0</ele><time>2026-05-03T14:55:36Z</time></trkpt><trkpt lat="45.204128554408655" lon="8.598500292606763"><ele>103.0</ele><time>2026-05-03T14:55:37Z</time></trkpt><trkpt lat="45.2040435816877" lon="8.598567425614275"><ele>103.0</ele><time>2026-05-03T14:55:38Z</time></trkpt><trkpt lat="45.20395204941022" lon="8.598639678539682"><ele>103.0</ele><time>2026-05-03T14:55:39Z</time></trkpt><trkpt lat="45.20387378236084" lon="8.598697242369385"><ele>103.0</ele><time>2026-05-03T14:55:40Z</time></trkpt><trkpt lat="45.203791262324806" lon="8.598756219443489"><ele>103.0</ele><time>2026-05-03T14:55:41Z</time></trkpt><trkpt lat="45.20370539691162" lon="8.598818960462715"><ele>103.2</ele><time>2026-05-03T14:55:42Z</time></trkpt><trkpt lat="45.20361818075486" lon="8.598879336130235"><ele>103.4</ele><time>2026-05-03T14:55:43Z</time></trkpt><trkpt lat="45.203521124421144" lon="8.59894936075578"><ele>103.60000000000001</ele><time>2026-05-03T14:55:44Z</time></trkpt><trkpt lat="45.20342123208155" lon="8.59902217558772"><ele>103.80000000000001</ele><time>2026-05-03T14:55:45Z</time></trkpt><trkpt lat="45.20333520131975" lon="8.599086043502945"><ele>104.0</ele><time>2026-05-03T14:55:46Z</time></trkpt><trkpt lat="45.20324903064164" lon="8.59915332655836"><ele>103.80000000000001</ele><time>2026-05-03T14:55:47Z</time></trkpt><trkpt lat="45.203153351881554" lon="8.599227586111995"><ele>103.60000000000001</ele><time>2026-05-03T14:55:48Z</time></trkpt><trkpt lat="45.203050918583735" lon="8.59930439407014"><ele>103.4</ele><time>2026-05-03T14:55:49Z</time></trkpt><trkpt lat="45.202954659975205" lon="8.59938047866309"><ele>103.2</ele><time>2026-05-03T14:55:50Z</time></trkpt><trkpt lat="45.202872758461375" lon="8.599443239693455"><ele>103.0</ele><time>2026-05-03T14:55:51Z</time></trkpt><trkpt lat="45.2027891048563" lon="8.599510327270508"><ele>103.0</ele><time>2026-05-03T14:55:52Z</time></trkpt><trkpt lat="45.20270153399793" lon="8.59957665586148"><ele>103.0</ele><time>2026-05-03T14:55:53Z</time></trkpt><trkpt lat="45.20261657568193" lon="8.59964007335069"><ele>103.0</ele><time>2026-05-03T14:55:54Z</time></trkpt><trkpt lat="45.20254210647161" lon="8.599694190452356"><ele>103.0</ele><time>2026-05-03T14:55:55Z</time></trkpt><trkpt lat="45.202482892181244" lon="8.599737175572516"><ele>103.0</ele><time>2026-05-03T14:55:56Z</time></trkpt><trkpt lat="45.202375070803335" lon="8.599815738696654"><ele>103.00000000000001</ele><time>2026-05-03T14:55:58Z</time></trkpt><trkpt lat="45.20231504746745" lon="8.599862161116317"><ele>103.0</ele><time>2026-05-03T14:55:59Z</time></trkpt><trkpt lat="45.20224268653068" lon="8.599916676029954"><ele>103.0</ele><time>2026-05-03T14:56:00Z</time></trkpt><trkpt lat="45.20216833514152" lon="8.599969128955301"><ele>103.0</ele><time>2026-05-03T14:56:01Z</time></trkpt><trkpt lat="45.20210014260833" lon="8.60002330206144"><ele>103.00000000000001</ele><time>2026-05-03T14:56:02Z</time></trkpt><trkpt lat="45.202019125375756" lon="8.600091477574145"><ele>103.0</ele><time>2026-05-03T14:56:03Z</time></trkpt><trkpt lat="45.201933730938585" lon="8.600149084867635"><ele>103.0</ele><time>2026-05-03T14:56:04Z</time></trkpt><trkpt lat="45.20184337792217" lon="8.60021497527091"><ele>103.0</ele><time>2026-05-03T14:56:05Z</time></trkpt><trkpt lat="45.201751947849125" lon="8.60027999143185"><ele>103.0</ele><time>2026-05-03T14:56:06Z</time></trkpt><trkpt lat="45.20167683066446" lon="8.60033541507295"><ele>103.0</ele><time>2026-05-03T14:56:07Z</time></trkpt><trkpt lat="45.201603940574" lon="8.600392222743201"><ele>103.0</ele><time>2026-05-03T14:56:08Z</time></trkpt><trkpt lat="45.20152740604046" lon="8.600449519380163"><ele>103.0</ele><time>2026-05-03T14:56:09Z</time></trkpt><trkpt lat="45.20142273638649" lon="8.600473519221554"><ele>103.0</ele><time>2026-05-03T14:56:10Z</time></trkpt><trkpt lat="45.20132294148198" lon="8.600548312596526"><ele>103.0</ele><time>2026-05-03T14:56:11Z</time></trkpt><trkpt lat="45.20120024230054" lon="8.600640272079128"><ele>103.0</ele><time>2026-05-03T14:56:12Z</time></trkpt><trkpt lat="45.201080679413984" lon="8.600727388397841"><ele>103.0</ele><time>2026-05-03T14:56:13Z</time></trkpt><trkpt lat="45.20098813591146" lon="8.600794747706518"><ele>103.0</ele><time>2026-05-03T14:56:14Z</time></trkpt><trkpt lat="45.20090715656304" lon="8.600854390654948"><ele>103.0</ele><time>2026-05-03T14:56:15Z</time></trkpt><trkpt lat="45.20082870280055" lon="8.600913336278447"><ele>103.0</ele><time>2026-05-03T14:56:16Z</time></trkpt><trkpt lat="45.20074087866493" lon="8.600979472341658"><ele>103.0</ele><time>2026-05-03T14:56:17Z</time></trkpt><trkpt lat="45.200642030513805" lon="8.601054298287329"><ele>102.80000000000001</ele><time>2026-05-03T14:56:18Z</time></trkpt><trkpt lat="45.20054774168273" lon="8.601128628412438"><ele>102.6</ele><time>2026-05-03T14:56:19Z</time></trkpt><trkpt lat="45.200456300925715" lon="8.60120071335197"><ele>102.4</ele><time>2026-05-03T14:56:20Z</time></trkpt><trkpt lat="45.20036519301186" lon="8.601272091147003"><ele>102.19999999999999</ele><time>2026-05-03T14:56:21Z</time></trkpt><trkpt lat="45.200278625749036" lon="8.601338606357348"><ele>102.0</ele><time>2026-05-03T14:56:22Z</time></trkpt><trkpt lat="45.200182016276585" lon="8.601412885328498"><ele>102.0</ele><time>2026-05-03T14:56:23Z</time></trkpt><trkpt lat="45.200082412992295" lon="8.601494555128822"><ele>102.0</ele><time>2026-05-03T14:56:24Z</time></trkpt><trkpt lat="45.19998378052659" lon="8.601579136554983"><ele>102.0</ele><time>2026-05-03T14:56:25Z</time></trkpt><trkpt lat="45.19988322233625" lon="8.601667999449882"><ele>102.0</ele><time>2026-05-03T14:56:26Z</time></trkpt><trkpt lat="45.19978562620546" lon="8.60175424476954"><ele>102.0</ele><time>2026-05-03T14:56:27Z</time></trkpt><trkpt lat="45.19967895086882" lon="8.60184851342885"><ele>102.0</ele><time>2026-05-03T14:56:28Z</time></trkpt><trkpt lat="45.199553490592045" lon="8.601957039264166"><ele>102.0</ele><time>2026-05-03T14:56:29Z</time></trkpt><trkpt lat="45.19941057958679" lon="8.602073934737193"><ele>102.0</ele><time>2026-05-03T14:56:30Z</time></trkpt><trkpt lat="45.19927282087238" lon="8.602181570494558"><ele>102.25</ele><time>2026-05-03T14:56:31Z</time></trkpt><trkpt lat="45.199157090942215" lon="8.60227049323835"><ele>102.5</ele><time>2026-05-03T14:56:32Z</time></trkpt><trkpt lat="45.19903071460498" lon="8.602363481090217"><ele>102.75</ele><time>2026-05-03T14:56:33Z</time></trkpt><trkpt lat="45.19887709289205" lon="8.602476322872295"><ele>103.0</ele><time>2026-05-03T14:56:34Z</time></trkpt><trkpt lat="45.19875162981023" lon="8.602565863684145"><ele>103.0</ele><time>2026-05-03T14:56:35Z</time></trkpt><trkpt lat="45.19863630339822" lon="8.6026466013211"><ele>103.0</ele><time>2026-05-03T14:56:36Z</time></trkpt><trkpt lat="45.198531908152844" lon="8.602719686300604"><ele>103.0</ele><time>2026-05-03T14:56:37Z</time></trkpt><trkpt lat="45.198421483994046" lon="8.602796991956069"><ele>103.0</ele><time>2026-05-03T14:56:38Z</time></trkpt><trkpt lat="45.19831510144917" lon="8.602871553819831"><ele>103.0</ele><time>2026-05-03T14:56:39Z</time></trkpt><trkpt lat="45.1982135913328" lon="8.602943588100743"><ele>103.0</ele><time>2026-05-03T14:56:40Z</time></trkpt><trkpt lat="45.198111485299926" lon="8.603016045266543"><ele>103.0</ele><time>2026-05-03T14:56:41Z</time></trkpt><trkpt lat="45.19801144436345" lon="8.603087037002167"><ele>103.0</ele><time>2026-05-03T14:56:42Z</time></trkpt><trkpt lat="45.1979111314522" lon="8.603158221778992"><ele>103.0</ele><time>2026-05-03T14:56:43Z</time></trkpt><trkpt lat="45.19781397881215" lon="8.603227163922096"><ele>103.0</ele><time>2026-05-03T14:56:44Z</time></trkpt><trkpt lat="45.19772003370908" lon="8.60329316101457"><ele>103.0</ele><time>2026-05-03T14:56:45Z</time></trkpt><trkpt lat="45.197623339236856" lon="8.603358972715798"><ele>103.0</ele><time>2026-05-03T14:56:46Z</time></trkpt><trkpt lat="45.197516794250326" lon="8.603428736064572"><ele>103.0</ele><time>2026-05-03T14:56:47Z</time></trkpt><trkpt lat="45.19740899377626" lon="8.60350100996991"><ele>102.75</ele><time>2026-05-03T14:56:48Z</time></trkpt><trkpt lat="45.19729958676633" lon="8.603574360933063"><ele>102.5</ele><time>2026-05-03T14:56:49Z</time></trkpt><trkpt lat="45.19718912340841" lon="8.603650245457521"><ele>102.25</ele><time>2026-05-03T14:56:50Z</time></trkpt><trkpt lat="45.19707619428648" lon="8.603728909550899"><ele>102.0</ele><time>2026-05-03T14:56:51Z</time></trkpt><trkpt lat="45.19696663668829" lon="8.603805225101517"><ele>102.0</ele><time>2026-05-03T14:56:52Z</time></trkpt><trkpt lat="45.196857825582576" lon="8.603881020689423"><ele>102.0</ele><time>2026-05-03T14:56:53Z</time></trkpt><trkpt lat="45.19675231417478" lon="8.60395496923248"><ele>102.0</ele><time>2026-05-03T14:56:54Z</time></trkpt><trkpt lat="45.19664552880137" lon="8.604031966712958"><ele>102.0</ele><time>2026-05-03T14:56:55Z</time></trkpt><trkpt lat="45.1965367193527" lon="8.604114400915527"><ele>102.0</ele><time>2026-05-03T14:56:56Z</time></trkpt><trkpt lat="45.19642398629592" lon="8.604202065277091"><ele>102.0</ele><time>2026-05-03T14:56:57Z</time></trkpt><trkpt lat="45.196310607583754" lon="8.604292849018858"><ele>102.0</ele><time>2026-05-03T14:56:58Z</time></trkpt><trkpt lat="45.196210742618916" lon="8.604401436296502"><ele>102.0</ele><time>2026-05-03T14:56:59Z</time></trkpt><trkpt lat="45.1961088420699" lon="8.604455394853746"><ele>102.19999999999999</ele><time>2026-05-03T14:57:00Z</time></trkpt><trkpt lat="45.1960290161716" lon="8.604513764800627"><ele>102.4</ele><time>2026-05-03T14:57:01Z</time></trkpt><trkpt lat="45.195934071399115" lon="8.604580625298405"><ele>102.6</ele><time>2026-05-03T14:57:02Z</time></trkpt><trkpt lat="45.195832003883275" lon="8.604650398461208"><ele>102.80000000000001</ele><time>2026-05-03T14:57:03Z</time></trkpt><trkpt lat="45.19572818350195" lon="8.604720680470862"><ele>103.0</ele><time>2026-05-03T14:57:04Z</time></trkpt><trkpt lat="45.19561991153982" lon="8.60479372045005"><ele>102.5</ele><time>2026-05-03T14:57:05Z</time></trkpt><trkpt lat="45.19551323189274" lon="8.604863049014584"><ele>102.0</ele><time>2026-05-03T14:57:06Z</time></trkpt><trkpt lat="45.19540902459899" lon="8.604928992348377"><ele>101.5</ele><time>2026-05-03T14:57:07Z</time></trkpt><trkpt lat="45.19530181190663" lon="8.604998017503403"><ele>101.0</ele><time>2026-05-03T14:57:08Z</time></trkpt><trkpt lat="45.19520276708883" lon="8.605095051765677"><ele>101.0</ele><time>2026-05-03T14:57:09Z</time></trkpt><trkpt lat="45.195115844134996" lon="8.605164388739245"><ele>101.0</ele><time>2026-05-03T14:57:10Z</time></trkpt><trkpt lat="45.195020377242734" lon="8.605234106561564"><ele>101.0</ele><time>2026-05-03T14:57:11Z</time></trkpt><trkpt lat="45.194904410520124" lon="8.605314431096753"><ele>101.0</ele><time>2026-05-03T14:57:12Z</time></trkpt><trkpt lat="45.194789751219474" lon="8.605406776933915"><ele>101.4</ele><time>2026-05-03T14:57:13Z</time></trkpt><trkpt lat="45.19470867224441" lon="8.605501039821105"><ele>101.8</ele><time>2026-05-03T14:57:14Z</time></trkpt><trkpt lat="45.19461797661814" lon="8.605570908650021"><ele>102.2</ele><time>2026-05-03T14:57:15Z</time></trkpt><trkpt lat="45.19451391621743" lon="8.60565854396368"><ele>102.60000000000001</ele><time>2026-05-03T14:57:16Z</time></trkpt><trkpt lat="45.194407939527274" lon="8.60572277490448"><ele>103.0</ele><time>2026-05-03T14:57:17Z</time></trkpt><trkpt lat="45.1943229457311" lon="8.605786301644931"><ele>103.0</ele><time>2026-05-03T14:57:18Z</time></trkpt><trkpt lat="45.19424035108359" lon="8.60584803518416"><ele>103.0</ele><time>2026-05-03T14:57:19Z</time></trkpt><trkpt lat="45.19415344638519" lon="8.605912990147212"><ele>103.0</ele><time>2026-05-03T14:57:20Z</time></trkpt><trkpt lat="45.19405923577079" lon="8.60598340576511"><ele>103.0</ele><time>2026-05-03T14:57:21Z</time></trkpt><trkpt lat="45.19395953506306" lon="8.606057924844372"><ele>103.0</ele><time>2026-05-03T14:57:22Z</time></trkpt><trkpt lat="45.19385927860684" lon="8.606134427890582"><ele>103.2</ele><time>2026-05-03T14:57:23Z</time></trkpt><trkpt lat="45.19376551004852" lon="8.606208207727944"><ele>103.4</ele><time>2026-05-03T14:57:24Z</time></trkpt><trkpt lat="45.193679183025075" lon="8.606277158891068"><ele>103.60000000000001</ele><time>2026-05-03T14:57:25Z</time></trkpt><trkpt lat="45.19358348945638" lon="8.60635415748722"><ele>103.80000000000001</ele><time>2026-05-03T14:57:26Z</time></trkpt><trkpt lat="45.19348673294851" lon="8.60643290498912"><ele>104.0</ele><time>2026-05-03T14:57:27Z</time></trkpt><trkpt lat="45.1933952731403" lon="8.606509181053061"><ele>104.0</ele><time>2026-05-03T14:57:28Z</time></trkpt><trkpt lat="45.193306331616775" lon="8.606584688146826"><ele>104.0</ele><time>2026-05-03T14:57:29Z</time></trkpt><trkpt lat="45.19321188354229" lon="8.606664869522993"><ele>104.0</ele><time>2026-05-03T14:57:30Z</time></trkpt><trkpt lat="45.19311597301046" lon="8.606746292783896"><ele>104.0</ele><time>2026-05-03T14:57:31Z</time></trkpt><trkpt lat="45.19301801422812" lon="8.606828761560804"><ele>104.0</ele><time>2026-05-03T14:57:32Z</time></trkpt><trkpt lat="45.19292205720145" lon="8.606907576608819"><ele>104.25</ele><time>2026-05-03T14:57:33Z</time></trkpt><trkpt lat="45.19283160622929" lon="8.607004684687858"><ele>104.5</ele><time>2026-05-03T14:57:34Z</time></trkpt><trkpt lat="45.192720840587135" lon="8.607060852473854"><ele>104.75</ele><time>2026-05-03T14:57:35Z</time></trkpt><trkpt lat="45.19261712706769" lon="8.607128776040181"><ele>105.0</ele><time>2026-05-03T14:57:36Z</time></trkpt><trkpt lat="45.19251772177369" lon="8.607220917563863"><ele>105.0</ele><time>2026-05-03T14:57:37Z</time></trkpt><trkpt lat="45.192413853864025" lon="8.607267381938346"><ele>105.0</ele><time>2026-05-03T14:57:38Z</time></trkpt><trkpt lat="45.19233078096491" lon="8.607325220017582"><ele>105.0</ele><time>2026-05-03T14:57:39Z</time></trkpt><trkpt lat="45.19225946221107" lon="8.607400992777759"><ele>105.0</ele><time>2026-05-03T14:57:40Z</time></trkpt><trkpt lat="45.192173573524016" lon="8.607458373166036"><ele>105.0</ele><time>2026-05-03T14:57:41Z</time></trkpt><trkpt lat="45.192094002155315" lon="8.607491234823838"><ele>104.83333333333333</ele><time>2026-05-03T14:57:42Z</time></trkpt><trkpt lat="45.19204310608176" lon="8.607549472449852"><ele>104.66666666666666</ele><time>2026-05-03T14:57:43Z</time></trkpt><trkpt lat="45.19197280233926" lon="8.60757498046221"><ele>104.5</ele><time>2026-05-03T14:57:44Z</time></trkpt><trkpt lat="45.19190847524261" lon="8.60762559063423"><ele>104.33333333333333</ele><time>2026-05-03T14:57:45Z</time></trkpt><trkpt lat="45.191867880300556" lon="8.607695872194114"><ele>104.16666666666666</ele><time>2026-05-03T14:57:46Z</time></trkpt><trkpt lat="45.1917809078162" lon="8.607775930930964"><ele>104.0</ele><time>2026-05-03T14:57:48Z</time></trkpt><trkpt lat="45.19168631440657" lon="8.60779721842213"><ele>104.0</ele><time>2026-05-03T14:57:50Z</time></trkpt><trkpt lat="45.19157562116428" lon="8.607816642913795"><ele>104.0</ele><time>2026-05-03T14:57:52Z</time></trkpt><trkpt lat="45.19145335899362" lon="8.6078796509369"><ele>104.0</ele><time>2026-05-03T14:57:54Z</time></trkpt><trkpt lat="45.19139164668381" lon="8.607930868670776"><ele>104.0</ele><time>2026-05-03T14:57:55Z</time></trkpt><trkpt lat="45.19134338399333" lon="8.607993721623577"><ele>104.0</ele><time>2026-05-03T14:57:56Z</time></trkpt><trkpt lat="45.19128022289713" lon="8.608049731067997"><ele>103.99999999999999</ele><time>2026-05-03T14:57:57Z</time></trkpt><trkpt lat="45.19122039931628" lon="8.608128671992802"><ele>104.0</ele><time>2026-05-03T14:57:58Z</time></trkpt><trkpt lat="45.19116009970241" lon="8.608197116289718"><ele>104.0</ele><time>2026-05-03T14:57:59Z</time></trkpt><trkpt lat="45.19110776267538" lon="8.60826215998189"><ele>104.0</ele><time>2026-05-03T14:58:00Z</time></trkpt><trkpt lat="45.19104376461675" lon="8.608304155843095"><ele>103.99999999999999</ele><time>2026-05-03T14:58:01Z</time></trkpt><trkpt lat="45.1909520710458" lon="8.608349881678018"><ele>104.0</ele><time>2026-05-03T14:58:03Z</time></trkpt><trkpt lat="45.19087942203619" lon="8.608361431684228"><ele>104.0</ele><time>2026-05-03T14:58:07Z</time></trkpt><trkpt lat="45.190822412372206" lon="8.608259268356397"><ele>104.0</ele><time>2026-05-03T14:58:09Z</time></trkpt><trkpt lat="45.19077291816919" lon="8.608141264721652"><ele>104.0</ele><time>2026-05-03T14:58:11Z</time></trkpt><trkpt lat="45.19070783004828" lon="8.608050380128894"><ele>104.0</ele><time>2026-05-03T14:58:13Z</time></trkpt><trkpt lat="45.19061867151176" lon="8.607950638255934"><ele>104.0</ele><time>2026-05-03T14:58:15Z</time></trkpt><trkpt lat="45.19050752185292" lon="8.607854611924248"><ele>103.75</ele><time>2026-05-03T14:58:17Z</time></trkpt><trkpt lat="45.1904197720112" lon="8.60777322291957"><ele>103.5</ele><time>2026-05-03T14:58:18Z</time></trkpt><trkpt lat="45.190320744531114" lon="8.607663355241518"><ele>103.25</ele><time>2026-05-03T14:58:19Z</time></trkpt><trkpt lat="45.19020550802604" lon="8.60753401139217"><ele>103.0</ele><time>2026-05-03T14:58:20Z</time></trkpt><trkpt lat="45.19006765994755" lon="8.607380605963764"><ele>103.0</ele><time>2026-05-03T14:58:21Z</time></trkpt><trkpt lat="45.1899166760415" lon="8.607203893019364"><ele>103.0</ele><time>2026-05-03T14:58:22Z</time></trkpt><trkpt lat="45.1897575523083" lon="8.607015818636778"><ele>103.0</ele><time>2026-05-03T14:58:23Z</time></trkpt><trkpt lat="45.18958293105581" lon="8.606812648383396"><ele>102.66666666666667</ele><time>2026-05-03T14:58:24Z</time></trkpt><trkpt lat="45.1894166530611" lon="8.606618991724638"><ele>102.33333333333334</ele><time>2026-05-03T14:58:25Z</time></trkpt><trkpt lat="45.18926366885376" lon="8.606435412292337"><ele>102.0</ele><time>2026-05-03T14:58:26Z</time></trkpt><trkpt lat="45.18912500047292" lon="8.606267300076828"><ele>101.66666666666666</ele><time>2026-05-03T14:58:27Z</time></trkpt><trkpt lat="45.188990382297646" lon="8.606111512851117"><ele>101.33333333333333</ele><time>2026-05-03T14:58:28Z</time></trkpt><trkpt lat="45.18885848453597" lon="8.6059647802449"><ele>101.0</ele><time>2026-05-03T14:58:29Z</time></trkpt><trkpt lat="45.188737295910954" lon="8.605823476506947"><ele>101.0</ele><time>2026-05-03T14:58:30Z</time></trkpt><trkpt lat="45.18861665848088" lon="8.605680743718342"><ele>101.0</ele><time>2026-05-03T14:58:31Z</time></trkpt><trkpt lat="45.18849053060894" lon="8.605541663341448"><ele>101.0</ele><time>2026-05-03T14:58:32Z</time></trkpt><trkpt lat="45.18838231527433" lon="8.60538763940077"><ele>100.75</ele><time>2026-05-03T14:58:33Z</time></trkpt><trkpt lat="45.18826493486473" lon="8.605250413660327"><ele>100.5</ele><time>2026-05-03T14:58:34Z</time></trkpt><trkpt lat="45.18814360123038" lon="8.605125244175627"><ele>100.25</ele><time>2026-05-03T14:58:35Z</time></trkpt><trkpt lat="45.18803759127824" lon="8.605003241851495"><ele>100.0</ele><time>2026-05-03T14:58:36Z</time></trkpt><trkpt lat="45.187937203346564" lon="8.604885486627591"><ele>100.5</ele><time>2026-05-03T14:58:37Z</time></trkpt><trkpt lat="45.18783711741535" lon="8.604769157188018"><ele>101.0</ele><time>2026-05-03T14:58:38Z</time></trkpt><trkpt lat="45.187734400490655" lon="8.604651848286391"><ele>101.5</ele><time>2026-05-03T14:58:39Z</time></trkpt><trkpt lat="45.18762930407052" lon="8.604533300982952"><ele>102.0</ele><time>2026-05-03T14:58:40Z</time></trkpt><trkpt lat="45.1875271422138" lon="8.604417052623473"><ele>102.0</ele><time>2026-05-03T14:58:41Z</time></trkpt><trkpt lat="45.18742703278187" lon="8.604297718890344"><ele>102.0</ele><time>2026-05-03T14:58:42Z</time></trkpt><trkpt lat="45.18733584930077" lon="8.60418027653576"><ele>102.0</ele><time>2026-05-03T14:58:43Z</time></trkpt><trkpt lat="45.18725516276959" lon="8.60405833745201"><ele>102.0</ele><time>2026-05-03T14:58:44Z</time></trkpt><trkpt lat="45.18718391704084" lon="8.603916119724005"><ele>102.0</ele><time>2026-05-03T14:58:45Z</time></trkpt><trkpt lat="45.18712739541336" lon="8.60375784910425"><ele>102.0</ele><time>2026-05-03T14:58:46Z</time></trkpt><trkpt lat="45.18707024390153" lon="8.603622638883778"><ele>102.0</ele><time>2026-05-03T14:58:47Z</time></trkpt><trkpt lat="45.187027837594016" lon="8.603479150599075"><ele>102.0</ele><time>2026-05-03T14:58:48Z</time></trkpt><trkpt lat="45.18693863967441" lon="8.6033885829468"><ele>102.0</ele><time>2026-05-03T14:58:49Z</time></trkpt><trkpt lat="45.18682879934563" lon="8.603338580239809"><ele>102.0</ele><time>2026-05-03T14:58:50Z</time></trkpt><trkpt lat="45.18670633591528" lon="8.60330105821149"><ele>102.0</ele><time>2026-05-03T14:58:51Z</time></trkpt><trkpt lat="45.18658366731586" lon="8.6032218573256"><ele>102.0</ele><time>2026-05-03T14:58:52Z</time></trkpt><trkpt lat="45.186458959235544" lon="8.60311435720623"><ele>102.0</ele><time>2026-05-03T14:58:53Z</time></trkpt><trkpt lat="45.18632732996003" lon="8.602983941390532"><ele>102.0</ele><time>2026-05-03T14:58:54Z</time></trkpt><trkpt lat="45.18618479804564" lon="8.602832578099905"><ele>102.0</ele><time>2026-05-03T14:58:55Z</time></trkpt><trkpt lat="45.186029478140604" lon="8.60266391416776"><ele>102.0</ele><time>2026-05-03T14:58:56Z</time></trkpt><trkpt lat="45.18591892114089" lon="8.602509089596193"><ele>102.0</ele><time>2026-05-03T14:58:57Z</time></trkpt><trkpt lat="45.185749663083094" lon="8.602311197119665"><ele>102.0</ele><time>2026-05-03T14:58:58Z</time></trkpt><trkpt lat="45.1855654261822" lon="8.602125077159139"><ele>102.0</ele><time>2026-05-03T14:58:59Z</time></trkpt><trkpt lat="45.18538155946044" lon="8.601905537640146"><ele>102.0</ele><time>2026-05-03T14:59:00Z</time></trkpt><trkpt lat="45.18518611477463" lon="8.601676501149234"><ele>102.0</ele><time>2026-05-03T14:59:01Z</time></trkpt><trkpt lat="45.18499371823751" lon="8.601445260085667"><ele>102.0</ele><time>2026-05-03T14:59:02Z</time></trkpt><trkpt lat="45.184838541264014" lon="8.60126330921329"><ele>102.5</ele><time>2026-05-03T14:59:03Z</time></trkpt><trkpt lat="45.18470960709356" lon="8.601109612957508"><ele>103.0</ele><time>2026-05-03T14:59:04Z</time></trkpt><trkpt lat="45.18459965470351" lon="8.600983885659176"><ele>103.5</ele><time>2026-05-03T14:59:05Z</time></trkpt><trkpt lat="45.18451017042722" lon="8.600877586753835"><ele>104.0</ele><time>2026-05-03T14:59:06Z</time></trkpt><trkpt lat="45.18442855166873" lon="8.600775506851846"><ele>104.0</ele><time>2026-05-03T14:59:07Z</time></trkpt><trkpt lat="45.18434138571482" lon="8.600677844331637"><ele>104.0</ele><time>2026-05-03T14:59:08Z</time></trkpt><trkpt lat="45.18424827173551" lon="8.600569958448592"><ele>104.0</ele><time>2026-05-03T14:59:09Z</time></trkpt><trkpt lat="45.184146237220794" lon="8.600452198656207"><ele>104.0</ele><time>2026-05-03T14:59:10Z</time></trkpt><trkpt lat="45.184043741506585" lon="8.600332753293282"><ele>104.66666666666666</ele><time>2026-05-03T14:59:11Z</time></trkpt><trkpt lat="45.183936926373384" lon="8.600201292794004"><ele>105.33333333333334</ele><time>2026-05-03T14:59:12Z</time></trkpt><trkpt lat="45.1838210050069" lon="8.60006393821737"><ele>106.0</ele><time>2026-05-03T14:59:13Z</time></trkpt><trkpt lat="45.18369327179187" lon="8.599907270923643"><ele>106.0</ele><time>2026-05-03T14:59:14Z</time></trkpt><trkpt lat="45.18354845331296" lon="8.599738124661188"><ele>106.0</ele><time>2026-05-03T14:59:15Z</time></trkpt><trkpt lat="45.183403150196746" lon="8.59957177525555"><ele>106.0</ele><time>2026-05-03T14:59:16Z</time></trkpt><trkpt lat="45.18326212599261" lon="8.599408171584235"><ele>105.33333333333334</ele><time>2026-05-03T14:59:17Z</time></trkpt><trkpt lat="45.18312244004771" lon="8.59924332294033"><ele>104.66666666666666</ele><time>2026-05-03T14:59:18Z</time></trkpt><trkpt lat="45.18298274083677" lon="8.599085281892586"><ele>104.0</ele><time>2026-05-03T14:59:19Z</time></trkpt><trkpt lat="45.182845917988516" lon="8.5989205114953"><ele>104.0</ele><time>2026-05-03T14:59:20Z</time></trkpt><trkpt lat="45.18270567149388" lon="8.598760448583558"><ele>104.0</ele><time>2026-05-03T14:59:21Z</time></trkpt><trkpt lat="45.182567812726425" lon="8.59859939779686"><ele>104.0</ele><time>2026-05-03T14:59:22Z</time></trkpt><trkpt lat="45.18242854752221" lon="8.598439566004663"><ele>103.66666666666666</ele><time>2026-05-03T14:59:23Z</time></trkpt><trkpt lat="45.18228963770116" lon="8.598278328580312"><ele>103.33333333333334</ele><time>2026-05-03T14:59:24Z</time></trkpt><trkpt lat="45.1821532682959" lon="8.598119509047823"><ele>103.0</ele><time>2026-05-03T14:59:25Z</time></trkpt><trkpt lat="45.18202124795201" lon="8.597964410439198"><ele>103.0</ele><time>2026-05-03T14:59:26Z</time></trkpt><trkpt lat="45.18189979684693" lon="8.597822950616134"><ele>103.0</ele><time>2026-05-03T14:59:27Z</time></trkpt><trkpt lat="45.18179067770074" lon="8.597695414025637"><ele>103.0</ele><time>2026-05-03T14:59:28Z</time></trkpt><trkpt lat="45.18168655793542" lon="8.597573385147413"><ele>103.0</ele><time>2026-05-03T14:59:29Z</time></trkpt><trkpt lat="45.18158623336676" lon="8.597456524858657"><ele>103.5</ele><time>2026-05-03T14:59:30Z</time></trkpt><trkpt lat="45.18149468536415" lon="8.597345390045264"><ele>104.0</ele><time>2026-05-03T14:59:31Z</time></trkpt><trkpt lat="45.181404436445824" lon="8.59724363635787"><ele>104.5</ele><time>2026-05-03T14:59:32Z</time></trkpt><trkpt lat="45.18131322673913" lon="8.597144885138684"><ele>105.0</ele><time>2026-05-03T14:59:33Z</time></trkpt><trkpt lat="45.18122086556321" lon="8.597034998873212"><ele>104.5</ele><time>2026-05-03T14:59:34Z</time></trkpt><trkpt lat="45.18112533978487" lon="8.59692415242042"><ele>104.0</ele><time>2026-05-03T14:59:35Z</time></trkpt><trkpt lat="45.18102611646478" lon="8.596807082404837"><ele>103.5</ele><time>2026-05-03T14:59:36Z</time></trkpt><trkpt lat="45.18092593455784" lon="8.596694482313456"><ele>103.0</ele><time>2026-05-03T14:59:37Z</time></trkpt><trkpt lat="45.18082549344428" lon="8.596570718302303"><ele>103.0</ele><time>2026-05-03T14:59:38Z</time></trkpt><trkpt lat="45.18072422707418" lon="8.596451878098664"><ele>103.0</ele><time>2026-05-03T14:59:39Z</time></trkpt><trkpt lat="45.18062015821796" lon="8.596328854914676"><ele>103.0</ele><time>2026-05-03T14:59:40Z</time></trkpt><trkpt lat="45.180517846956484" lon="8.596207056788"><ele>103.0</ele><time>2026-05-03T14:59:41Z</time></trkpt><trkpt lat="45.18041431689967" lon="8.596082295234138"><ele>102.75</ele><time>2026-05-03T14:59:42Z</time></trkpt><trkpt lat="45.18031366534945" lon="8.595965068437561"><ele>102.5</ele><time>2026-05-03T14:59:43Z</time></trkpt><trkpt lat="45.18021446960578" lon="8.595854131935091"><ele>102.25</ele><time>2026-05-03T14:59:44Z</time></trkpt><trkpt lat="45.180118222467456" lon="8.595733508984807"><ele>102.0</ele><time>2026-05-03T14:59:45Z</time></trkpt><trkpt lat="45.18002191468641" lon="8.595626878800362"><ele>102.0</ele><time>2026-05-03T14:59:46Z</time></trkpt><trkpt lat="45.17994010507979" lon="8.595508532903528"><ele>102.0</ele><time>2026-05-03T14:59:47Z</time></trkpt><trkpt lat="45.179847583798896" lon="8.595429222188164"><ele>102.0</ele><time>2026-05-03T14:59:48Z</time></trkpt><trkpt lat="45.179767198500315" lon="8.595333791335346"><ele>102.0</ele><time>2026-05-03T14:59:49Z</time></trkpt><trkpt lat="45.17968741039178" lon="8.595242659859927"><ele>102.0</ele><time>2026-05-03T14:59:50Z</time></trkpt><trkpt lat="45.1796091287259" lon="8.59514698282865"><ele>102.19999999999999</ele><time>2026-05-03T14:59:51Z</time></trkpt><trkpt lat="45.17953069943445" lon="8.595053624612646"><ele>102.4</ele><time>2026-05-03T14:59:52Z</time></trkpt><trkpt lat="45.17944640195737" lon="8.594960429990175"><ele>102.6</ele><time>2026-05-03T14:59:53Z</time></trkpt><trkpt lat="45.179374583637326" lon="8.594871993261519"><ele>102.80000000000001</ele><time>2026-05-03T14:59:54Z</time></trkpt><trkpt lat="45.179302081397374" lon="8.594787165156713"><ele>103.0</ele><time>2026-05-03T14:59:55Z</time></trkpt><trkpt lat="45.17923650113057" lon="8.594708444375735"><ele>103.00000000000001</ele><time>2026-05-03T14:59:56Z</time></trkpt><trkpt lat="45.179175755256814" lon="8.594635051090041"><ele>103.0</ele><time>2026-05-03T14:59:57Z</time></trkpt><trkpt lat="45.1791211536625" lon="8.594569510819902"><ele>103.0</ele><time>2026-05-03T14:59:58Z</time></trkpt><trkpt lat="45.17906503467253" lon="8.594501861144645"><ele>103.0</ele><time>2026-05-03T14:59:59Z</time></trkpt><trkpt lat="45.17901483892791" lon="8.594443546185142"><ele>103.00000000000001</ele><time>2026-05-03T15:00:00Z</time></trkpt><trkpt lat="45.1789334175939" lon="8.59434788083945"><ele>103.0</ele><time>2026-05-03T15:00:02Z</time></trkpt><trkpt lat="45.178869296548115" lon="8.594271789377492"><ele>103.33333333333334</ele><time>2026-05-03T15:00:04Z</time></trkpt><trkpt lat="45.17881463967546" lon="8.594207065086122"><ele>103.66666666666667</ele><time>2026-05-03T15:00:07Z</time></trkpt><trkpt lat="45.17874542390218" lon="8.594134843016628"><ele>104.0</ele><time>2026-05-03T15:00:14Z</time></trkpt><trkpt lat="45.178682604844425" lon="8.594063942952223"><ele>104.33333333333334</ele><time>2026-05-03T15:00:16Z</time></trkpt><trkpt lat="45.178618149124254" lon="8.593988756735655"><ele>104.66666666666667</ele><time>2026-05-03T15:00:18Z</time></trkpt><trkpt lat="45.178615800899465" lon="8.593896614661524"><ele>105.0</ele><time>2026-05-03T15:00:20Z</time></trkpt><trkpt lat="45.17873214454152" lon="8.59381745521141"><ele>105.0</ele><time>2026-05-03T15:00:22Z</time></trkpt><trkpt lat="45.17883555424279" lon="8.593776061192992"><ele>105.0</ele><time>2026-05-03T15:00:23Z</time></trkpt><trkpt lat="45.17893871355125" lon="8.593705901720861"><ele>105.0</ele><time>2026-05-03T15:00:24Z</time></trkpt><trkpt lat="45.17904451612673" lon="8.593629330143557"><ele>105.0</ele><time>2026-05-03T15:00:25Z</time></trkpt><trkpt lat="45.17916686000531" lon="8.593576297588248"><ele>104.75</ele><time>2026-05-03T15:00:26Z</time></trkpt><trkpt lat="45.17928658448869" lon="8.593483943083168"><ele>104.5</ele><time>2026-05-03T15:00:27Z</time></trkpt><trkpt lat="45.17940224619059" lon="8.593422975787595"><ele>104.25</ele><time>2026-05-03T15:00:28Z</time></trkpt><trkpt lat="45.17950275824411" lon="8.593359408454212"><ele>104.0</ele><time>2026-05-03T15:00:29Z</time></trkpt><trkpt lat="45.17958805289185" lon="8.593316601912292"><ele>104.0</ele><time>2026-05-03T15:00:30Z</time></trkpt><trkpt lat="45.1796797453945" lon="8.593242079048752"><ele>104.0</ele><time>2026-05-03T15:00:32Z</time></trkpt><trkpt lat="45.17972626949925" lon="8.593090039235335"><ele>104.0</ele><time>2026-05-03T15:00:34Z</time></trkpt><trkpt lat="45.17973495165205" lon="8.592971329594361"><ele>104.0</ele><time>2026-05-03T15:00:35Z</time></trkpt><trkpt lat="45.17976871381699" lon="8.59282747296109"><ele>104.0</ele><time>2026-05-03T15:00:36Z</time></trkpt><trkpt lat="45.17978651101315" lon="8.592690946043941"><ele>103.99999999999999</ele><time>2026-05-03T15:00:37Z</time></trkpt><trkpt lat="45.17980095160947" lon="8.592584698300465"><ele>104.0</ele><time>2026-05-03T15:00:38Z</time></trkpt><trkpt lat="45.17980669991062" lon="8.59249343048996"><ele>104.0</ele><time>2026-05-03T15:00:39Z</time></trkpt><trkpt lat="45.17981646954355" lon="8.59233765167821"><ele>104.0</ele><time>2026-05-03T15:00:41Z</time></trkpt><trkpt lat="45.179841603381576" lon="8.592251371531127"><ele>103.99999999999999</ele><time>2026-05-03T15:00:43Z</time></trkpt><trkpt lat="45.17993393669509" lon="8.592201237614171"><ele>104.0</ele><time>2026-05-03T15:00:46Z</time></trkpt><trkpt lat="45.180003337965324" lon="8.59217708992817"><ele>104.0</ele><time>2026-05-03T15:00:47Z</time></trkpt><trkpt lat="45.180100455823045" lon="8.592150054285266"><ele>104.0</ele><time>2026-05-03T15:00:48Z</time></trkpt><trkpt lat="45.18020685017464" lon="8.592122403294814"><ele>104.0</ele><time>2026-05-03T15:00:49Z</time></trkpt><trkpt lat="45.18032138892443" lon="8.592094968971072"><ele>104.0</ele><time>2026-05-03T15:00:50Z</time></trkpt><trkpt lat="45.180436786817964" lon="8.592067665216673"><ele>104.0</ele><time>2026-05-03T15:00:51Z</time></trkpt><trkpt lat="45.1805361355601" lon="8.59203555768488"><ele>104.0</ele><time>2026-05-03T15:00:52Z</time></trkpt><trkpt lat="45.180626932657425" lon="8.592008756335257"><ele>104.0</ele><time>2026-05-03T15:00:53Z</time></trkpt><trkpt lat="45.180707827907305" lon="8.591988461401316"><ele>104.0</ele><time>2026-05-03T15:00:54Z</time></trkpt><trkpt lat="45.18077560058115" lon="8.591977528656209"><ele>104.0</ele><time>2026-05-03T15:00:55Z</time></trkpt><trkpt lat="45.180881279378454" lon="8.591967826271803"><ele>104.0</ele><time>2026-05-03T15:00:57Z</time></trkpt><trkpt lat="45.18093977075599" lon="8.591824639828497"><ele>103.80000000000001</ele><time>2026-05-03T15:00:58Z</time></trkpt><trkpt lat="45.18100738244661" lon="8.591713353521852"><ele>103.60000000000001</ele><time>2026-05-03T15:00:59Z</time></trkpt><trkpt lat="45.18107938013124" lon="8.59159441858801"><ele>103.4</ele><time>2026-05-03T15:01:00Z</time></trkpt><trkpt lat="45.18115154155159" lon="8.591468563621161"><ele>103.2</ele><time>2026-05-03T15:01:01Z</time></trkpt><trkpt lat="45.181228136854884" lon="8.591349911222874"><ele>103.0</ele><time>2026-05-03T15:01:02Z</time></trkpt><trkpt lat="45.181299822995584" lon="8.591236921440967"><ele>102.80000000000001</ele><time>2026-05-03T15:01:03Z</time></trkpt><trkpt lat="45.18136705450125" lon="8.591131871787557"><ele>102.6</ele><time>2026-05-03T15:01:04Z</time></trkpt><trkpt lat="45.181424441346024" lon="8.591034882951428"><ele>102.4</ele><time>2026-05-03T15:01:05Z</time></trkpt><trkpt lat="45.18149062846401" lon="8.590938292651915"><ele>102.19999999999999</ele><time>2026-05-03T15:01:06Z</time></trkpt><trkpt lat="45.18155800017039" lon="8.59084378522922"><ele>102.0</ele><time>2026-05-03T15:01:07Z</time></trkpt><trkpt lat="45.18163044178615" lon="8.590745772258519"><ele>101.6</ele><time>2026-05-03T15:01:08Z</time></trkpt><trkpt lat="45.18170709230006" lon="8.590635258293164"><ele>101.19999999999999</ele><time>2026-05-03T15:01:09Z</time></trkpt><trkpt lat="45.18178102298111" lon="8.590533047433665"><ele>100.8</ele><time>2026-05-03T15:01:10Z</time></trkpt><trkpt lat="45.18185493373731" lon="8.590426307655152"><ele>100.4</ele><time>2026-05-03T15:01:11Z</time></trkpt><trkpt lat="45.181928696971006" lon="8.59032004261076"><ele>100.0</ele><time>2026-05-03T15:01:12Z</time></trkpt><trkpt lat="45.18200027647177" lon="8.590214013024413"><ele>100.0</ele><time>2026-05-03T15:01:13Z</time></trkpt><trkpt lat="45.18206479171941" lon="8.590113828312806"><ele>100.0</ele><time>2026-05-03T15:01:14Z</time></trkpt><trkpt lat="45.18212875399213" lon="8.590016965154671"><ele>100.0</ele><time>2026-05-03T15:01:15Z</time></trkpt><trkpt lat="45.18218878832105" lon="8.589908656670818"><ele>100.0</ele><time>2026-05-03T15:01:16Z</time></trkpt><trkpt lat="45.18224291573878" lon="8.589794802165962"><ele>100.0</ele><time>2026-05-03T15:01:17Z</time></trkpt><trkpt lat="45.18229216905509" lon="8.589669064014693"><ele>100.0</ele><time>2026-05-03T15:01:18Z</time></trkpt><trkpt lat="45.18233109010842" lon="8.589538291285699"><ele>100.0</ele><time>2026-05-03T15:01:19Z</time></trkpt><trkpt lat="45.182368873601696" lon="8.589397429600849"><ele>100.0</ele><time>2026-05-03T15:01:20Z</time></trkpt><trkpt lat="45.182403486982736" lon="8.589251695160836"><ele>100.0</ele><time>2026-05-03T15:01:21Z</time></trkpt><trkpt lat="45.18243699093238" lon="8.589110621506396"><ele>100.0</ele><time>2026-05-03T15:01:22Z</time></trkpt><trkpt lat="45.182468882883114" lon="8.588995866401824"><ele>100.00000000000001</ele><time>2026-05-03T15:01:23Z</time></trkpt><trkpt lat="45.18249958905989" lon="8.588890714897472"><ele>100.0</ele><time>2026-05-03T15:01:24Z</time></trkpt><trkpt lat="45.18253639402298" lon="8.58877882032558"><ele>100.0</ele><time>2026-05-03T15:01:25Z</time></trkpt><trkpt lat="45.18257848529342" lon="8.588681909671223"><ele>100.0</ele><time>2026-05-03T15:01:26Z</time></trkpt><trkpt lat="45.18262703082873" lon="8.588607939884524"><ele>100.00000000000001</ele><time>2026-05-03T15:01:27Z</time></trkpt><trkpt lat="45.182682194193504" lon="8.588548376865612"><ele>100.0</ele><time>2026-05-03T15:01:28Z</time></trkpt><trkpt lat="45.182750039299655" lon="8.588480772292206"><ele>100.2</ele><time>2026-05-03T15:01:29Z</time></trkpt><trkpt lat="45.18283222045635" lon="8.588403120257624"><ele>100.4</ele><time>2026-05-03T15:01:30Z</time></trkpt><trkpt lat="45.182918481267066" lon="8.588320212535972"><ele>100.6</ele><time>2026-05-03T15:01:31Z</time></trkpt><trkpt lat="45.18301227853632" lon="8.588226942376693"><ele>100.8</ele><time>2026-05-03T15:01:32Z</time></trkpt><trkpt lat="45.18310617694535" lon="8.588135720523468"><ele>101.0</ele><time>2026-05-03T15:01:33Z</time></trkpt><trkpt lat="45.18320114400883" lon="8.588041430025399"><ele>101.5</ele><time>2026-05-03T15:01:34Z</time></trkpt><trkpt lat="45.183301071554055" lon="8.587938711275603"><ele>102.0</ele><time>2026-05-03T15:01:35Z</time></trkpt><trkpt lat="45.18340404434663" lon="8.587830858105749"><ele>102.5</ele><time>2026-05-03T15:01:36Z</time></trkpt><trkpt lat="45.183491416379475" lon="8.587743443368645"><ele>103.0</ele><time>2026-05-03T15:01:37Z</time></trkpt><trkpt lat="45.18356912736899" lon="8.587667288782908"><ele>103.0</ele><time>2026-05-03T15:01:38Z</time></trkpt><trkpt lat="45.18365546390184" lon="8.587579340207132"><ele>103.0</ele><time>2026-05-03T15:01:39Z</time></trkpt><trkpt lat="45.183754036562895" lon="8.587478584511285"><ele>103.0</ele><time>2026-05-03T15:01:40Z</time></trkpt><trkpt lat="45.183854529833965" lon="8.587384151166336"><ele>103.0</ele><time>2026-05-03T15:01:41Z</time></trkpt><trkpt lat="45.18395393537606" lon="8.587288854538842"><ele>103.0</ele><time>2026-05-03T15:01:42Z</time></trkpt><trkpt lat="45.18405158186796" lon="8.587193487650028"><ele>103.0</ele><time>2026-05-03T15:01:43Z</time></trkpt><trkpt lat="45.18414387471708" lon="8.587103709738335"><ele>103.0</ele><time>2026-05-03T15:01:44Z</time></trkpt><trkpt lat="45.18423418209629" lon="8.587012550999471"><ele>103.0</ele><time>2026-05-03T15:01:45Z</time></trkpt><trkpt lat="45.18432252219461" lon="8.586929845912984"><ele>103.0</ele><time>2026-05-03T15:01:46Z</time></trkpt><trkpt lat="45.184399474846586" lon="8.586860458348369"><ele>103.00000000000001</ele><time>2026-05-03T15:01:47Z</time></trkpt><trkpt lat="45.18446919188078" lon="8.58680305206816"><ele>103.0</ele><time>2026-05-03T15:01:48Z</time></trkpt><trkpt lat="45.18453169342481" lon="8.586753990011225"><ele>103.0</ele><time>2026-05-03T15:01:49Z</time></trkpt><trkpt lat="45.18460075182058" lon="8.586702354103272"><ele>103.0</ele><time>2026-05-03T15:01:50Z</time></trkpt><trkpt lat="45.184674412068006" lon="8.58664744616912"><ele>103.00000000000001</ele><time>2026-05-03T15:01:51Z</time></trkpt><trkpt lat="45.18475518574898" lon="8.586586645421429"><ele>103.0</ele><time>2026-05-03T15:01:52Z</time></trkpt><trkpt lat="45.18482208515989" lon="8.586525485337694"><ele>103.00000000000001</ele><time>2026-05-03T15:01:53Z</time></trkpt><trkpt lat="45.18488345482309" lon="8.58646844776062"><ele>103.0</ele><time>2026-05-03T15:01:54Z</time></trkpt><trkpt lat="45.184939450655435" lon="8.586402557092503"><ele>103.0</ele><time>2026-05-03T15:01:55Z</time></trkpt><trkpt lat="45.185000616761755" lon="8.5863167544509"><ele>103.0</ele><time>2026-05-03T15:01:56Z</time></trkpt><trkpt lat="45.18506451786385" lon="8.58621985750368"><ele>103.00000000000001</ele><time>2026-05-03T15:01:57Z</time></trkpt><trkpt lat="45.185125214846174" lon="8.586118640498889"><ele>103.0</ele><time>2026-05-03T15:01:58Z</time></trkpt><trkpt lat="45.185186836454136" lon="8.586011440551204"><ele>103.0</ele><time>2026-05-03T15:01:59Z</time></trkpt><trkpt lat="45.1852559567824" lon="8.585895553709467"><ele>103.0</ele><time>2026-05-03T15:02:00Z</time></trkpt><trkpt lat="45.185325227538335" lon="8.585779367997516"><ele>103.0</ele><time>2026-05-03T15:02:01Z</time></trkpt><trkpt lat="45.18538854904049" lon="8.585667540923975"><ele>103.0</ele><time>2026-05-03T15:02:02Z</time></trkpt><trkpt lat="45.18545220601284" lon="8.585560642507133"><ele>103.0</ele><time>2026-05-03T15:02:03Z</time></trkpt><trkpt lat="45.18551584532909" lon="8.585458266470912"><ele>103.0</ele><time>2026-05-03T15:02:04Z</time></trkpt><trkpt lat="45.185582368499176" lon="8.58535436574669"><ele>103.0</ele><time>2026-05-03T15:02:05Z</time></trkpt><trkpt lat="45.18565392027065" lon="8.585244896549941"><ele>103.0</ele><time>2026-05-03T15:02:06Z</time></trkpt><trkpt lat="45.18572994481782" lon="8.58514336205918"><ele>103.0</ele><time>2026-05-03T15:02:07Z</time></trkpt><trkpt lat="45.18580414091256" lon="8.585051000329731"><ele>103.0</ele><time>2026-05-03T15:02:08Z</time></trkpt><trkpt lat="45.18587623746746" lon="8.584969631472092"><ele>102.80000000000001</ele><time>2026-05-03T15:02:09Z</time></trkpt><trkpt lat="45.18595423176019" lon="8.584887694215526"><ele>102.6</ele><time>2026-05-03T15:02:10Z</time></trkpt><trkpt lat="45.18603778346648" lon="8.584801117317827"><ele>102.4</ele><time>2026-05-03T15:02:11Z</time></trkpt><trkpt lat="45.186118628276496" lon="8.58471461034713"><ele>102.19999999999999</ele><time>2026-05-03T15:02:12Z</time></trkpt><trkpt lat="45.18620194916613" lon="8.584631054302175"><ele>102.0</ele><time>2026-05-03T15:02:13Z</time></trkpt><trkpt lat="45.1862803005431" lon="8.584556723043193"><ele>102.0</ele><time>2026-05-03T15:02:14Z</time></trkpt><trkpt lat="45.18635428382588" lon="8.584481056335132"><ele>102.0</ele><time>2026-05-03T15:02:15Z</time></trkpt><trkpt lat="45.186423396488486" lon="8.58442536422848"><ele>102.0</ele><time>2026-05-03T15:02:16Z</time></trkpt><trkpt lat="45.18650956287665" lon="8.584356683532608"><ele>102.0</ele><time>2026-05-03T15:02:17Z</time></trkpt><trkpt lat="45.186607630454866" lon="8.584294131648642"><ele>102.0</ele><time>2026-05-03T15:02:18Z</time></trkpt><trkpt lat="45.186705989388045" lon="8.584243191093334"><ele>102.19999999999999</ele><time>2026-05-03T15:02:19Z</time></trkpt><trkpt lat="45.186793606512026" lon="8.584209337925158"><ele>102.4</ele><time>2026-05-03T15:02:20Z</time></trkpt><trkpt lat="45.18686924398491" lon="8.584182998393725"><ele>102.6</ele><time>2026-05-03T15:02:21Z</time></trkpt><trkpt lat="45.18695148419391" lon="8.584150833870673"><ele>102.80000000000001</ele><time>2026-05-03T15:02:22Z</time></trkpt><trkpt lat="45.18705067715475" lon="8.584109766310222"><ele>103.0</ele><time>2026-05-03T15:02:23Z</time></trkpt><trkpt lat="45.18715540806225" lon="8.584073874847142"><ele>103.0</ele><time>2026-05-03T15:02:24Z</time></trkpt><trkpt lat="45.18727719361722" lon="8.584047039476193"><ele>103.0</ele><time>2026-05-03T15:02:25Z</time></trkpt><trkpt lat="45.18741155908545" lon="8.584020009986501"><ele>103.0</ele><time>2026-05-03T15:02:26Z</time></trkpt><trkpt lat="45.18752463553184" lon="8.584002299441543"><ele>103.0</ele><time>2026-05-03T15:02:27Z</time></trkpt><trkpt lat="45.18761999931018" lon="8.58398609768915"><ele>103.0</ele><time>2026-05-03T15:02:28Z</time></trkpt><trkpt lat="45.1877227286052" lon="8.583972416129857"><ele>103.0</ele><time>2026-05-03T15:02:29Z</time></trkpt><trkpt lat="45.18783612005201" lon="8.58395109842052"><ele>103.0</ele><time>2026-05-03T15:02:30Z</time></trkpt><trkpt lat="45.187953877476936" lon="8.583932728088213"><ele>103.0</ele><time>2026-05-03T15:02:31Z</time></trkpt><trkpt lat="45.18807116428535" lon="8.583914873421705"><ele>103.80000000000001</ele><time>2026-05-03T15:02:32Z</time></trkpt><trkpt lat="45.18818238385618" lon="8.58390013219628"><ele>104.6</ele><time>2026-05-03T15:02:33Z</time></trkpt><trkpt lat="45.18829369174568" lon="8.5838758702507"><ele>105.39999999999999</ele><time>2026-05-03T15:02:34Z</time></trkpt><trkpt lat="45.18840482461723" lon="8.58385577909931"><ele>106.19999999999999</ele><time>2026-05-03T15:02:35Z</time></trkpt><trkpt lat="45.18851299246745" lon="8.583836494293513"><ele>107.0</ele><time>2026-05-03T15:02:36Z</time></trkpt><trkpt lat="45.18860889733222" lon="8.583817650188601"><ele>106.99999999999999</ele><time>2026-05-03T15:02:37Z</time></trkpt><trkpt lat="45.18869427959701" lon="8.583791530695109"><ele>107.0</ele><time>2026-05-03T15:02:38Z</time></trkpt><trkpt lat="45.18877592666355" lon="8.583755941215324"><ele>107.0</ele><time>2026-05-03T15:02:39Z</time></trkpt><trkpt lat="45.18885947323162" lon="8.583711576134618"><ele>107.0</ele><time>2026-05-03T15:02:40Z</time></trkpt><trkpt lat="45.188947736918855" lon="8.583646693440317"><ele>106.99999999999999</ele><time>2026-05-03T15:02:42Z</time></trkpt><trkpt lat="45.18893166978687" lon="8.583541126881713"><ele>107.0</ele><time>2026-05-03T15:02:48Z</time></trkpt><trkpt lat="45.18889927331803" lon="8.583392447644245"><ele>106.33333333333333</ele><time>2026-05-03T15:02:50Z</time></trkpt><trkpt lat="45.188877894039685" lon="8.583305863778667"><ele>105.66666666666666</ele><time>2026-05-03T15:02:51Z</time></trkpt><trkpt lat="45.18884830129169" lon="8.583195243043777"><ele>105.0</ele><time>2026-05-03T15:02:52Z</time></trkpt><trkpt lat="45.18881778567464" lon="8.583081172828921"><ele>104.33333333333334</ele><time>2026-05-03T15:02:53Z</time></trkpt><trkpt lat="45.188776019648145" lon="8.582986093666724"><ele>103.66666666666667</ele><time>2026-05-03T15:02:54Z</time></trkpt><trkpt lat="45.18875211023073" lon="8.582885029002401"><ele>103.0</ele><time>2026-05-03T15:02:55Z</time></trkpt><trkpt lat="45.188727192512104" lon="8.58278893059671"><ele>102.80000000000001</ele><time>2026-05-03T15:02:56Z</time></trkpt><trkpt lat="45.18871789154405" lon="8.582700198241275"><ele>102.6</ele><time>2026-05-03T15:02:57Z</time></trkpt><trkpt lat="45.1886824410592" lon="8.58255897629769"><ele>102.4</ele><time>2026-05-03T15:02:59Z</time></trkpt><trkpt lat="45.18864392745155" lon="8.582438905095369"><ele>102.19999999999999</ele><time>2026-05-03T15:03:01Z</time></trkpt><trkpt lat="45.18864260985908" lon="8.582314122980776"><ele>102.0</ele><time>2026-05-03T15:03:03Z</time></trkpt><trkpt lat="45.18870275090053" lon="8.58217655822492"><ele>102.0</ele><time>2026-05-03T15:03:05Z</time></trkpt><trkpt lat="45.18875883377754" lon="8.582113433356797"><ele>102.0</ele><time>2026-05-03T15:03:06Z</time></trkpt><trkpt lat="45.188825753659806" lon="8.582067134368865"><ele>102.0</ele><time>2026-05-03T15:03:07Z</time></trkpt><trkpt lat="45.18890311964006" lon="8.582025752145702"><ele>102.0</ele><time>2026-05-03T15:03:08Z</time></trkpt><trkpt lat="45.18897645374094" lon="8.581977269080104"><ele>102.0</ele><time>2026-05-03T15:03:09Z</time></trkpt><trkpt lat="45.189058157822785" lon="8.58191363049964"><ele>102.0</ele><time>2026-05-03T15:03:10Z</time></trkpt><trkpt lat="45.18913160900058" lon="8.581825810957602"><ele>101.8</ele><time>2026-05-03T15:03:11Z</time></trkpt><trkpt lat="45.189213585984255" lon="8.581727510231122"><ele>101.6</ele><time>2026-05-03T15:03:12Z</time></trkpt><trkpt lat="45.18929769829055" lon="8.581631657628689"><ele>101.39999999999999</ele><time>2026-05-03T15:03:13Z</time></trkpt><trkpt lat="45.18938551935078" lon="8.581531462892665"><ele>101.19999999999999</ele><time>2026-05-03T15:03:14Z</time></trkpt><trkpt lat="45.18947366664526" lon="8.581436545873874"><ele>101.0</ele><time>2026-05-03T15:03:15Z</time></trkpt><trkpt lat="45.189565581409475" lon="8.581347072509244"><ele>100.99999999999999</ele><time>2026-05-03T15:03:16Z</time></trkpt><trkpt lat="45.18964859836136" lon="8.581261146584154"><ele>101.0</ele><time>2026-05-03T15:03:17Z</time></trkpt><trkpt lat="45.18972343938021" lon="8.581176259770675"><ele>101.0</ele><time>2026-05-03T15:03:18Z</time></trkpt><trkpt lat="45.18979197216266" lon="8.58108867593878"><ele>101.0</ele><time>2026-05-03T15:03:19Z</time></trkpt><trkpt lat="45.18984475572175" lon="8.581006291888313"><ele>100.99999999999999</ele><time>2026-05-03T15:03:20Z</time></trkpt><trkpt lat="45.18988510673983" lon="8.58093590362665"><ele>101.0</ele><time>2026-05-03T15:03:21Z</time></trkpt><trkpt lat="45.18996787572542" lon="8.580795077143016"><ele>101.33333333333333</ele><time>2026-05-03T15:03:23Z</time></trkpt><trkpt lat="45.19000722462667" lon="8.580718045343165"><ele>101.66666666666666</ele><time>2026-05-03T15:03:24Z</time></trkpt><trkpt lat="45.19007026969162" lon="8.580572550371608"><ele>102.0</ele><time>2026-05-03T15:03:26Z</time></trkpt><trkpt lat="45.19014070125163" lon="8.580457031161293"><ele>102.33333333333334</ele><time>2026-05-03T15:03:28Z</time></trkpt><trkpt lat="45.19017725664546" lon="8.580382395920477"><ele>102.66666666666667</ele><time>2026-05-03T15:03:29Z</time></trkpt><trkpt lat="45.19021818898231" lon="8.580309195966798"><ele>103.0</ele><time>2026-05-03T15:03:30Z</time></trkpt><trkpt lat="45.19028481847505" lon="8.580171498473982"><ele>103.0</ele><time>2026-05-03T15:03:32Z</time></trkpt><trkpt lat="45.19034231818731" lon="8.580067131587136"><ele>103.0</ele><time>2026-05-03T15:03:34Z</time></trkpt><trkpt lat="45.190406128956035" lon="8.579927577135953"><ele>103.0</ele><time>2026-05-03T15:03:36Z</time></trkpt><trkpt lat="45.19043196796597" lon="8.579838649472041"><ele>103.0</ele><time>2026-05-03T15:03:37Z</time></trkpt><trkpt lat="45.1904516965162" lon="8.579750014269733"><ele>103.0</ele><time>2026-05-03T15:03:38Z</time></trkpt><trkpt lat="45.19043851000039" lon="8.579569225238147"><ele>102.83333333333334</ele><time>2026-05-03T15:03:40Z</time></trkpt><trkpt lat="45.19040826144469" lon="8.579490521949658"><ele>102.66666666666667</ele><time>2026-05-03T15:03:41Z</time></trkpt><trkpt lat="45.1903519324757" lon="8.579386412628681"><ele>102.5</ele><time>2026-05-03T15:03:42Z</time></trkpt><trkpt lat="45.19029007137423" lon="8.579287622688554"><ele>102.33333333333334</ele><time>2026-05-03T15:03:43Z</time></trkpt><trkpt lat="45.190236815231636" lon="8.579206802448866"><ele>102.16666666666667</ele><time>2026-05-03T15:03:44Z</time></trkpt><trkpt lat="45.19018974793632" lon="8.579121394064169"><ele>102.0</ele><time>2026-05-03T15:03:45Z</time></trkpt><trkpt lat="45.19014464898985" lon="8.579043673206375"><ele>102.0</ele><time>2026-05-03T15:03:46Z</time></trkpt><trkpt lat="45.19010078463837" lon="8.578963637127279"><ele>102.0</ele><time>2026-05-03T15:03:47Z</time></trkpt><trkpt lat="45.19004158188004" lon="8.578892131579979"><ele>102.0</ele><time>2026-05-03T15:03:48Z</time></trkpt><trkpt lat="45.18998165327329" lon="8.57882820471751"><ele>102.0</ele><time>2026-05-03T15:03:49Z</time></trkpt><trkpt lat="45.189936277560925" lon="8.578764752992845"><ele>102.0</ele><time>2026-05-03T15:03:50Z</time></trkpt><trkpt lat="45.18989338318827" lon="8.57868016177262"><ele>102.0</ele><time>2026-05-03T15:03:51Z</time></trkpt><trkpt lat="45.18987777777586" lon="8.578569241050404"><ele>102.0</ele><time>2026-05-03T15:03:52Z</time></trkpt><trkpt lat="45.189857589318734" lon="8.578448539066795"><ele>101.8</ele><time>2026-05-03T15:03:53Z</time></trkpt><trkpt lat="45.189836006499554" lon="8.578310122845735"><ele>101.6</ele><time>2026-05-03T15:03:54Z</time></trkpt><trkpt lat="45.18980276527332" lon="8.578159363684666"><ele>101.39999999999999</ele><time>2026-05-03T15:03:55Z</time></trkpt><trkpt lat="45.189777376818874" lon="8.577992309667847"><ele>101.19999999999999</ele><time>2026-05-03T15:03:56Z</time></trkpt><trkpt lat="45.18975084628867" lon="8.577833224475448"><ele>101.0</ele><time>2026-05-03T15:03:57Z</time></trkpt><trkpt lat="45.189730542716106" lon="8.577697218423774"><ele>100.99999999999999</ele><time>2026-05-03T15:03:58Z</time></trkpt><trkpt lat="45.189713109883954" lon="8.57758543493598"><ele>101.0</ele><time>2026-05-03T15:03:59Z</time></trkpt><trkpt lat="45.18969583187609" lon="8.577473883058133"><ele>101.0</ele><time>2026-05-03T15:04:00Z</time></trkpt><trkpt lat="45.189692324243836" lon="8.577373159885537"><ele>101.0</ele><time>2026-05-03T15:04:02Z</time></trkpt><trkpt lat="45.18956286930154" lon="8.577386901387957"><ele>100.99999999999999</ele><time>2026-05-03T15:04:07Z</time></trkpt><trkpt lat="45.18949152889863" lon="8.577368474274833"><ele>101.0</ele><time>2026-05-03T15:04:08Z</time></trkpt><trkpt lat="45.18940169824347" lon="8.577335365920039"><ele>100.99999999999999</ele><time>2026-05-03T15:04:09Z</time></trkpt><trkpt lat="45.18930738020594" lon="8.577302391206802"><ele>101.0</ele><time>2026-05-03T15:04:10Z</time></trkpt><trkpt lat="45.18921453870782" lon="8.577269381070256"><ele>101.0</ele><time>2026-05-03T15:04:11Z</time></trkpt><trkpt lat="45.18912471163743" lon="8.577230096851407"><ele>101.0</ele><time>2026-05-03T15:04:12Z</time></trkpt><trkpt lat="45.1890467027868" lon="8.577196981983867"><ele>100.99999999999999</ele><time>2026-05-03T15:04:13Z</time></trkpt><trkpt lat="45.188978962383" lon="8.577173393747648"><ele>101.0</ele><time>2026-05-03T15:04:14Z</time></trkpt><trkpt lat="45.18891367690964" lon="8.57714836149828"><ele>100.83333333333333</ele><time>2026-05-03T15:04:15Z</time></trkpt><trkpt lat="45.188849267288624" lon="8.577122277822603"><ele>100.66666666666666</ele><time>2026-05-03T15:04:16Z</time></trkpt><trkpt lat="45.18877431707022" lon="8.57709555518452"><ele>100.5</ele><time>2026-05-03T15:04:17Z</time></trkpt><trkpt lat="45.18869766093674" lon="8.57706740967674"><ele>100.33333333333334</ele><time>2026-05-03T15:04:18Z</time></trkpt><trkpt lat="45.18861692890658" lon="8.577043097399411"><ele>100.16666666666667</ele><time>2026-05-03T15:04:19Z</time></trkpt><trkpt lat="45.18854196819395" lon="8.577016669565591"><ele>100.0</ele><time>2026-05-03T15:04:20Z</time></trkpt><trkpt lat="45.188467943092085" lon="8.576994138517874"><ele>100.00000000000001</ele><time>2026-05-03T15:04:21Z</time></trkpt><trkpt lat="45.18839753887357" lon="8.576983165852672"><ele>100.0</ele><time>2026-05-03T15:04:22Z</time></trkpt><trkpt lat="45.18832147763223" lon="8.57697212173329"><ele>100.0</ele><time>2026-05-03T15:04:23Z</time></trkpt><trkpt lat="45.18823053613005" lon="8.576949868442588"><ele>100.0</ele><time>2026-05-03T15:04:24Z</time></trkpt><trkpt lat="45.18814886650942" lon="8.576919670427426"><ele>100.00000000000001</ele><time>2026-05-03T15:04:25Z</time></trkpt><trkpt lat="45.18806746037131" lon="8.576892464050019"><ele>100.0</ele><time>2026-05-03T15:04:26Z</time></trkpt><trkpt lat="45.187981645502504" lon="8.576859338293525"><ele>100.0</ele><time>2026-05-03T15:04:27Z</time></trkpt><trkpt lat="45.187889375309986" lon="8.576811194452304"><ele>100.0</ele><time>2026-05-03T15:04:28Z</time></trkpt><trkpt lat="45.18779394658757" lon="8.576753592182703"><ele>100.0</ele><time>2026-05-03T15:04:29Z</time></trkpt><trkpt lat="45.18769723109205" lon="8.57669128989593"><ele>100.0</ele><time>2026-05-03T15:04:30Z</time></trkpt><trkpt lat="45.18760141632232" lon="8.576623119333378"><ele>100.0</ele><time>2026-05-03T15:04:31Z</time></trkpt><trkpt lat="45.18750558449717" lon="8.576557614967202"><ele>100.0</ele><time>2026-05-03T15:04:32Z</time></trkpt><trkpt lat="45.187408945718" lon="8.576493028807198"><ele>100.0</ele><time>2026-05-03T15:04:33Z</time></trkpt><trkpt lat="45.18731166286955" lon="8.576418206502106"><ele>100.0</ele><time>2026-05-03T15:04:34Z</time></trkpt><trkpt lat="45.187218087367725" lon="8.576342664629998"><ele>100.0</ele><time>2026-05-03T15:04:35Z</time></trkpt><trkpt lat="45.18712376145696" lon="8.57626868969276"><ele>100.0</ele><time>2026-05-03T15:04:36Z</time></trkpt><trkpt lat="45.18702914648867" lon="8.576201032978643"><ele>100.0</ele><time>2026-05-03T15:04:37Z</time></trkpt><trkpt lat="45.186927083632504" lon="8.576148865560247"><ele>100.0</ele><time>2026-05-03T15:04:38Z</time></trkpt><trkpt lat="45.18683428880688" lon="8.576098517702608"><ele>100.0</ele><time>2026-05-03T15:04:39Z</time></trkpt><trkpt lat="45.186750772984354" lon="8.576042469478919"><ele>100.0</ele><time>2026-05-03T15:04:40Z</time></trkpt><trkpt lat="45.18666416990884" lon="8.575974103552587"><ele>100.0</ele><time>2026-05-03T15:04:41Z</time></trkpt><trkpt lat="45.1865833143387" lon="8.575917738186183"><ele>100.0</ele><time>2026-05-03T15:04:42Z</time></trkpt><trkpt lat="45.186498353432" lon="8.57586367026386"><ele>100.0</ele><time>2026-05-03T15:04:43Z</time></trkpt><trkpt lat="45.18640782584281" lon="8.57581586117513"><ele>100.0</ele><time>2026-05-03T15:04:44Z</time></trkpt><trkpt lat="45.18632176724224" lon="8.575776834394363"><ele>100.0</ele><time>2026-05-03T15:04:45Z</time></trkpt><trkpt lat="45.186231668145446" lon="8.575748285232994"><ele>100.0</ele><time>2026-05-03T15:04:46Z</time></trkpt><trkpt lat="45.1861350981992" lon="8.575710478888777"><ele>100.0</ele><time>2026-05-03T15:04:47Z</time></trkpt><trkpt lat="45.186031740089874" lon="8.575660964847657"><ele>100.0</ele><time>2026-05-03T15:04:48Z</time></trkpt><trkpt lat="45.18593588114315" lon="8.57561809957547"><ele>100.0</ele><time>2026-05-03T15:04:49Z</time></trkpt><trkpt lat="45.18584456579947" lon="8.575577610550681"><ele>100.0</ele><time>2026-05-03T15:04:50Z</time></trkpt><trkpt lat="45.185767881692904" lon="8.575549511333602"><ele>100.0</ele><time>2026-05-03T15:04:51Z</time></trkpt><trkpt lat="45.185691070006676" lon="8.57551915501168"><ele>100.0</ele><time>2026-05-03T15:04:52Z</time></trkpt><trkpt lat="45.18559467258373" lon="8.575475235828364"><ele>100.0</ele><time>2026-05-03T15:04:53Z</time></trkpt><trkpt lat="45.185489973548854" lon="8.575429276638761"><ele>100.0</ele><time>2026-05-03T15:04:54Z</time></trkpt><trkpt lat="45.18540368072499" lon="8.575386051424475"><ele>100.0</ele><time>2026-05-03T15:04:55Z</time></trkpt><trkpt lat="45.18532293498793" lon="8.575346026734671"><ele>100.0</ele><time>2026-05-03T15:04:56Z</time></trkpt><trkpt lat="45.18523165395865" lon="8.575313686602268"><ele>99.83333333333334</ele><time>2026-05-03T15:04:57Z</time></trkpt><trkpt lat="45.185136890762024" lon="8.575271181059327"><ele>99.66666666666667</ele><time>2026-05-03T15:04:58Z</time></trkpt><trkpt lat="45.18505899785546" lon="8.575225420645527"><ele>99.5</ele><time>2026-05-03T15:04:59Z</time></trkpt><trkpt lat="45.18498107250904" lon="8.575170905104946"><ele>99.33333333333334</ele><time>2026-05-03T15:05:00Z</time></trkpt><trkpt lat="45.184902775766496" lon="8.575111803007516"><ele>99.16666666666667</ele><time>2026-05-03T15:05:01Z</time></trkpt><trkpt lat="45.184841304293684" lon="8.575058025277793"><ele>99.0</ele><time>2026-05-03T15:05:02Z</time></trkpt><trkpt lat="45.18474520911064" lon="8.574957505306928"><ele>99.4</ele><time>2026-05-03T15:05:04Z</time></trkpt><trkpt lat="45.184644123328404" lon="8.574881977277734"><ele>99.80000000000001</ele><time>2026-05-03T15:05:06Z</time></trkpt><trkpt lat="45.18451903814806" lon="8.574873944016506"><ele>100.19999999999999</ele><time>2026-05-03T15:05:08Z</time></trkpt><trkpt lat="45.184437131498306" lon="8.57486391192113"><ele>100.6</ele><time>2026-05-03T15:05:09Z</time></trkpt><trkpt lat="45.18434518992327" lon="8.574843747597567"><ele>101.0</ele><time>2026-05-03T15:05:10Z</time></trkpt><trkpt lat="45.18425298832144" lon="8.574817233025191"><ele>101.0</ele><time>2026-05-03T15:05:11Z</time></trkpt><trkpt lat="45.184160420357635" lon="8.574781022067983"><ele>101.0</ele><time>2026-05-03T15:05:12Z</time></trkpt><trkpt lat="45.18405618691645" lon="8.574740136998837"><ele>101.0</ele><time>2026-05-03T15:05:13Z</time></trkpt><trkpt lat="45.183956317722135" lon="8.574703044967647"><ele>101.0</ele><time>2026-05-03T15:05:14Z</time></trkpt><trkpt lat="45.18385730630411" lon="8.574673698072761"><ele>101.0</ele><time>2026-05-03T15:05:15Z</time></trkpt><trkpt lat="45.183772020991974" lon="8.574658266432941"><ele>101.16666666666666</ele><time>2026-05-03T15:05:16Z</time></trkpt><trkpt lat="45.18369558388289" lon="8.574640608333583"><ele>101.33333333333333</ele><time>2026-05-03T15:05:17Z</time></trkpt><trkpt lat="45.18360599244783" lon="8.574614513494442"><ele>101.5</ele><time>2026-05-03T15:05:18Z</time></trkpt><trkpt lat="45.18350862576337" lon="8.57458276403497"><ele>101.66666666666666</ele><time>2026-05-03T15:05:19Z</time></trkpt><trkpt lat="45.18342428466332" lon="8.574555274804027"><ele>101.83333333333333</ele><time>2026-05-03T15:05:20Z</time></trkpt><trkpt lat="45.183340914845445" lon="8.574529393259137"><ele>102.0</ele><time>2026-05-03T15:05:21Z</time></trkpt><trkpt lat="45.18324252679205" lon="8.57450624477509"><ele>101.66666666666667</ele><time>2026-05-03T15:05:22Z</time></trkpt><trkpt lat="45.183150460800796" lon="8.5744803069642"><ele>101.33333333333334</ele><time>2026-05-03T15:05:23Z</time></trkpt><trkpt lat="45.18307396450022" lon="8.574463551226973"><ele>101.0</ele><time>2026-05-03T15:05:24Z</time></trkpt><trkpt lat="45.182965079318585" lon="8.57440073961305"><ele>100.66666666666667</ele><time>2026-05-03T15:05:26Z</time></trkpt><trkpt lat="45.18291070175355" lon="8.57433995150995"><ele>100.33333333333334</ele><time>2026-05-03T15:05:27Z</time></trkpt><trkpt lat="45.18285000465605" lon="8.574261474343528"><ele>100.0</ele><time>2026-05-03T15:05:28Z</time></trkpt><trkpt lat="45.18276625947533" lon="8.574166369267706"><ele>100.0</ele><time>2026-05-03T15:05:29Z</time></trkpt><trkpt lat="45.1826730451764" lon="8.574075347144106"><ele>100.0</ele><time>2026-05-03T15:05:30Z</time></trkpt><trkpt lat="45.182558104984864" lon="8.5739666667319"><ele>100.0</ele><time>2026-05-03T15:05:31Z</time></trkpt><trkpt lat="45.182452607437114" lon="8.573869529898401"><ele>100.0</ele><time>2026-05-03T15:05:32Z</time></trkpt><trkpt lat="45.18236502523412" lon="8.573792305570219"><ele>100.0</ele><time>2026-05-03T15:05:33Z</time></trkpt><trkpt lat="45.182292839387216" lon="8.57372259758078"><ele>100.0</ele><time>2026-05-03T15:05:34Z</time></trkpt><trkpt lat="45.18222356835881" lon="8.573641899966871"><ele>100.0</ele><time>2026-05-03T15:05:35Z</time></trkpt><trkpt lat="45.18215673023816" lon="8.57355073748318"><ele>100.0</ele><time>2026-05-03T15:05:36Z</time></trkpt><trkpt lat="45.18210199774379" lon="8.573451357228102"><ele>100.0</ele><time>2026-05-03T15:05:37Z</time></trkpt><trkpt lat="45.18205327140871" lon="8.57333450127438"><ele>100.00000000000001</ele><time>2026-05-03T15:05:38Z</time></trkpt><trkpt lat="45.18201770386356" lon="8.573213093229578"><ele>100.0</ele><time>2026-05-03T15:05:39Z</time></trkpt><trkpt lat="45.18199027968358" lon="8.573093277182343"><ele>100.0</ele><time>2026-05-03T15:05:40Z</time></trkpt><trkpt lat="45.18197650095207" lon="8.572975351521183"><ele>100.0</ele><time>2026-05-03T15:05:41Z</time></trkpt><trkpt lat="45.18197481725414" lon="8.572855810596543"><ele>100.00000000000001</ele><time>2026-05-03T15:05:42Z</time></trkpt><trkpt lat="45.18197489510169" lon="8.57271847124083"><ele>100.0</ele><time>2026-05-03T15:05:43Z</time></trkpt><trkpt lat="45.18197834228364" lon="8.572569748751798"><ele>100.0</ele><time>2026-05-03T15:05:44Z</time></trkpt><trkpt lat="45.18197973748598" lon="8.572422020101065"><ele>100.0</ele><time>2026-05-03T15:05:45Z</time></trkpt><trkpt lat="45.181976520063074" lon="8.57228043421145"><ele>100.0</ele><time>2026-05-03T15:05:46Z</time></trkpt><trkpt lat="45.18195449867045" lon="8.572133049231084"><ele>100.0</ele><time>2026-05-03T15:05:47Z</time></trkpt><trkpt lat="45.181924126334714" lon="8.571991037523532"><ele>100.0</ele><time>2026-05-03T15:05:48Z</time></trkpt><trkpt lat="45.18189101061062" lon="8.571859008540207"><ele>99.8</ele><time>2026-05-03T15:05:49Z</time></trkpt><trkpt lat="45.181859691645656" lon="8.571732560222635"><ele>99.6</ele><time>2026-05-03T15:05:50Z</time></trkpt><trkpt lat="45.18182847008152" lon="8.57160665856767"><ele>99.4</ele><time>2026-05-03T15:05:51Z</time></trkpt><trkpt lat="45.18179149017962" lon="8.571486440326739"><ele>99.2</ele><time>2026-05-03T15:05:52Z</time></trkpt><trkpt lat="45.18174795787511" lon="8.571362331680355"><ele>99.0</ele><time>2026-05-03T15:05:53Z</time></trkpt><trkpt lat="45.181702332961116" lon="8.57125454342986"><ele>99.33333333333333</ele><time>2026-05-03T15:05:54Z</time></trkpt><trkpt lat="45.1816624913274" lon="8.57117150295956"><ele>99.66666666666666</ele><time>2026-05-03T15:05:55Z</time></trkpt><trkpt lat="45.18162423247629" lon="8.571096383886363"><ele>100.0</ele><time>2026-05-03T15:05:56Z</time></trkpt><trkpt lat="45.181556091180504" lon="8.570975671534775"><ele>100.33333333333333</ele><time>2026-05-03T15:05:58Z</time></trkpt><trkpt lat="45.18150089595499" lon="8.570886975417622"><ele>100.66666666666666</ele><time>2026-05-03T15:06:00Z</time></trkpt><trkpt lat="45.181451442882846" lon="8.570797483265721"><ele>101.0</ele><time>2026-05-03T15:06:04Z</time></trkpt><trkpt lat="45.18105881638542" lon="8.570417246542107"><ele>101.16666666666666</ele><time>2026-05-03T15:06:06Z</time></trkpt><trkpt lat="45.1809745734433" lon="8.570464403522573"><ele>101.33333333333333</ele><time>2026-05-03T15:06:07Z</time></trkpt><trkpt lat="45.18089917403107" lon="8.570500466504186"><ele>101.5</ele><time>2026-05-03T15:06:08Z</time></trkpt><trkpt lat="45.18082238936595" lon="8.570530393649705"><ele>101.66666666666666</ele><time>2026-05-03T15:06:09Z</time></trkpt><trkpt lat="45.180733344331564" lon="8.570562591484748"><ele>101.83333333333333</ele><time>2026-05-03T15:06:10Z</time></trkpt><trkpt lat="45.18065227364781" lon="8.570591906318803"><ele>102.0</ele><time>2026-05-03T15:06:11Z</time></trkpt><trkpt lat="45.18057042211748" lon="8.570621503545635"><ele>101.33333333333334</ele><time>2026-05-03T15:06:12Z</time></trkpt><trkpt lat="45.18049259752271" lon="8.570649644646146"><ele>100.66666666666667</ele><time>2026-05-03T15:06:13Z</time></trkpt><trkpt lat="45.18042258898293" lon="8.57067495948777"><ele>100.0</ele><time>2026-05-03T15:06:14Z</time></trkpt><trkpt lat="45.18049392113094" lon="8.571401700503921"><ele>99.8</ele><time>2026-05-03T15:06:15Z</time></trkpt><trkpt lat="45.18039963929497" lon="8.571461898620255"><ele>99.6</ele><time>2026-05-03T15:06:17Z</time></trkpt><trkpt lat="45.18030972913757" lon="8.571484322537339"><ele>99.4</ele><time>2026-05-03T15:06:19Z</time></trkpt><trkpt lat="45.18023199720957" lon="8.57155702502021"><ele>99.2</ele><time>2026-05-03T15:06:21Z</time></trkpt><trkpt lat="45.18015622501133" lon="8.571602470912385"><ele>99.0</ele><time>2026-05-03T15:06:23Z</time></trkpt><trkpt lat="45.18007198498707" lon="8.571662001659075"><ele>99.0</ele><time>2026-05-03T15:06:25Z</time></trkpt><trkpt lat="45.18000773522099" lon="8.571706927767384"><ele>99.0</ele><time>2026-05-03T15:06:26Z</time></trkpt><trkpt lat="45.17993576997841" lon="8.571768305206023"><ele>99.0</ele><time>2026-05-03T15:06:27Z</time></trkpt><trkpt lat="45.1798520692581" lon="8.571799110417253"><ele>99.0</ele><time>2026-05-03T15:06:28Z</time></trkpt><trkpt lat="45.179763680632306" lon="8.571851344289511"><ele>99.0</ele><time>2026-05-03T15:06:30Z</time></trkpt><trkpt lat="45.17969014948661" lon="8.571891108872359"><ele>99.0</ele><time>2026-05-03T15:06:32Z</time></trkpt><trkpt lat="45.179627926796144" lon="8.57193098580075"><ele>99.25</ele><time>2026-05-03T15:06:34Z</time></trkpt><trkpt lat="45.17959286475292" lon="8.571570935802557"><ele>99.5</ele><time>2026-05-03T15:06:39Z</time></trkpt><trkpt lat="45.17959243557843" lon="8.571445826651424"><ele>99.75</ele><time>2026-05-03T15:06:40Z</time></trkpt><trkpt lat="45.17959332148685" lon="8.571308429994973"><ele>100.0</ele><time>2026-05-03T15:06:41Z</time></trkpt><trkpt lat="45.17959252778615" lon="8.571152530622006"><ele>100.25</ele><time>2026-05-03T15:06:42Z</time></trkpt><trkpt lat="45.179588859832315" lon="8.570991401133943"><ele>100.5</ele><time>2026-05-03T15:06:43Z</time></trkpt><trkpt lat="45.179585163781894" lon="8.570827666048286"><ele>100.75</ele><time>2026-05-03T15:06:44Z</time></trkpt><trkpt lat="45.17958273779018" lon="8.570653580947113"><ele>101.0</ele><time>2026-05-03T15:06:45Z</time></trkpt><trkpt lat="45.179579572097566" lon="8.570463997425138"><ele>100.33333333333333</ele><time>2026-05-03T15:06:46Z</time></trkpt><trkpt lat="45.179570124384604" lon="8.570248022056633"><ele>99.66666666666666</ele><time>2026-05-03T15:06:47Z</time></trkpt><trkpt lat="45.179566387665574" lon="8.570036794105743"><ele>99.0</ele><time>2026-05-03T15:06:48Z</time></trkpt><trkpt lat="45.17956519977003" lon="8.569794299246578"><ele>99.0</ele><time>2026-05-03T15:06:49Z</time></trkpt><trkpt lat="45.179561557047755" lon="8.569532547178662"><ele>99.0</ele><time>2026-05-03T15:06:50Z</time></trkpt><trkpt lat="45.179556745613446" lon="8.569293905162354"><ele>99.0</ele><time>2026-05-03T15:06:51Z</time></trkpt><trkpt lat="45.179552639448154" lon="8.569087737949616"><ele>99.5</ele><time>2026-05-03T15:06:52Z</time></trkpt><trkpt lat="45.1795486659892" lon="8.568882227484092"><ele>100.0</ele><time>2026-05-03T15:06:53Z</time></trkpt><trkpt lat="45.179545985877965" lon="8.56867634161919"><ele>100.5</ele><time>2026-05-03T15:06:54Z</time></trkpt><trkpt lat="45.17954168147559" lon="8.568471304498713"><ele>101.0</ele><time>2026-05-03T15:06:55Z</time></trkpt><trkpt lat="45.179535794991516" lon="8.568229190965193"><ele>101.0</ele><time>2026-05-03T15:06:56Z</time></trkpt><trkpt lat="45.17953088952246" lon="8.56799792681397"><ele>101.0</ele><time>2026-05-03T15:06:57Z</time></trkpt><trkpt lat="45.17952726002856" lon="8.567797030602211"><ele>101.0</ele><time>2026-05-03T15:06:58Z</time></trkpt><trkpt lat="45.17952481070821" lon="8.567616569844022"><ele>101.0</ele><time>2026-05-03T15:06:59Z</time></trkpt><trkpt lat="45.179518803829176" lon="8.567438597510954"><ele>101.0</ele><time>2026-05-03T15:07:00Z</time></trkpt><trkpt lat="45.17951566002813" lon="8.567248617740326"><ele>101.0</ele><time>2026-05-03T15:07:01Z</time></trkpt><trkpt lat="45.1795140721397" lon="8.5670577429271"><ele>101.0</ele><time>2026-05-03T15:07:02Z</time></trkpt><trkpt lat="45.179514158198515" lon="8.566868543295412"><ele>101.0</ele><time>2026-05-03T15:07:03Z</time></trkpt><trkpt lat="45.1795098720479" lon="8.56668304083327"><ele>101.0</ele><time>2026-05-03T15:07:04Z</time></trkpt><trkpt lat="45.179508942283746" lon="8.566516517957515"><ele>101.0</ele><time>2026-05-03T15:07:05Z</time></trkpt><trkpt lat="45.17950854475581" lon="8.566364007604399"><ele>101.0</ele><time>2026-05-03T15:07:06Z</time></trkpt><trkpt lat="45.17950601871005" lon="8.566223283925167"><ele>101.0</ele><time>2026-05-03T15:07:07Z</time></trkpt><trkpt lat="45.17950562302135" lon="8.566085787745262"><ele>101.0</ele><time>2026-05-03T15:07:08Z</time></trkpt><trkpt lat="45.17950466466234" lon="8.56594124234596"><ele>101.19999999999999</ele><time>2026-05-03T15:07:09Z</time></trkpt><trkpt lat="45.17950298136527" lon="8.565798304557612"><ele>101.39999999999999</ele><time>2026-05-03T15:07:10Z</time></trkpt><trkpt lat="45.179500866943926" lon="8.56566116215083"><ele>101.6</ele><time>2026-05-03T15:07:11Z</time></trkpt><trkpt lat="45.179498356094726" lon="8.565538042483103"><ele>101.8</ele><time>2026-05-03T15:07:12Z</time></trkpt><trkpt lat="45.1794963091674" lon="8.565406893003894"><ele>102.0</ele><time>2026-05-03T15:07:13Z</time></trkpt><trkpt lat="45.179493962071305" lon="8.565286851488151"><ele>102.39999999999999</ele><time>2026-05-03T15:07:14Z</time></trkpt><trkpt lat="45.1794959867484" lon="8.565174410152814"><ele>102.8</ele><time>2026-05-03T15:07:15Z</time></trkpt><trkpt lat="45.17949590224116" lon="8.565046019303356"><ele>103.2</ele><time>2026-05-03T15:07:16Z</time></trkpt><trkpt lat="45.17949297013808" lon="8.56490680486136"><ele>103.6</ele><time>2026-05-03T15:07:17Z</time></trkpt><trkpt lat="45.17948937305708" lon="8.56476288889212"><ele>104.0</ele><time>2026-05-03T15:07:18Z</time></trkpt><trkpt lat="45.17948569877049" lon="8.56462040176715"><ele>103.6</ele><time>2026-05-03T15:07:19Z</time></trkpt><trkpt lat="45.179483939110874" lon="8.564466097198721"><ele>103.2</ele><time>2026-05-03T15:07:20Z</time></trkpt><trkpt lat="45.17948037266087" lon="8.564312931507093"><ele>102.8</ele><time>2026-05-03T15:07:21Z</time></trkpt><trkpt lat="45.17947257748625" lon="8.564180460785968"><ele>102.39999999999999</ele><time>2026-05-03T15:07:22Z</time></trkpt><trkpt lat="45.17946599619148" lon="8.564045665888438"><ele>102.0</ele><time>2026-05-03T15:07:23Z</time></trkpt><trkpt lat="45.17946597588653" lon="8.563903582177643"><ele>102.0</ele><time>2026-05-03T15:07:24Z</time></trkpt><trkpt lat="45.17946876528425" lon="8.563772180041502"><ele>102.0</ele><time>2026-05-03T15:07:25Z</time></trkpt><trkpt lat="45.17947022327359" lon="8.56363767680396"><ele>102.0</ele><time>2026-05-03T15:07:26Z</time></trkpt><trkpt lat="45.179469456205716" lon="8.5634893050172"><ele>102.0</ele><time>2026-05-03T15:07:27Z</time></trkpt><trkpt lat="45.179465167622915" lon="8.563334729177877"><ele>102.0</ele><time>2026-05-03T15:07:28Z</time></trkpt><trkpt lat="45.17946131521046" lon="8.563184590788419"><ele>101.8</ele><time>2026-05-03T15:07:29Z</time></trkpt><trkpt lat="45.17945822056065" lon="8.563029091686287"><ele>101.6</ele><time>2026-05-03T15:07:30Z</time></trkpt><trkpt lat="45.17945515672536" lon="8.562873289929803"><ele>101.39999999999999</ele><time>2026-05-03T15:07:31Z</time></trkpt><trkpt lat="45.179454265964864" lon="8.56271238881157"><ele>101.19999999999999</ele><time>2026-05-03T15:07:32Z</time></trkpt><trkpt lat="45.17945332847212" lon="8.562558115890162"><ele>101.0</ele><time>2026-05-03T15:07:33Z</time></trkpt><trkpt lat="45.17945065950791" lon="8.56240798847989"><ele>101.0</ele><time>2026-05-03T15:07:34Z</time></trkpt><trkpt lat="45.17944620529432" lon="8.562253597915753"><ele>101.0</ele><time>2026-05-03T15:07:35Z</time></trkpt><trkpt lat="45.17944429358217" lon="8.562118959013542"><ele>101.0</ele><time>2026-05-03T15:07:36Z</time></trkpt><trkpt lat="45.179438657048564" lon="8.561980915485895"><ele>101.0</ele><time>2026-05-03T15:07:37Z</time></trkpt><trkpt lat="45.17943269600198" lon="8.561823957666967"><ele>101.0</ele><time>2026-05-03T15:07:38Z</time></trkpt><trkpt lat="45.17943113774572" lon="8.56170653411111"><ele>101.0</ele><time>2026-05-03T15:07:39Z</time></trkpt><trkpt lat="45.17942837339437" lon="8.561605876229653"><ele>101.0</ele><time>2026-05-03T15:07:40Z</time></trkpt><trkpt lat="45.179432877034124" lon="8.561457607102454"><ele>101.0</ele><time>2026-05-03T15:07:42Z</time></trkpt><trkpt lat="45.17945315741618" lon="8.561345747855045"><ele>101.0</ele><time>2026-05-03T15:07:44Z</time></trkpt><trkpt lat="45.17944277285888" lon="8.561156035879264"><ele>101.0</ele><time>2026-05-03T15:07:46Z</time></trkpt><trkpt lat="45.179424787157025" lon="8.561048589952163"><ele>101.19999999999999</ele><time>2026-05-03T15:07:47Z</time></trkpt><trkpt lat="45.17940940225134" lon="8.560877292640992"><ele>101.39999999999999</ele><time>2026-05-03T15:07:49Z</time></trkpt><trkpt lat="45.179404031871464" lon="8.560773035138487"><ele>101.6</ele><time>2026-05-03T15:07:50Z</time></trkpt><trkpt lat="45.179403188394915" lon="8.560655205692804"><ele>101.8</ele><time>2026-05-03T15:07:51Z</time></trkpt><trkpt lat="45.1793911904945" lon="8.560517962317126"><ele>102.0</ele><time>2026-05-03T15:07:52Z</time></trkpt><trkpt lat="45.17936107410417" lon="8.560361000604793"><ele>102.0</ele><time>2026-05-03T15:07:53Z</time></trkpt><trkpt lat="45.17934144139421" lon="8.560157173682448"><ele>102.0</ele><time>2026-05-03T15:07:54Z</time></trkpt><trkpt lat="45.17930988984993" lon="8.55992005860782"><ele>102.0</ele><time>2026-05-03T15:07:55Z</time></trkpt><trkpt lat="45.17926039449397" lon="8.559706851816422"><ele>102.0</ele><time>2026-05-03T15:07:56Z</time></trkpt><trkpt lat="45.17922636545647" lon="8.559527429689261"><ele>102.0</ele><time>2026-05-03T15:07:57Z</time></trkpt><trkpt lat="45.17918833054329" lon="8.559395406629326"><ele>102.0</ele><time>2026-05-03T15:07:58Z</time></trkpt><trkpt lat="45.1791460501523" lon="8.559292932324581"><ele>102.0</ele><time>2026-05-03T15:07:59Z</time></trkpt><trkpt lat="45.17908373232711" lon="8.559177782997644"><ele>102.0</ele><time>2026-05-03T15:08:01Z</time></trkpt><trkpt lat="45.17898410351394" lon="8.559186290732995"><ele>102.0</ele><time>2026-05-03T15:08:03Z</time></trkpt><trkpt lat="45.178920896118804" lon="8.55912839853453"><ele>102.0</ele><time>2026-05-03T15:08:04Z</time></trkpt><trkpt lat="45.17883309509554" lon="8.559070560889682"><ele>102.0</ele><time>2026-05-03T15:08:05Z</time></trkpt><trkpt lat="45.17876449634111" lon="8.558924440057314"><ele>102.0</ele><time>2026-05-03T15:08:06Z</time></trkpt><trkpt lat="45.17867860617447" lon="8.558757359850178"><ele>102.0</ele><time>2026-05-03T15:08:07Z</time></trkpt><trkpt lat="45.17857958961054" lon="8.55859822220639"><ele>101.66666666666666</ele><time>2026-05-03T15:08:08Z</time></trkpt><trkpt lat="45.17848851453633" lon="8.558431154789092"><ele>101.33333333333333</ele><time>2026-05-03T15:08:09Z</time></trkpt><trkpt lat="45.17837953918853" lon="8.558286026344108"><ele>101.0</ele><time>2026-05-03T15:08:10Z</time></trkpt><trkpt lat="45.178259143093534" lon="8.558149793399426"><ele>101.33333333333333</ele><time>2026-05-03T15:08:11Z</time></trkpt><trkpt lat="45.178131358324784" lon="8.558009586044083"><ele>101.66666666666666</ele><time>2026-05-03T15:08:12Z</time></trkpt><trkpt lat="45.17801480687909" lon="8.557844899637674"><ele>102.0</ele><time>2026-05-03T15:08:13Z</time></trkpt><trkpt lat="45.177883769208584" lon="8.557692274353586"><ele>102.0</ele><time>2026-05-03T15:08:14Z</time></trkpt><trkpt lat="45.1777606483592" lon="8.557548134447297"><ele>102.0</ele><time>2026-05-03T15:08:15Z</time></trkpt><trkpt lat="45.17763579071138" lon="8.55740046091788"><ele>102.0</ele><time>2026-05-03T15:08:16Z</time></trkpt><trkpt lat="45.17751682953773" lon="8.557259139141188"><ele>102.0</ele><time>2026-05-03T15:08:17Z</time></trkpt><trkpt lat="45.177405637496385" lon="8.557123616711745"><ele>102.0</ele><time>2026-05-03T15:08:18Z</time></trkpt><trkpt lat="45.177305320748665" lon="8.557001349253081"><ele>102.0</ele><time>2026-05-03T15:08:19Z</time></trkpt><trkpt lat="45.17721240298477" lon="8.556888099814469"><ele>102.0</ele><time>2026-05-03T15:08:20Z</time></trkpt><trkpt lat="45.17712506698499" lon="8.556785579696745"><ele>102.0</ele><time>2026-05-03T15:08:21Z</time></trkpt><trkpt lat="45.17704461886989" lon="8.556692267741239"><ele>102.0</ele><time>2026-05-03T15:08:22Z</time></trkpt><trkpt lat="45.17697040693932" lon="8.556607315731075"><ele>102.0</ele><time>2026-05-03T15:08:23Z</time></trkpt><trkpt lat="45.1769031056448" lon="8.5565346982543"><ele>102.0</ele><time>2026-05-03T15:08:24Z</time></trkpt><trkpt lat="45.17684010860725" lon="8.556502966867525"><ele>102.0</ele><time>2026-05-03T15:08:25Z</time></trkpt><trkpt lat="45.17678467938418" lon="8.556447357783387"><ele>102.0</ele><time>2026-05-03T15:08:27Z</time></trkpt><trkpt lat="45.17674204807328" lon="8.556363683288954"><ele>102.0</ele><time>2026-05-03T15:08:30Z</time></trkpt><trkpt lat="45.17677290730511" lon="8.55627953524431"><ele>102.0</ele><time>2026-05-03T15:08:31Z</time></trkpt><trkpt lat="45.17677930134199" lon="8.55615796583109"><ele>102.0</ele><time>2026-05-03T15:08:32Z</time></trkpt><trkpt lat="45.176797081735835" lon="8.556025013660255"><ele>102.0</ele><time>2026-05-03T15:08:33Z</time></trkpt><trkpt lat="45.17681063696824" lon="8.555878951286028"><ele>102.0</ele><time>2026-05-03T15:08:34Z</time></trkpt><trkpt lat="45.1768146027628" lon="8.555721790106192"><ele>102.0</ele><time>2026-05-03T15:08:35Z</time></trkpt><trkpt lat="45.176810861073" lon="8.555545980362714"><ele>102.0</ele><time>2026-05-03T15:08:36Z</time></trkpt><trkpt lat="45.176804118587214" lon="8.55537732972263"><ele>102.0</ele><time>2026-05-03T15:08:37Z</time></trkpt><trkpt lat="45.17679185494054" lon="8.555167882299255"><ele>102.0</ele><time>2026-05-03T15:08:38Z</time></trkpt><trkpt lat="45.17677848877154" lon="8.554983301384782"><ele>102.0</ele><time>2026-05-03T15:08:39Z</time></trkpt><trkpt lat="45.17675781754142" lon="8.554832875405644"><ele>102.0</ele><time>2026-05-03T15:08:40Z</time></trkpt><trkpt lat="45.17674444128983" lon="8.554709652186416"><ele>102.0</ele><time>2026-05-03T15:08:41Z</time></trkpt><trkpt lat="45.176738738224714" lon="8.554609713940845"><ele>102.0</ele><time>2026-05-03T15:08:42Z</time></trkpt><trkpt lat="45.17671120618937" lon="8.554520927461914"><ele>105.0</ele><time>2026-05-03T15:08:43Z</time></trkpt><trkpt lat="45.176684435928095" lon="8.55439444579082"><ele>105.0</ele><time>2026-05-03T15:08:45Z</time></trkpt></trkseg></trk></gpx>